<?xml version="1.0" encoding="UTF-8" standalone="no" ?>
<gpx xmlns="http://www.topografix.com/GPX/1/1" xmlns:xsi="http://www.w3.org/2001/XMLSchema-instance" xsi:schemaLocation="http://www.topografix.com/GPX/1/1 http://www.topografix.com/GPX/1/1/gpx.xsd" version="1.1" creator="VisuGPX - https://www.visugpx.com">
  <metadata>
    <name>vtt curienne de la maison</name>
    <desc><![CDATA[vtt curienne de la maison]]></desc>
  </metadata>
  <trk>
    <name><![CDATA[CURIENNE+COCHE]]></name>
    <trkseg>
      <trkpt lat="45.52349" lon="5.90914">
        <ele>653.83</ele>
        <time>2011-05-22T07:26:05Z</time>
      </trkpt>
      <trkpt lat="45.5235" lon="5.90914">
        <ele>653.35</ele>
        <time>2011-05-22T07:26:06Z</time>
      </trkpt>
      <trkpt lat="45.52352" lon="5.90915">
        <ele>657.68</ele>
        <time>2011-05-22T07:26:10Z</time>
      </trkpt>
      <trkpt lat="45.52351" lon="5.90915">
        <ele>661.04</ele>
        <time>2011-05-22T07:26:12Z</time>
      </trkpt>
      <trkpt lat="45.5235" lon="5.90914">
        <ele>665.37</ele>
        <time>2011-05-22T07:26:15Z</time>
      </trkpt>
      <trkpt lat="45.52349" lon="5.90913">
        <ele>669.7</ele>
        <time>2011-05-22T07:26:18Z</time>
      </trkpt>
      <trkpt lat="45.52348" lon="5.90913">
        <ele>672.58</ele>
        <time>2011-05-22T07:26:21Z</time>
      </trkpt>
      <trkpt lat="45.52348" lon="5.90913">
        <ele>675.46</ele>
        <time>2011-05-22T07:26:23Z</time>
      </trkpt>
      <trkpt lat="45.52348" lon="5.90913">
        <ele>678.83</ele>
        <time>2011-05-22T07:26:26Z</time>
      </trkpt>
      <trkpt lat="45.52352" lon="5.9092">
        <ele>681.71</ele>
        <time>2011-05-22T07:26:30Z</time>
      </trkpt>
      <trkpt lat="45.52376" lon="5.9097">
        <ele>680.75</ele>
        <time>2011-05-22T07:26:41Z</time>
      </trkpt>
      <trkpt lat="45.52378" lon="5.90979">
        <ele>680.75</ele>
        <time>2011-05-22T07:26:43Z</time>
      </trkpt>
      <trkpt lat="45.52381" lon="5.90981">
        <ele>680.27</ele>
        <time>2011-05-22T07:26:44Z</time>
      </trkpt>
      <trkpt lat="45.52384" lon="5.90984">
        <ele>680.27</ele>
        <time>2011-05-22T07:26:45Z</time>
      </trkpt>
      <trkpt lat="45.52392" lon="5.90988">
        <ele>680.75</ele>
        <time>2011-05-22T07:26:47Z</time>
      </trkpt>
      <trkpt lat="45.52412" lon="5.90997">
        <ele>677.87</ele>
        <time>2011-05-22T07:26:51Z</time>
      </trkpt>
      <trkpt lat="45.52421" lon="5.91003">
        <ele>677.87</ele>
        <time>2011-05-22T07:26:53Z</time>
      </trkpt>
      <trkpt lat="45.52443" lon="5.91015">
        <ele>676.42</ele>
        <time>2011-05-22T07:26:58Z</time>
      </trkpt>
      <trkpt lat="45.52448" lon="5.91016">
        <ele>675.46</ele>
        <time>2011-05-22T07:26:59Z</time>
      </trkpt>
      <trkpt lat="45.52454" lon="5.91016">
        <ele>674.5</ele>
        <time>2011-05-22T07:27:00Z</time>
      </trkpt>
      <trkpt lat="45.5246" lon="5.91016">
        <ele>673.06</ele>
        <time>2011-05-22T07:27:01Z</time>
      </trkpt>
      <trkpt lat="45.52466" lon="5.91016">
        <ele>671.62</ele>
        <time>2011-05-22T07:27:02Z</time>
      </trkpt>
      <trkpt lat="45.52485" lon="5.91015">
        <ele>668.73</ele>
        <time>2011-05-22T07:27:05Z</time>
      </trkpt>
      <trkpt lat="45.52507" lon="5.91013">
        <ele>665.37</ele>
        <time>2011-05-22T07:27:09Z</time>
      </trkpt>
      <trkpt lat="45.52509" lon="5.91013">
        <ele>664.89</ele>
        <time>2011-05-22T07:27:10Z</time>
      </trkpt>
      <trkpt lat="45.52517" lon="5.91016">
        <ele>663.45</ele>
        <time>2011-05-22T07:27:11Z</time>
      </trkpt>
      <trkpt lat="45.52521" lon="5.9102">
        <ele>662.49</ele>
        <time>2011-05-22T07:27:12Z</time>
      </trkpt>
      <trkpt lat="45.52524" lon="5.91027">
        <ele>661.04</ele>
        <time>2011-05-22T07:27:13Z</time>
      </trkpt>
      <trkpt lat="45.52525" lon="5.91033">
        <ele>660.56</ele>
        <time>2011-05-22T07:27:14Z</time>
      </trkpt>
      <trkpt lat="45.52528" lon="5.9104">
        <ele>659.6</ele>
        <time>2011-05-22T07:27:15Z</time>
      </trkpt>
      <trkpt lat="45.52531" lon="5.91045">
        <ele>659.12</ele>
        <time>2011-05-22T07:27:16Z</time>
      </trkpt>
      <trkpt lat="45.52533" lon="5.9105">
        <ele>659.6</ele>
        <time>2011-05-22T07:27:17Z</time>
      </trkpt>
      <trkpt lat="45.52548" lon="5.91058">
        <ele>660.08</ele>
        <time>2011-05-22T07:27:23Z</time>
      </trkpt>
      <trkpt lat="45.52552" lon="5.91056">
        <ele>660.08</ele>
        <time>2011-05-22T07:27:24Z</time>
      </trkpt>
      <trkpt lat="45.52578" lon="5.91038">
        <ele>660.56</ele>
        <time>2011-05-22T07:27:29Z</time>
      </trkpt>
      <trkpt lat="45.52583" lon="5.91032">
        <ele>660.56</ele>
        <time>2011-05-22T07:27:30Z</time>
      </trkpt>
      <trkpt lat="45.52593" lon="5.91018">
        <ele>660.08</ele>
        <time>2011-05-22T07:27:32Z</time>
      </trkpt>
      <trkpt lat="45.52598" lon="5.91013">
        <ele>659.6</ele>
        <time>2011-05-22T07:27:33Z</time>
      </trkpt>
      <trkpt lat="45.52605" lon="5.91008">
        <ele>659.6</ele>
        <time>2011-05-22T07:27:34Z</time>
      </trkpt>
      <trkpt lat="45.52612" lon="5.91004">
        <ele>659.12</ele>
        <time>2011-05-22T07:27:35Z</time>
      </trkpt>
      <trkpt lat="45.52619" lon="5.91">
        <ele>658.64</ele>
        <time>2011-05-22T07:27:36Z</time>
      </trkpt>
      <trkpt lat="45.52691" lon="5.90965">
        <ele>654.8</ele>
        <time>2011-05-22T07:27:45Z</time>
      </trkpt>
      <trkpt lat="45.52713" lon="5.90952">
        <ele>650.95</ele>
        <time>2011-05-22T07:27:48Z</time>
      </trkpt>
      <trkpt lat="45.52729" lon="5.9094">
        <ele>649.51</ele>
        <time>2011-05-22T07:27:51Z</time>
      </trkpt>
      <trkpt lat="45.52733" lon="5.9094">
        <ele>649.03</ele>
        <time>2011-05-22T07:27:52Z</time>
      </trkpt>
      <trkpt lat="45.52736" lon="5.90942">
        <ele>648.07</ele>
        <time>2011-05-22T07:27:53Z</time>
      </trkpt>
      <trkpt lat="45.52739" lon="5.90948">
        <ele>647.59</ele>
        <time>2011-05-22T07:27:54Z</time>
      </trkpt>
      <trkpt lat="45.52739" lon="5.90955">
        <ele>646.14</ele>
        <time>2011-05-22T07:27:55Z</time>
      </trkpt>
      <trkpt lat="45.52738" lon="5.90965">
        <ele>645.66</ele>
        <time>2011-05-22T07:27:56Z</time>
      </trkpt>
      <trkpt lat="45.52736" lon="5.90975">
        <ele>644.7</ele>
        <time>2011-05-22T07:27:57Z</time>
      </trkpt>
      <trkpt lat="45.52733" lon="5.91009">
        <ele>640.86</ele>
        <time>2011-05-22T07:28:00Z</time>
      </trkpt>
      <trkpt lat="45.52733" lon="5.91044">
        <ele>637.01</ele>
        <time>2011-05-22T07:28:03Z</time>
      </trkpt>
      <trkpt lat="45.52734" lon="5.91077">
        <ele>633.65</ele>
        <time>2011-05-22T07:28:06Z</time>
      </trkpt>
      <trkpt lat="45.52736" lon="5.91088">
        <ele>633.17</ele>
        <time>2011-05-22T07:28:07Z</time>
      </trkpt>
      <trkpt lat="45.52739" lon="5.91098">
        <ele>632.2</ele>
        <time>2011-05-22T07:28:08Z</time>
      </trkpt>
      <trkpt lat="45.52742" lon="5.91108">
        <ele>631.24</ele>
        <time>2011-05-22T07:28:09Z</time>
      </trkpt>
      <trkpt lat="45.52745" lon="5.91117">
        <ele>630.28</ele>
        <time>2011-05-22T07:28:10Z</time>
      </trkpt>
      <trkpt lat="45.52749" lon="5.91126">
        <ele>629.32</ele>
        <time>2011-05-22T07:28:11Z</time>
      </trkpt>
      <trkpt lat="45.52753" lon="5.91134">
        <ele>628.36</ele>
        <time>2011-05-22T07:28:12Z</time>
      </trkpt>
      <trkpt lat="45.52759" lon="5.9114">
        <ele>626.44</ele>
        <time>2011-05-22T07:28:13Z</time>
      </trkpt>
      <trkpt lat="45.52766" lon="5.91146">
        <ele>625.47</ele>
        <time>2011-05-22T07:28:14Z</time>
      </trkpt>
      <trkpt lat="45.52773" lon="5.9115">
        <ele>624.51</ele>
        <time>2011-05-22T07:28:15Z</time>
      </trkpt>
      <trkpt lat="45.52782" lon="5.91153">
        <ele>623.07</ele>
        <time>2011-05-22T07:28:16Z</time>
      </trkpt>
      <trkpt lat="45.52791" lon="5.91155">
        <ele>621.63</ele>
        <time>2011-05-22T07:28:17Z</time>
      </trkpt>
      <trkpt lat="45.52818" lon="5.91162">
        <ele>617.78</ele>
        <time>2011-05-22T07:28:20Z</time>
      </trkpt>
      <trkpt lat="45.52836" lon="5.9117">
        <ele>614.42</ele>
        <time>2011-05-22T07:28:22Z</time>
      </trkpt>
      <trkpt lat="45.52857" lon="5.91178">
        <ele>610.57</ele>
        <time>2011-05-22T07:28:24Z</time>
      </trkpt>
      <trkpt lat="45.5289" lon="5.91188">
        <ele>606.25</ele>
        <time>2011-05-22T07:28:27Z</time>
      </trkpt>
      <trkpt lat="45.52913" lon="5.91194">
        <ele>602.88</ele>
        <time>2011-05-22T07:28:29Z</time>
      </trkpt>
      <trkpt lat="45.52948" lon="5.91203">
        <ele>599.52</ele>
        <time>2011-05-22T07:28:32Z</time>
      </trkpt>
      <trkpt lat="45.52988" lon="5.91209">
        <ele>595.67</ele>
        <time>2011-05-22T07:28:36Z</time>
      </trkpt>
      <trkpt lat="45.5302" lon="5.9122">
        <ele>591.83</ele>
        <time>2011-05-22T07:28:40Z</time>
      </trkpt>
      <trkpt lat="45.53041" lon="5.91233">
        <ele>588.46</ele>
        <time>2011-05-22T07:28:43Z</time>
      </trkpt>
      <trkpt lat="45.53051" lon="5.91241">
        <ele>587.02</ele>
        <time>2011-05-22T07:28:45Z</time>
      </trkpt>
      <trkpt lat="45.53054" lon="5.91245">
        <ele>586.06</ele>
        <time>2011-05-22T07:28:46Z</time>
      </trkpt>
      <trkpt lat="45.53057" lon="5.91249">
        <ele>586.54</ele>
        <time>2011-05-22T07:28:47Z</time>
      </trkpt>
      <trkpt lat="45.53059" lon="5.91254">
        <ele>585.58</ele>
        <time>2011-05-22T07:28:48Z</time>
      </trkpt>
      <trkpt lat="45.53062" lon="5.91257">
        <ele>585.1</ele>
        <time>2011-05-22T07:28:49Z</time>
      </trkpt>
      <trkpt lat="45.53066" lon="5.91261">
        <ele>584.62</ele>
        <time>2011-05-22T07:28:50Z</time>
      </trkpt>
      <trkpt lat="45.53071" lon="5.91264">
        <ele>584.62</ele>
        <time>2011-05-22T07:28:51Z</time>
      </trkpt>
      <trkpt lat="45.53091" lon="5.91276">
        <ele>583.18</ele>
        <time>2011-05-22T07:28:54Z</time>
      </trkpt>
      <trkpt lat="45.53097" lon="5.91282">
        <ele>583.66</ele>
        <time>2011-05-22T07:28:55Z</time>
      </trkpt>
      <trkpt lat="45.53103" lon="5.9129">
        <ele>582.7</ele>
        <time>2011-05-22T07:28:56Z</time>
      </trkpt>
      <trkpt lat="45.53108" lon="5.91298">
        <ele>582.22</ele>
        <time>2011-05-22T07:28:57Z</time>
      </trkpt>
      <trkpt lat="45.53113" lon="5.91307">
        <ele>582.22</ele>
        <time>2011-05-22T07:28:58Z</time>
      </trkpt>
      <trkpt lat="45.53117" lon="5.91316">
        <ele>582.7</ele>
        <time>2011-05-22T07:28:59Z</time>
      </trkpt>
      <trkpt lat="45.5312" lon="5.91325">
        <ele>581.73</ele>
        <time>2011-05-22T07:29:00Z</time>
      </trkpt>
      <trkpt lat="45.53137" lon="5.91367">
        <ele>581.73</ele>
        <time>2011-05-22T07:29:05Z</time>
      </trkpt>
      <trkpt lat="45.53142" lon="5.91373">
        <ele>581.25</ele>
        <time>2011-05-22T07:29:06Z</time>
      </trkpt>
      <trkpt lat="45.53147" lon="5.9138">
        <ele>581.25</ele>
        <time>2011-05-22T07:29:07Z</time>
      </trkpt>
      <trkpt lat="45.53175" lon="5.91406">
        <ele>580.77</ele>
        <time>2011-05-22T07:29:12Z</time>
      </trkpt>
      <trkpt lat="45.53182" lon="5.9141">
        <ele>580.77</ele>
        <time>2011-05-22T07:29:13Z</time>
      </trkpt>
      <trkpt lat="45.53188" lon="5.91413">
        <ele>579.81</ele>
        <time>2011-05-22T07:29:14Z</time>
      </trkpt>
      <trkpt lat="45.53194" lon="5.91415">
        <ele>580.29</ele>
        <time>2011-05-22T07:29:15Z</time>
      </trkpt>
      <trkpt lat="45.532" lon="5.91418">
        <ele>580.77</ele>
        <time>2011-05-22T07:29:16Z</time>
      </trkpt>
      <trkpt lat="45.53238" lon="5.91435">
        <ele>578.85</ele>
        <time>2011-05-22T07:29:22Z</time>
      </trkpt>
      <trkpt lat="45.53244" lon="5.9144">
        <ele>578.85</ele>
        <time>2011-05-22T07:29:23Z</time>
      </trkpt>
      <trkpt lat="45.53249" lon="5.91445">
        <ele>577.89</ele>
        <time>2011-05-22T07:29:24Z</time>
      </trkpt>
      <trkpt lat="45.53254" lon="5.91453">
        <ele>577.89</ele>
        <time>2011-05-22T07:29:25Z</time>
      </trkpt>
      <trkpt lat="45.53258" lon="5.91461">
        <ele>577.89</ele>
        <time>2011-05-22T07:29:26Z</time>
      </trkpt>
      <trkpt lat="45.53262" lon="5.91469">
        <ele>577.89</ele>
        <time>2011-05-22T07:29:27Z</time>
      </trkpt>
      <trkpt lat="45.53274" lon="5.91493">
        <ele>577.89</ele>
        <time>2011-05-22T07:29:30Z</time>
      </trkpt>
      <trkpt lat="45.53279" lon="5.915">
        <ele>577.41</ele>
        <time>2011-05-22T07:29:31Z</time>
      </trkpt>
      <trkpt lat="45.53285" lon="5.91505">
        <ele>576.93</ele>
        <time>2011-05-22T07:29:32Z</time>
      </trkpt>
      <trkpt lat="45.53291" lon="5.91509">
        <ele>576.45</ele>
        <time>2011-05-22T07:29:33Z</time>
      </trkpt>
      <trkpt lat="45.53298" lon="5.91512">
        <ele>576.45</ele>
        <time>2011-05-22T07:29:34Z</time>
      </trkpt>
      <trkpt lat="45.53305" lon="5.91514">
        <ele>575.97</ele>
        <time>2011-05-22T07:29:35Z</time>
      </trkpt>
      <trkpt lat="45.53312" lon="5.91517">
        <ele>575.97</ele>
        <time>2011-05-22T07:29:36Z</time>
      </trkpt>
      <trkpt lat="45.53347" lon="5.91529">
        <ele>572.12</ele>
        <time>2011-05-22T07:29:40Z</time>
      </trkpt>
      <trkpt lat="45.53388" lon="5.91543">
        <ele>568.28</ele>
        <time>2011-05-22T07:29:44Z</time>
      </trkpt>
      <trkpt lat="45.53419" lon="5.91557">
        <ele>564.43</ele>
        <time>2011-05-22T07:29:47Z</time>
      </trkpt>
      <trkpt lat="45.53442" lon="5.9157">
        <ele>561.55</ele>
        <time>2011-05-22T07:29:49Z</time>
      </trkpt>
      <trkpt lat="45.53468" lon="5.91579">
        <ele>558.66</ele>
        <time>2011-05-22T07:29:51Z</time>
      </trkpt>
      <trkpt lat="45.53495" lon="5.91583">
        <ele>555.3</ele>
        <time>2011-05-22T07:29:53Z</time>
      </trkpt>
      <trkpt lat="45.53524" lon="5.91585">
        <ele>551.93</ele>
        <time>2011-05-22T07:29:55Z</time>
      </trkpt>
      <trkpt lat="45.53552" lon="5.91583">
        <ele>548.09</ele>
        <time>2011-05-22T07:29:57Z</time>
      </trkpt>
      <trkpt lat="45.53584" lon="5.91584">
        <ele>544.72</ele>
        <time>2011-05-22T07:29:59Z</time>
      </trkpt>
      <trkpt lat="45.53618" lon="5.91587">
        <ele>541.36</ele>
        <time>2011-05-22T07:30:02Z</time>
      </trkpt>
      <trkpt lat="45.53659" lon="5.91594">
        <ele>537.99</ele>
        <time>2011-05-22T07:30:05Z</time>
      </trkpt>
      <trkpt lat="45.53705" lon="5.91602">
        <ele>534.63</ele>
        <time>2011-05-22T07:30:08Z</time>
      </trkpt>
      <trkpt lat="45.53744" lon="5.91609">
        <ele>531.27</ele>
        <time>2011-05-22T07:30:11Z</time>
      </trkpt>
      <trkpt lat="45.53783" lon="5.91615">
        <ele>528.38</ele>
        <time>2011-05-22T07:30:14Z</time>
      </trkpt>
      <trkpt lat="45.53817" lon="5.9162">
        <ele>525.02</ele>
        <time>2011-05-22T07:30:16Z</time>
      </trkpt>
      <trkpt lat="45.53857" lon="5.91626">
        <ele>522.61</ele>
        <time>2011-05-22T07:30:19Z</time>
      </trkpt>
      <trkpt lat="45.5387" lon="5.91627">
        <ele>521.17</ele>
        <time>2011-05-22T07:30:20Z</time>
      </trkpt>
      <trkpt lat="45.53924" lon="5.9164">
        <ele>517.33</ele>
        <time>2011-05-22T07:30:24Z</time>
      </trkpt>
      <trkpt lat="45.53934" lon="5.91644">
        <ele>516.37</ele>
        <time>2011-05-22T07:30:25Z</time>
      </trkpt>
      <trkpt lat="45.53947" lon="5.91651">
        <ele>514.92</ele>
        <time>2011-05-22T07:30:26Z</time>
      </trkpt>
      <trkpt lat="45.53974" lon="5.91669">
        <ele>512.52</ele>
        <time>2011-05-22T07:30:28Z</time>
      </trkpt>
      <trkpt lat="45.54026" lon="5.91718">
        <ele>508.67</ele>
        <time>2011-05-22T07:30:33Z</time>
      </trkpt>
      <trkpt lat="45.54037" lon="5.91722">
        <ele>508.19</ele>
        <time>2011-05-22T07:30:34Z</time>
      </trkpt>
      <trkpt lat="45.54048" lon="5.91724">
        <ele>507.71</ele>
        <time>2011-05-22T07:30:35Z</time>
      </trkpt>
      <trkpt lat="45.54059" lon="5.91724">
        <ele>506.75</ele>
        <time>2011-05-22T07:30:36Z</time>
      </trkpt>
      <trkpt lat="45.5407" lon="5.91722">
        <ele>506.27</ele>
        <time>2011-05-22T07:30:37Z</time>
      </trkpt>
      <trkpt lat="45.54104" lon="5.91719">
        <ele>504.83</ele>
        <time>2011-05-22T07:30:40Z</time>
      </trkpt>
      <trkpt lat="45.54138" lon="5.91716">
        <ele>501.46</ele>
        <time>2011-05-22T07:30:43Z</time>
      </trkpt>
      <trkpt lat="45.54149" lon="5.91715">
        <ele>501.95</ele>
        <time>2011-05-22T07:30:44Z</time>
      </trkpt>
      <trkpt lat="45.54182" lon="5.91711">
        <ele>498.58</ele>
        <time>2011-05-22T07:30:47Z</time>
      </trkpt>
      <trkpt lat="45.54192" lon="5.9171">
        <ele>498.58</ele>
        <time>2011-05-22T07:30:48Z</time>
      </trkpt>
      <trkpt lat="45.54213" lon="5.91705">
        <ele>497.14</ele>
        <time>2011-05-22T07:30:50Z</time>
      </trkpt>
      <trkpt lat="45.54269" lon="5.9168">
        <ele>494.26</ele>
        <time>2011-05-22T07:30:56Z</time>
      </trkpt>
      <trkpt lat="45.54297" lon="5.91667">
        <ele>491.85</ele>
        <time>2011-05-22T07:30:59Z</time>
      </trkpt>
      <trkpt lat="45.54323" lon="5.91656">
        <ele>490.41</ele>
        <time>2011-05-22T07:31:02Z</time>
      </trkpt>
      <trkpt lat="45.54352" lon="5.91643">
        <ele>488.49</ele>
        <time>2011-05-22T07:31:05Z</time>
      </trkpt>
      <trkpt lat="45.54401" lon="5.91621">
        <ele>485.6</ele>
        <time>2011-05-22T07:31:10Z</time>
      </trkpt>
      <trkpt lat="45.54442" lon="5.91614">
        <ele>482.24</ele>
        <time>2011-05-22T07:31:14Z</time>
      </trkpt>
      <trkpt lat="45.54483" lon="5.91617">
        <ele>479.35</ele>
        <time>2011-05-22T07:31:18Z</time>
      </trkpt>
      <trkpt lat="45.54493" lon="5.91621">
        <ele>478.87</ele>
        <time>2011-05-22T07:31:19Z</time>
      </trkpt>
      <trkpt lat="45.54503" lon="5.91627">
        <ele>477.43</ele>
        <time>2011-05-22T07:31:20Z</time>
      </trkpt>
      <trkpt lat="45.54513" lon="5.91635">
        <ele>476.95</ele>
        <time>2011-05-22T07:31:21Z</time>
      </trkpt>
      <trkpt lat="45.54521" lon="5.91646">
        <ele>475.99</ele>
        <time>2011-05-22T07:31:22Z</time>
      </trkpt>
      <trkpt lat="45.54528" lon="5.91658">
        <ele>475.51</ele>
        <time>2011-05-22T07:31:23Z</time>
      </trkpt>
      <trkpt lat="45.54533" lon="5.91672">
        <ele>474.07</ele>
        <time>2011-05-22T07:31:24Z</time>
      </trkpt>
      <trkpt lat="45.54539" lon="5.91686">
        <ele>473.59</ele>
        <time>2011-05-22T07:31:25Z</time>
      </trkpt>
      <trkpt lat="45.54549" lon="5.91715">
        <ele>471.18</ele>
        <time>2011-05-22T07:31:27Z</time>
      </trkpt>
      <trkpt lat="45.54557" lon="5.91745">
        <ele>470.22</ele>
        <time>2011-05-22T07:31:29Z</time>
      </trkpt>
      <trkpt lat="45.54559" lon="5.91762">
        <ele>468.78</ele>
        <time>2011-05-22T07:31:30Z</time>
      </trkpt>
      <trkpt lat="45.54557" lon="5.91799">
        <ele>467.34</ele>
        <time>2011-05-22T07:31:32Z</time>
      </trkpt>
      <trkpt lat="45.54553" lon="5.91819">
        <ele>466.86</ele>
        <time>2011-05-22T07:31:33Z</time>
      </trkpt>
      <trkpt lat="45.54548" lon="5.91838">
        <ele>465.42</ele>
        <time>2011-05-22T07:31:34Z</time>
      </trkpt>
      <trkpt lat="45.54543" lon="5.91855">
        <ele>464.45</ele>
        <time>2011-05-22T07:31:35Z</time>
      </trkpt>
      <trkpt lat="45.54538" lon="5.91872">
        <ele>463.49</ele>
        <time>2011-05-22T07:31:36Z</time>
      </trkpt>
      <trkpt lat="45.54533" lon="5.91888">
        <ele>462.53</ele>
        <time>2011-05-22T07:31:37Z</time>
      </trkpt>
      <trkpt lat="45.54526" lon="5.91903">
        <ele>461.57</ele>
        <time>2011-05-22T07:31:38Z</time>
      </trkpt>
      <trkpt lat="45.54519" lon="5.91917">
        <ele>460.61</ele>
        <time>2011-05-22T07:31:39Z</time>
      </trkpt>
      <trkpt lat="45.54495" lon="5.91954">
        <ele>457.24</ele>
        <time>2011-05-22T07:31:42Z</time>
      </trkpt>
      <trkpt lat="45.54485" lon="5.91964">
        <ele>456.28</ele>
        <time>2011-05-22T07:31:43Z</time>
      </trkpt>
      <trkpt lat="45.54471" lon="5.91973">
        <ele>455.8</ele>
        <time>2011-05-22T07:31:44Z</time>
      </trkpt>
      <trkpt lat="45.54461" lon="5.91985">
        <ele>454.84</ele>
        <time>2011-05-22T07:31:45Z</time>
      </trkpt>
      <trkpt lat="45.54443" lon="5.9201">
        <ele>453.4</ele>
        <time>2011-05-22T07:31:47Z</time>
      </trkpt>
      <trkpt lat="45.54428" lon="5.92042">
        <ele>451.96</ele>
        <time>2011-05-22T07:31:50Z</time>
      </trkpt>
      <trkpt lat="45.54426" lon="5.92052">
        <ele>451.48</ele>
        <time>2011-05-22T07:31:51Z</time>
      </trkpt>
      <trkpt lat="45.54428" lon="5.92063">
        <ele>450.52</ele>
        <time>2011-05-22T07:31:52Z</time>
      </trkpt>
      <trkpt lat="45.54432" lon="5.92073">
        <ele>450.03</ele>
        <time>2011-05-22T07:31:53Z</time>
      </trkpt>
      <trkpt lat="45.54439" lon="5.92079">
        <ele>449.55</ele>
        <time>2011-05-22T07:31:54Z</time>
      </trkpt>
      <trkpt lat="45.54446" lon="5.92083">
        <ele>449.55</ele>
        <time>2011-05-22T07:31:55Z</time>
      </trkpt>
      <trkpt lat="45.54454" lon="5.92086">
        <ele>449.55</ele>
        <time>2011-05-22T07:31:56Z</time>
      </trkpt>
      <trkpt lat="45.54499" lon="5.92091">
        <ele>449.07</ele>
        <time>2011-05-22T07:32:01Z</time>
      </trkpt>
      <trkpt lat="45.54507" lon="5.92089">
        <ele>449.55</ele>
        <time>2011-05-22T07:32:02Z</time>
      </trkpt>
      <trkpt lat="45.5458" lon="5.92063">
        <ele>451</ele>
        <time>2011-05-22T07:32:14Z</time>
      </trkpt>
      <trkpt lat="45.54606" lon="5.92059">
        <ele>451.96</ele>
        <time>2011-05-22T07:32:19Z</time>
      </trkpt>
      <trkpt lat="45.54611" lon="5.9206">
        <ele>451.96</ele>
        <time>2011-05-22T07:32:20Z</time>
      </trkpt>
      <trkpt lat="45.54676" lon="5.92075">
        <ele>452.44</ele>
        <time>2011-05-22T07:32:33Z</time>
      </trkpt>
      <trkpt lat="45.54722" lon="5.92085">
        <ele>451.96</ele>
        <time>2011-05-22T07:32:41Z</time>
      </trkpt>
      <trkpt lat="45.54728" lon="5.92088">
        <ele>451.48</ele>
        <time>2011-05-22T07:32:42Z</time>
      </trkpt>
      <trkpt lat="45.54733" lon="5.9209">
        <ele>451.48</ele>
        <time>2011-05-22T07:32:43Z</time>
      </trkpt>
      <trkpt lat="45.54739" lon="5.92091">
        <ele>451</ele>
        <time>2011-05-22T07:32:44Z</time>
      </trkpt>
      <trkpt lat="45.54746" lon="5.92093">
        <ele>450.52</ele>
        <time>2011-05-22T07:32:45Z</time>
      </trkpt>
      <trkpt lat="45.54805" lon="5.92123">
        <ele>447.15</ele>
        <time>2011-05-22T07:32:53Z</time>
      </trkpt>
      <trkpt lat="45.54832" lon="5.92129">
        <ele>444.27</ele>
        <time>2011-05-22T07:32:56Z</time>
      </trkpt>
      <trkpt lat="45.54841" lon="5.92129">
        <ele>443.79</ele>
        <time>2011-05-22T07:32:57Z</time>
      </trkpt>
      <trkpt lat="45.54871" lon="5.9213">
        <ele>442.34</ele>
        <time>2011-05-22T07:33:00Z</time>
      </trkpt>
      <trkpt lat="45.54909" lon="5.92138">
        <ele>438.98</ele>
        <time>2011-05-22T07:33:04Z</time>
      </trkpt>
      <trkpt lat="45.54917" lon="5.92142">
        <ele>438.02</ele>
        <time>2011-05-22T07:33:05Z</time>
      </trkpt>
      <trkpt lat="45.54924" lon="5.92145">
        <ele>437.54</ele>
        <time>2011-05-22T07:33:06Z</time>
      </trkpt>
      <trkpt lat="45.54933" lon="5.92146">
        <ele>436.58</ele>
        <time>2011-05-22T07:33:07Z</time>
      </trkpt>
      <trkpt lat="45.54941" lon="5.92145">
        <ele>435.61</ele>
        <time>2011-05-22T07:33:08Z</time>
      </trkpt>
      <trkpt lat="45.5495" lon="5.92143">
        <ele>435.13</ele>
        <time>2011-05-22T07:33:09Z</time>
      </trkpt>
      <trkpt lat="45.54989" lon="5.92138">
        <ele>431.77</ele>
        <time>2011-05-22T07:33:13Z</time>
      </trkpt>
      <trkpt lat="45.5503" lon="5.92132">
        <ele>428.4</ele>
        <time>2011-05-22T07:33:17Z</time>
      </trkpt>
      <trkpt lat="45.55093" lon="5.92132">
        <ele>425.52</ele>
        <time>2011-05-22T07:33:23Z</time>
      </trkpt>
      <trkpt lat="45.55146" lon="5.92137">
        <ele>422.16</ele>
        <time>2011-05-22T07:33:28Z</time>
      </trkpt>
      <trkpt lat="45.55198" lon="5.92143">
        <ele>418.79</ele>
        <time>2011-05-22T07:33:33Z</time>
      </trkpt>
      <trkpt lat="45.5526" lon="5.92149">
        <ele>415.43</ele>
        <time>2011-05-22T07:33:39Z</time>
      </trkpt>
      <trkpt lat="45.553" lon="5.9215">
        <ele>413.5</ele>
        <time>2011-05-22T07:33:43Z</time>
      </trkpt>
      <trkpt lat="45.55309" lon="5.92152">
        <ele>413.02</ele>
        <time>2011-05-22T07:33:44Z</time>
      </trkpt>
      <trkpt lat="45.55319" lon="5.92156">
        <ele>412.54</ele>
        <time>2011-05-22T07:33:45Z</time>
      </trkpt>
      <trkpt lat="45.55328" lon="5.9216">
        <ele>412.06</ele>
        <time>2011-05-22T07:33:46Z</time>
      </trkpt>
      <trkpt lat="45.55338" lon="5.92163">
        <ele>411.58</ele>
        <time>2011-05-22T07:33:47Z</time>
      </trkpt>
      <trkpt lat="45.55347" lon="5.92165">
        <ele>411.1</ele>
        <time>2011-05-22T07:33:48Z</time>
      </trkpt>
      <trkpt lat="45.55357" lon="5.92167">
        <ele>410.14</ele>
        <time>2011-05-22T07:33:49Z</time>
      </trkpt>
      <trkpt lat="45.55366" lon="5.9217">
        <ele>409.66</ele>
        <time>2011-05-22T07:33:50Z</time>
      </trkpt>
      <trkpt lat="45.55376" lon="5.92171">
        <ele>408.7</ele>
        <time>2011-05-22T07:33:51Z</time>
      </trkpt>
      <trkpt lat="45.55386" lon="5.92171">
        <ele>408.7</ele>
        <time>2011-05-22T07:33:52Z</time>
      </trkpt>
      <trkpt lat="45.55395" lon="5.92171">
        <ele>407.26</ele>
        <time>2011-05-22T07:33:53Z</time>
      </trkpt>
      <trkpt lat="45.55415" lon="5.92171">
        <ele>405.81</ele>
        <time>2011-05-22T07:33:55Z</time>
      </trkpt>
      <trkpt lat="45.55485" lon="5.92173">
        <ele>402.45</ele>
        <time>2011-05-22T07:34:02Z</time>
      </trkpt>
      <trkpt lat="45.55538" lon="5.92181">
        <ele>399.57</ele>
        <time>2011-05-22T07:34:07Z</time>
      </trkpt>
      <trkpt lat="45.55561" lon="5.92184">
        <ele>398.6</ele>
        <time>2011-05-22T07:34:09Z</time>
      </trkpt>
      <trkpt lat="45.55608" lon="5.92189">
        <ele>395.24</ele>
        <time>2011-05-22T07:34:13Z</time>
      </trkpt>
      <trkpt lat="45.55664" lon="5.92196">
        <ele>391.87</ele>
        <time>2011-05-22T07:34:18Z</time>
      </trkpt>
      <trkpt lat="45.55718" lon="5.92201">
        <ele>388.51</ele>
        <time>2011-05-22T07:34:23Z</time>
      </trkpt>
      <trkpt lat="45.55729" lon="5.92202">
        <ele>388.03</ele>
        <time>2011-05-22T07:34:24Z</time>
      </trkpt>
      <trkpt lat="45.55772" lon="5.92207">
        <ele>384.66</ele>
        <time>2011-05-22T07:34:28Z</time>
      </trkpt>
      <trkpt lat="45.55794" lon="5.92211">
        <ele>383.22</ele>
        <time>2011-05-22T07:34:30Z</time>
      </trkpt>
      <trkpt lat="45.55839" lon="5.92216">
        <ele>379.38</ele>
        <time>2011-05-22T07:34:34Z</time>
      </trkpt>
      <trkpt lat="45.55876" lon="5.9222">
        <ele>376.01</ele>
        <time>2011-05-22T07:34:37Z</time>
      </trkpt>
      <trkpt lat="45.55899" lon="5.92226">
        <ele>374.57</ele>
        <time>2011-05-22T07:34:40Z</time>
      </trkpt>
      <trkpt lat="45.55907" lon="5.92231">
        <ele>373.61</ele>
        <time>2011-05-22T07:34:41Z</time>
      </trkpt>
      <trkpt lat="45.55928" lon="5.92251">
        <ele>372.17</ele>
        <time>2011-05-22T07:34:44Z</time>
      </trkpt>
      <trkpt lat="45.5594" lon="5.92264">
        <ele>370.73</ele>
        <time>2011-05-22T07:34:45Z</time>
      </trkpt>
      <trkpt lat="45.55955" lon="5.92283">
        <ele>369.28</ele>
        <time>2011-05-22T07:34:47Z</time>
      </trkpt>
      <trkpt lat="45.55961" lon="5.92296">
        <ele>368.8</ele>
        <time>2011-05-22T07:34:48Z</time>
      </trkpt>
      <trkpt lat="45.55966" lon="5.92309">
        <ele>367.84</ele>
        <time>2011-05-22T07:34:49Z</time>
      </trkpt>
      <trkpt lat="45.5597" lon="5.92323">
        <ele>366.88</ele>
        <time>2011-05-22T07:34:50Z</time>
      </trkpt>
      <trkpt lat="45.55973" lon="5.92339">
        <ele>366.4</ele>
        <time>2011-05-22T07:34:51Z</time>
      </trkpt>
      <trkpt lat="45.55976" lon="5.92354">
        <ele>365.44</ele>
        <time>2011-05-22T07:34:52Z</time>
      </trkpt>
      <trkpt lat="45.55981" lon="5.92386">
        <ele>363.52</ele>
        <time>2011-05-22T07:34:54Z</time>
      </trkpt>
      <trkpt lat="45.55986" lon="5.92402">
        <ele>363.04</ele>
        <time>2011-05-22T07:34:55Z</time>
      </trkpt>
      <trkpt lat="45.56008" lon="5.92462">
        <ele>359.19</ele>
        <time>2011-05-22T07:34:59Z</time>
      </trkpt>
      <trkpt lat="45.56028" lon="5.92507">
        <ele>355.83</ele>
        <time>2011-05-22T07:35:02Z</time>
      </trkpt>
      <trkpt lat="45.56048" lon="5.92551">
        <ele>353.42</ele>
        <time>2011-05-22T07:35:05Z</time>
      </trkpt>
      <trkpt lat="45.56057" lon="5.9258">
        <ele>351.02</ele>
        <time>2011-05-22T07:35:07Z</time>
      </trkpt>
      <trkpt lat="45.56063" lon="5.92593">
        <ele>350.54</ele>
        <time>2011-05-22T07:35:08Z</time>
      </trkpt>
      <trkpt lat="45.56071" lon="5.92604">
        <ele>350.06</ele>
        <time>2011-05-22T07:35:09Z</time>
      </trkpt>
      <trkpt lat="45.5608" lon="5.92613">
        <ele>349.58</ele>
        <time>2011-05-22T07:35:10Z</time>
      </trkpt>
      <trkpt lat="45.5609" lon="5.92622">
        <ele>348.62</ele>
        <time>2011-05-22T07:35:11Z</time>
      </trkpt>
      <trkpt lat="45.56118" lon="5.92651">
        <ele>345.25</ele>
        <time>2011-05-22T07:35:14Z</time>
      </trkpt>
      <trkpt lat="45.5615" lon="5.927">
        <ele>341.89</ele>
        <time>2011-05-22T07:35:18Z</time>
      </trkpt>
      <trkpt lat="45.56161" lon="5.92715">
        <ele>340.44</ele>
        <time>2011-05-22T07:35:19Z</time>
      </trkpt>
      <trkpt lat="45.56184" lon="5.9275">
        <ele>337.08</ele>
        <time>2011-05-22T07:35:22Z</time>
      </trkpt>
      <trkpt lat="45.56186" lon="5.92766">
        <ele>337.08</ele>
        <time>2011-05-22T07:35:23Z</time>
      </trkpt>
      <trkpt lat="45.56187" lon="5.92784">
        <ele>336.6</ele>
        <time>2011-05-22T07:35:24Z</time>
      </trkpt>
      <trkpt lat="45.56187" lon="5.92802">
        <ele>335.64</ele>
        <time>2011-05-22T07:35:25Z</time>
      </trkpt>
      <trkpt lat="45.56184" lon="5.92855">
        <ele>332.27</ele>
        <time>2011-05-22T07:35:28Z</time>
      </trkpt>
      <trkpt lat="45.56183" lon="5.92901">
        <ele>329.87</ele>
        <time>2011-05-22T07:35:31Z</time>
      </trkpt>
      <trkpt lat="45.5618" lon="5.92915">
        <ele>328.43</ele>
        <time>2011-05-22T07:35:32Z</time>
      </trkpt>
      <trkpt lat="45.56173" lon="5.92927">
        <ele>327.95</ele>
        <time>2011-05-22T07:35:33Z</time>
      </trkpt>
      <trkpt lat="45.56166" lon="5.92937">
        <ele>326.99</ele>
        <time>2011-05-22T07:35:34Z</time>
      </trkpt>
      <trkpt lat="45.56157" lon="5.92946">
        <ele>326.5</ele>
        <time>2011-05-22T07:35:35Z</time>
      </trkpt>
      <trkpt lat="45.56141" lon="5.92967">
        <ele>324.58</ele>
        <time>2011-05-22T07:35:37Z</time>
      </trkpt>
      <trkpt lat="45.5612" lon="5.93004">
        <ele>321.7</ele>
        <time>2011-05-22T07:35:40Z</time>
      </trkpt>
      <trkpt lat="45.56109" lon="5.93028">
        <ele>320.26</ele>
        <time>2011-05-22T07:35:42Z</time>
      </trkpt>
      <trkpt lat="45.56102" lon="5.93038">
        <ele>319.3</ele>
        <time>2011-05-22T07:35:43Z</time>
      </trkpt>
      <trkpt lat="45.56093" lon="5.93045">
        <ele>318.33</ele>
        <time>2011-05-22T07:35:44Z</time>
      </trkpt>
      <trkpt lat="45.56076" lon="5.93058">
        <ele>317.37</ele>
        <time>2011-05-22T07:35:46Z</time>
      </trkpt>
      <trkpt lat="45.56071" lon="5.93067">
        <ele>316.89</ele>
        <time>2011-05-22T07:35:47Z</time>
      </trkpt>
      <trkpt lat="45.56069" lon="5.93076">
        <ele>315.93</ele>
        <time>2011-05-22T07:35:48Z</time>
      </trkpt>
      <trkpt lat="45.56069" lon="5.93084">
        <ele>315.93</ele>
        <time>2011-05-22T07:35:49Z</time>
      </trkpt>
      <trkpt lat="45.56068" lon="5.93092">
        <ele>315.45</ele>
        <time>2011-05-22T07:35:50Z</time>
      </trkpt>
      <trkpt lat="45.56065" lon="5.93098">
        <ele>315.45</ele>
        <time>2011-05-22T07:35:51Z</time>
      </trkpt>
      <trkpt lat="45.56061" lon="5.93102">
        <ele>315.45</ele>
        <time>2011-05-22T07:35:52Z</time>
      </trkpt>
      <trkpt lat="45.56057" lon="5.93105">
        <ele>315.93</ele>
        <time>2011-05-22T07:35:53Z</time>
      </trkpt>
      <trkpt lat="45.56051" lon="5.93112">
        <ele>316.41</ele>
        <time>2011-05-22T07:35:55Z</time>
      </trkpt>
      <trkpt lat="45.56047" lon="5.93117">
        <ele>316.41</ele>
        <time>2011-05-22T07:35:56Z</time>
      </trkpt>
      <trkpt lat="45.56045" lon="5.93123">
        <ele>316.89</ele>
        <time>2011-05-22T07:35:57Z</time>
      </trkpt>
      <trkpt lat="45.56043" lon="5.93129">
        <ele>316.41</ele>
        <time>2011-05-22T07:35:58Z</time>
      </trkpt>
      <trkpt lat="45.56041" lon="5.93136">
        <ele>316.89</ele>
        <time>2011-05-22T07:35:59Z</time>
      </trkpt>
      <trkpt lat="45.5604" lon="5.93143">
        <ele>316.89</ele>
        <time>2011-05-22T07:36:00Z</time>
      </trkpt>
      <trkpt lat="45.5604" lon="5.93149">
        <ele>316.41</ele>
        <time>2011-05-22T07:36:01Z</time>
      </trkpt>
      <trkpt lat="45.56035" lon="5.93262">
        <ele>317.85</ele>
        <time>2011-05-22T07:36:17Z</time>
      </trkpt>
      <trkpt lat="45.5603" lon="5.93356">
        <ele>319.3</ele>
        <time>2011-05-22T07:36:32Z</time>
      </trkpt>
      <trkpt lat="45.56027" lon="5.9339">
        <ele>320.26</ele>
        <time>2011-05-22T07:36:38Z</time>
      </trkpt>
      <trkpt lat="45.56025" lon="5.93424">
        <ele>321.7</ele>
        <time>2011-05-22T07:36:44Z</time>
      </trkpt>
      <trkpt lat="45.56024" lon="5.9343">
        <ele>321.7</ele>
        <time>2011-05-22T07:36:45Z</time>
      </trkpt>
      <trkpt lat="45.56023" lon="5.93482">
        <ele>323.14</ele>
        <time>2011-05-22T07:36:54Z</time>
      </trkpt>
      <trkpt lat="45.56025" lon="5.93487">
        <ele>322.66</ele>
        <time>2011-05-22T07:36:55Z</time>
      </trkpt>
      <trkpt lat="45.56049" lon="5.93524">
        <ele>326.02</ele>
        <time>2011-05-22T07:37:06Z</time>
      </trkpt>
      <trkpt lat="45.5608" lon="5.93555">
        <ele>328.91</ele>
        <time>2011-05-22T07:37:20Z</time>
      </trkpt>
      <trkpt lat="45.56107" lon="5.93594">
        <ele>331.31</ele>
        <time>2011-05-22T07:37:34Z</time>
      </trkpt>
      <trkpt lat="45.56112" lon="5.93664">
        <ele>333.23</ele>
        <time>2011-05-22T07:37:50Z</time>
      </trkpt>
      <trkpt lat="45.56097" lon="5.9369">
        <ele>333.23</ele>
        <time>2011-05-22T07:37:56Z</time>
      </trkpt>
      <trkpt lat="45.56072" lon="5.93763">
        <ele>332.75</ele>
        <time>2011-05-22T07:38:09Z</time>
      </trkpt>
      <trkpt lat="45.5607" lon="5.9377">
        <ele>332.75</ele>
        <time>2011-05-22T07:38:10Z</time>
      </trkpt>
      <trkpt lat="45.56069" lon="5.93775">
        <ele>332.75</ele>
        <time>2011-05-22T07:38:11Z</time>
      </trkpt>
      <trkpt lat="45.56069" lon="5.93781">
        <ele>332.75</ele>
        <time>2011-05-22T07:38:12Z</time>
      </trkpt>
      <trkpt lat="45.56069" lon="5.93786">
        <ele>332.27</ele>
        <time>2011-05-22T07:38:13Z</time>
      </trkpt>
      <trkpt lat="45.56097" lon="5.93778">
        <ele>331.31</ele>
        <time>2011-05-22T07:38:24Z</time>
      </trkpt>
      <trkpt lat="45.56147" lon="5.93678">
        <ele>329.87</ele>
        <time>2011-05-22T07:38:36Z</time>
      </trkpt>
      <trkpt lat="45.56163" lon="5.93659">
        <ele>329.87</ele>
        <time>2011-05-22T07:38:39Z</time>
      </trkpt>
      <trkpt lat="45.5617" lon="5.93654">
        <ele>329.87</ele>
        <time>2011-05-22T07:38:40Z</time>
      </trkpt>
      <trkpt lat="45.56176" lon="5.9365">
        <ele>329.87</ele>
        <time>2011-05-22T07:38:41Z</time>
      </trkpt>
      <trkpt lat="45.56183" lon="5.93649">
        <ele>329.87</ele>
        <time>2011-05-22T07:38:42Z</time>
      </trkpt>
      <trkpt lat="45.56189" lon="5.93649">
        <ele>329.87</ele>
        <time>2011-05-22T07:38:43Z</time>
      </trkpt>
      <trkpt lat="45.56195" lon="5.9365">
        <ele>329.87</ele>
        <time>2011-05-22T07:38:44Z</time>
      </trkpt>
      <trkpt lat="45.56201" lon="5.93651">
        <ele>329.87</ele>
        <time>2011-05-22T07:38:45Z</time>
      </trkpt>
      <trkpt lat="45.56207" lon="5.93653">
        <ele>329.87</ele>
        <time>2011-05-22T07:38:46Z</time>
      </trkpt>
      <trkpt lat="45.56213" lon="5.93656">
        <ele>329.87</ele>
        <time>2011-05-22T07:38:47Z</time>
      </trkpt>
      <trkpt lat="45.56259" lon="5.93684">
        <ele>324.1</ele>
        <time>2011-05-22T07:38:54Z</time>
      </trkpt>
      <trkpt lat="45.56287" lon="5.93701">
        <ele>320.26</ele>
        <time>2011-05-22T07:38:58Z</time>
      </trkpt>
      <trkpt lat="45.56319" lon="5.9372">
        <ele>315.93</ele>
        <time>2011-05-22T07:39:02Z</time>
      </trkpt>
      <trkpt lat="45.56343" lon="5.93733">
        <ele>314.49</ele>
        <time>2011-05-22T07:39:05Z</time>
      </trkpt>
      <trkpt lat="45.56374" lon="5.93752">
        <ele>310.64</ele>
        <time>2011-05-22T07:39:09Z</time>
      </trkpt>
      <trkpt lat="45.56381" lon="5.93757">
        <ele>309.68</ele>
        <time>2011-05-22T07:39:10Z</time>
      </trkpt>
      <trkpt lat="45.56402" lon="5.9378">
        <ele>307.28</ele>
        <time>2011-05-22T07:39:14Z</time>
      </trkpt>
      <trkpt lat="45.56406" lon="5.93786">
        <ele>307.28</ele>
        <time>2011-05-22T07:39:15Z</time>
      </trkpt>
      <trkpt lat="45.56408" lon="5.93792">
        <ele>307.28</ele>
        <time>2011-05-22T07:39:16Z</time>
      </trkpt>
      <trkpt lat="45.5641" lon="5.93798">
        <ele>306.8</ele>
        <time>2011-05-22T07:39:17Z</time>
      </trkpt>
      <trkpt lat="45.56409" lon="5.93806">
        <ele>306.32</ele>
        <time>2011-05-22T07:39:18Z</time>
      </trkpt>
      <trkpt lat="45.56406" lon="5.93814">
        <ele>305.84</ele>
        <time>2011-05-22T07:39:19Z</time>
      </trkpt>
      <trkpt lat="45.56403" lon="5.93821">
        <ele>305.36</ele>
        <time>2011-05-22T07:39:20Z</time>
      </trkpt>
      <trkpt lat="45.56399" lon="5.93828">
        <ele>304.88</ele>
        <time>2011-05-22T07:39:21Z</time>
      </trkpt>
      <trkpt lat="45.56391" lon="5.93842">
        <ele>304.39</ele>
        <time>2011-05-22T07:39:23Z</time>
      </trkpt>
      <trkpt lat="45.56381" lon="5.93858">
        <ele>301.99</ele>
        <time>2011-05-22T07:39:25Z</time>
      </trkpt>
      <trkpt lat="45.56376" lon="5.93864">
        <ele>301.99</ele>
        <time>2011-05-22T07:39:26Z</time>
      </trkpt>
      <trkpt lat="45.56369" lon="5.9387">
        <ele>301.03</ele>
        <time>2011-05-22T07:39:27Z</time>
      </trkpt>
      <trkpt lat="45.56362" lon="5.93876">
        <ele>301.03</ele>
        <time>2011-05-22T07:39:28Z</time>
      </trkpt>
      <trkpt lat="45.56356" lon="5.93882">
        <ele>300.07</ele>
        <time>2011-05-22T07:39:29Z</time>
      </trkpt>
      <trkpt lat="45.5633" lon="5.93915">
        <ele>297.67</ele>
        <time>2011-05-22T07:39:34Z</time>
      </trkpt>
      <trkpt lat="45.56325" lon="5.93937">
        <ele>295.26</ele>
        <time>2011-05-22T07:39:38Z</time>
      </trkpt>
      <trkpt lat="45.56327" lon="5.93943">
        <ele>295.26</ele>
        <time>2011-05-22T07:39:39Z</time>
      </trkpt>
      <trkpt lat="45.56329" lon="5.93947">
        <ele>294.78</ele>
        <time>2011-05-22T07:39:40Z</time>
      </trkpt>
      <trkpt lat="45.56333" lon="5.93956">
        <ele>293.82</ele>
        <time>2011-05-22T07:39:42Z</time>
      </trkpt>
      <trkpt lat="45.56334" lon="5.9396">
        <ele>293.34</ele>
        <time>2011-05-22T07:39:43Z</time>
      </trkpt>
      <trkpt lat="45.56333" lon="5.93965">
        <ele>293.34</ele>
        <time>2011-05-22T07:39:44Z</time>
      </trkpt>
      <trkpt lat="45.56331" lon="5.93967">
        <ele>293.82</ele>
        <time>2011-05-22T07:39:45Z</time>
      </trkpt>
      <trkpt lat="45.56328" lon="5.9397">
        <ele>293.82</ele>
        <time>2011-05-22T07:39:46Z</time>
      </trkpt>
      <trkpt lat="45.56324" lon="5.93972">
        <ele>293.34</ele>
        <time>2011-05-22T07:39:47Z</time>
      </trkpt>
      <trkpt lat="45.56321" lon="5.93973">
        <ele>293.34</ele>
        <time>2011-05-22T07:39:48Z</time>
      </trkpt>
      <trkpt lat="45.56295" lon="5.93986">
        <ele>293.82</ele>
        <time>2011-05-22T07:39:54Z</time>
      </trkpt>
      <trkpt lat="45.56251" lon="5.94018">
        <ele>293.82</ele>
        <time>2011-05-22T07:40:04Z</time>
      </trkpt>
      <trkpt lat="45.56215" lon="5.94031">
        <ele>294.78</ele>
        <time>2011-05-22T07:40:12Z</time>
      </trkpt>
      <trkpt lat="45.56211" lon="5.94033">
        <ele>294.78</ele>
        <time>2011-05-22T07:40:13Z</time>
      </trkpt>
      <trkpt lat="45.56199" lon="5.9404">
        <ele>295.26</ele>
        <time>2011-05-22T07:40:16Z</time>
      </trkpt>
      <trkpt lat="45.56192" lon="5.94046">
        <ele>295.26</ele>
        <time>2011-05-22T07:40:18Z</time>
      </trkpt>
      <trkpt lat="45.56188" lon="5.9405">
        <ele>294.78</ele>
        <time>2011-05-22T07:40:19Z</time>
      </trkpt>
      <trkpt lat="45.56182" lon="5.94058">
        <ele>294.78</ele>
        <time>2011-05-22T07:40:21Z</time>
      </trkpt>
      <trkpt lat="45.56179" lon="5.94064">
        <ele>294.78</ele>
        <time>2011-05-22T07:40:22Z</time>
      </trkpt>
      <trkpt lat="45.56173" lon="5.94073">
        <ele>294.78</ele>
        <time>2011-05-22T07:40:24Z</time>
      </trkpt>
      <trkpt lat="45.5613" lon="5.94125">
        <ele>295.74</ele>
        <time>2011-05-22T07:40:37Z</time>
      </trkpt>
      <trkpt lat="45.5613" lon="5.94128">
        <ele>295.74</ele>
        <time>2011-05-22T07:40:38Z</time>
      </trkpt>
      <trkpt lat="45.56128" lon="5.94134">
        <ele>296.22</ele>
        <time>2011-05-22T07:40:40Z</time>
      </trkpt>
      <trkpt lat="45.56128" lon="5.94138">
        <ele>295.26</ele>
        <time>2011-05-22T07:40:41Z</time>
      </trkpt>
      <trkpt lat="45.56129" lon="5.94143">
        <ele>295.26</ele>
        <time>2011-05-22T07:40:42Z</time>
      </trkpt>
      <trkpt lat="45.56129" lon="5.94148">
        <ele>295.74</ele>
        <time>2011-05-22T07:40:43Z</time>
      </trkpt>
      <trkpt lat="45.56128" lon="5.94152">
        <ele>295.26</ele>
        <time>2011-05-22T07:40:44Z</time>
      </trkpt>
      <trkpt lat="45.56127" lon="5.94158">
        <ele>294.78</ele>
        <time>2011-05-22T07:40:45Z</time>
      </trkpt>
      <trkpt lat="45.56126" lon="5.94163">
        <ele>294.78</ele>
        <time>2011-05-22T07:40:46Z</time>
      </trkpt>
      <trkpt lat="45.56122" lon="5.94185">
        <ele>294.3</ele>
        <time>2011-05-22T07:40:53Z</time>
      </trkpt>
      <trkpt lat="45.56123" lon="5.94189">
        <ele>294.3</ele>
        <time>2011-05-22T07:40:54Z</time>
      </trkpt>
      <trkpt lat="45.56123" lon="5.94194">
        <ele>294.3</ele>
        <time>2011-05-22T07:40:55Z</time>
      </trkpt>
      <trkpt lat="45.56122" lon="5.94201">
        <ele>293.82</ele>
        <time>2011-05-22T07:40:56Z</time>
      </trkpt>
      <trkpt lat="45.5612" lon="5.94206">
        <ele>294.3</ele>
        <time>2011-05-22T07:40:57Z</time>
      </trkpt>
      <trkpt lat="45.56117" lon="5.94211">
        <ele>294.3</ele>
        <time>2011-05-22T07:40:58Z</time>
      </trkpt>
      <trkpt lat="45.56114" lon="5.94217">
        <ele>294.3</ele>
        <time>2011-05-22T07:40:59Z</time>
      </trkpt>
      <trkpt lat="45.56112" lon="5.94223">
        <ele>294.3</ele>
        <time>2011-05-22T07:41:00Z</time>
      </trkpt>
      <trkpt lat="45.56112" lon="5.9423">
        <ele>293.82</ele>
        <time>2011-05-22T07:41:01Z</time>
      </trkpt>
      <trkpt lat="45.56113" lon="5.94237">
        <ele>294.3</ele>
        <time>2011-05-22T07:41:02Z</time>
      </trkpt>
      <trkpt lat="45.56115" lon="5.94244">
        <ele>294.78</ele>
        <time>2011-05-22T07:41:03Z</time>
      </trkpt>
      <trkpt lat="45.56117" lon="5.9425">
        <ele>294.3</ele>
        <time>2011-05-22T07:41:04Z</time>
      </trkpt>
      <trkpt lat="45.56118" lon="5.94257">
        <ele>294.3</ele>
        <time>2011-05-22T07:41:05Z</time>
      </trkpt>
      <trkpt lat="45.56118" lon="5.94263">
        <ele>293.82</ele>
        <time>2011-05-22T07:41:06Z</time>
      </trkpt>
      <trkpt lat="45.56118" lon="5.9427">
        <ele>293.82</ele>
        <time>2011-05-22T07:41:07Z</time>
      </trkpt>
      <trkpt lat="45.56117" lon="5.94278">
        <ele>293.82</ele>
        <time>2011-05-22T07:41:08Z</time>
      </trkpt>
      <trkpt lat="45.56116" lon="5.94285">
        <ele>293.82</ele>
        <time>2011-05-22T07:41:09Z</time>
      </trkpt>
      <trkpt lat="45.56115" lon="5.94293">
        <ele>294.3</ele>
        <time>2011-05-22T07:41:10Z</time>
      </trkpt>
      <trkpt lat="45.56105" lon="5.94382">
        <ele>294.3</ele>
        <time>2011-05-22T07:41:22Z</time>
      </trkpt>
      <trkpt lat="45.56085" lon="5.94473">
        <ele>294.3</ele>
        <time>2011-05-22T07:41:35Z</time>
      </trkpt>
      <trkpt lat="45.56075" lon="5.94506">
        <ele>294.3</ele>
        <time>2011-05-22T07:41:40Z</time>
      </trkpt>
      <trkpt lat="45.5607" lon="5.94519">
        <ele>294.78</ele>
        <time>2011-05-22T07:41:42Z</time>
      </trkpt>
      <trkpt lat="45.56067" lon="5.94525">
        <ele>294.3</ele>
        <time>2011-05-22T07:41:43Z</time>
      </trkpt>
      <trkpt lat="45.56063" lon="5.94529">
        <ele>294.78</ele>
        <time>2011-05-22T07:41:44Z</time>
      </trkpt>
      <trkpt lat="45.56058" lon="5.94533">
        <ele>294.3</ele>
        <time>2011-05-22T07:41:45Z</time>
      </trkpt>
      <trkpt lat="45.56053" lon="5.94536">
        <ele>294.3</ele>
        <time>2011-05-22T07:41:46Z</time>
      </trkpt>
      <trkpt lat="45.56048" lon="5.94538">
        <ele>294.3</ele>
        <time>2011-05-22T07:41:47Z</time>
      </trkpt>
      <trkpt lat="45.56043" lon="5.94539">
        <ele>294.3</ele>
        <time>2011-05-22T07:41:48Z</time>
      </trkpt>
      <trkpt lat="45.56037" lon="5.9454">
        <ele>294.3</ele>
        <time>2011-05-22T07:41:49Z</time>
      </trkpt>
      <trkpt lat="45.55956" lon="5.94563">
        <ele>294.3</ele>
        <time>2011-05-22T07:42:04Z</time>
      </trkpt>
      <trkpt lat="45.55952" lon="5.94567">
        <ele>294.3</ele>
        <time>2011-05-22T07:42:05Z</time>
      </trkpt>
      <trkpt lat="45.55948" lon="5.94572">
        <ele>294.3</ele>
        <time>2011-05-22T07:42:06Z</time>
      </trkpt>
      <trkpt lat="45.55944" lon="5.94578">
        <ele>294.3</ele>
        <time>2011-05-22T07:42:07Z</time>
      </trkpt>
      <trkpt lat="45.55934" lon="5.94597">
        <ele>294.3</ele>
        <time>2011-05-22T07:42:10Z</time>
      </trkpt>
      <trkpt lat="45.5589" lon="5.94686">
        <ele>295.74</ele>
        <time>2011-05-22T07:42:24Z</time>
      </trkpt>
      <trkpt lat="45.55871" lon="5.94768">
        <ele>295.26</ele>
        <time>2011-05-22T07:42:35Z</time>
      </trkpt>
      <trkpt lat="45.55869" lon="5.94775">
        <ele>295.74</ele>
        <time>2011-05-22T07:42:36Z</time>
      </trkpt>
      <trkpt lat="45.55868" lon="5.94781">
        <ele>296.22</ele>
        <time>2011-05-22T07:42:37Z</time>
      </trkpt>
      <trkpt lat="45.55866" lon="5.94785">
        <ele>296.22</ele>
        <time>2011-05-22T07:42:38Z</time>
      </trkpt>
      <trkpt lat="45.55863" lon="5.94789">
        <ele>296.7</ele>
        <time>2011-05-22T07:42:39Z</time>
      </trkpt>
      <trkpt lat="45.55859" lon="5.94791">
        <ele>296.22</ele>
        <time>2011-05-22T07:42:40Z</time>
      </trkpt>
      <trkpt lat="45.55856" lon="5.94794">
        <ele>296.7</ele>
        <time>2011-05-22T07:42:41Z</time>
      </trkpt>
      <trkpt lat="45.55851" lon="5.94796">
        <ele>296.7</ele>
        <time>2011-05-22T07:42:42Z</time>
      </trkpt>
      <trkpt lat="45.55764" lon="5.94846">
        <ele>297.18</ele>
        <time>2011-05-22T07:43:02Z</time>
      </trkpt>
      <trkpt lat="45.5576" lon="5.94851">
        <ele>296.7</ele>
        <time>2011-05-22T07:43:04Z</time>
      </trkpt>
      <trkpt lat="45.5576" lon="5.94853">
        <ele>296.7</ele>
        <time>2011-05-22T07:43:05Z</time>
      </trkpt>
      <trkpt lat="45.55764" lon="5.94868">
        <ele>296.22</ele>
        <time>2011-05-22T07:43:09Z</time>
      </trkpt>
      <trkpt lat="45.55764" lon="5.94873">
        <ele>296.7</ele>
        <time>2011-05-22T07:43:10Z</time>
      </trkpt>
      <trkpt lat="45.55762" lon="5.94879">
        <ele>295.74</ele>
        <time>2011-05-22T07:43:11Z</time>
      </trkpt>
      <trkpt lat="45.55759" lon="5.94883">
        <ele>296.22</ele>
        <time>2011-05-22T07:43:12Z</time>
      </trkpt>
      <trkpt lat="45.55755" lon="5.94887">
        <ele>296.22</ele>
        <time>2011-05-22T07:43:13Z</time>
      </trkpt>
      <trkpt lat="45.55748" lon="5.94895">
        <ele>296.7</ele>
        <time>2011-05-22T07:43:15Z</time>
      </trkpt>
      <trkpt lat="45.55743" lon="5.94898">
        <ele>296.22</ele>
        <time>2011-05-22T07:43:16Z</time>
      </trkpt>
      <trkpt lat="45.55731" lon="5.94907">
        <ele>296.22</ele>
        <time>2011-05-22T07:43:19Z</time>
      </trkpt>
      <trkpt lat="45.55727" lon="5.94911">
        <ele>296.22</ele>
        <time>2011-05-22T07:43:20Z</time>
      </trkpt>
      <trkpt lat="45.55713" lon="5.94929">
        <ele>296.22</ele>
        <time>2011-05-22T07:43:24Z</time>
      </trkpt>
      <trkpt lat="45.55689" lon="5.9497">
        <ele>296.7</ele>
        <time>2011-05-22T07:43:32Z</time>
      </trkpt>
      <trkpt lat="45.55685" lon="5.94974">
        <ele>296.7</ele>
        <time>2011-05-22T07:43:33Z</time>
      </trkpt>
      <trkpt lat="45.55632" lon="5.95035">
        <ele>297.18</ele>
        <time>2011-05-22T07:43:46Z</time>
      </trkpt>
      <trkpt lat="45.55568" lon="5.95116">
        <ele>297.18</ele>
        <time>2011-05-22T07:44:01Z</time>
      </trkpt>
      <trkpt lat="45.55551" lon="5.95138">
        <ele>297.18</ele>
        <time>2011-05-22T07:44:05Z</time>
      </trkpt>
      <trkpt lat="45.55547" lon="5.95143">
        <ele>297.18</ele>
        <time>2011-05-22T07:44:06Z</time>
      </trkpt>
      <trkpt lat="45.55474" lon="5.95237">
        <ele>296.7</ele>
        <time>2011-05-22T07:44:23Z</time>
      </trkpt>
      <trkpt lat="45.55403" lon="5.95327">
        <ele>296.7</ele>
        <time>2011-05-22T07:44:40Z</time>
      </trkpt>
      <trkpt lat="45.55366" lon="5.95365">
        <ele>299.11</ele>
        <time>2011-05-22T07:44:51Z</time>
      </trkpt>
      <trkpt lat="45.55351" lon="5.95386">
        <ele>299.11</ele>
        <time>2011-05-22T07:44:56Z</time>
      </trkpt>
      <trkpt lat="45.5535" lon="5.95391">
        <ele>299.11</ele>
        <time>2011-05-22T07:44:57Z</time>
      </trkpt>
      <trkpt lat="45.55349" lon="5.95397">
        <ele>299.11</ele>
        <time>2011-05-22T07:44:58Z</time>
      </trkpt>
      <trkpt lat="45.55349" lon="5.95403">
        <ele>299.11</ele>
        <time>2011-05-22T07:44:59Z</time>
      </trkpt>
      <trkpt lat="45.55351" lon="5.95408">
        <ele>298.63</ele>
        <time>2011-05-22T07:45:00Z</time>
      </trkpt>
      <trkpt lat="45.55353" lon="5.95414">
        <ele>298.15</ele>
        <time>2011-05-22T07:45:01Z</time>
      </trkpt>
      <trkpt lat="45.55357" lon="5.95418">
        <ele>298.63</ele>
        <time>2011-05-22T07:45:02Z</time>
      </trkpt>
      <trkpt lat="45.5536" lon="5.95422">
        <ele>298.63</ele>
        <time>2011-05-22T07:45:03Z</time>
      </trkpt>
      <trkpt lat="45.55364" lon="5.95425">
        <ele>298.63</ele>
        <time>2011-05-22T07:45:04Z</time>
      </trkpt>
      <trkpt lat="45.55367" lon="5.95428">
        <ele>298.63</ele>
        <time>2011-05-22T07:45:05Z</time>
      </trkpt>
      <trkpt lat="45.55371" lon="5.9543">
        <ele>298.15</ele>
        <time>2011-05-22T07:45:06Z</time>
      </trkpt>
      <trkpt lat="45.55375" lon="5.95429">
        <ele>297.18</ele>
        <time>2011-05-22T07:45:07Z</time>
      </trkpt>
      <trkpt lat="45.5538" lon="5.95426">
        <ele>296.7</ele>
        <time>2011-05-22T07:45:08Z</time>
      </trkpt>
      <trkpt lat="45.55383" lon="5.95421">
        <ele>297.67</ele>
        <time>2011-05-22T07:45:09Z</time>
      </trkpt>
      <trkpt lat="45.55387" lon="5.95415">
        <ele>297.18</ele>
        <time>2011-05-22T07:45:10Z</time>
      </trkpt>
      <trkpt lat="45.55392" lon="5.95412">
        <ele>297.18</ele>
        <time>2011-05-22T07:45:11Z</time>
      </trkpt>
      <trkpt lat="45.55396" lon="5.95411">
        <ele>297.18</ele>
        <time>2011-05-22T07:45:12Z</time>
      </trkpt>
      <trkpt lat="45.55401" lon="5.95413">
        <ele>297.18</ele>
        <time>2011-05-22T07:45:13Z</time>
      </trkpt>
      <trkpt lat="45.55405" lon="5.95416">
        <ele>297.18</ele>
        <time>2011-05-22T07:45:14Z</time>
      </trkpt>
      <trkpt lat="45.55424" lon="5.95426">
        <ele>297.18</ele>
        <time>2011-05-22T07:45:18Z</time>
      </trkpt>
      <trkpt lat="45.55429" lon="5.95426">
        <ele>297.18</ele>
        <time>2011-05-22T07:45:19Z</time>
      </trkpt>
      <trkpt lat="45.55434" lon="5.95424">
        <ele>296.7</ele>
        <time>2011-05-22T07:45:20Z</time>
      </trkpt>
      <trkpt lat="45.5544" lon="5.95422">
        <ele>297.18</ele>
        <time>2011-05-22T07:45:21Z</time>
      </trkpt>
      <trkpt lat="45.55444" lon="5.95419">
        <ele>297.18</ele>
        <time>2011-05-22T07:45:22Z</time>
      </trkpt>
      <trkpt lat="45.55449" lon="5.95415">
        <ele>297.18</ele>
        <time>2011-05-22T07:45:23Z</time>
      </trkpt>
      <trkpt lat="45.55454" lon="5.9541">
        <ele>297.18</ele>
        <time>2011-05-22T07:45:24Z</time>
      </trkpt>
      <trkpt lat="45.55457" lon="5.95405">
        <ele>297.18</ele>
        <time>2011-05-22T07:45:25Z</time>
      </trkpt>
      <trkpt lat="45.55461" lon="5.95398">
        <ele>296.7</ele>
        <time>2011-05-22T07:45:26Z</time>
      </trkpt>
      <trkpt lat="45.55465" lon="5.95391">
        <ele>296.7</ele>
        <time>2011-05-22T07:45:27Z</time>
      </trkpt>
      <trkpt lat="45.55469" lon="5.95385">
        <ele>296.7</ele>
        <time>2011-05-22T07:45:28Z</time>
      </trkpt>
      <trkpt lat="45.55473" lon="5.9538">
        <ele>296.22</ele>
        <time>2011-05-22T07:45:29Z</time>
      </trkpt>
      <trkpt lat="45.55478" lon="5.95378">
        <ele>296.22</ele>
        <time>2011-05-22T07:45:30Z</time>
      </trkpt>
      <trkpt lat="45.55483" lon="5.95378">
        <ele>295.74</ele>
        <time>2011-05-22T07:45:31Z</time>
      </trkpt>
      <trkpt lat="45.55486" lon="5.9538">
        <ele>295.26</ele>
        <time>2011-05-22T07:45:32Z</time>
      </trkpt>
      <trkpt lat="45.5549" lon="5.95384">
        <ele>295.26</ele>
        <time>2011-05-22T07:45:33Z</time>
      </trkpt>
      <trkpt lat="45.55507" lon="5.95412">
        <ele>296.22</ele>
        <time>2011-05-22T07:45:39Z</time>
      </trkpt>
      <trkpt lat="45.55508" lon="5.95418">
        <ele>296.22</ele>
        <time>2011-05-22T07:45:40Z</time>
      </trkpt>
      <trkpt lat="45.55516" lon="5.95425">
        <ele>296.22</ele>
        <time>2011-05-22T07:45:41Z</time>
      </trkpt>
      <trkpt lat="45.55516" lon="5.95435">
        <ele>296.22</ele>
        <time>2011-05-22T07:45:42Z</time>
      </trkpt>
      <trkpt lat="45.55518" lon="5.95441">
        <ele>296.7</ele>
        <time>2011-05-22T07:45:43Z</time>
      </trkpt>
      <trkpt lat="45.55521" lon="5.95446">
        <ele>297.18</ele>
        <time>2011-05-22T07:45:44Z</time>
      </trkpt>
      <trkpt lat="45.5554" lon="5.95487">
        <ele>298.15</ele>
        <time>2011-05-22T07:45:53Z</time>
      </trkpt>
      <trkpt lat="45.55572" lon="5.95546">
        <ele>299.11</ele>
        <time>2011-05-22T07:46:05Z</time>
      </trkpt>
      <trkpt lat="45.55637" lon="5.95627">
        <ele>300.07</ele>
        <time>2011-05-22T07:46:23Z</time>
      </trkpt>
      <trkpt lat="45.557" lon="5.95695">
        <ele>301.03</ele>
        <time>2011-05-22T07:46:39Z</time>
      </trkpt>
      <trkpt lat="45.55742" lon="5.95743">
        <ele>304.39</ele>
        <time>2011-05-22T07:46:52Z</time>
      </trkpt>
      <trkpt lat="45.55797" lon="5.95804">
        <ele>301.99</ele>
        <time>2011-05-22T07:47:07Z</time>
      </trkpt>
      <trkpt lat="45.55801" lon="5.9581">
        <ele>301.99</ele>
        <time>2011-05-22T07:47:16Z</time>
      </trkpt>
      <trkpt lat="45.55801" lon="5.9581">
        <ele>301.51</ele>
        <time>2011-05-22T07:47:46Z</time>
      </trkpt>
      <trkpt lat="45.55801" lon="5.9581">
        <ele>301.51</ele>
        <time>2011-05-22T07:47:50Z</time>
      </trkpt>
      <trkpt lat="45.55803" lon="5.95813">
        <ele>301.51</ele>
        <time>2011-05-22T07:47:52Z</time>
      </trkpt>
      <trkpt lat="45.55805" lon="5.95815">
        <ele>301.51</ele>
        <time>2011-05-22T07:47:53Z</time>
      </trkpt>
      <trkpt lat="45.55807" lon="5.95818">
        <ele>301.51</ele>
        <time>2011-05-22T07:47:54Z</time>
      </trkpt>
      <trkpt lat="45.5581" lon="5.95821">
        <ele>301.51</ele>
        <time>2011-05-22T07:47:55Z</time>
      </trkpt>
      <trkpt lat="45.55813" lon="5.95825">
        <ele>301.51</ele>
        <time>2011-05-22T07:47:56Z</time>
      </trkpt>
      <trkpt lat="45.55817" lon="5.9583">
        <ele>301.51</ele>
        <time>2011-05-22T07:47:57Z</time>
      </trkpt>
      <trkpt lat="45.5589" lon="5.95913">
        <ele>300.55</ele>
        <time>2011-05-22T07:48:14Z</time>
      </trkpt>
      <trkpt lat="45.5599" lon="5.95994">
        <ele>301.03</ele>
        <time>2011-05-22T07:48:34Z</time>
      </trkpt>
      <trkpt lat="45.56005" lon="5.96005">
        <ele>301.03</ele>
        <time>2011-05-22T07:48:37Z</time>
      </trkpt>
      <trkpt lat="45.5601" lon="5.96007">
        <ele>301.03</ele>
        <time>2011-05-22T07:48:38Z</time>
      </trkpt>
      <trkpt lat="45.56015" lon="5.96009">
        <ele>301.51</ele>
        <time>2011-05-22T07:48:39Z</time>
      </trkpt>
      <trkpt lat="45.5602" lon="5.96012">
        <ele>301.51</ele>
        <time>2011-05-22T07:48:40Z</time>
      </trkpt>
      <trkpt lat="45.56025" lon="5.96016">
        <ele>301.51</ele>
        <time>2011-05-22T07:48:41Z</time>
      </trkpt>
      <trkpt lat="45.56044" lon="5.9603">
        <ele>301.51</ele>
        <time>2011-05-22T07:48:45Z</time>
      </trkpt>
      <trkpt lat="45.56048" lon="5.96035">
        <ele>301.99</ele>
        <time>2011-05-22T07:48:46Z</time>
      </trkpt>
      <trkpt lat="45.56062" lon="5.96049">
        <ele>301.99</ele>
        <time>2011-05-22T07:48:49Z</time>
      </trkpt>
      <trkpt lat="45.56067" lon="5.96052">
        <ele>301.51</ele>
        <time>2011-05-22T07:48:50Z</time>
      </trkpt>
      <trkpt lat="45.56149" lon="5.96108">
        <ele>301.51</ele>
        <time>2011-05-22T07:49:06Z</time>
      </trkpt>
      <trkpt lat="45.56225" lon="5.96196">
        <ele>302.95</ele>
        <time>2011-05-22T07:49:24Z</time>
      </trkpt>
      <trkpt lat="45.56276" lon="5.96306">
        <ele>303.43</ele>
        <time>2011-05-22T07:49:39Z</time>
      </trkpt>
      <trkpt lat="45.56281" lon="5.9632">
        <ele>303.43</ele>
        <time>2011-05-22T07:49:41Z</time>
      </trkpt>
      <trkpt lat="45.56284" lon="5.96327">
        <ele>303.91</ele>
        <time>2011-05-22T07:49:42Z</time>
      </trkpt>
      <trkpt lat="45.56332" lon="5.96434">
        <ele>304.88</ele>
        <time>2011-05-22T07:49:58Z</time>
      </trkpt>
      <trkpt lat="45.56334" lon="5.96441">
        <ele>304.88</ele>
        <time>2011-05-22T07:49:59Z</time>
      </trkpt>
      <trkpt lat="45.56335" lon="5.96449">
        <ele>304.39</ele>
        <time>2011-05-22T07:50:00Z</time>
      </trkpt>
      <trkpt lat="45.56336" lon="5.96457">
        <ele>304.88</ele>
        <time>2011-05-22T07:50:01Z</time>
      </trkpt>
      <trkpt lat="45.56339" lon="5.96463">
        <ele>305.36</ele>
        <time>2011-05-22T07:50:02Z</time>
      </trkpt>
      <trkpt lat="45.56343" lon="5.96469">
        <ele>305.36</ele>
        <time>2011-05-22T07:50:03Z</time>
      </trkpt>
      <trkpt lat="45.56347" lon="5.96472">
        <ele>304.39</ele>
        <time>2011-05-22T07:50:04Z</time>
      </trkpt>
      <trkpt lat="45.56353" lon="5.96474">
        <ele>304.39</ele>
        <time>2011-05-22T07:50:05Z</time>
      </trkpt>
      <trkpt lat="45.56358" lon="5.96474">
        <ele>304.39</ele>
        <time>2011-05-22T07:50:06Z</time>
      </trkpt>
      <trkpt lat="45.56364" lon="5.96474">
        <ele>304.39</ele>
        <time>2011-05-22T07:50:07Z</time>
      </trkpt>
      <trkpt lat="45.56369" lon="5.96476">
        <ele>304.39</ele>
        <time>2011-05-22T07:50:08Z</time>
      </trkpt>
      <trkpt lat="45.56374" lon="5.96479">
        <ele>304.88</ele>
        <time>2011-05-22T07:50:09Z</time>
      </trkpt>
      <trkpt lat="45.56379" lon="5.96484">
        <ele>305.36</ele>
        <time>2011-05-22T07:50:10Z</time>
      </trkpt>
      <trkpt lat="45.56384" lon="5.96489">
        <ele>304.88</ele>
        <time>2011-05-22T07:50:11Z</time>
      </trkpt>
      <trkpt lat="45.56456" lon="5.96597">
        <ele>305.84</ele>
        <time>2011-05-22T07:50:30Z</time>
      </trkpt>
      <trkpt lat="45.56492" lon="5.96682">
        <ele>306.32</ele>
        <time>2011-05-22T07:50:46Z</time>
      </trkpt>
      <trkpt lat="45.56533" lon="5.96765">
        <ele>307.76</ele>
        <time>2011-05-22T07:51:01Z</time>
      </trkpt>
      <trkpt lat="45.56588" lon="5.96878">
        <ele>308.72</ele>
        <time>2011-05-22T07:51:20Z</time>
      </trkpt>
      <trkpt lat="45.56648" lon="5.97">
        <ele>309.68</ele>
        <time>2011-05-22T07:51:40Z</time>
      </trkpt>
      <trkpt lat="45.56703" lon="5.97117">
        <ele>310.16</ele>
        <time>2011-05-22T07:51:59Z</time>
      </trkpt>
      <trkpt lat="45.56722" lon="5.97153">
        <ele>310.16</ele>
        <time>2011-05-22T07:52:05Z</time>
      </trkpt>
      <trkpt lat="45.56725" lon="5.97159">
        <ele>310.16</ele>
        <time>2011-05-22T07:52:06Z</time>
      </trkpt>
      <trkpt lat="45.56742" lon="5.97196">
        <ele>311.6</ele>
        <time>2011-05-22T07:52:12Z</time>
      </trkpt>
      <trkpt lat="45.5679" lon="5.97297">
        <ele>312.57</ele>
        <time>2011-05-22T07:52:28Z</time>
      </trkpt>
      <trkpt lat="45.56836" lon="5.97387">
        <ele>312.57</ele>
        <time>2011-05-22T07:52:43Z</time>
      </trkpt>
      <trkpt lat="45.56895" lon="5.97511">
        <ele>314.01</ele>
        <time>2011-05-22T07:53:03Z</time>
      </trkpt>
      <trkpt lat="45.5693" lon="5.97585">
        <ele>314.01</ele>
        <time>2011-05-22T07:53:15Z</time>
      </trkpt>
      <trkpt lat="45.56934" lon="5.97599">
        <ele>314.49</ele>
        <time>2011-05-22T07:53:17Z</time>
      </trkpt>
      <trkpt lat="45.56937" lon="5.97604">
        <ele>314.01</ele>
        <time>2011-05-22T07:53:18Z</time>
      </trkpt>
      <trkpt lat="45.56942" lon="5.97609">
        <ele>314.49</ele>
        <time>2011-05-22T07:53:19Z</time>
      </trkpt>
      <trkpt lat="45.56946" lon="5.97613">
        <ele>314.01</ele>
        <time>2011-05-22T07:53:20Z</time>
      </trkpt>
      <trkpt lat="45.5695" lon="5.97619">
        <ele>314.01</ele>
        <time>2011-05-22T07:53:21Z</time>
      </trkpt>
      <trkpt lat="45.56953" lon="5.97625">
        <ele>314.49</ele>
        <time>2011-05-22T07:53:22Z</time>
      </trkpt>
      <trkpt lat="45.56956" lon="5.97631">
        <ele>314.01</ele>
        <time>2011-05-22T07:53:23Z</time>
      </trkpt>
      <trkpt lat="45.57015" lon="5.9775">
        <ele>314.97</ele>
        <time>2011-05-22T07:53:42Z</time>
      </trkpt>
      <trkpt lat="45.57029" lon="5.9778">
        <ele>314.49</ele>
        <time>2011-05-22T07:53:47Z</time>
      </trkpt>
      <trkpt lat="45.57031" lon="5.97787">
        <ele>314.49</ele>
        <time>2011-05-22T07:53:48Z</time>
      </trkpt>
      <trkpt lat="45.57031" lon="5.97795">
        <ele>314.49</ele>
        <time>2011-05-22T07:53:49Z</time>
      </trkpt>
      <trkpt lat="45.57029" lon="5.97802">
        <ele>314.49</ele>
        <time>2011-05-22T07:53:50Z</time>
      </trkpt>
      <trkpt lat="45.57027" lon="5.97809">
        <ele>314.01</ele>
        <time>2011-05-22T07:53:51Z</time>
      </trkpt>
      <trkpt lat="45.57024" lon="5.97816">
        <ele>314.49</ele>
        <time>2011-05-22T07:53:52Z</time>
      </trkpt>
      <trkpt lat="45.5702" lon="5.97822">
        <ele>314.01</ele>
        <time>2011-05-22T07:53:53Z</time>
      </trkpt>
      <trkpt lat="45.56996" lon="5.97864">
        <ele>313.53</ele>
        <time>2011-05-22T07:54:00Z</time>
      </trkpt>
      <trkpt lat="45.56989" lon="5.97877">
        <ele>314.01</ele>
        <time>2011-05-22T07:54:02Z</time>
      </trkpt>
      <trkpt lat="45.56971" lon="5.97905">
        <ele>312.57</ele>
        <time>2011-05-22T07:54:07Z</time>
      </trkpt>
      <trkpt lat="45.5694" lon="5.97951">
        <ele>312.09</ele>
        <time>2011-05-22T07:54:17Z</time>
      </trkpt>
      <trkpt lat="45.56941" lon="5.97957">
        <ele>312.09</ele>
        <time>2011-05-22T07:54:18Z</time>
      </trkpt>
      <trkpt lat="45.56942" lon="5.97963">
        <ele>312.57</ele>
        <time>2011-05-22T07:54:19Z</time>
      </trkpt>
      <trkpt lat="45.56975" lon="5.98065">
        <ele>312.57</ele>
        <time>2011-05-22T07:54:34Z</time>
      </trkpt>
      <trkpt lat="45.57007" lon="5.98171">
        <ele>314.01</ele>
        <time>2011-05-22T07:54:50Z</time>
      </trkpt>
      <trkpt lat="45.57008" lon="5.98178">
        <ele>314.01</ele>
        <time>2011-05-22T07:54:51Z</time>
      </trkpt>
      <trkpt lat="45.57008" lon="5.98184">
        <ele>314.01</ele>
        <time>2011-05-22T07:54:52Z</time>
      </trkpt>
      <trkpt lat="45.57007" lon="5.98191">
        <ele>314.01</ele>
        <time>2011-05-22T07:54:53Z</time>
      </trkpt>
      <trkpt lat="45.57007" lon="5.98198">
        <ele>314.01</ele>
        <time>2011-05-22T07:54:54Z</time>
      </trkpt>
      <trkpt lat="45.57007" lon="5.98205">
        <ele>314.01</ele>
        <time>2011-05-22T07:54:55Z</time>
      </trkpt>
      <trkpt lat="45.57008" lon="5.98212">
        <ele>314.01</ele>
        <time>2011-05-22T07:54:56Z</time>
      </trkpt>
      <trkpt lat="45.57008" lon="5.98218">
        <ele>314.01</ele>
        <time>2011-05-22T07:54:57Z</time>
      </trkpt>
      <trkpt lat="45.57008" lon="5.98224">
        <ele>314.01</ele>
        <time>2011-05-22T07:54:58Z</time>
      </trkpt>
      <trkpt lat="45.57008" lon="5.98242">
        <ele>314.97</ele>
        <time>2011-05-22T07:55:01Z</time>
      </trkpt>
      <trkpt lat="45.57007" lon="5.98247">
        <ele>314.97</ele>
        <time>2011-05-22T07:55:02Z</time>
      </trkpt>
      <trkpt lat="45.5699" lon="5.98298">
        <ele>314.97</ele>
        <time>2011-05-22T07:55:15Z</time>
      </trkpt>
      <trkpt lat="45.56985" lon="5.98306">
        <ele>314.97</ele>
        <time>2011-05-22T07:55:19Z</time>
      </trkpt>
      <trkpt lat="45.56984" lon="5.98309">
        <ele>314.97</ele>
        <time>2011-05-22T07:55:20Z</time>
      </trkpt>
      <trkpt lat="45.56982" lon="5.98311">
        <ele>314.97</ele>
        <time>2011-05-22T07:55:21Z</time>
      </trkpt>
      <trkpt lat="45.5698" lon="5.98313">
        <ele>319.78</ele>
        <time>2011-05-22T07:55:22Z</time>
      </trkpt>
      <trkpt lat="45.56979" lon="5.98316">
        <ele>319.78</ele>
        <time>2011-05-22T07:55:23Z</time>
      </trkpt>
      <trkpt lat="45.56977" lon="5.98318">
        <ele>319.78</ele>
        <time>2011-05-22T07:55:24Z</time>
      </trkpt>
      <trkpt lat="45.56973" lon="5.98334">
        <ele>319.78</ele>
        <time>2011-05-22T07:55:29Z</time>
      </trkpt>
      <trkpt lat="45.56974" lon="5.98337">
        <ele>319.78</ele>
        <time>2011-05-22T07:55:30Z</time>
      </trkpt>
      <trkpt lat="45.56975" lon="5.9834">
        <ele>319.78</ele>
        <time>2011-05-22T07:55:31Z</time>
      </trkpt>
      <trkpt lat="45.56977" lon="5.98343">
        <ele>322.66</ele>
        <time>2011-05-22T07:55:32Z</time>
      </trkpt>
      <trkpt lat="45.56978" lon="5.98345">
        <ele>322.66</ele>
        <time>2011-05-22T07:55:33Z</time>
      </trkpt>
      <trkpt lat="45.5698" lon="5.98347">
        <ele>323.14</ele>
        <time>2011-05-22T07:55:34Z</time>
      </trkpt>
      <trkpt lat="45.56982" lon="5.98348">
        <ele>322.66</ele>
        <time>2011-05-22T07:55:35Z</time>
      </trkpt>
      <trkpt lat="45.56985" lon="5.9835">
        <ele>323.14</ele>
        <time>2011-05-22T07:55:36Z</time>
      </trkpt>
      <trkpt lat="45.57011" lon="5.98352">
        <ele>326.02</ele>
        <time>2011-05-22T07:55:48Z</time>
      </trkpt>
      <trkpt lat="45.57037" lon="5.98344">
        <ele>329.39</ele>
        <time>2011-05-22T07:56:00Z</time>
      </trkpt>
      <trkpt lat="45.57065" lon="5.98334">
        <ele>332.75</ele>
        <time>2011-05-22T07:56:13Z</time>
      </trkpt>
      <trkpt lat="45.57093" lon="5.98335">
        <ele>336.12</ele>
        <time>2011-05-22T07:56:26Z</time>
      </trkpt>
      <trkpt lat="45.5712" lon="5.98348">
        <ele>339</ele>
        <time>2011-05-22T07:56:40Z</time>
      </trkpt>
      <trkpt lat="45.57146" lon="5.98361">
        <ele>342.37</ele>
        <time>2011-05-22T07:56:53Z</time>
      </trkpt>
      <trkpt lat="45.57169" lon="5.98366">
        <ele>345.25</ele>
        <time>2011-05-22T07:57:05Z</time>
      </trkpt>
      <trkpt lat="45.57187" lon="5.98379">
        <ele>348.62</ele>
        <time>2011-05-22T07:57:17Z</time>
      </trkpt>
      <trkpt lat="45.57198" lon="5.98379">
        <ele>349.58</ele>
        <time>2011-05-22T07:57:23Z</time>
      </trkpt>
      <trkpt lat="45.57202" lon="5.98375">
        <ele>349.58</ele>
        <time>2011-05-22T07:57:25Z</time>
      </trkpt>
      <trkpt lat="45.57203" lon="5.98372">
        <ele>350.06</ele>
        <time>2011-05-22T07:57:26Z</time>
      </trkpt>
      <trkpt lat="45.57203" lon="5.98368">
        <ele>350.06</ele>
        <time>2011-05-22T07:57:27Z</time>
      </trkpt>
      <trkpt lat="45.57219" lon="5.98344">
        <ele>353.42</ele>
        <time>2011-05-22T07:57:40Z</time>
      </trkpt>
      <trkpt lat="45.57239" lon="5.98344">
        <ele>356.31</ele>
        <time>2011-05-22T07:57:50Z</time>
      </trkpt>
      <trkpt lat="45.57264" lon="5.98328">
        <ele>358.71</ele>
        <time>2011-05-22T07:58:04Z</time>
      </trkpt>
      <trkpt lat="45.57287" lon="5.98332">
        <ele>362.07</ele>
        <time>2011-05-22T07:58:16Z</time>
      </trkpt>
      <trkpt lat="45.57289" lon="5.98334">
        <ele>362.07</ele>
        <time>2011-05-22T07:58:17Z</time>
      </trkpt>
      <trkpt lat="45.57288" lon="5.98372">
        <ele>364.96</ele>
        <time>2011-05-22T07:58:31Z</time>
      </trkpt>
      <trkpt lat="45.57261" lon="5.98386">
        <ele>367.84</ele>
        <time>2011-05-22T07:58:44Z</time>
      </trkpt>
      <trkpt lat="45.57235" lon="5.98404">
        <ele>370.24</ele>
        <time>2011-05-22T07:58:57Z</time>
      </trkpt>
      <trkpt lat="45.57248" lon="5.98418">
        <ele>371.69</ele>
        <time>2011-05-22T07:59:05Z</time>
      </trkpt>
      <trkpt lat="45.57251" lon="5.98417">
        <ele>372.17</ele>
        <time>2011-05-22T07:59:06Z</time>
      </trkpt>
      <trkpt lat="45.5729" lon="5.98421">
        <ele>375.05</ele>
        <time>2011-05-22T07:59:22Z</time>
      </trkpt>
      <trkpt lat="45.57314" lon="5.98423">
        <ele>378.42</ele>
        <time>2011-05-22T07:59:33Z</time>
      </trkpt>
      <trkpt lat="45.57341" lon="5.98416">
        <ele>381.78</ele>
        <time>2011-05-22T07:59:46Z</time>
      </trkpt>
      <trkpt lat="45.57354" lon="5.98404">
        <ele>383.22</ele>
        <time>2011-05-22T07:59:54Z</time>
      </trkpt>
      <trkpt lat="45.57356" lon="5.98406">
        <ele>383.7</ele>
        <time>2011-05-22T07:59:55Z</time>
      </trkpt>
      <trkpt lat="45.57357" lon="5.98412">
        <ele>383.7</ele>
        <time>2011-05-22T07:59:58Z</time>
      </trkpt>
      <trkpt lat="45.57355" lon="5.98414">
        <ele>383.7</ele>
        <time>2011-05-22T07:59:59Z</time>
      </trkpt>
      <trkpt lat="45.57352" lon="5.98417">
        <ele>384.18</ele>
        <time>2011-05-22T08:00:00Z</time>
      </trkpt>
      <trkpt lat="45.57351" lon="5.98419">
        <ele>383.7</ele>
        <time>2011-05-22T08:00:01Z</time>
      </trkpt>
      <trkpt lat="45.57348" lon="5.98421">
        <ele>384.18</ele>
        <time>2011-05-22T08:00:02Z</time>
      </trkpt>
      <trkpt lat="45.57346" lon="5.98423">
        <ele>384.18</ele>
        <time>2011-05-22T08:00:03Z</time>
      </trkpt>
      <trkpt lat="45.57344" lon="5.98425">
        <ele>384.18</ele>
        <time>2011-05-22T08:00:04Z</time>
      </trkpt>
      <trkpt lat="45.57341" lon="5.98428">
        <ele>384.18</ele>
        <time>2011-05-22T08:00:05Z</time>
      </trkpt>
      <trkpt lat="45.57308" lon="5.98454">
        <ele>385.63</ele>
        <time>2011-05-22T08:00:20Z</time>
      </trkpt>
      <trkpt lat="45.57306" lon="5.98455">
        <ele>385.15</ele>
        <time>2011-05-22T08:00:33Z</time>
      </trkpt>
      <trkpt lat="45.57306" lon="5.98455">
        <ele>385.63</ele>
        <time>2011-05-22T08:01:02Z</time>
      </trkpt>
      <trkpt lat="45.57307" lon="5.98455">
        <ele>385.63</ele>
        <time>2011-05-22T08:01:29Z</time>
      </trkpt>
      <trkpt lat="45.57307" lon="5.98455">
        <ele>385.15</ele>
        <time>2011-05-22T08:02:02Z</time>
      </trkpt>
      <trkpt lat="45.57307" lon="5.98455">
        <ele>384.66</ele>
        <time>2011-05-22T08:02:34Z</time>
      </trkpt>
      <trkpt lat="45.57306" lon="5.98456">
        <ele>385.15</ele>
        <time>2011-05-22T08:02:38Z</time>
      </trkpt>
      <trkpt lat="45.57278" lon="5.98469">
        <ele>387.07</ele>
        <time>2011-05-22T08:02:49Z</time>
      </trkpt>
      <trkpt lat="45.57246" lon="5.98483">
        <ele>388.99</ele>
        <time>2011-05-22T08:03:01Z</time>
      </trkpt>
      <trkpt lat="45.5721" lon="5.98499">
        <ele>390.43</ele>
        <time>2011-05-22T08:03:14Z</time>
      </trkpt>
      <trkpt lat="45.57175" lon="5.98515">
        <ele>392.36</ele>
        <time>2011-05-22T08:03:27Z</time>
      </trkpt>
      <trkpt lat="45.57141" lon="5.98515">
        <ele>394.28</ele>
        <time>2011-05-22T08:03:40Z</time>
      </trkpt>
      <trkpt lat="45.57089" lon="5.98494">
        <ele>395.72</ele>
        <time>2011-05-22T08:03:56Z</time>
      </trkpt>
      <trkpt lat="45.57044" lon="5.98499">
        <ele>394.76</ele>
        <time>2011-05-22T08:04:06Z</time>
      </trkpt>
      <trkpt lat="45.57034" lon="5.98499">
        <ele>394.76</ele>
        <time>2011-05-22T08:04:08Z</time>
      </trkpt>
      <trkpt lat="45.57024" lon="5.98501">
        <ele>394.28</ele>
        <time>2011-05-22T08:04:10Z</time>
      </trkpt>
      <trkpt lat="45.57009" lon="5.98507">
        <ele>393.8</ele>
        <time>2011-05-22T08:04:13Z</time>
      </trkpt>
      <trkpt lat="45.57004" lon="5.98511">
        <ele>393.32</ele>
        <time>2011-05-22T08:04:14Z</time>
      </trkpt>
      <trkpt lat="45.56999" lon="5.98515">
        <ele>392.84</ele>
        <time>2011-05-22T08:04:15Z</time>
      </trkpt>
      <trkpt lat="45.56989" lon="5.98525">
        <ele>391.87</ele>
        <time>2011-05-22T08:04:17Z</time>
      </trkpt>
      <trkpt lat="45.56977" lon="5.98534">
        <ele>390.91</ele>
        <time>2011-05-22T08:04:19Z</time>
      </trkpt>
      <trkpt lat="45.56923" lon="5.98571">
        <ele>389.95</ele>
        <time>2011-05-22T08:04:28Z</time>
      </trkpt>
      <trkpt lat="45.56897" lon="5.98587">
        <ele>390.43</ele>
        <time>2011-05-22T08:04:33Z</time>
      </trkpt>
      <trkpt lat="45.56892" lon="5.98589">
        <ele>390.43</ele>
        <time>2011-05-22T08:04:34Z</time>
      </trkpt>
      <trkpt lat="45.56879" lon="5.98592">
        <ele>391.39</ele>
        <time>2011-05-22T08:04:37Z</time>
      </trkpt>
      <trkpt lat="45.56875" lon="5.98591">
        <ele>390.91</ele>
        <time>2011-05-22T08:04:38Z</time>
      </trkpt>
      <trkpt lat="45.5687" lon="5.9859">
        <ele>391.39</ele>
        <time>2011-05-22T08:04:39Z</time>
      </trkpt>
      <trkpt lat="45.56866" lon="5.98588">
        <ele>391.39</ele>
        <time>2011-05-22T08:04:40Z</time>
      </trkpt>
      <trkpt lat="45.56862" lon="5.98586">
        <ele>391.39</ele>
        <time>2011-05-22T08:04:41Z</time>
      </trkpt>
      <trkpt lat="45.56812" lon="5.98573">
        <ele>393.32</ele>
        <time>2011-05-22T08:04:54Z</time>
      </trkpt>
      <trkpt lat="45.56756" lon="5.98562">
        <ele>394.76</ele>
        <time>2011-05-22T08:05:09Z</time>
      </trkpt>
      <trkpt lat="45.56729" lon="5.98548">
        <ele>394.28</ele>
        <time>2011-05-22T08:05:15Z</time>
      </trkpt>
      <trkpt lat="45.56723" lon="5.98548">
        <ele>394.28</ele>
        <time>2011-05-22T08:05:16Z</time>
      </trkpt>
      <trkpt lat="45.56718" lon="5.98548">
        <ele>393.32</ele>
        <time>2011-05-22T08:05:17Z</time>
      </trkpt>
      <trkpt lat="45.56712" lon="5.98549">
        <ele>393.8</ele>
        <time>2011-05-22T08:05:18Z</time>
      </trkpt>
      <trkpt lat="45.56706" lon="5.98551">
        <ele>393.32</ele>
        <time>2011-05-22T08:05:19Z</time>
      </trkpt>
      <trkpt lat="45.56699" lon="5.98553">
        <ele>392.84</ele>
        <time>2011-05-22T08:05:20Z</time>
      </trkpt>
      <trkpt lat="45.56693" lon="5.98556">
        <ele>392.36</ele>
        <time>2011-05-22T08:05:21Z</time>
      </trkpt>
      <trkpt lat="45.5668" lon="5.98562">
        <ele>391.39</ele>
        <time>2011-05-22T08:05:23Z</time>
      </trkpt>
      <trkpt lat="45.56655" lon="5.98572">
        <ele>389.95</ele>
        <time>2011-05-22T08:05:27Z</time>
      </trkpt>
      <trkpt lat="45.56638" lon="5.98579">
        <ele>389.95</ele>
        <time>2011-05-22T08:05:30Z</time>
      </trkpt>
      <trkpt lat="45.56632" lon="5.9858">
        <ele>389.95</ele>
        <time>2011-05-22T08:05:31Z</time>
      </trkpt>
      <trkpt lat="45.56609" lon="5.98581">
        <ele>390.43</ele>
        <time>2011-05-22T08:05:35Z</time>
      </trkpt>
      <trkpt lat="45.56592" lon="5.98578">
        <ele>390.43</ele>
        <time>2011-05-22T08:05:38Z</time>
      </trkpt>
      <trkpt lat="45.56553" lon="5.98565">
        <ele>392.36</ele>
        <time>2011-05-22T08:05:46Z</time>
      </trkpt>
      <trkpt lat="45.56549" lon="5.98564">
        <ele>392.36</ele>
        <time>2011-05-22T08:05:47Z</time>
      </trkpt>
      <trkpt lat="45.56545" lon="5.98563">
        <ele>392.36</ele>
        <time>2011-05-22T08:05:48Z</time>
      </trkpt>
      <trkpt lat="45.56532" lon="5.9856">
        <ele>392.36</ele>
        <time>2011-05-22T08:05:51Z</time>
      </trkpt>
      <trkpt lat="45.56528" lon="5.98559">
        <ele>392.84</ele>
        <time>2011-05-22T08:05:52Z</time>
      </trkpt>
      <trkpt lat="45.565" lon="5.98558">
        <ele>393.8</ele>
        <time>2011-05-22T08:05:59Z</time>
      </trkpt>
      <trkpt lat="45.56492" lon="5.98561">
        <ele>394.28</ele>
        <time>2011-05-22T08:06:01Z</time>
      </trkpt>
      <trkpt lat="45.56458" lon="5.98584">
        <ele>394.28</ele>
        <time>2011-05-22T08:06:10Z</time>
      </trkpt>
      <trkpt lat="45.5645" lon="5.98589">
        <ele>393.8</ele>
        <time>2011-05-22T08:06:12Z</time>
      </trkpt>
      <trkpt lat="45.56429" lon="5.986">
        <ele>391.87</ele>
        <time>2011-05-22T08:06:16Z</time>
      </trkpt>
      <trkpt lat="45.56423" lon="5.98602">
        <ele>391.87</ele>
        <time>2011-05-22T08:06:17Z</time>
      </trkpt>
      <trkpt lat="45.56397" lon="5.98615">
        <ele>388.99</ele>
        <time>2011-05-22T08:06:21Z</time>
      </trkpt>
      <trkpt lat="45.56373" lon="5.98626">
        <ele>385.15</ele>
        <time>2011-05-22T08:06:25Z</time>
      </trkpt>
      <trkpt lat="45.56366" lon="5.98628">
        <ele>384.18</ele>
        <time>2011-05-22T08:06:26Z</time>
      </trkpt>
      <trkpt lat="45.56343" lon="5.98634">
        <ele>381.78</ele>
        <time>2011-05-22T08:06:30Z</time>
      </trkpt>
      <trkpt lat="45.56338" lon="5.98634">
        <ele>380.82</ele>
        <time>2011-05-22T08:06:31Z</time>
      </trkpt>
      <trkpt lat="45.56334" lon="5.98635">
        <ele>380.34</ele>
        <time>2011-05-22T08:06:32Z</time>
      </trkpt>
      <trkpt lat="45.56329" lon="5.98636">
        <ele>378.42</ele>
        <time>2011-05-22T08:06:33Z</time>
      </trkpt>
      <trkpt lat="45.56324" lon="5.98636">
        <ele>377.94</ele>
        <time>2011-05-22T08:06:34Z</time>
      </trkpt>
      <trkpt lat="45.56319" lon="5.98638">
        <ele>376.97</ele>
        <time>2011-05-22T08:06:35Z</time>
      </trkpt>
      <trkpt lat="45.56313" lon="5.98639">
        <ele>376.49</ele>
        <time>2011-05-22T08:06:36Z</time>
      </trkpt>
      <trkpt lat="45.56308" lon="5.98642">
        <ele>375.05</ele>
        <time>2011-05-22T08:06:37Z</time>
      </trkpt>
      <trkpt lat="45.56303" lon="5.98645">
        <ele>374.09</ele>
        <time>2011-05-22T08:06:38Z</time>
      </trkpt>
      <trkpt lat="45.56276" lon="5.98663">
        <ele>370.73</ele>
        <time>2011-05-22T08:06:42Z</time>
      </trkpt>
      <trkpt lat="45.56242" lon="5.98678">
        <ele>369.76</ele>
        <time>2011-05-22T08:06:47Z</time>
      </trkpt>
      <trkpt lat="45.56239" lon="5.98684">
        <ele>370.24</ele>
        <time>2011-05-22T08:06:48Z</time>
      </trkpt>
      <trkpt lat="45.5622" lon="5.98718">
        <ele>369.76</ele>
        <time>2011-05-22T08:06:54Z</time>
      </trkpt>
      <trkpt lat="45.56216" lon="5.98723">
        <ele>369.76</ele>
        <time>2011-05-22T08:06:55Z</time>
      </trkpt>
      <trkpt lat="45.56211" lon="5.98727">
        <ele>369.28</ele>
        <time>2011-05-22T08:06:56Z</time>
      </trkpt>
      <trkpt lat="45.56196" lon="5.98736">
        <ele>369.28</ele>
        <time>2011-05-22T08:06:59Z</time>
      </trkpt>
      <trkpt lat="45.56191" lon="5.98737">
        <ele>369.28</ele>
        <time>2011-05-22T08:07:00Z</time>
      </trkpt>
      <trkpt lat="45.56152" lon="5.98739">
        <ele>367.84</ele>
        <time>2011-05-22T08:07:07Z</time>
      </trkpt>
      <trkpt lat="45.56141" lon="5.98734">
        <ele>367.36</ele>
        <time>2011-05-22T08:07:09Z</time>
      </trkpt>
      <trkpt lat="45.56134" lon="5.98734">
        <ele>366.88</ele>
        <time>2011-05-22T08:07:10Z</time>
      </trkpt>
      <trkpt lat="45.56127" lon="5.98735">
        <ele>365.92</ele>
        <time>2011-05-22T08:07:11Z</time>
      </trkpt>
      <trkpt lat="45.5612" lon="5.98738">
        <ele>365.92</ele>
        <time>2011-05-22T08:07:12Z</time>
      </trkpt>
      <trkpt lat="45.56093" lon="5.98749">
        <ele>364.48</ele>
        <time>2011-05-22T08:07:16Z</time>
      </trkpt>
      <trkpt lat="45.56059" lon="5.98766">
        <ele>365.44</ele>
        <time>2011-05-22T08:07:22Z</time>
      </trkpt>
      <trkpt lat="45.56032" lon="5.98782">
        <ele>368.32</ele>
        <time>2011-05-22T08:07:32Z</time>
      </trkpt>
      <trkpt lat="45.56026" lon="5.98782">
        <ele>368.8</ele>
        <time>2011-05-22T08:07:35Z</time>
      </trkpt>
      <trkpt lat="45.56025" lon="5.98783">
        <ele>369.28</ele>
        <time>2011-05-22T08:07:36Z</time>
      </trkpt>
      <trkpt lat="45.56025" lon="5.98786">
        <ele>369.28</ele>
        <time>2011-05-22T08:07:37Z</time>
      </trkpt>
      <trkpt lat="45.56024" lon="5.9879">
        <ele>368.8</ele>
        <time>2011-05-22T08:07:38Z</time>
      </trkpt>
      <trkpt lat="45.56024" lon="5.98793">
        <ele>369.28</ele>
        <time>2011-05-22T08:07:39Z</time>
      </trkpt>
      <trkpt lat="45.56025" lon="5.98795">
        <ele>369.28</ele>
        <time>2011-05-22T08:07:40Z</time>
      </trkpt>
      <trkpt lat="45.5603" lon="5.98803">
        <ele>371.21</ele>
        <time>2011-05-22T08:07:44Z</time>
      </trkpt>
      <trkpt lat="45.56035" lon="5.98813">
        <ele>373.13</ele>
        <time>2011-05-22T08:07:54Z</time>
      </trkpt>
      <trkpt lat="45.56038" lon="5.98819">
        <ele>375.05</ele>
        <time>2011-05-22T08:08:01Z</time>
      </trkpt>
      <trkpt lat="45.56043" lon="5.98823">
        <ele>376.01</ele>
        <time>2011-05-22T08:08:08Z</time>
      </trkpt>
      <trkpt lat="45.56044" lon="5.98823">
        <ele>376.01</ele>
        <time>2011-05-22T08:08:09Z</time>
      </trkpt>
      <trkpt lat="45.56055" lon="5.98829">
        <ele>379.38</ele>
        <time>2011-05-22T08:08:23Z</time>
      </trkpt>
      <trkpt lat="45.56056" lon="5.98829">
        <ele>379.38</ele>
        <time>2011-05-22T08:08:24Z</time>
      </trkpt>
      <trkpt lat="45.56056" lon="5.98828">
        <ele>378.9</ele>
        <time>2011-05-22T08:08:46Z</time>
      </trkpt>
      <trkpt lat="45.56059" lon="5.9883">
        <ele>379.38</ele>
        <time>2011-05-22T08:09:02Z</time>
      </trkpt>
      <trkpt lat="45.56062" lon="5.98832">
        <ele>379.38</ele>
        <time>2011-05-22T08:09:05Z</time>
      </trkpt>
      <trkpt lat="45.56063" lon="5.98833">
        <ele>379.38</ele>
        <time>2011-05-22T08:09:06Z</time>
      </trkpt>
      <trkpt lat="45.56064" lon="5.98833">
        <ele>379.38</ele>
        <time>2011-05-22T08:09:07Z</time>
      </trkpt>
      <trkpt lat="45.56065" lon="5.98834">
        <ele>379.86</ele>
        <time>2011-05-22T08:09:08Z</time>
      </trkpt>
      <trkpt lat="45.56067" lon="5.98835">
        <ele>380.34</ele>
        <time>2011-05-22T08:09:09Z</time>
      </trkpt>
      <trkpt lat="45.56069" lon="5.98835">
        <ele>380.34</ele>
        <time>2011-05-22T08:09:10Z</time>
      </trkpt>
      <trkpt lat="45.5607" lon="5.98836">
        <ele>380.82</ele>
        <time>2011-05-22T08:09:11Z</time>
      </trkpt>
      <trkpt lat="45.56072" lon="5.98837">
        <ele>380.82</ele>
        <time>2011-05-22T08:09:12Z</time>
      </trkpt>
      <trkpt lat="45.56074" lon="5.98838">
        <ele>380.82</ele>
        <time>2011-05-22T08:09:13Z</time>
      </trkpt>
      <trkpt lat="45.56075" lon="5.9884">
        <ele>381.78</ele>
        <time>2011-05-22T08:09:14Z</time>
      </trkpt>
      <trkpt lat="45.56077" lon="5.98841">
        <ele>381.78</ele>
        <time>2011-05-22T08:09:15Z</time>
      </trkpt>
      <trkpt lat="45.56102" lon="5.98854">
        <ele>385.15</ele>
        <time>2011-05-22T08:09:31Z</time>
      </trkpt>
      <trkpt lat="45.56122" lon="5.98862">
        <ele>388.51</ele>
        <time>2011-05-22T08:09:44Z</time>
      </trkpt>
      <trkpt lat="45.56124" lon="5.98862">
        <ele>388.51</ele>
        <time>2011-05-22T08:09:45Z</time>
      </trkpt>
      <trkpt lat="45.56125" lon="5.98862">
        <ele>388.99</ele>
        <time>2011-05-22T08:09:46Z</time>
      </trkpt>
      <trkpt lat="45.56126" lon="5.98862">
        <ele>388.99</ele>
        <time>2011-05-22T08:09:47Z</time>
      </trkpt>
      <trkpt lat="45.56128" lon="5.98862">
        <ele>389.47</ele>
        <time>2011-05-22T08:09:48Z</time>
      </trkpt>
      <trkpt lat="45.56147" lon="5.98861">
        <ele>392.36</ele>
        <time>2011-05-22T08:10:01Z</time>
      </trkpt>
      <trkpt lat="45.56163" lon="5.98856">
        <ele>395.24</ele>
        <time>2011-05-22T08:10:14Z</time>
      </trkpt>
      <trkpt lat="45.56175" lon="5.98854">
        <ele>398.12</ele>
        <time>2011-05-22T08:10:24Z</time>
      </trkpt>
      <trkpt lat="45.56178" lon="5.98856">
        <ele>398.6</ele>
        <time>2011-05-22T08:10:26Z</time>
      </trkpt>
      <trkpt lat="45.56179" lon="5.98857">
        <ele>398.6</ele>
        <time>2011-05-22T08:10:27Z</time>
      </trkpt>
      <trkpt lat="45.56188" lon="5.98861">
        <ele>401.49</ele>
        <time>2011-05-22T08:10:41Z</time>
      </trkpt>
      <trkpt lat="45.562" lon="5.98863">
        <ele>404.37</ele>
        <time>2011-05-22T08:10:55Z</time>
      </trkpt>
      <trkpt lat="45.56212" lon="5.98864">
        <ele>407.26</ele>
        <time>2011-05-22T08:11:10Z</time>
      </trkpt>
      <trkpt lat="45.56229" lon="5.9886">
        <ele>410.14</ele>
        <time>2011-05-22T08:11:27Z</time>
      </trkpt>
      <trkpt lat="45.56231" lon="5.98859">
        <ele>410.62</ele>
        <time>2011-05-22T08:11:44Z</time>
      </trkpt>
      <trkpt lat="45.56231" lon="5.98858">
        <ele>410.62</ele>
        <time>2011-05-22T08:11:45Z</time>
      </trkpt>
      <trkpt lat="45.56247" lon="5.98844">
        <ele>413.98</ele>
        <time>2011-05-22T08:11:58Z</time>
      </trkpt>
      <trkpt lat="45.56257" lon="5.98837">
        <ele>416.39</ele>
        <time>2011-05-22T08:12:08Z</time>
      </trkpt>
      <trkpt lat="45.56258" lon="5.98839">
        <ele>416.39</ele>
        <time>2011-05-22T08:12:09Z</time>
      </trkpt>
      <trkpt lat="45.56258" lon="5.98841">
        <ele>416.39</ele>
        <time>2011-05-22T08:12:10Z</time>
      </trkpt>
      <trkpt lat="45.56258" lon="5.98843">
        <ele>416.87</ele>
        <time>2011-05-22T08:12:11Z</time>
      </trkpt>
      <trkpt lat="45.56248" lon="5.98868">
        <ele>418.79</ele>
        <time>2011-05-22T08:12:25Z</time>
      </trkpt>
      <trkpt lat="45.5624" lon="5.98886">
        <ele>422.16</ele>
        <time>2011-05-22T08:12:35Z</time>
      </trkpt>
      <trkpt lat="45.56226" lon="5.98905">
        <ele>425.04</ele>
        <time>2011-05-22T08:12:48Z</time>
      </trkpt>
      <trkpt lat="45.56224" lon="5.98909">
        <ele>425.04</ele>
        <time>2011-05-22T08:12:50Z</time>
      </trkpt>
      <trkpt lat="45.56208" lon="5.98926">
        <ele>427.92</ele>
        <time>2011-05-22T08:13:04Z</time>
      </trkpt>
      <trkpt lat="45.56184" lon="5.98942">
        <ele>428.4</ele>
        <time>2011-05-22T08:13:17Z</time>
      </trkpt>
      <trkpt lat="45.56165" lon="5.98957">
        <ele>431.29</ele>
        <time>2011-05-22T08:13:29Z</time>
      </trkpt>
      <trkpt lat="45.56142" lon="5.98971">
        <ele>433.69</ele>
        <time>2011-05-22T08:13:45Z</time>
      </trkpt>
      <trkpt lat="45.56125" lon="5.98982">
        <ele>436.58</ele>
        <time>2011-05-22T08:13:58Z</time>
      </trkpt>
      <trkpt lat="45.56106" lon="5.98998">
        <ele>439.94</ele>
        <time>2011-05-22T08:14:13Z</time>
      </trkpt>
      <trkpt lat="45.56102" lon="5.99006">
        <ele>441.38</ele>
        <time>2011-05-22T08:14:18Z</time>
      </trkpt>
      <trkpt lat="45.56099" lon="5.99011">
        <ele>441.86</ele>
        <time>2011-05-22T08:14:22Z</time>
      </trkpt>
      <trkpt lat="45.56092" lon="5.99027">
        <ele>445.71</ele>
        <time>2011-05-22T08:14:33Z</time>
      </trkpt>
      <trkpt lat="45.56081" lon="5.99043">
        <ele>449.07</ele>
        <time>2011-05-22T08:14:46Z</time>
      </trkpt>
      <trkpt lat="45.56066" lon="5.9906">
        <ele>451.96</ele>
        <time>2011-05-22T08:15:01Z</time>
      </trkpt>
      <trkpt lat="45.56041" lon="5.99083">
        <ele>453.88</ele>
        <time>2011-05-22T08:15:18Z</time>
      </trkpt>
      <trkpt lat="45.56032" lon="5.99103">
        <ele>456.76</ele>
        <time>2011-05-22T08:15:30Z</time>
      </trkpt>
      <trkpt lat="45.56025" lon="5.99118">
        <ele>460.13</ele>
        <time>2011-05-22T08:15:39Z</time>
      </trkpt>
      <trkpt lat="45.56023" lon="5.99122">
        <ele>461.57</ele>
        <time>2011-05-22T08:15:42Z</time>
      </trkpt>
      <trkpt lat="45.56014" lon="5.99148">
        <ele>464.93</ele>
        <time>2011-05-22T08:15:59Z</time>
      </trkpt>
      <trkpt lat="45.55995" lon="5.99169">
        <ele>463.01</ele>
        <time>2011-05-22T08:16:11Z</time>
      </trkpt>
      <trkpt lat="45.55973" lon="5.99199">
        <ele>464.93</ele>
        <time>2011-05-22T08:16:21Z</time>
      </trkpt>
      <trkpt lat="45.55963" lon="5.99235">
        <ele>467.34</ele>
        <time>2011-05-22T08:16:34Z</time>
      </trkpt>
      <trkpt lat="45.55951" lon="5.99276">
        <ele>466.86</ele>
        <time>2011-05-22T08:16:48Z</time>
      </trkpt>
      <trkpt lat="45.55952" lon="5.993">
        <ele>467.82</ele>
        <time>2011-05-22T08:16:55Z</time>
      </trkpt>
      <trkpt lat="45.55954" lon="5.99302">
        <ele>468.78</ele>
        <time>2011-05-22T08:16:56Z</time>
      </trkpt>
      <trkpt lat="45.55966" lon="5.99322">
        <ele>471.18</ele>
        <time>2011-05-22T08:17:09Z</time>
      </trkpt>
      <trkpt lat="45.55975" lon="5.99338">
        <ele>474.55</ele>
        <time>2011-05-22T08:17:20Z</time>
      </trkpt>
      <trkpt lat="45.55981" lon="5.99348">
        <ele>476.47</ele>
        <time>2011-05-22T08:17:27Z</time>
      </trkpt>
      <trkpt lat="45.55983" lon="5.99352">
        <ele>476.95</ele>
        <time>2011-05-22T08:17:30Z</time>
      </trkpt>
      <trkpt lat="45.5599" lon="5.99366">
        <ele>480.32</ele>
        <time>2011-05-22T08:17:41Z</time>
      </trkpt>
      <trkpt lat="45.55989" lon="5.99372">
        <ele>480.8</ele>
        <time>2011-05-22T08:17:45Z</time>
      </trkpt>
      <trkpt lat="45.55988" lon="5.99375">
        <ele>481.28</ele>
        <time>2011-05-22T08:17:47Z</time>
      </trkpt>
      <trkpt lat="45.55987" lon="5.99376">
        <ele>481.28</ele>
        <time>2011-05-22T08:17:48Z</time>
      </trkpt>
      <trkpt lat="45.55978" lon="5.99398">
        <ele>483.68</ele>
        <time>2011-05-22T08:18:01Z</time>
      </trkpt>
      <trkpt lat="45.55976" lon="5.99403">
        <ele>484.64</ele>
        <time>2011-05-22T08:18:04Z</time>
      </trkpt>
      <trkpt lat="45.5597" lon="5.9942">
        <ele>486.08</ele>
        <time>2011-05-22T08:18:14Z</time>
      </trkpt>
      <trkpt lat="45.55969" lon="5.9942">
        <ele>486.08</ele>
        <time>2011-05-22T08:18:15Z</time>
      </trkpt>
      <trkpt lat="45.55966" lon="5.99424">
        <ele>487.05</ele>
        <time>2011-05-22T08:18:18Z</time>
      </trkpt>
      <trkpt lat="45.55964" lon="5.99425">
        <ele>487.05</ele>
        <time>2011-05-22T08:18:19Z</time>
      </trkpt>
      <trkpt lat="45.55956" lon="5.99429">
        <ele>488.97</ele>
        <time>2011-05-22T08:18:27Z</time>
      </trkpt>
      <trkpt lat="45.55955" lon="5.9943">
        <ele>489.45</ele>
        <time>2011-05-22T08:18:28Z</time>
      </trkpt>
      <trkpt lat="45.55955" lon="5.99432">
        <ele>489.93</ele>
        <time>2011-05-22T08:18:29Z</time>
      </trkpt>
      <trkpt lat="45.55956" lon="5.99435">
        <ele>489.45</ele>
        <time>2011-05-22T08:18:31Z</time>
      </trkpt>
      <trkpt lat="45.55957" lon="5.99436">
        <ele>489.93</ele>
        <time>2011-05-22T08:18:32Z</time>
      </trkpt>
      <trkpt lat="45.55958" lon="5.99437">
        <ele>490.41</ele>
        <time>2011-05-22T08:18:33Z</time>
      </trkpt>
      <trkpt lat="45.5596" lon="5.99439">
        <ele>490.89</ele>
        <time>2011-05-22T08:18:35Z</time>
      </trkpt>
      <trkpt lat="45.55977" lon="5.99439">
        <ele>492.81</ele>
        <time>2011-05-22T08:18:48Z</time>
      </trkpt>
      <trkpt lat="45.55994" lon="5.99439">
        <ele>495.7</ele>
        <time>2011-05-22T08:19:01Z</time>
      </trkpt>
      <trkpt lat="45.55998" lon="5.99437">
        <ele>496.18</ele>
        <time>2011-05-22T08:19:04Z</time>
      </trkpt>
      <trkpt lat="45.55998" lon="5.99436">
        <ele>496.66</ele>
        <time>2011-05-22T08:19:05Z</time>
      </trkpt>
      <trkpt lat="45.55999" lon="5.99435">
        <ele>496.66</ele>
        <time>2011-05-22T08:19:06Z</time>
      </trkpt>
      <trkpt lat="45.56" lon="5.99434">
        <ele>496.66</ele>
        <time>2011-05-22T08:19:07Z</time>
      </trkpt>
      <trkpt lat="45.56001" lon="5.99433">
        <ele>497.62</ele>
        <time>2011-05-22T08:19:08Z</time>
      </trkpt>
      <trkpt lat="45.56002" lon="5.99432">
        <ele>497.14</ele>
        <time>2011-05-22T08:19:09Z</time>
      </trkpt>
      <trkpt lat="45.56002" lon="5.9943">
        <ele>497.62</ele>
        <time>2011-05-22T08:19:10Z</time>
      </trkpt>
      <trkpt lat="45.56003" lon="5.99428">
        <ele>497.62</ele>
        <time>2011-05-22T08:19:11Z</time>
      </trkpt>
      <trkpt lat="45.56004" lon="5.99427">
        <ele>498.1</ele>
        <time>2011-05-22T08:19:12Z</time>
      </trkpt>
      <trkpt lat="45.56007" lon="5.99425">
        <ele>498.58</ele>
        <time>2011-05-22T08:19:15Z</time>
      </trkpt>
      <trkpt lat="45.56012" lon="5.99429">
        <ele>499.06</ele>
        <time>2011-05-22T08:19:20Z</time>
      </trkpt>
      <trkpt lat="45.5601" lon="5.99437">
        <ele>500.02</ele>
        <time>2011-05-22T08:19:24Z</time>
      </trkpt>
      <trkpt lat="45.55994" lon="5.99462">
        <ele>502.91</ele>
        <time>2011-05-22T08:19:40Z</time>
      </trkpt>
      <trkpt lat="45.55995" lon="5.99464">
        <ele>502.91</ele>
        <time>2011-05-22T08:19:41Z</time>
      </trkpt>
      <trkpt lat="45.55998" lon="5.99466">
        <ele>503.87</ele>
        <time>2011-05-22T08:19:44Z</time>
      </trkpt>
      <trkpt lat="45.56018" lon="5.99451">
        <ele>505.79</ele>
        <time>2011-05-22T08:19:58Z</time>
      </trkpt>
      <trkpt lat="45.5602" lon="5.9945">
        <ele>506.27</ele>
        <time>2011-05-22T08:20:00Z</time>
      </trkpt>
      <trkpt lat="45.56023" lon="5.99423">
        <ele>509.64</ele>
        <time>2011-05-22T08:20:15Z</time>
      </trkpt>
      <trkpt lat="45.56027" lon="5.99404">
        <ele>512.04</ele>
        <time>2011-05-22T08:20:25Z</time>
      </trkpt>
      <trkpt lat="45.56031" lon="5.99399">
        <ele>513</ele>
        <time>2011-05-22T08:20:29Z</time>
      </trkpt>
      <trkpt lat="45.56036" lon="5.99389">
        <ele>514.44</ele>
        <time>2011-05-22T08:20:36Z</time>
      </trkpt>
      <trkpt lat="45.56039" lon="5.99375">
        <ele>516.37</ele>
        <time>2011-05-22T08:20:45Z</time>
      </trkpt>
      <trkpt lat="45.56033" lon="5.99351">
        <ele>519.73</ele>
        <time>2011-05-22T08:21:00Z</time>
      </trkpt>
      <trkpt lat="45.56033" lon="5.99349">
        <ele>520.21</ele>
        <time>2011-05-22T08:21:01Z</time>
      </trkpt>
      <trkpt lat="45.56041" lon="5.99329">
        <ele>523.58</ele>
        <time>2011-05-22T08:21:14Z</time>
      </trkpt>
      <trkpt lat="45.56045" lon="5.9932">
        <ele>524.54</ele>
        <time>2011-05-22T08:21:20Z</time>
      </trkpt>
      <trkpt lat="45.56046" lon="5.99316">
        <ele>525.5</ele>
        <time>2011-05-22T08:21:23Z</time>
      </trkpt>
      <trkpt lat="45.56047" lon="5.99306">
        <ele>526.94</ele>
        <time>2011-05-22T08:21:29Z</time>
      </trkpt>
      <trkpt lat="45.56058" lon="5.99282">
        <ele>529.34</ele>
        <time>2011-05-22T08:21:45Z</time>
      </trkpt>
      <trkpt lat="45.56063" lon="5.99278">
        <ele>530.79</ele>
        <time>2011-05-22T08:21:50Z</time>
      </trkpt>
      <trkpt lat="45.56066" lon="5.99278">
        <ele>531.27</ele>
        <time>2011-05-22T08:21:53Z</time>
      </trkpt>
      <trkpt lat="45.56062" lon="5.99305">
        <ele>534.15</ele>
        <time>2011-05-22T08:22:07Z</time>
      </trkpt>
      <trkpt lat="45.5606" lon="5.99322">
        <ele>536.55</ele>
        <time>2011-05-22T08:22:17Z</time>
      </trkpt>
      <trkpt lat="45.56062" lon="5.99332">
        <ele>537.51</ele>
        <time>2011-05-22T08:22:23Z</time>
      </trkpt>
      <trkpt lat="45.56066" lon="5.99363">
        <ele>540.88</ele>
        <time>2011-05-22T08:22:40Z</time>
      </trkpt>
      <trkpt lat="45.56075" lon="5.99387">
        <ele>543.76</ele>
        <time>2011-05-22T08:22:54Z</time>
      </trkpt>
      <trkpt lat="45.56081" lon="5.99415">
        <ele>546.65</ele>
        <time>2011-05-22T08:23:09Z</time>
      </trkpt>
      <trkpt lat="45.56084" lon="5.99429">
        <ele>549.05</ele>
        <time>2011-05-22T08:23:17Z</time>
      </trkpt>
      <trkpt lat="45.5609" lon="5.99461">
        <ele>551.45</ele>
        <time>2011-05-22T08:23:34Z</time>
      </trkpt>
      <trkpt lat="45.56086" lon="5.99471">
        <ele>552.41</ele>
        <time>2011-05-22T08:23:40Z</time>
      </trkpt>
      <trkpt lat="45.56082" lon="5.99476">
        <ele>553.38</ele>
        <time>2011-05-22T08:23:45Z</time>
      </trkpt>
      <trkpt lat="45.56078" lon="5.99485">
        <ele>555.3</ele>
        <time>2011-05-22T08:23:51Z</time>
      </trkpt>
      <trkpt lat="45.56081" lon="5.99506">
        <ele>558.66</ele>
        <time>2011-05-22T08:24:05Z</time>
      </trkpt>
      <trkpt lat="45.56094" lon="5.99523">
        <ele>560.59</ele>
        <time>2011-05-22T08:24:20Z</time>
      </trkpt>
      <trkpt lat="45.56094" lon="5.99532">
        <ele>562.03</ele>
        <time>2011-05-22T08:24:26Z</time>
      </trkpt>
      <trkpt lat="45.56088" lon="5.99545">
        <ele>563.95</ele>
        <time>2011-05-22T08:24:35Z</time>
      </trkpt>
      <trkpt lat="45.56082" lon="5.9957">
        <ele>567.32</ele>
        <time>2011-05-22T08:24:51Z</time>
      </trkpt>
      <trkpt lat="45.56085" lon="5.99595">
        <ele>570.2</ele>
        <time>2011-05-22T08:25:06Z</time>
      </trkpt>
      <trkpt lat="45.56091" lon="5.99597">
        <ele>571.64</ele>
        <time>2011-05-22T08:25:12Z</time>
      </trkpt>
      <trkpt lat="45.56094" lon="5.99587">
        <ele>572.12</ele>
        <time>2011-05-22T08:25:17Z</time>
      </trkpt>
      <trkpt lat="45.56093" lon="5.99558">
        <ele>574.04</ele>
        <time>2011-05-22T08:25:28Z</time>
      </trkpt>
      <trkpt lat="45.56111" lon="5.99525">
        <ele>575.01</ele>
        <time>2011-05-22T08:25:42Z</time>
      </trkpt>
      <trkpt lat="45.5611" lon="5.99521">
        <ele>575.49</ele>
        <time>2011-05-22T08:25:44Z</time>
      </trkpt>
      <trkpt lat="45.56119" lon="5.99531">
        <ele>577.89</ele>
        <time>2011-05-22T08:25:56Z</time>
      </trkpt>
      <trkpt lat="45.5611" lon="5.99556">
        <ele>580.29</ele>
        <time>2011-05-22T08:26:09Z</time>
      </trkpt>
      <trkpt lat="45.56105" lon="5.99563">
        <ele>581.73</ele>
        <time>2011-05-22T08:26:15Z</time>
      </trkpt>
      <trkpt lat="45.56102" lon="5.99568">
        <ele>583.18</ele>
        <time>2011-05-22T08:26:19Z</time>
      </trkpt>
      <trkpt lat="45.56103" lon="5.99578">
        <ele>584.62</ele>
        <time>2011-05-22T08:26:24Z</time>
      </trkpt>
      <trkpt lat="45.56113" lon="5.99597">
        <ele>587.02</ele>
        <time>2011-05-22T08:26:38Z</time>
      </trkpt>
      <trkpt lat="45.56115" lon="5.99608">
        <ele>587.98</ele>
        <time>2011-05-22T08:26:44Z</time>
      </trkpt>
      <trkpt lat="45.56104" lon="5.99635">
        <ele>590.39</ele>
        <time>2011-05-22T08:26:58Z</time>
      </trkpt>
      <trkpt lat="45.56087" lon="5.99653">
        <ele>592.79</ele>
        <time>2011-05-22T08:27:12Z</time>
      </trkpt>
      <trkpt lat="45.56059" lon="5.99651">
        <ele>593.75</ele>
        <time>2011-05-22T08:27:26Z</time>
      </trkpt>
      <trkpt lat="45.56034" lon="5.99648">
        <ele>596.15</ele>
        <time>2011-05-22T08:27:40Z</time>
      </trkpt>
      <trkpt lat="45.56021" lon="5.99646">
        <ele>598.08</ele>
        <time>2011-05-22T08:27:49Z</time>
      </trkpt>
      <trkpt lat="45.56012" lon="5.99649">
        <ele>599.04</ele>
        <time>2011-05-22T08:28:02Z</time>
      </trkpt>
      <trkpt lat="45.56012" lon="5.99649">
        <ele>600</ele>
        <time>2011-05-22T08:28:24Z</time>
      </trkpt>
      <trkpt lat="45.56013" lon="5.99649">
        <ele>599.52</ele>
        <time>2011-05-22T08:28:41Z</time>
      </trkpt>
      <trkpt lat="45.5601" lon="5.99648">
        <ele>600</ele>
        <time>2011-05-22T08:28:52Z</time>
      </trkpt>
      <trkpt lat="45.56002" lon="5.99653">
        <ele>600.96</ele>
        <time>2011-05-22T08:29:07Z</time>
      </trkpt>
      <trkpt lat="45.56001" lon="5.99654">
        <ele>600.96</ele>
        <time>2011-05-22T08:29:11Z</time>
      </trkpt>
      <trkpt lat="45.55993" lon="5.99659">
        <ele>601.92</ele>
        <time>2011-05-22T08:29:17Z</time>
      </trkpt>
      <trkpt lat="45.5597" lon="5.99682">
        <ele>604.81</ele>
        <time>2011-05-22T08:29:34Z</time>
      </trkpt>
      <trkpt lat="45.55962" lon="5.99688">
        <ele>605.29</ele>
        <time>2011-05-22T08:29:39Z</time>
      </trkpt>
      <trkpt lat="45.5596" lon="5.99688">
        <ele>605.77</ele>
        <time>2011-05-22T08:29:41Z</time>
      </trkpt>
      <trkpt lat="45.55935" lon="5.99694">
        <ele>608.65</ele>
        <time>2011-05-22T08:29:57Z</time>
      </trkpt>
      <trkpt lat="45.55912" lon="5.99702">
        <ele>612.02</ele>
        <time>2011-05-22T08:30:12Z</time>
      </trkpt>
      <trkpt lat="45.55895" lon="5.99705">
        <ele>613.94</ele>
        <time>2011-05-22T08:30:24Z</time>
      </trkpt>
      <trkpt lat="45.55869" lon="5.9973">
        <ele>616.34</ele>
        <time>2011-05-22T08:30:41Z</time>
      </trkpt>
      <trkpt lat="45.55837" lon="5.99732">
        <ele>617.78</ele>
        <time>2011-05-22T08:30:55Z</time>
      </trkpt>
      <trkpt lat="45.55805" lon="5.99731">
        <ele>619.71</ele>
        <time>2011-05-22T08:31:08Z</time>
      </trkpt>
      <trkpt lat="45.55777" lon="5.99735">
        <ele>620.67</ele>
        <time>2011-05-22T08:31:21Z</time>
      </trkpt>
      <trkpt lat="45.55753" lon="5.99753">
        <ele>623.55</ele>
        <time>2011-05-22T08:31:35Z</time>
      </trkpt>
      <trkpt lat="45.55753" lon="5.99776">
        <ele>624.99</ele>
        <time>2011-05-22T08:31:45Z</time>
      </trkpt>
      <trkpt lat="45.55763" lon="5.99781">
        <ele>626.44</ele>
        <time>2011-05-22T08:31:51Z</time>
      </trkpt>
      <trkpt lat="45.55763" lon="5.99789">
        <ele>627.4</ele>
        <time>2011-05-22T08:31:55Z</time>
      </trkpt>
      <trkpt lat="45.55747" lon="5.99822">
        <ele>629.8</ele>
        <time>2011-05-22T08:32:10Z</time>
      </trkpt>
      <trkpt lat="45.55721" lon="5.99847">
        <ele>632.68</ele>
        <time>2011-05-22T08:32:26Z</time>
      </trkpt>
      <trkpt lat="45.557" lon="5.99844">
        <ele>635.09</ele>
        <time>2011-05-22T08:32:37Z</time>
      </trkpt>
      <trkpt lat="45.55662" lon="5.99831">
        <ele>637.01</ele>
        <time>2011-05-22T08:32:55Z</time>
      </trkpt>
      <trkpt lat="45.5566" lon="5.99841">
        <ele>639.41</ele>
        <time>2011-05-22T08:33:06Z</time>
      </trkpt>
      <trkpt lat="45.55661" lon="5.99843">
        <ele>639.41</ele>
        <time>2011-05-22T08:33:07Z</time>
      </trkpt>
      <trkpt lat="45.55669" lon="5.99846">
        <ele>639.89</ele>
        <time>2011-05-22T08:33:11Z</time>
      </trkpt>
      <trkpt lat="45.55681" lon="5.99854">
        <ele>641.82</ele>
        <time>2011-05-22T08:33:17Z</time>
      </trkpt>
      <trkpt lat="45.55687" lon="5.99856">
        <ele>642.78</ele>
        <time>2011-05-22T08:33:21Z</time>
      </trkpt>
      <trkpt lat="45.55701" lon="5.99866">
        <ele>645.18</ele>
        <time>2011-05-22T08:33:30Z</time>
      </trkpt>
      <trkpt lat="45.55722" lon="5.99888">
        <ele>648.07</ele>
        <time>2011-05-22T08:33:45Z</time>
      </trkpt>
      <trkpt lat="45.55743" lon="5.9991">
        <ele>650.95</ele>
        <time>2011-05-22T08:33:59Z</time>
      </trkpt>
      <trkpt lat="45.55766" lon="5.99919">
        <ele>653.83</ele>
        <time>2011-05-22T08:34:13Z</time>
      </trkpt>
      <trkpt lat="45.55788" lon="5.99924">
        <ele>655.28</ele>
        <time>2011-05-22T08:34:26Z</time>
      </trkpt>
      <trkpt lat="45.55808" lon="5.99925">
        <ele>658.16</ele>
        <time>2011-05-22T08:34:40Z</time>
      </trkpt>
      <trkpt lat="45.55827" lon="5.9993">
        <ele>660.08</ele>
        <time>2011-05-22T08:34:51Z</time>
      </trkpt>
      <trkpt lat="45.55848" lon="5.99936">
        <ele>662.01</ele>
        <time>2011-05-22T08:35:03Z</time>
      </trkpt>
      <trkpt lat="45.55872" lon="5.99945">
        <ele>664.41</ele>
        <time>2011-05-22T08:35:17Z</time>
      </trkpt>
      <trkpt lat="45.55898" lon="5.99952">
        <ele>667.29</ele>
        <time>2011-05-22T08:35:32Z</time>
      </trkpt>
      <trkpt lat="45.5592" lon="5.99957">
        <ele>669.7</ele>
        <time>2011-05-22T08:35:45Z</time>
      </trkpt>
      <trkpt lat="45.55927" lon="5.99959">
        <ele>670.18</ele>
        <time>2011-05-22T08:35:49Z</time>
      </trkpt>
      <trkpt lat="45.55949" lon="5.9996">
        <ele>672.58</ele>
        <time>2011-05-22T08:36:02Z</time>
      </trkpt>
      <trkpt lat="45.55978" lon="5.99959">
        <ele>675.46</ele>
        <time>2011-05-22T08:36:18Z</time>
      </trkpt>
      <trkpt lat="45.56006" lon="5.99952">
        <ele>678.35</ele>
        <time>2011-05-22T08:36:34Z</time>
      </trkpt>
      <trkpt lat="45.5603" lon="5.99943">
        <ele>680.75</ele>
        <time>2011-05-22T08:36:48Z</time>
      </trkpt>
      <trkpt lat="45.56051" lon="5.99935">
        <ele>683.15</ele>
        <time>2011-05-22T08:37:02Z</time>
      </trkpt>
      <trkpt lat="45.56078" lon="5.99923">
        <ele>685.56</ele>
        <time>2011-05-22T08:37:18Z</time>
      </trkpt>
      <trkpt lat="45.5608" lon="5.9993">
        <ele>686.52</ele>
        <time>2011-05-22T08:37:22Z</time>
      </trkpt>
      <trkpt lat="45.5606" lon="5.99949">
        <ele>687.96</ele>
        <time>2011-05-22T08:37:35Z</time>
      </trkpt>
      <trkpt lat="45.56059" lon="5.9995">
        <ele>688.92</ele>
        <time>2011-05-22T08:37:36Z</time>
      </trkpt>
      <trkpt lat="45.56038" lon="5.99982">
        <ele>692.29</ele>
        <time>2011-05-22T08:37:53Z</time>
      </trkpt>
      <trkpt lat="45.56018" lon="6.00009">
        <ele>694.69</ele>
        <time>2011-05-22T08:38:09Z</time>
      </trkpt>
      <trkpt lat="45.56002" lon="6.00031">
        <ele>698.05</ele>
        <time>2011-05-22T08:38:23Z</time>
      </trkpt>
      <trkpt lat="45.55984" lon="6.00052">
        <ele>700.94</ele>
        <time>2011-05-22T08:38:37Z</time>
      </trkpt>
      <trkpt lat="45.55981" lon="6.00054">
        <ele>700.94</ele>
        <time>2011-05-22T08:38:39Z</time>
      </trkpt>
      <trkpt lat="45.55979" lon="6.00056">
        <ele>701.42</ele>
        <time>2011-05-22T08:38:52Z</time>
      </trkpt>
      <trkpt lat="45.55978" lon="6.00056">
        <ele>701.42</ele>
        <time>2011-05-22T08:39:07Z</time>
      </trkpt>
      <trkpt lat="45.55978" lon="6.00058">
        <ele>701.9</ele>
        <time>2011-05-22T08:39:22Z</time>
      </trkpt>
      <trkpt lat="45.55968" lon="6.0006">
        <ele>702.86</ele>
        <time>2011-05-22T08:39:36Z</time>
      </trkpt>
      <trkpt lat="45.55957" lon="6.00066">
        <ele>703.82</ele>
        <time>2011-05-22T08:39:43Z</time>
      </trkpt>
      <trkpt lat="45.55968" lon="6.00078">
        <ele>705.26</ele>
        <time>2011-05-22T08:39:52Z</time>
      </trkpt>
      <trkpt lat="45.55993" lon="6.00076">
        <ele>708.15</ele>
        <time>2011-05-22T08:40:06Z</time>
      </trkpt>
      <trkpt lat="45.56014" lon="6.00073">
        <ele>711.03</ele>
        <time>2011-05-22T08:40:19Z</time>
      </trkpt>
      <trkpt lat="45.56034" lon="6.00068">
        <ele>712.47</ele>
        <time>2011-05-22T08:40:32Z</time>
      </trkpt>
      <trkpt lat="45.56046" lon="6.00044">
        <ele>715.84</ele>
        <time>2011-05-22T08:40:45Z</time>
      </trkpt>
      <trkpt lat="45.56062" lon="6.00025">
        <ele>717.76</ele>
        <time>2011-05-22T08:40:58Z</time>
      </trkpt>
      <trkpt lat="45.56081" lon="6.00013">
        <ele>719.68</ele>
        <time>2011-05-22T08:41:11Z</time>
      </trkpt>
      <trkpt lat="45.56101" lon="6.00013">
        <ele>722.57</ele>
        <time>2011-05-22T08:41:24Z</time>
      </trkpt>
      <trkpt lat="45.56123" lon="6.00006">
        <ele>724.49</ele>
        <time>2011-05-22T08:41:39Z</time>
      </trkpt>
      <trkpt lat="45.56142" lon="5.99993">
        <ele>727.37</ele>
        <time>2011-05-22T08:41:53Z</time>
      </trkpt>
      <trkpt lat="45.56156" lon="5.99974">
        <ele>729.3</ele>
        <time>2011-05-22T08:42:05Z</time>
      </trkpt>
      <trkpt lat="45.56166" lon="5.99953">
        <ele>732.18</ele>
        <time>2011-05-22T08:42:18Z</time>
      </trkpt>
      <trkpt lat="45.5617" lon="5.99945">
        <ele>732.18</ele>
        <time>2011-05-22T08:42:23Z</time>
      </trkpt>
      <trkpt lat="45.56189" lon="5.99911">
        <ele>736.03</ele>
        <time>2011-05-22T08:42:40Z</time>
      </trkpt>
      <trkpt lat="45.5619" lon="5.99909">
        <ele>735.55</ele>
        <time>2011-05-22T08:42:41Z</time>
      </trkpt>
      <trkpt lat="45.56204" lon="5.99889">
        <ele>738.43</ele>
        <time>2011-05-22T08:42:54Z</time>
      </trkpt>
      <trkpt lat="45.5622" lon="5.99867">
        <ele>741.79</ele>
        <time>2011-05-22T08:43:10Z</time>
      </trkpt>
      <trkpt lat="45.56232" lon="5.9984">
        <ele>744.2</ele>
        <time>2011-05-22T08:43:24Z</time>
      </trkpt>
      <trkpt lat="45.56247" lon="5.99812">
        <ele>746.12</ele>
        <time>2011-05-22T08:43:39Z</time>
      </trkpt>
      <trkpt lat="45.56263" lon="5.9979">
        <ele>749</ele>
        <time>2011-05-22T08:43:54Z</time>
      </trkpt>
      <trkpt lat="45.56284" lon="5.99791">
        <ele>751.41</ele>
        <time>2011-05-22T08:44:09Z</time>
      </trkpt>
      <trkpt lat="45.56309" lon="5.9981">
        <ele>752.37</ele>
        <time>2011-05-22T08:44:22Z</time>
      </trkpt>
      <trkpt lat="45.56341" lon="5.99843">
        <ele>754.29</ele>
        <time>2011-05-22T08:44:37Z</time>
      </trkpt>
      <trkpt lat="45.56371" lon="5.99847">
        <ele>756.21</ele>
        <time>2011-05-22T08:44:51Z</time>
      </trkpt>
      <trkpt lat="45.56375" lon="5.99857">
        <ele>757.66</ele>
        <time>2011-05-22T08:44:56Z</time>
      </trkpt>
      <trkpt lat="45.56372" lon="5.99864">
        <ele>757.66</ele>
        <time>2011-05-22T08:44:59Z</time>
      </trkpt>
      <trkpt lat="45.56347" lon="5.99866">
        <ele>760.06</ele>
        <time>2011-05-22T08:45:11Z</time>
      </trkpt>
      <trkpt lat="45.56318" lon="5.99866">
        <ele>761.98</ele>
        <time>2011-05-22T08:45:25Z</time>
      </trkpt>
      <trkpt lat="45.56287" lon="5.99867">
        <ele>764.87</ele>
        <time>2011-05-22T08:45:41Z</time>
      </trkpt>
      <trkpt lat="45.56273" lon="5.99866">
        <ele>766.79</ele>
        <time>2011-05-22T08:45:49Z</time>
      </trkpt>
      <trkpt lat="45.56255" lon="5.99881">
        <ele>767.75</ele>
        <time>2011-05-22T08:46:01Z</time>
      </trkpt>
      <trkpt lat="45.5623" lon="5.9993">
        <ele>767.75</ele>
        <time>2011-05-22T08:46:16Z</time>
      </trkpt>
      <trkpt lat="45.56213" lon="5.99994">
        <ele>768.71</ele>
        <time>2011-05-22T08:46:29Z</time>
      </trkpt>
      <trkpt lat="45.562" lon="6.00075">
        <ele>768.71</ele>
        <time>2011-05-22T08:46:45Z</time>
      </trkpt>
      <trkpt lat="45.56194" lon="6.00116">
        <ele>765.83</ele>
        <time>2011-05-22T08:46:50Z</time>
      </trkpt>
      <trkpt lat="45.56192" lon="6.00125">
        <ele>765.83</ele>
        <time>2011-05-22T08:46:51Z</time>
      </trkpt>
      <trkpt lat="45.56184" lon="6.00193">
        <ele>764.39</ele>
        <time>2011-05-22T08:46:59Z</time>
      </trkpt>
      <trkpt lat="45.56185" lon="6.00213">
        <ele>763.9</ele>
        <time>2011-05-22T08:47:02Z</time>
      </trkpt>
      <trkpt lat="45.56186" lon="6.00219">
        <ele>763.9</ele>
        <time>2011-05-22T08:47:03Z</time>
      </trkpt>
      <trkpt lat="45.56198" lon="6.00271">
        <ele>761.02</ele>
        <time>2011-05-22T08:47:12Z</time>
      </trkpt>
      <trkpt lat="45.56202" lon="6.00302">
        <ele>760.06</ele>
        <time>2011-05-22T08:47:16Z</time>
      </trkpt>
      <trkpt lat="45.56204" lon="6.00309">
        <ele>760.06</ele>
        <time>2011-05-22T08:47:17Z</time>
      </trkpt>
      <trkpt lat="45.56208" lon="6.00316">
        <ele>760.06</ele>
        <time>2011-05-22T08:47:18Z</time>
      </trkpt>
      <trkpt lat="45.56215" lon="6.00328">
        <ele>757.66</ele>
        <time>2011-05-22T08:47:20Z</time>
      </trkpt>
      <trkpt lat="45.56253" lon="6.00382">
        <ele>755.73</ele>
        <time>2011-05-22T08:47:29Z</time>
      </trkpt>
      <trkpt lat="45.56257" lon="6.00386">
        <ele>755.25</ele>
        <time>2011-05-22T08:47:30Z</time>
      </trkpt>
      <trkpt lat="45.5627" lon="6.00396">
        <ele>754.77</ele>
        <time>2011-05-22T08:47:33Z</time>
      </trkpt>
      <trkpt lat="45.56297" lon="6.00415">
        <ele>750.93</ele>
        <time>2011-05-22T08:47:38Z</time>
      </trkpt>
      <trkpt lat="45.56309" lon="6.00424">
        <ele>749.49</ele>
        <time>2011-05-22T08:47:40Z</time>
      </trkpt>
      <trkpt lat="45.56353" lon="6.00463">
        <ele>746.6</ele>
        <time>2011-05-22T08:47:47Z</time>
      </trkpt>
      <trkpt lat="45.56365" lon="6.00476">
        <ele>746.12</ele>
        <time>2011-05-22T08:47:49Z</time>
      </trkpt>
      <trkpt lat="45.56422" lon="6.0056">
        <ele>741.79</ele>
        <time>2011-05-22T08:48:01Z</time>
      </trkpt>
      <trkpt lat="45.56426" lon="6.00565">
        <ele>741.31</ele>
        <time>2011-05-22T08:48:02Z</time>
      </trkpt>
      <trkpt lat="45.56455" lon="6.00608">
        <ele>737.95</ele>
        <time>2011-05-22T08:48:12Z</time>
      </trkpt>
      <trkpt lat="45.5646" lon="6.0061">
        <ele>737.95</ele>
        <time>2011-05-22T08:48:13Z</time>
      </trkpt>
      <trkpt lat="45.56465" lon="6.00612">
        <ele>737.95</ele>
        <time>2011-05-22T08:48:14Z</time>
      </trkpt>
      <trkpt lat="45.5647" lon="6.00614">
        <ele>737.47</ele>
        <time>2011-05-22T08:48:15Z</time>
      </trkpt>
      <trkpt lat="45.56475" lon="6.00616">
        <ele>736.99</ele>
        <time>2011-05-22T08:48:16Z</time>
      </trkpt>
      <trkpt lat="45.56511" lon="6.0063">
        <ele>735.55</ele>
        <time>2011-05-22T08:48:23Z</time>
      </trkpt>
      <trkpt lat="45.56516" lon="6.00633">
        <ele>734.1</ele>
        <time>2011-05-22T08:48:24Z</time>
      </trkpt>
      <trkpt lat="45.56522" lon="6.00637">
        <ele>733.62</ele>
        <time>2011-05-22T08:48:25Z</time>
      </trkpt>
      <trkpt lat="45.56547" lon="6.00658">
        <ele>731.22</ele>
        <time>2011-05-22T08:48:30Z</time>
      </trkpt>
      <trkpt lat="45.56575" lon="6.00679">
        <ele>729.3</ele>
        <time>2011-05-22T08:48:37Z</time>
      </trkpt>
      <trkpt lat="45.56581" lon="6.00683">
        <ele>728.82</ele>
        <time>2011-05-22T08:48:38Z</time>
      </trkpt>
      <trkpt lat="45.56597" lon="6.00695">
        <ele>726.89</ele>
        <time>2011-05-22T08:48:41Z</time>
      </trkpt>
      <trkpt lat="45.56602" lon="6.00698">
        <ele>725.93</ele>
        <time>2011-05-22T08:48:42Z</time>
      </trkpt>
      <trkpt lat="45.56607" lon="6.00699">
        <ele>725.45</ele>
        <time>2011-05-22T08:48:43Z</time>
      </trkpt>
      <trkpt lat="45.56612" lon="6.00699">
        <ele>724.49</ele>
        <time>2011-05-22T08:48:44Z</time>
      </trkpt>
      <trkpt lat="45.56617" lon="6.00699">
        <ele>724.49</ele>
        <time>2011-05-22T08:48:45Z</time>
      </trkpt>
      <trkpt lat="45.5662" lon="6.00698">
        <ele>724.01</ele>
        <time>2011-05-22T08:48:46Z</time>
      </trkpt>
      <trkpt lat="45.56624" lon="6.00699">
        <ele>724.01</ele>
        <time>2011-05-22T08:48:47Z</time>
      </trkpt>
      <trkpt lat="45.56627" lon="6.00703">
        <ele>724.01</ele>
        <time>2011-05-22T08:48:48Z</time>
      </trkpt>
      <trkpt lat="45.5663" lon="6.00709">
        <ele>723.53</ele>
        <time>2011-05-22T08:48:49Z</time>
      </trkpt>
      <trkpt lat="45.56632" lon="6.00716">
        <ele>723.05</ele>
        <time>2011-05-22T08:48:50Z</time>
      </trkpt>
      <trkpt lat="45.56633" lon="6.00724">
        <ele>722.57</ele>
        <time>2011-05-22T08:48:51Z</time>
      </trkpt>
      <trkpt lat="45.56636" lon="6.00736">
        <ele>721.61</ele>
        <time>2011-05-22T08:48:53Z</time>
      </trkpt>
      <trkpt lat="45.56638" lon="6.0074">
        <ele>720.65</ele>
        <time>2011-05-22T08:48:54Z</time>
      </trkpt>
      <trkpt lat="45.56642" lon="6.00743">
        <ele>720.16</ele>
        <time>2011-05-22T08:48:55Z</time>
      </trkpt>
      <trkpt lat="45.56649" lon="6.00749">
        <ele>719.68</ele>
        <time>2011-05-22T08:48:57Z</time>
      </trkpt>
      <trkpt lat="45.56653" lon="6.00754">
        <ele>718.72</ele>
        <time>2011-05-22T08:48:58Z</time>
      </trkpt>
      <trkpt lat="45.56655" lon="6.0076">
        <ele>718.24</ele>
        <time>2011-05-22T08:48:59Z</time>
      </trkpt>
      <trkpt lat="45.56658" lon="6.00767">
        <ele>717.76</ele>
        <time>2011-05-22T08:49:00Z</time>
      </trkpt>
      <trkpt lat="45.5666" lon="6.00774">
        <ele>716.8</ele>
        <time>2011-05-22T08:49:01Z</time>
      </trkpt>
      <trkpt lat="45.56661" lon="6.00782">
        <ele>716.32</ele>
        <time>2011-05-22T08:49:02Z</time>
      </trkpt>
      <trkpt lat="45.56663" lon="6.00804">
        <ele>714.4</ele>
        <time>2011-05-22T08:49:05Z</time>
      </trkpt>
      <trkpt lat="45.56661" lon="6.0081">
        <ele>713.92</ele>
        <time>2011-05-22T08:49:06Z</time>
      </trkpt>
      <trkpt lat="45.56659" lon="6.00815">
        <ele>713.44</ele>
        <time>2011-05-22T08:49:07Z</time>
      </trkpt>
      <trkpt lat="45.56654" lon="6.00824">
        <ele>712.47</ele>
        <time>2011-05-22T08:49:09Z</time>
      </trkpt>
      <trkpt lat="45.56624" lon="6.00885">
        <ele>709.11</ele>
        <time>2011-05-22T08:49:18Z</time>
      </trkpt>
      <trkpt lat="45.56616" lon="6.009">
        <ele>708.63</ele>
        <time>2011-05-22T08:49:20Z</time>
      </trkpt>
      <trkpt lat="45.56578" lon="6.00968">
        <ele>707.19</ele>
        <time>2011-05-22T08:49:29Z</time>
      </trkpt>
      <trkpt lat="45.56576" lon="6.00977">
        <ele>707.19</ele>
        <time>2011-05-22T08:49:30Z</time>
      </trkpt>
      <trkpt lat="45.56574" lon="6.00985">
        <ele>707.19</ele>
        <time>2011-05-22T08:49:31Z</time>
      </trkpt>
      <trkpt lat="45.56571" lon="6.00993">
        <ele>707.19</ele>
        <time>2011-05-22T08:49:32Z</time>
      </trkpt>
      <trkpt lat="45.56569" lon="6.01001">
        <ele>707.19</ele>
        <time>2011-05-22T08:49:33Z</time>
      </trkpt>
      <trkpt lat="45.56567" lon="6.01009">
        <ele>707.19</ele>
        <time>2011-05-22T08:49:34Z</time>
      </trkpt>
      <trkpt lat="45.56565" lon="6.01017">
        <ele>707.19</ele>
        <time>2011-05-22T08:49:35Z</time>
      </trkpt>
      <trkpt lat="45.56562" lon="6.01024">
        <ele>707.19</ele>
        <time>2011-05-22T08:49:36Z</time>
      </trkpt>
      <trkpt lat="45.56559" lon="6.0103">
        <ele>707.19</ele>
        <time>2011-05-22T08:49:37Z</time>
      </trkpt>
      <trkpt lat="45.56555" lon="6.01036">
        <ele>707.19</ele>
        <time>2011-05-22T08:49:38Z</time>
      </trkpt>
      <trkpt lat="45.56534" lon="6.01071">
        <ele>707.19</ele>
        <time>2011-05-22T08:49:44Z</time>
      </trkpt>
      <trkpt lat="45.56528" lon="6.01082">
        <ele>707.19</ele>
        <time>2011-05-22T08:49:46Z</time>
      </trkpt>
      <trkpt lat="45.56524" lon="6.01087">
        <ele>707.19</ele>
        <time>2011-05-22T08:49:47Z</time>
      </trkpt>
      <trkpt lat="45.56522" lon="6.01092">
        <ele>707.19</ele>
        <time>2011-05-22T08:49:48Z</time>
      </trkpt>
      <trkpt lat="45.56516" lon="6.01111">
        <ele>707.19</ele>
        <time>2011-05-22T08:49:51Z</time>
      </trkpt>
      <trkpt lat="45.56507" lon="6.01143">
        <ele>708.63</ele>
        <time>2011-05-22T08:49:57Z</time>
      </trkpt>
      <trkpt lat="45.56504" lon="6.01144">
        <ele>708.63</ele>
        <time>2011-05-22T08:49:58Z</time>
      </trkpt>
      <trkpt lat="45.56501" lon="6.01145">
        <ele>708.63</ele>
        <time>2011-05-22T08:49:59Z</time>
      </trkpt>
      <trkpt lat="45.56475" lon="6.01137">
        <ele>711.99</ele>
        <time>2011-05-22T08:50:10Z</time>
      </trkpt>
      <trkpt lat="45.56467" lon="6.01129">
        <ele>712.95</ele>
        <time>2011-05-22T08:50:15Z</time>
      </trkpt>
      <trkpt lat="45.56465" lon="6.01124">
        <ele>713.92</ele>
        <time>2011-05-22T08:50:17Z</time>
      </trkpt>
      <trkpt lat="45.56464" lon="6.01123">
        <ele>713.44</ele>
        <time>2011-05-22T08:50:18Z</time>
      </trkpt>
      <trkpt lat="45.56462" lon="6.01121">
        <ele>713.44</ele>
        <time>2011-05-22T08:50:19Z</time>
      </trkpt>
      <trkpt lat="45.56461" lon="6.0112">
        <ele>713.92</ele>
        <time>2011-05-22T08:50:20Z</time>
      </trkpt>
      <trkpt lat="45.56459" lon="6.01118">
        <ele>713.92</ele>
        <time>2011-05-22T08:50:21Z</time>
      </trkpt>
      <trkpt lat="45.56458" lon="6.01116">
        <ele>714.4</ele>
        <time>2011-05-22T08:50:22Z</time>
      </trkpt>
      <trkpt lat="45.56458" lon="6.01114">
        <ele>714.88</ele>
        <time>2011-05-22T08:50:23Z</time>
      </trkpt>
      <trkpt lat="45.56456" lon="6.01112">
        <ele>714.88</ele>
        <time>2011-05-22T08:50:24Z</time>
      </trkpt>
      <trkpt lat="45.56455" lon="6.0111">
        <ele>714.88</ele>
        <time>2011-05-22T08:50:25Z</time>
      </trkpt>
      <trkpt lat="45.56454" lon="6.01109">
        <ele>715.36</ele>
        <time>2011-05-22T08:50:26Z</time>
      </trkpt>
      <trkpt lat="45.56452" lon="6.01107">
        <ele>715.36</ele>
        <time>2011-05-22T08:50:27Z</time>
      </trkpt>
      <trkpt lat="45.56451" lon="6.01105">
        <ele>715.36</ele>
        <time>2011-05-22T08:50:28Z</time>
      </trkpt>
      <trkpt lat="45.56449" lon="6.01103">
        <ele>715.84</ele>
        <time>2011-05-22T08:50:29Z</time>
      </trkpt>
      <trkpt lat="45.56434" lon="6.01079">
        <ele>717.76</ele>
        <time>2011-05-22T08:50:41Z</time>
      </trkpt>
      <trkpt lat="45.56418" lon="6.01054">
        <ele>720.16</ele>
        <time>2011-05-22T08:50:54Z</time>
      </trkpt>
      <trkpt lat="45.56405" lon="6.01032">
        <ele>723.05</ele>
        <time>2011-05-22T08:51:06Z</time>
      </trkpt>
      <trkpt lat="45.56404" lon="6.01029">
        <ele>723.53</ele>
        <time>2011-05-22T08:51:08Z</time>
      </trkpt>
      <trkpt lat="45.56403" lon="6.01027">
        <ele>723.53</ele>
        <time>2011-05-22T08:51:09Z</time>
      </trkpt>
      <trkpt lat="45.56397" lon="6.01026">
        <ele>724.49</ele>
        <time>2011-05-22T08:51:14Z</time>
      </trkpt>
      <trkpt lat="45.56383" lon="6.01034">
        <ele>727.37</ele>
        <time>2011-05-22T08:51:26Z</time>
      </trkpt>
      <trkpt lat="45.56369" lon="6.0104">
        <ele>730.26</ele>
        <time>2011-05-22T08:51:38Z</time>
      </trkpt>
      <trkpt lat="45.56369" lon="6.01041">
        <ele>730.26</ele>
        <time>2011-05-22T08:51:39Z</time>
      </trkpt>
      <trkpt lat="45.56366" lon="6.01043">
        <ele>731.22</ele>
        <time>2011-05-22T08:51:41Z</time>
      </trkpt>
      <trkpt lat="45.5635" lon="6.0105">
        <ele>734.58</ele>
        <time>2011-05-22T08:51:56Z</time>
      </trkpt>
      <trkpt lat="45.56342" lon="6.01053">
        <ele>735.55</ele>
        <time>2011-05-22T08:52:03Z</time>
      </trkpt>
      <trkpt lat="45.56341" lon="6.01053">
        <ele>735.55</ele>
        <time>2011-05-22T08:52:04Z</time>
      </trkpt>
      <trkpt lat="45.56339" lon="6.01053">
        <ele>736.03</ele>
        <time>2011-05-22T08:52:05Z</time>
      </trkpt>
      <trkpt lat="45.56323" lon="6.01058">
        <ele>738.91</ele>
        <time>2011-05-22T08:52:18Z</time>
      </trkpt>
      <trkpt lat="45.56302" lon="6.01061">
        <ele>740.83</ele>
        <time>2011-05-22T08:52:32Z</time>
      </trkpt>
      <trkpt lat="45.56281" lon="6.01068">
        <ele>740.83</ele>
        <time>2011-05-22T08:52:44Z</time>
      </trkpt>
      <trkpt lat="45.56255" lon="6.01056">
        <ele>741.31</ele>
        <time>2011-05-22T08:52:55Z</time>
      </trkpt>
      <trkpt lat="45.56238" lon="6.01035">
        <ele>744.68</ele>
        <time>2011-05-22T08:53:07Z</time>
      </trkpt>
      <trkpt lat="45.56231" lon="6.00998">
        <ele>746.6</ele>
        <time>2011-05-22T08:53:21Z</time>
      </trkpt>
      <trkpt lat="45.56218" lon="6.00959">
        <ele>749.97</ele>
        <time>2011-05-22T08:53:37Z</time>
      </trkpt>
      <trkpt lat="45.56193" lon="6.00941">
        <ele>752.85</ele>
        <time>2011-05-22T08:53:52Z</time>
      </trkpt>
      <trkpt lat="45.56167" lon="6.00926">
        <ele>755.73</ele>
        <time>2011-05-22T08:54:07Z</time>
      </trkpt>
      <trkpt lat="45.56136" lon="6.0092">
        <ele>759.1</ele>
        <time>2011-05-22T08:54:24Z</time>
      </trkpt>
      <trkpt lat="45.56108" lon="6.00933">
        <ele>761.98</ele>
        <time>2011-05-22T08:54:40Z</time>
      </trkpt>
      <trkpt lat="45.56077" lon="6.00946">
        <ele>765.35</ele>
        <time>2011-05-22T08:54:57Z</time>
      </trkpt>
      <trkpt lat="45.56052" lon="6.00967">
        <ele>768.23</ele>
        <time>2011-05-22T08:55:13Z</time>
      </trkpt>
      <trkpt lat="45.56037" lon="6.00998">
        <ele>771.11</ele>
        <time>2011-05-22T08:55:27Z</time>
      </trkpt>
      <trkpt lat="45.56022" lon="6.01025">
        <ele>773.52</ele>
        <time>2011-05-22T08:55:40Z</time>
      </trkpt>
      <trkpt lat="45.56004" lon="6.01053">
        <ele>775.92</ele>
        <time>2011-05-22T08:55:54Z</time>
      </trkpt>
      <trkpt lat="45.5598" lon="6.0108">
        <ele>778.81</ele>
        <time>2011-05-22T08:56:10Z</time>
      </trkpt>
      <trkpt lat="45.55964" lon="6.01108">
        <ele>782.17</ele>
        <time>2011-05-22T08:56:24Z</time>
      </trkpt>
      <trkpt lat="45.55945" lon="6.01146">
        <ele>785.05</ele>
        <time>2011-05-22T08:56:41Z</time>
      </trkpt>
      <trkpt lat="45.55927" lon="6.01169">
        <ele>788.42</ele>
        <time>2011-05-22T08:56:54Z</time>
      </trkpt>
      <trkpt lat="45.55907" lon="6.012">
        <ele>789.38</ele>
        <time>2011-05-22T08:57:09Z</time>
      </trkpt>
      <trkpt lat="45.55887" lon="6.01217">
        <ele>792.26</ele>
        <time>2011-05-22T08:57:22Z</time>
      </trkpt>
      <trkpt lat="45.55864" lon="6.01217">
        <ele>794.67</ele>
        <time>2011-05-22T08:57:33Z</time>
      </trkpt>
      <trkpt lat="45.55832" lon="6.01201">
        <ele>797.07</ele>
        <time>2011-05-22T08:57:49Z</time>
      </trkpt>
      <trkpt lat="45.55804" lon="6.0117">
        <ele>799.95</ele>
        <time>2011-05-22T08:58:05Z</time>
      </trkpt>
      <trkpt lat="45.55785" lon="6.0114">
        <ele>801.88</ele>
        <time>2011-05-22T08:58:18Z</time>
      </trkpt>
      <trkpt lat="45.55775" lon="6.01092">
        <ele>804.28</ele>
        <time>2011-05-22T08:58:34Z</time>
      </trkpt>
      <trkpt lat="45.55787" lon="6.01049">
        <ele>806.68</ele>
        <time>2011-05-22T08:58:49Z</time>
      </trkpt>
      <trkpt lat="45.55816" lon="6.0102">
        <ele>809.09</ele>
        <time>2011-05-22T08:59:05Z</time>
      </trkpt>
      <trkpt lat="45.55847" lon="6.01005">
        <ele>811.97</ele>
        <time>2011-05-22T08:59:20Z</time>
      </trkpt>
      <trkpt lat="45.55851" lon="6.00965">
        <ele>813.89</ele>
        <time>2011-05-22T08:59:32Z</time>
      </trkpt>
      <trkpt lat="45.55833" lon="6.00924">
        <ele>816.3</ele>
        <time>2011-05-22T08:59:45Z</time>
      </trkpt>
      <trkpt lat="45.55804" lon="6.00891">
        <ele>817.26</ele>
        <time>2011-05-22T09:00:01Z</time>
      </trkpt>
      <trkpt lat="45.55782" lon="6.00881">
        <ele>820.62</ele>
        <time>2011-05-22T09:00:11Z</time>
      </trkpt>
      <trkpt lat="45.55752" lon="6.00873">
        <ele>824.47</ele>
        <time>2011-05-22T09:00:25Z</time>
      </trkpt>
      <trkpt lat="45.55729" lon="6.00904">
        <ele>825.91</ele>
        <time>2011-05-22T09:00:38Z</time>
      </trkpt>
      <trkpt lat="45.55716" lon="6.00954">
        <ele>827.35</ele>
        <time>2011-05-22T09:00:52Z</time>
      </trkpt>
      <trkpt lat="45.55698" lon="6.00978">
        <ele>829.27</ele>
        <time>2011-05-22T09:01:04Z</time>
      </trkpt>
      <trkpt lat="45.55694" lon="6.00973">
        <ele>829.27</ele>
        <time>2011-05-22T09:01:06Z</time>
      </trkpt>
      <trkpt lat="45.55693" lon="6.00969">
        <ele>829.76</ele>
        <time>2011-05-22T09:01:07Z</time>
      </trkpt>
      <trkpt lat="45.55663" lon="6.00922">
        <ele>830.24</ele>
        <time>2011-05-22T09:01:21Z</time>
      </trkpt>
      <trkpt lat="45.55638" lon="6.00903">
        <ele>829.27</ele>
        <time>2011-05-22T09:01:28Z</time>
      </trkpt>
      <trkpt lat="45.55624" lon="6.00884">
        <ele>828.79</ele>
        <time>2011-05-22T09:01:32Z</time>
      </trkpt>
      <trkpt lat="45.5562" lon="6.00878">
        <ele>828.31</ele>
        <time>2011-05-22T09:01:33Z</time>
      </trkpt>
      <trkpt lat="45.55615" lon="6.00873">
        <ele>827.83</ele>
        <time>2011-05-22T09:01:34Z</time>
      </trkpt>
      <trkpt lat="45.55602" lon="6.00854">
        <ele>826.87</ele>
        <time>2011-05-22T09:01:37Z</time>
      </trkpt>
      <trkpt lat="45.55596" lon="6.00839">
        <ele>825.91</ele>
        <time>2011-05-22T09:01:39Z</time>
      </trkpt>
      <trkpt lat="45.55578" lon="6.00787">
        <ele>825.43</ele>
        <time>2011-05-22T09:01:48Z</time>
      </trkpt>
      <trkpt lat="45.55562" lon="6.00753">
        <ele>823.99</ele>
        <time>2011-05-22T09:01:54Z</time>
      </trkpt>
      <trkpt lat="45.5556" lon="6.00747">
        <ele>823.99</ele>
        <time>2011-05-22T09:01:55Z</time>
      </trkpt>
      <trkpt lat="45.55558" lon="6.00739">
        <ele>823.99</ele>
        <time>2011-05-22T09:01:56Z</time>
      </trkpt>
      <trkpt lat="45.55547" lon="6.00701">
        <ele>820.62</ele>
        <time>2011-05-22T09:02:01Z</time>
      </trkpt>
      <trkpt lat="45.55544" lon="6.00694">
        <ele>820.14</ele>
        <time>2011-05-22T09:02:02Z</time>
      </trkpt>
      <trkpt lat="45.55539" lon="6.00687">
        <ele>819.66</ele>
        <time>2011-05-22T09:02:03Z</time>
      </trkpt>
      <trkpt lat="45.55534" lon="6.00682">
        <ele>819.18</ele>
        <time>2011-05-22T09:02:04Z</time>
      </trkpt>
      <trkpt lat="45.55529" lon="6.00677">
        <ele>818.7</ele>
        <time>2011-05-22T09:02:05Z</time>
      </trkpt>
      <trkpt lat="45.55524" lon="6.00673">
        <ele>817.74</ele>
        <time>2011-05-22T09:02:06Z</time>
      </trkpt>
      <trkpt lat="45.5552" lon="6.00669">
        <ele>817.26</ele>
        <time>2011-05-22T09:02:07Z</time>
      </trkpt>
      <trkpt lat="45.55511" lon="6.00664">
        <ele>816.3</ele>
        <time>2011-05-22T09:02:09Z</time>
      </trkpt>
      <trkpt lat="45.55488" lon="6.00679">
        <ele>813.41</ele>
        <time>2011-05-22T09:02:17Z</time>
      </trkpt>
      <trkpt lat="45.55475" lon="6.00704">
        <ele>809.57</ele>
        <time>2011-05-22T09:02:23Z</time>
      </trkpt>
      <trkpt lat="45.55474" lon="6.00738">
        <ele>806.2</ele>
        <time>2011-05-22T09:02:32Z</time>
      </trkpt>
      <trkpt lat="45.55474" lon="6.00742">
        <ele>806.68</ele>
        <time>2011-05-22T09:02:33Z</time>
      </trkpt>
      <trkpt lat="45.55473" lon="6.00746">
        <ele>806.2</ele>
        <time>2011-05-22T09:02:34Z</time>
      </trkpt>
      <trkpt lat="45.55473" lon="6.0075">
        <ele>806.2</ele>
        <time>2011-05-22T09:02:35Z</time>
      </trkpt>
      <trkpt lat="45.55472" lon="6.00756">
        <ele>805.72</ele>
        <time>2011-05-22T09:02:36Z</time>
      </trkpt>
      <trkpt lat="45.55471" lon="6.00762">
        <ele>804.76</ele>
        <time>2011-05-22T09:02:37Z</time>
      </trkpt>
      <trkpt lat="45.5547" lon="6.00768">
        <ele>805.24</ele>
        <time>2011-05-22T09:02:38Z</time>
      </trkpt>
      <trkpt lat="45.55469" lon="6.00774">
        <ele>804.76</ele>
        <time>2011-05-22T09:02:39Z</time>
      </trkpt>
      <trkpt lat="45.55467" lon="6.00786">
        <ele>804.28</ele>
        <time>2011-05-22T09:02:41Z</time>
      </trkpt>
      <trkpt lat="45.55465" lon="6.00792">
        <ele>803.32</ele>
        <time>2011-05-22T09:02:42Z</time>
      </trkpt>
      <trkpt lat="45.55462" lon="6.00805">
        <ele>802.36</ele>
        <time>2011-05-22T09:02:52Z</time>
      </trkpt>
      <trkpt lat="45.5546" lon="6.00808">
        <ele>802.36</ele>
        <time>2011-05-22T09:03:08Z</time>
      </trkpt>
      <trkpt lat="45.5546" lon="6.00808">
        <ele>801.88</ele>
        <time>2011-05-22T09:03:10Z</time>
      </trkpt>
      <trkpt lat="45.55457" lon="6.00825">
        <ele>800.92</ele>
        <time>2011-05-22T09:03:20Z</time>
      </trkpt>
      <trkpt lat="45.55456" lon="6.00827">
        <ele>800.44</ele>
        <time>2011-05-22T09:03:21Z</time>
      </trkpt>
      <trkpt lat="45.55455" lon="6.00829">
        <ele>799.95</ele>
        <time>2011-05-22T09:03:22Z</time>
      </trkpt>
      <trkpt lat="45.5545" lon="6.00858">
        <ele>797.07</ele>
        <time>2011-05-22T09:03:29Z</time>
      </trkpt>
      <trkpt lat="45.55454" lon="6.00879">
        <ele>795.15</ele>
        <time>2011-05-22T09:03:34Z</time>
      </trkpt>
      <trkpt lat="45.55462" lon="6.00902">
        <ele>791.78</ele>
        <time>2011-05-22T09:03:41Z</time>
      </trkpt>
      <trkpt lat="45.55472" lon="6.00919">
        <ele>788.42</ele>
        <time>2011-05-22T09:03:45Z</time>
      </trkpt>
      <trkpt lat="45.55485" lon="6.00938">
        <ele>786.02</ele>
        <time>2011-05-22T09:03:50Z</time>
      </trkpt>
      <trkpt lat="45.55491" lon="6.0095">
        <ele>783.61</ele>
        <time>2011-05-22T09:03:54Z</time>
      </trkpt>
      <trkpt lat="45.55491" lon="6.00952">
        <ele>783.13</ele>
        <time>2011-05-22T09:03:55Z</time>
      </trkpt>
      <trkpt lat="45.55491" lon="6.00954">
        <ele>782.65</ele>
        <time>2011-05-22T09:03:56Z</time>
      </trkpt>
      <trkpt lat="45.55492" lon="6.00956">
        <ele>782.17</ele>
        <time>2011-05-22T09:03:57Z</time>
      </trkpt>
      <trkpt lat="45.55493" lon="6.00959">
        <ele>780.73</ele>
        <time>2011-05-22T09:04:07Z</time>
      </trkpt>
      <trkpt lat="45.55497" lon="6.00972">
        <ele>779.77</ele>
        <time>2011-05-22T09:04:19Z</time>
      </trkpt>
      <trkpt lat="45.55497" lon="6.00974">
        <ele>779.29</ele>
        <time>2011-05-22T09:04:20Z</time>
      </trkpt>
      <trkpt lat="45.55498" lon="6.00976">
        <ele>779.29</ele>
        <time>2011-05-22T09:04:21Z</time>
      </trkpt>
      <trkpt lat="45.55499" lon="6.00978">
        <ele>778.81</ele>
        <time>2011-05-22T09:04:22Z</time>
      </trkpt>
      <trkpt lat="45.55501" lon="6.0098">
        <ele>778.81</ele>
        <time>2011-05-22T09:04:23Z</time>
      </trkpt>
      <trkpt lat="45.55508" lon="6.01004">
        <ele>776.4</ele>
        <time>2011-05-22T09:04:33Z</time>
      </trkpt>
      <trkpt lat="45.55518" lon="6.01025">
        <ele>773.04</ele>
        <time>2011-05-22T09:04:42Z</time>
      </trkpt>
      <trkpt lat="45.55525" lon="6.01044">
        <ele>770.15</ele>
        <time>2011-05-22T09:04:46Z</time>
      </trkpt>
      <trkpt lat="45.5552" lon="6.01052">
        <ele>766.79</ele>
        <time>2011-05-22T09:04:51Z</time>
      </trkpt>
      <trkpt lat="45.55511" lon="6.01045">
        <ele>766.79</ele>
        <time>2011-05-22T09:04:55Z</time>
      </trkpt>
      <trkpt lat="45.55508" lon="6.01044">
        <ele>766.31</ele>
        <time>2011-05-22T09:04:56Z</time>
      </trkpt>
      <trkpt lat="45.55506" lon="6.01042">
        <ele>766.31</ele>
        <time>2011-05-22T09:04:57Z</time>
      </trkpt>
      <trkpt lat="45.55481" lon="6.01018">
        <ele>762.94</ele>
        <time>2011-05-22T09:05:08Z</time>
      </trkpt>
      <trkpt lat="45.55475" lon="6.0101">
        <ele>760.54</ele>
        <time>2011-05-22T09:05:10Z</time>
      </trkpt>
      <trkpt lat="45.55471" lon="6.01005">
        <ele>760.54</ele>
        <time>2011-05-22T09:05:11Z</time>
      </trkpt>
      <trkpt lat="45.5546" lon="6.0099">
        <ele>758.14</ele>
        <time>2011-05-22T09:05:14Z</time>
      </trkpt>
      <trkpt lat="45.55457" lon="6.00986">
        <ele>757.66</ele>
        <time>2011-05-22T09:05:15Z</time>
      </trkpt>
      <trkpt lat="45.55455" lon="6.00985">
        <ele>758.14</ele>
        <time>2011-05-22T09:05:16Z</time>
      </trkpt>
      <trkpt lat="45.55454" lon="6.00986">
        <ele>758.14</ele>
        <time>2011-05-22T09:05:17Z</time>
      </trkpt>
      <trkpt lat="45.55454" lon="6.00988">
        <ele>757.18</ele>
        <time>2011-05-22T09:05:18Z</time>
      </trkpt>
      <trkpt lat="45.55455" lon="6.00991">
        <ele>756.21</ele>
        <time>2011-05-22T09:05:19Z</time>
      </trkpt>
      <trkpt lat="45.55456" lon="6.00995">
        <ele>755.73</ele>
        <time>2011-05-22T09:05:20Z</time>
      </trkpt>
      <trkpt lat="45.55457" lon="6.01">
        <ele>756.21</ele>
        <time>2011-05-22T09:05:21Z</time>
      </trkpt>
      <trkpt lat="45.5547" lon="6.01038">
        <ele>753.33</ele>
        <time>2011-05-22T09:05:29Z</time>
      </trkpt>
      <trkpt lat="45.55477" lon="6.01055">
        <ele>751.41</ele>
        <time>2011-05-22T09:05:34Z</time>
      </trkpt>
      <trkpt lat="45.55475" lon="6.01057">
        <ele>749.97</ele>
        <time>2011-05-22T09:05:44Z</time>
      </trkpt>
      <trkpt lat="45.55474" lon="6.01056">
        <ele>749.49</ele>
        <time>2011-05-22T09:05:49Z</time>
      </trkpt>
      <trkpt lat="45.55472" lon="6.01055">
        <ele>749</ele>
        <time>2011-05-22T09:05:50Z</time>
      </trkpt>
      <trkpt lat="45.5546" lon="6.01042">
        <ele>746.6</ele>
        <time>2011-05-22T09:06:01Z</time>
      </trkpt>
      <trkpt lat="45.55454" lon="6.01037">
        <ele>744.68</ele>
        <time>2011-05-22T09:06:13Z</time>
      </trkpt>
      <trkpt lat="45.55455" lon="6.0104">
        <ele>744.2</ele>
        <time>2011-05-22T09:06:15Z</time>
      </trkpt>
      <trkpt lat="45.55455" lon="6.01042">
        <ele>744.68</ele>
        <time>2011-05-22T09:06:16Z</time>
      </trkpt>
      <trkpt lat="45.55457" lon="6.01045">
        <ele>744.2</ele>
        <time>2011-05-22T09:06:20Z</time>
      </trkpt>
      <trkpt lat="45.55458" lon="6.01055">
        <ele>743.24</ele>
        <time>2011-05-22T09:06:26Z</time>
      </trkpt>
      <trkpt lat="45.55458" lon="6.01056">
        <ele>743.24</ele>
        <time>2011-05-22T09:06:27Z</time>
      </trkpt>
      <trkpt lat="45.55454" lon="6.01052">
        <ele>741.31</ele>
        <time>2011-05-22T09:06:37Z</time>
      </trkpt>
      <trkpt lat="45.55454" lon="6.01052">
        <ele>741.31</ele>
        <time>2011-05-22T09:07:02Z</time>
      </trkpt>
      <trkpt lat="45.55453" lon="6.01051">
        <ele>741.79</ele>
        <time>2011-05-22T09:07:07Z</time>
      </trkpt>
      <trkpt lat="45.55452" lon="6.0105">
        <ele>740.83</ele>
        <time>2011-05-22T09:07:08Z</time>
      </trkpt>
      <trkpt lat="45.5545" lon="6.01047">
        <ele>740.83</ele>
        <time>2011-05-22T09:07:09Z</time>
      </trkpt>
      <trkpt lat="45.55447" lon="6.01045">
        <ele>740.35</ele>
        <time>2011-05-22T09:07:10Z</time>
      </trkpt>
      <trkpt lat="45.55444" lon="6.01041">
        <ele>739.87</ele>
        <time>2011-05-22T09:07:11Z</time>
      </trkpt>
      <trkpt lat="45.55422" lon="6.0102">
        <ele>736.99</ele>
        <time>2011-05-22T09:07:19Z</time>
      </trkpt>
      <trkpt lat="45.55411" lon="6.01009">
        <ele>735.55</ele>
        <time>2011-05-22T09:07:28Z</time>
      </trkpt>
      <trkpt lat="45.55406" lon="6.01008">
        <ele>732.18</ele>
        <time>2011-05-22T09:07:38Z</time>
      </trkpt>
      <trkpt lat="45.554" lon="6.01009">
        <ele>729.78</ele>
        <time>2011-05-22T09:07:44Z</time>
      </trkpt>
      <trkpt lat="45.55399" lon="6.01009">
        <ele>729.78</ele>
        <time>2011-05-22T09:07:45Z</time>
      </trkpt>
      <trkpt lat="45.55397" lon="6.01008">
        <ele>729.3</ele>
        <time>2011-05-22T09:07:46Z</time>
      </trkpt>
      <trkpt lat="45.55396" lon="6.01008">
        <ele>728.82</ele>
        <time>2011-05-22T09:07:47Z</time>
      </trkpt>
      <trkpt lat="45.55396" lon="6.01014">
        <ele>726.89</ele>
        <time>2011-05-22T09:07:58Z</time>
      </trkpt>
      <trkpt lat="45.554" lon="6.01022">
        <ele>725.45</ele>
        <time>2011-05-22T09:08:02Z</time>
      </trkpt>
      <trkpt lat="45.55405" lon="6.01038">
        <ele>721.61</ele>
        <time>2011-05-22T09:08:08Z</time>
      </trkpt>
      <trkpt lat="45.55405" lon="6.01049">
        <ele>719.68</ele>
        <time>2011-05-22T09:08:11Z</time>
      </trkpt>
      <trkpt lat="45.55406" lon="6.01057">
        <ele>718.24</ele>
        <time>2011-05-22T09:08:13Z</time>
      </trkpt>
      <trkpt lat="45.55409" lon="6.01076">
        <ele>713.92</ele>
        <time>2011-05-22T09:08:17Z</time>
      </trkpt>
      <trkpt lat="45.55412" lon="6.011">
        <ele>710.07</ele>
        <time>2011-05-22T09:08:22Z</time>
      </trkpt>
      <trkpt lat="45.55412" lon="6.01108">
        <ele>709.59</ele>
        <time>2011-05-22T09:08:24Z</time>
      </trkpt>
      <trkpt lat="45.55413" lon="6.01128">
        <ele>705.75</ele>
        <time>2011-05-22T09:08:29Z</time>
      </trkpt>
      <trkpt lat="45.55415" lon="6.01143">
        <ele>701.9</ele>
        <time>2011-05-22T09:08:34Z</time>
      </trkpt>
      <trkpt lat="45.55415" lon="6.01148">
        <ele>700.94</ele>
        <time>2011-05-22T09:08:36Z</time>
      </trkpt>
      <trkpt lat="45.55409" lon="6.01148">
        <ele>699.02</ele>
        <time>2011-05-22T09:08:41Z</time>
      </trkpt>
      <trkpt lat="45.55399" lon="6.01142">
        <ele>695.65</ele>
        <time>2011-05-22T09:08:45Z</time>
      </trkpt>
      <trkpt lat="45.55386" lon="6.01129">
        <ele>692.29</ele>
        <time>2011-05-22T09:08:49Z</time>
      </trkpt>
      <trkpt lat="45.55376" lon="6.01119">
        <ele>688.44</ele>
        <time>2011-05-22T09:08:53Z</time>
      </trkpt>
      <trkpt lat="45.5537" lon="6.01113">
        <ele>685.08</ele>
        <time>2011-05-22T09:08:56Z</time>
      </trkpt>
      <trkpt lat="45.55361" lon="6.01108">
        <ele>683.63</ele>
        <time>2011-05-22T09:08:59Z</time>
      </trkpt>
      <trkpt lat="45.55352" lon="6.01108">
        <ele>680.27</ele>
        <time>2011-05-22T09:09:04Z</time>
      </trkpt>
      <trkpt lat="45.55354" lon="6.01115">
        <ele>679.79</ele>
        <time>2011-05-22T09:09:11Z</time>
      </trkpt>
      <trkpt lat="45.55363" lon="6.01136">
        <ele>675.94</ele>
        <time>2011-05-22T09:09:19Z</time>
      </trkpt>
      <trkpt lat="45.55363" lon="6.01137">
        <ele>675.46</ele>
        <time>2011-05-22T09:09:20Z</time>
      </trkpt>
      <trkpt lat="45.55365" lon="6.01153">
        <ele>671.14</ele>
        <time>2011-05-22T09:09:26Z</time>
      </trkpt>
      <trkpt lat="45.55367" lon="6.0117">
        <ele>667.77</ele>
        <time>2011-05-22T09:09:31Z</time>
      </trkpt>
      <trkpt lat="45.55366" lon="6.01176">
        <ele>666.81</ele>
        <time>2011-05-22T09:09:33Z</time>
      </trkpt>
      <trkpt lat="45.55367" lon="6.01187">
        <ele>663.45</ele>
        <time>2011-05-22T09:09:45Z</time>
      </trkpt>
      <trkpt lat="45.55371" lon="6.01192">
        <ele>661.04</ele>
        <time>2011-05-22T09:09:52Z</time>
      </trkpt>
      <trkpt lat="45.55371" lon="6.012">
        <ele>658.16</ele>
        <time>2011-05-22T09:10:02Z</time>
      </trkpt>
      <trkpt lat="45.5537" lon="6.01199">
        <ele>658.16</ele>
        <time>2011-05-22T09:10:07Z</time>
      </trkpt>
      <trkpt lat="45.55367" lon="6.01197">
        <ele>656.72</ele>
        <time>2011-05-22T09:10:10Z</time>
      </trkpt>
      <trkpt lat="45.55367" lon="6.01196">
        <ele>655.28</ele>
        <time>2011-05-22T09:10:18Z</time>
      </trkpt>
      <trkpt lat="45.5536" lon="6.01193">
        <ele>653.35</ele>
        <time>2011-05-22T09:10:22Z</time>
      </trkpt>
      <trkpt lat="45.55356" lon="6.01193">
        <ele>651.43</ele>
        <time>2011-05-22T09:10:24Z</time>
      </trkpt>
      <trkpt lat="45.55351" lon="6.01194">
        <ele>649.99</ele>
        <time>2011-05-22T09:10:27Z</time>
      </trkpt>
      <trkpt lat="45.5535" lon="6.01205">
        <ele>647.1</ele>
        <time>2011-05-22T09:10:31Z</time>
      </trkpt>
      <trkpt lat="45.55349" lon="6.01217">
        <ele>643.74</ele>
        <time>2011-05-22T09:10:36Z</time>
      </trkpt>
      <trkpt lat="45.5535" lon="6.01234">
        <ele>640.86</ele>
        <time>2011-05-22T09:10:40Z</time>
      </trkpt>
      <trkpt lat="45.55374" lon="6.01267">
        <ele>637.97</ele>
        <time>2011-05-22T09:10:50Z</time>
      </trkpt>
      <trkpt lat="45.55415" lon="6.01314">
        <ele>636.05</ele>
        <time>2011-05-22T09:11:01Z</time>
      </trkpt>
      <trkpt lat="45.55441" lon="6.01343">
        <ele>634.13</ele>
        <time>2011-05-22T09:11:07Z</time>
      </trkpt>
      <trkpt lat="45.55449" lon="6.01353">
        <ele>633.17</ele>
        <time>2011-05-22T09:11:09Z</time>
      </trkpt>
      <trkpt lat="45.55453" lon="6.01359">
        <ele>633.17</ele>
        <time>2011-05-22T09:11:10Z</time>
      </trkpt>
      <trkpt lat="45.55461" lon="6.0137">
        <ele>631.72</ele>
        <time>2011-05-22T09:11:12Z</time>
      </trkpt>
      <trkpt lat="45.55473" lon="6.01382">
        <ele>628.36</ele>
        <time>2011-05-22T09:11:15Z</time>
      </trkpt>
      <trkpt lat="45.55475" lon="6.01385">
        <ele>627.4</ele>
        <time>2011-05-22T09:11:16Z</time>
      </trkpt>
      <trkpt lat="45.5546" lon="6.01373">
        <ele>624.99</ele>
        <time>2011-05-22T09:11:23Z</time>
      </trkpt>
      <trkpt lat="45.55458" lon="6.01371">
        <ele>624.99</ele>
        <time>2011-05-22T09:11:24Z</time>
      </trkpt>
      <trkpt lat="45.55451" lon="6.01367">
        <ele>623.55</ele>
        <time>2011-05-22T09:11:26Z</time>
      </trkpt>
      <trkpt lat="45.55441" lon="6.01362">
        <ele>621.63</ele>
        <time>2011-05-22T09:11:28Z</time>
      </trkpt>
      <trkpt lat="45.55419" lon="6.01349">
        <ele>618.26</ele>
        <time>2011-05-22T09:11:32Z</time>
      </trkpt>
      <trkpt lat="45.55407" lon="6.01344">
        <ele>616.82</ele>
        <time>2011-05-22T09:11:34Z</time>
      </trkpt>
      <trkpt lat="45.55386" lon="6.01339">
        <ele>613.94</ele>
        <time>2011-05-22T09:11:38Z</time>
      </trkpt>
      <trkpt lat="45.55381" lon="6.01339">
        <ele>612.02</ele>
        <time>2011-05-22T09:11:39Z</time>
      </trkpt>
      <trkpt lat="45.55372" lon="6.01341">
        <ele>610.57</ele>
        <time>2011-05-22T09:11:41Z</time>
      </trkpt>
      <trkpt lat="45.55367" lon="6.01342">
        <ele>609.13</ele>
        <time>2011-05-22T09:11:42Z</time>
      </trkpt>
      <trkpt lat="45.55364" lon="6.01344">
        <ele>608.17</ele>
        <time>2011-05-22T09:11:43Z</time>
      </trkpt>
      <trkpt lat="45.55361" lon="6.01345">
        <ele>608.17</ele>
        <time>2011-05-22T09:11:44Z</time>
      </trkpt>
      <trkpt lat="45.55357" lon="6.0135">
        <ele>606.73</ele>
        <time>2011-05-22T09:11:46Z</time>
      </trkpt>
      <trkpt lat="45.55356" lon="6.01353">
        <ele>606.73</ele>
        <time>2011-05-22T09:11:47Z</time>
      </trkpt>
      <trkpt lat="45.55356" lon="6.01358">
        <ele>606.25</ele>
        <time>2011-05-22T09:11:48Z</time>
      </trkpt>
      <trkpt lat="45.55356" lon="6.01363">
        <ele>605.77</ele>
        <time>2011-05-22T09:11:49Z</time>
      </trkpt>
      <trkpt lat="45.55356" lon="6.01369">
        <ele>605.29</ele>
        <time>2011-05-22T09:11:50Z</time>
      </trkpt>
      <trkpt lat="45.55355" lon="6.01375">
        <ele>604.33</ele>
        <time>2011-05-22T09:11:51Z</time>
      </trkpt>
      <trkpt lat="45.55353" lon="6.01382">
        <ele>603.85</ele>
        <time>2011-05-22T09:11:52Z</time>
      </trkpt>
      <trkpt lat="45.55346" lon="6.01407">
        <ele>602.88</ele>
        <time>2011-05-22T09:11:55Z</time>
      </trkpt>
      <trkpt lat="45.55344" lon="6.01414">
        <ele>602.4</ele>
        <time>2011-05-22T09:11:56Z</time>
      </trkpt>
      <trkpt lat="45.55336" lon="6.01439">
        <ele>600.48</ele>
        <time>2011-05-22T09:12:00Z</time>
      </trkpt>
      <trkpt lat="45.55332" lon="6.01446">
        <ele>600.48</ele>
        <time>2011-05-22T09:12:01Z</time>
      </trkpt>
      <trkpt lat="45.55319" lon="6.0148">
        <ele>598.08</ele>
        <time>2011-05-22T09:12:05Z</time>
      </trkpt>
      <trkpt lat="45.55298" lon="6.01526">
        <ele>597.12</ele>
        <time>2011-05-22T09:12:10Z</time>
      </trkpt>
      <trkpt lat="45.55289" lon="6.01542">
        <ele>597.12</ele>
        <time>2011-05-22T09:12:12Z</time>
      </trkpt>
      <trkpt lat="45.55273" lon="6.01559">
        <ele>597.6</ele>
        <time>2011-05-22T09:12:17Z</time>
      </trkpt>
      <trkpt lat="45.5527" lon="6.01558">
        <ele>597.6</ele>
        <time>2011-05-22T09:12:18Z</time>
      </trkpt>
      <trkpt lat="45.55266" lon="6.01559">
        <ele>598.08</ele>
        <time>2011-05-22T09:12:19Z</time>
      </trkpt>
      <trkpt lat="45.55262" lon="6.0156">
        <ele>597.12</ele>
        <time>2011-05-22T09:12:20Z</time>
      </trkpt>
      <trkpt lat="45.55257" lon="6.01562">
        <ele>597.12</ele>
        <time>2011-05-22T09:12:21Z</time>
      </trkpt>
      <trkpt lat="45.55253" lon="6.01564">
        <ele>597.12</ele>
        <time>2011-05-22T09:12:22Z</time>
      </trkpt>
      <trkpt lat="45.55237" lon="6.01571">
        <ele>597.6</ele>
        <time>2011-05-22T09:12:26Z</time>
      </trkpt>
      <trkpt lat="45.55233" lon="6.01572">
        <ele>597.12</ele>
        <time>2011-05-22T09:12:27Z</time>
      </trkpt>
      <trkpt lat="45.55225" lon="6.01572">
        <ele>599.04</ele>
        <time>2011-05-22T09:12:29Z</time>
      </trkpt>
      <trkpt lat="45.55221" lon="6.01572">
        <ele>599.04</ele>
        <time>2011-05-22T09:12:30Z</time>
      </trkpt>
      <trkpt lat="45.55162" lon="6.01557">
        <ele>599.04</ele>
        <time>2011-05-22T09:12:44Z</time>
      </trkpt>
      <trkpt lat="45.55135" lon="6.01549">
        <ele>599.52</ele>
        <time>2011-05-22T09:12:50Z</time>
      </trkpt>
      <trkpt lat="45.55131" lon="6.01547">
        <ele>599.04</ele>
        <time>2011-05-22T09:12:51Z</time>
      </trkpt>
      <trkpt lat="45.55106" lon="6.01532">
        <ele>598.56</ele>
        <time>2011-05-22T09:12:57Z</time>
      </trkpt>
      <trkpt lat="45.55103" lon="6.01528">
        <ele>598.56</ele>
        <time>2011-05-22T09:12:58Z</time>
      </trkpt>
      <trkpt lat="45.55099" lon="6.01523">
        <ele>598.08</ele>
        <time>2011-05-22T09:12:59Z</time>
      </trkpt>
      <trkpt lat="45.55097" lon="6.01517">
        <ele>597.6</ele>
        <time>2011-05-22T09:13:00Z</time>
      </trkpt>
      <trkpt lat="45.55095" lon="6.0151">
        <ele>598.08</ele>
        <time>2011-05-22T09:13:01Z</time>
      </trkpt>
      <trkpt lat="45.55095" lon="6.01503">
        <ele>596.64</ele>
        <time>2011-05-22T09:13:02Z</time>
      </trkpt>
      <trkpt lat="45.55096" lon="6.01495">
        <ele>596.15</ele>
        <time>2011-05-22T09:13:03Z</time>
      </trkpt>
      <trkpt lat="45.55096" lon="6.01487">
        <ele>596.15</ele>
        <time>2011-05-22T09:13:04Z</time>
      </trkpt>
      <trkpt lat="45.55095" lon="6.01479">
        <ele>595.19</ele>
        <time>2011-05-22T09:13:05Z</time>
      </trkpt>
      <trkpt lat="45.55093" lon="6.0147">
        <ele>595.19</ele>
        <time>2011-05-22T09:13:06Z</time>
      </trkpt>
      <trkpt lat="45.5509" lon="6.01462">
        <ele>593.75</ele>
        <time>2011-05-22T09:13:07Z</time>
      </trkpt>
      <trkpt lat="45.55087" lon="6.01455">
        <ele>593.75</ele>
        <time>2011-05-22T09:13:08Z</time>
      </trkpt>
      <trkpt lat="45.55084" lon="6.01448">
        <ele>593.27</ele>
        <time>2011-05-22T09:13:09Z</time>
      </trkpt>
      <trkpt lat="45.55077" lon="6.01435">
        <ele>592.79</ele>
        <time>2011-05-22T09:13:11Z</time>
      </trkpt>
      <trkpt lat="45.55076" lon="6.01429">
        <ele>592.79</ele>
        <time>2011-05-22T09:13:12Z</time>
      </trkpt>
      <trkpt lat="45.55071" lon="6.01411">
        <ele>592.31</ele>
        <time>2011-05-22T09:13:15Z</time>
      </trkpt>
      <trkpt lat="45.55067" lon="6.01399">
        <ele>591.83</ele>
        <time>2011-05-22T09:13:17Z</time>
      </trkpt>
      <trkpt lat="45.55041" lon="6.01349">
        <ele>590.87</ele>
        <time>2011-05-22T09:13:27Z</time>
      </trkpt>
      <trkpt lat="45.55037" lon="6.01338">
        <ele>590.39</ele>
        <time>2011-05-22T09:13:29Z</time>
      </trkpt>
      <trkpt lat="45.55035" lon="6.01324">
        <ele>589.91</ele>
        <time>2011-05-22T09:13:31Z</time>
      </trkpt>
      <trkpt lat="45.5503" lon="6.01289">
        <ele>587.02</ele>
        <time>2011-05-22T09:13:37Z</time>
      </trkpt>
      <trkpt lat="45.55029" lon="6.01284">
        <ele>586.06</ele>
        <time>2011-05-22T09:13:38Z</time>
      </trkpt>
      <trkpt lat="45.55028" lon="6.01278">
        <ele>586.54</ele>
        <time>2011-05-22T09:13:39Z</time>
      </trkpt>
      <trkpt lat="45.55027" lon="6.01274">
        <ele>586.54</ele>
        <time>2011-05-22T09:13:40Z</time>
      </trkpt>
      <trkpt lat="45.55026" lon="6.01269">
        <ele>586.06</ele>
        <time>2011-05-22T09:13:41Z</time>
      </trkpt>
      <trkpt lat="45.55025" lon="6.01264">
        <ele>586.06</ele>
        <time>2011-05-22T09:13:42Z</time>
      </trkpt>
      <trkpt lat="45.55024" lon="6.01258">
        <ele>586.06</ele>
        <time>2011-05-22T09:13:43Z</time>
      </trkpt>
      <trkpt lat="45.55024" lon="6.01252">
        <ele>586.06</ele>
        <time>2011-05-22T09:13:44Z</time>
      </trkpt>
      <trkpt lat="45.55022" lon="6.01226">
        <ele>584.62</ele>
        <time>2011-05-22T09:13:48Z</time>
      </trkpt>
      <trkpt lat="45.5502" lon="6.01219">
        <ele>584.14</ele>
        <time>2011-05-22T09:13:49Z</time>
      </trkpt>
      <trkpt lat="45.55019" lon="6.01212">
        <ele>584.14</ele>
        <time>2011-05-22T09:13:50Z</time>
      </trkpt>
      <trkpt lat="45.55017" lon="6.01206">
        <ele>584.62</ele>
        <time>2011-05-22T09:13:51Z</time>
      </trkpt>
      <trkpt lat="45.55014" lon="6.012">
        <ele>584.62</ele>
        <time>2011-05-22T09:13:52Z</time>
      </trkpt>
      <trkpt lat="45.55012" lon="6.01193">
        <ele>583.66</ele>
        <time>2011-05-22T09:13:53Z</time>
      </trkpt>
      <trkpt lat="45.55009" lon="6.01187">
        <ele>584.14</ele>
        <time>2011-05-22T09:13:54Z</time>
      </trkpt>
      <trkpt lat="45.55007" lon="6.01181">
        <ele>583.66</ele>
        <time>2011-05-22T09:13:55Z</time>
      </trkpt>
      <trkpt lat="45.55" lon="6.01162">
        <ele>583.18</ele>
        <time>2011-05-22T09:13:58Z</time>
      </trkpt>
      <trkpt lat="45.54997" lon="6.01156">
        <ele>583.18</ele>
        <time>2011-05-22T09:13:59Z</time>
      </trkpt>
      <trkpt lat="45.54995" lon="6.01149">
        <ele>583.18</ele>
        <time>2011-05-22T09:14:00Z</time>
      </trkpt>
      <trkpt lat="45.54993" lon="6.01142">
        <ele>583.18</ele>
        <time>2011-05-22T09:14:01Z</time>
      </trkpt>
      <trkpt lat="45.54992" lon="6.01135">
        <ele>582.7</ele>
        <time>2011-05-22T09:14:02Z</time>
      </trkpt>
      <trkpt lat="45.54991" lon="6.01128">
        <ele>582.22</ele>
        <time>2011-05-22T09:14:03Z</time>
      </trkpt>
      <trkpt lat="45.5498" lon="6.01091">
        <ele>582.7</ele>
        <time>2011-05-22T09:14:09Z</time>
      </trkpt>
      <trkpt lat="45.54978" lon="6.01086">
        <ele>582.22</ele>
        <time>2011-05-22T09:14:10Z</time>
      </trkpt>
      <trkpt lat="45.54976" lon="6.01082">
        <ele>582.22</ele>
        <time>2011-05-22T09:14:11Z</time>
      </trkpt>
      <trkpt lat="45.54974" lon="6.01079">
        <ele>582.7</ele>
        <time>2011-05-22T09:14:12Z</time>
      </trkpt>
      <trkpt lat="45.54973" lon="6.01076">
        <ele>583.18</ele>
        <time>2011-05-22T09:14:13Z</time>
      </trkpt>
      <trkpt lat="45.54971" lon="6.01073">
        <ele>583.18</ele>
        <time>2011-05-22T09:14:14Z</time>
      </trkpt>
      <trkpt lat="45.54951" lon="6.0105">
        <ele>584.62</ele>
        <time>2011-05-22T09:14:22Z</time>
      </trkpt>
      <trkpt lat="45.54923" lon="6.01016">
        <ele>585.58</ele>
        <time>2011-05-22T09:14:33Z</time>
      </trkpt>
      <trkpt lat="45.54894" lon="6.00982">
        <ele>585.58</ele>
        <time>2011-05-22T09:14:43Z</time>
      </trkpt>
      <trkpt lat="45.54873" lon="6.0097">
        <ele>586.06</ele>
        <time>2011-05-22T09:14:48Z</time>
      </trkpt>
      <trkpt lat="45.54861" lon="6.00975">
        <ele>585.58</ele>
        <time>2011-05-22T09:14:51Z</time>
      </trkpt>
      <trkpt lat="45.54832" lon="6.00958">
        <ele>585.58</ele>
        <time>2011-05-22T09:15:01Z</time>
      </trkpt>
      <trkpt lat="45.5483" lon="6.00948">
        <ele>586.06</ele>
        <time>2011-05-22T09:15:03Z</time>
      </trkpt>
      <trkpt lat="45.54808" lon="6.00911">
        <ele>582.7</ele>
        <time>2011-05-22T09:15:11Z</time>
      </trkpt>
      <trkpt lat="45.54777" lon="6.00894">
        <ele>582.7</ele>
        <time>2011-05-22T09:15:18Z</time>
      </trkpt>
      <trkpt lat="45.54739" lon="6.00875">
        <ele>581.73</ele>
        <time>2011-05-22T09:15:30Z</time>
      </trkpt>
      <trkpt lat="45.54731" lon="6.00849">
        <ele>580.77</ele>
        <time>2011-05-22T09:15:35Z</time>
      </trkpt>
      <trkpt lat="45.54698" lon="6.0084">
        <ele>578.37</ele>
        <time>2011-05-22T09:15:44Z</time>
      </trkpt>
      <trkpt lat="45.54684" lon="6.00855">
        <ele>577.41</ele>
        <time>2011-05-22T09:15:48Z</time>
      </trkpt>
      <trkpt lat="45.54653" lon="6.00865">
        <ele>574.04</ele>
        <time>2011-05-22T09:15:55Z</time>
      </trkpt>
      <trkpt lat="45.54649" lon="6.00866">
        <ele>574.04</ele>
        <time>2011-05-22T09:15:56Z</time>
      </trkpt>
      <trkpt lat="45.54636" lon="6.00863">
        <ele>572.12</ele>
        <time>2011-05-22T09:15:59Z</time>
      </trkpt>
      <trkpt lat="45.54625" lon="6.00845">
        <ele>568.28</ele>
        <time>2011-05-22T09:16:03Z</time>
      </trkpt>
      <trkpt lat="45.5462" lon="6.00845">
        <ele>567.8</ele>
        <time>2011-05-22T09:16:04Z</time>
      </trkpt>
      <trkpt lat="45.54612" lon="6.00805">
        <ele>563.95</ele>
        <time>2011-05-22T09:16:10Z</time>
      </trkpt>
      <trkpt lat="45.54605" lon="6.00808">
        <ele>561.07</ele>
        <time>2011-05-22T09:16:12Z</time>
      </trkpt>
      <trkpt lat="45.54592" lon="6.00812">
        <ele>557.22</ele>
        <time>2011-05-22T09:16:15Z</time>
      </trkpt>
      <trkpt lat="45.54587" lon="6.00813">
        <ele>556.74</ele>
        <time>2011-05-22T09:16:16Z</time>
      </trkpt>
      <trkpt lat="45.54573" lon="6.0081">
        <ele>553.38</ele>
        <time>2011-05-22T09:16:19Z</time>
      </trkpt>
      <trkpt lat="45.54561" lon="6.00812">
        <ele>550.97</ele>
        <time>2011-05-22T09:16:22Z</time>
      </trkpt>
      <trkpt lat="45.54555" lon="6.00816">
        <ele>549.53</ele>
        <time>2011-05-22T09:16:23Z</time>
      </trkpt>
      <trkpt lat="45.54551" lon="6.0082">
        <ele>548.57</ele>
        <time>2011-05-22T09:16:24Z</time>
      </trkpt>
      <trkpt lat="45.54543" lon="6.00826">
        <ele>547.13</ele>
        <time>2011-05-22T09:16:26Z</time>
      </trkpt>
      <trkpt lat="45.54535" lon="6.0083">
        <ele>544.24</ele>
        <time>2011-05-22T09:16:27Z</time>
      </trkpt>
      <trkpt lat="45.54532" lon="6.00831">
        <ele>543.76</ele>
        <time>2011-05-22T09:16:28Z</time>
      </trkpt>
      <trkpt lat="45.54519" lon="6.00833">
        <ele>541.36</ele>
        <time>2011-05-22T09:16:30Z</time>
      </trkpt>
      <trkpt lat="45.54501" lon="6.00831">
        <ele>538.96</ele>
        <time>2011-05-22T09:16:33Z</time>
      </trkpt>
      <trkpt lat="45.54479" lon="6.0083">
        <ele>535.59</ele>
        <time>2011-05-22T09:16:37Z</time>
      </trkpt>
      <trkpt lat="45.54475" lon="6.0083">
        <ele>535.11</ele>
        <time>2011-05-22T09:16:38Z</time>
      </trkpt>
      <trkpt lat="45.54473" lon="6.00832">
        <ele>534.15</ele>
        <time>2011-05-22T09:16:39Z</time>
      </trkpt>
      <trkpt lat="45.54472" lon="6.00836">
        <ele>534.15</ele>
        <time>2011-05-22T09:16:40Z</time>
      </trkpt>
      <trkpt lat="45.54471" lon="6.0084">
        <ele>534.15</ele>
        <time>2011-05-22T09:16:41Z</time>
      </trkpt>
      <trkpt lat="45.54471" lon="6.00846">
        <ele>533.67</ele>
        <time>2011-05-22T09:16:42Z</time>
      </trkpt>
      <trkpt lat="45.5447" lon="6.00851">
        <ele>532.71</ele>
        <time>2011-05-22T09:16:43Z</time>
      </trkpt>
      <trkpt lat="45.5447" lon="6.00857">
        <ele>533.19</ele>
        <time>2011-05-22T09:16:44Z</time>
      </trkpt>
      <trkpt lat="45.54462" lon="6.00894">
        <ele>530.3</ele>
        <time>2011-05-22T09:16:51Z</time>
      </trkpt>
      <trkpt lat="45.54459" lon="6.00899">
        <ele>529.34</ele>
        <time>2011-05-22T09:16:52Z</time>
      </trkpt>
      <trkpt lat="45.54455" lon="6.00902">
        <ele>528.86</ele>
        <time>2011-05-22T09:16:53Z</time>
      </trkpt>
      <trkpt lat="45.54451" lon="6.00902">
        <ele>529.34</ele>
        <time>2011-05-22T09:16:54Z</time>
      </trkpt>
      <trkpt lat="45.54447" lon="6.00902">
        <ele>528.38</ele>
        <time>2011-05-22T09:16:55Z</time>
      </trkpt>
      <trkpt lat="45.54443" lon="6.00902">
        <ele>527.9</ele>
        <time>2011-05-22T09:16:56Z</time>
      </trkpt>
      <trkpt lat="45.54424" lon="6.00906">
        <ele>524.54</ele>
        <time>2011-05-22T09:17:00Z</time>
      </trkpt>
      <trkpt lat="45.5442" lon="6.00907">
        <ele>523.58</ele>
        <time>2011-05-22T09:17:01Z</time>
      </trkpt>
      <trkpt lat="45.54416" lon="6.0091">
        <ele>523.09</ele>
        <time>2011-05-22T09:17:02Z</time>
      </trkpt>
      <trkpt lat="45.54412" lon="6.00914">
        <ele>522.13</ele>
        <time>2011-05-22T09:17:03Z</time>
      </trkpt>
      <trkpt lat="45.54402" lon="6.00922">
        <ele>520.21</ele>
        <time>2011-05-22T09:17:05Z</time>
      </trkpt>
      <trkpt lat="45.54397" lon="6.00924">
        <ele>519.25</ele>
        <time>2011-05-22T09:17:06Z</time>
      </trkpt>
      <trkpt lat="45.54392" lon="6.00925">
        <ele>518.29</ele>
        <time>2011-05-22T09:17:07Z</time>
      </trkpt>
      <trkpt lat="45.54388" lon="6.00922">
        <ele>516.85</ele>
        <time>2011-05-22T09:17:08Z</time>
      </trkpt>
      <trkpt lat="45.54384" lon="6.00919">
        <ele>515.4</ele>
        <time>2011-05-22T09:17:09Z</time>
      </trkpt>
      <trkpt lat="45.54381" lon="6.00916">
        <ele>513.48</ele>
        <time>2011-05-22T09:17:10Z</time>
      </trkpt>
      <trkpt lat="45.54376" lon="6.00909">
        <ele>512.04</ele>
        <time>2011-05-22T09:17:12Z</time>
      </trkpt>
      <trkpt lat="45.54375" lon="6.00907">
        <ele>512.04</ele>
        <time>2011-05-22T09:17:13Z</time>
      </trkpt>
      <trkpt lat="45.54376" lon="6.00905">
        <ele>512.04</ele>
        <time>2011-05-22T09:17:14Z</time>
      </trkpt>
      <trkpt lat="45.54405" lon="6.00871">
        <ele>511.08</ele>
        <time>2011-05-22T09:17:25Z</time>
      </trkpt>
      <trkpt lat="45.54419" lon="6.0083">
        <ele>511.56</ele>
        <time>2011-05-22T09:17:34Z</time>
      </trkpt>
      <trkpt lat="45.54417" lon="6.00824">
        <ele>511.08</ele>
        <time>2011-05-22T09:17:35Z</time>
      </trkpt>
      <trkpt lat="45.54414" lon="6.00818">
        <ele>510.6</ele>
        <time>2011-05-22T09:17:36Z</time>
      </trkpt>
      <trkpt lat="45.54412" lon="6.00812">
        <ele>510.6</ele>
        <time>2011-05-22T09:17:37Z</time>
      </trkpt>
      <trkpt lat="45.54409" lon="6.00805">
        <ele>510.12</ele>
        <time>2011-05-22T09:17:38Z</time>
      </trkpt>
      <trkpt lat="45.54406" lon="6.00798">
        <ele>509.64</ele>
        <time>2011-05-22T09:17:39Z</time>
      </trkpt>
      <trkpt lat="45.54398" lon="6.00775">
        <ele>507.23</ele>
        <time>2011-05-22T09:17:42Z</time>
      </trkpt>
      <trkpt lat="45.54397" lon="6.00767">
        <ele>506.75</ele>
        <time>2011-05-22T09:17:43Z</time>
      </trkpt>
      <trkpt lat="45.54397" lon="6.0076">
        <ele>505.79</ele>
        <time>2011-05-22T09:17:44Z</time>
      </trkpt>
      <trkpt lat="45.54398" lon="6.00754">
        <ele>505.31</ele>
        <time>2011-05-22T09:17:45Z</time>
      </trkpt>
      <trkpt lat="45.544" lon="6.00748">
        <ele>504.83</ele>
        <time>2011-05-22T09:17:46Z</time>
      </trkpt>
      <trkpt lat="45.54403" lon="6.00743">
        <ele>503.39</ele>
        <time>2011-05-22T09:17:47Z</time>
      </trkpt>
      <trkpt lat="45.54407" lon="6.0074">
        <ele>502.91</ele>
        <time>2011-05-22T09:17:48Z</time>
      </trkpt>
      <trkpt lat="45.54412" lon="6.00738">
        <ele>502.43</ele>
        <time>2011-05-22T09:17:49Z</time>
      </trkpt>
      <trkpt lat="45.54418" lon="6.00738">
        <ele>501.95</ele>
        <time>2011-05-22T09:17:50Z</time>
      </trkpt>
      <trkpt lat="45.54424" lon="6.00739">
        <ele>501.46</ele>
        <time>2011-05-22T09:17:51Z</time>
      </trkpt>
      <trkpt lat="45.54436" lon="6.00738">
        <ele>500.5</ele>
        <time>2011-05-22T09:17:53Z</time>
      </trkpt>
      <trkpt lat="45.54442" lon="6.00737">
        <ele>499.54</ele>
        <time>2011-05-22T09:17:54Z</time>
      </trkpt>
      <trkpt lat="45.54448" lon="6.00734">
        <ele>499.06</ele>
        <time>2011-05-22T09:17:55Z</time>
      </trkpt>
      <trkpt lat="45.54455" lon="6.0073">
        <ele>498.1</ele>
        <time>2011-05-22T09:17:56Z</time>
      </trkpt>
      <trkpt lat="45.54461" lon="6.00725">
        <ele>497.14</ele>
        <time>2011-05-22T09:17:57Z</time>
      </trkpt>
      <trkpt lat="45.54466" lon="6.00719">
        <ele>496.18</ele>
        <time>2011-05-22T09:17:58Z</time>
      </trkpt>
      <trkpt lat="45.54485" lon="6.00696">
        <ele>497.14</ele>
        <time>2011-05-22T09:18:02Z</time>
      </trkpt>
      <trkpt lat="45.54489" lon="6.00691">
        <ele>497.14</ele>
        <time>2011-05-22T09:18:03Z</time>
      </trkpt>
      <trkpt lat="45.54491" lon="6.00687">
        <ele>497.62</ele>
        <time>2011-05-22T09:18:04Z</time>
      </trkpt>
      <trkpt lat="45.54493" lon="6.00683">
        <ele>497.62</ele>
        <time>2011-05-22T09:18:05Z</time>
      </trkpt>
      <trkpt lat="45.54493" lon="6.00678">
        <ele>497.62</ele>
        <time>2011-05-22T09:18:06Z</time>
      </trkpt>
      <trkpt lat="45.54494" lon="6.00674">
        <ele>498.1</ele>
        <time>2011-05-22T09:18:07Z</time>
      </trkpt>
      <trkpt lat="45.54496" lon="6.00668">
        <ele>498.1</ele>
        <time>2011-05-22T09:18:08Z</time>
      </trkpt>
      <trkpt lat="45.54496" lon="6.00662">
        <ele>498.1</ele>
        <time>2011-05-22T09:18:09Z</time>
      </trkpt>
      <trkpt lat="45.54496" lon="6.00657">
        <ele>498.1</ele>
        <time>2011-05-22T09:18:10Z</time>
      </trkpt>
      <trkpt lat="45.54496" lon="6.00651">
        <ele>498.1</ele>
        <time>2011-05-22T09:18:11Z</time>
      </trkpt>
      <trkpt lat="45.54494" lon="6.00644">
        <ele>497.62</ele>
        <time>2011-05-22T09:18:12Z</time>
      </trkpt>
      <trkpt lat="45.54492" lon="6.00638">
        <ele>498.1</ele>
        <time>2011-05-22T09:18:13Z</time>
      </trkpt>
      <trkpt lat="45.54489" lon="6.00632">
        <ele>497.62</ele>
        <time>2011-05-22T09:18:14Z</time>
      </trkpt>
      <trkpt lat="45.54486" lon="6.00626">
        <ele>497.62</ele>
        <time>2011-05-22T09:18:15Z</time>
      </trkpt>
      <trkpt lat="45.54483" lon="6.00621">
        <ele>498.1</ele>
        <time>2011-05-22T09:18:16Z</time>
      </trkpt>
      <trkpt lat="45.5448" lon="6.00616">
        <ele>498.1</ele>
        <time>2011-05-22T09:18:17Z</time>
      </trkpt>
      <trkpt lat="45.54477" lon="6.00611">
        <ele>497.62</ele>
        <time>2011-05-22T09:18:18Z</time>
      </trkpt>
      <trkpt lat="45.54476" lon="6.00605">
        <ele>498.1</ele>
        <time>2011-05-22T09:18:19Z</time>
      </trkpt>
      <trkpt lat="45.54477" lon="6.00599">
        <ele>498.1</ele>
        <time>2011-05-22T09:18:20Z</time>
      </trkpt>
      <trkpt lat="45.54479" lon="6.00594">
        <ele>498.58</ele>
        <time>2011-05-22T09:18:21Z</time>
      </trkpt>
      <trkpt lat="45.54482" lon="6.0059">
        <ele>499.06</ele>
        <time>2011-05-22T09:18:22Z</time>
      </trkpt>
      <trkpt lat="45.54485" lon="6.00586">
        <ele>499.06</ele>
        <time>2011-05-22T09:18:23Z</time>
      </trkpt>
      <trkpt lat="45.54488" lon="6.00581">
        <ele>499.06</ele>
        <time>2011-05-22T09:18:24Z</time>
      </trkpt>
      <trkpt lat="45.54491" lon="6.00577">
        <ele>499.06</ele>
        <time>2011-05-22T09:18:25Z</time>
      </trkpt>
      <trkpt lat="45.54495" lon="6.00573">
        <ele>498.58</ele>
        <time>2011-05-22T09:18:26Z</time>
      </trkpt>
      <trkpt lat="45.54499" lon="6.00569">
        <ele>498.58</ele>
        <time>2011-05-22T09:18:27Z</time>
      </trkpt>
      <trkpt lat="45.54503" lon="6.00566">
        <ele>498.1</ele>
        <time>2011-05-22T09:18:28Z</time>
      </trkpt>
      <trkpt lat="45.54509" lon="6.00563">
        <ele>497.14</ele>
        <time>2011-05-22T09:18:29Z</time>
      </trkpt>
      <trkpt lat="45.54516" lon="6.0056">
        <ele>496.18</ele>
        <time>2011-05-22T09:18:30Z</time>
      </trkpt>
      <trkpt lat="45.54522" lon="6.00559">
        <ele>495.7</ele>
        <time>2011-05-22T09:18:31Z</time>
      </trkpt>
      <trkpt lat="45.54528" lon="6.0056">
        <ele>495.7</ele>
        <time>2011-05-22T09:18:32Z</time>
      </trkpt>
      <trkpt lat="45.54535" lon="6.00561">
        <ele>495.7</ele>
        <time>2011-05-22T09:18:33Z</time>
      </trkpt>
      <trkpt lat="45.54541" lon="6.00564">
        <ele>495.7</ele>
        <time>2011-05-22T09:18:34Z</time>
      </trkpt>
      <trkpt lat="45.54547" lon="6.00568">
        <ele>495.22</ele>
        <time>2011-05-22T09:18:35Z</time>
      </trkpt>
      <trkpt lat="45.54552" lon="6.00569">
        <ele>493.77</ele>
        <time>2011-05-22T09:18:36Z</time>
      </trkpt>
      <trkpt lat="45.54556" lon="6.00569">
        <ele>494.26</ele>
        <time>2011-05-22T09:18:37Z</time>
      </trkpt>
      <trkpt lat="45.54558" lon="6.00567">
        <ele>494.74</ele>
        <time>2011-05-22T09:18:38Z</time>
      </trkpt>
      <trkpt lat="45.54558" lon="6.00564">
        <ele>494.74</ele>
        <time>2011-05-22T09:18:39Z</time>
      </trkpt>
      <trkpt lat="45.54548" lon="6.00554">
        <ele>492.81</ele>
        <time>2011-05-22T09:18:42Z</time>
      </trkpt>
      <trkpt lat="45.54532" lon="6.00544">
        <ele>491.85</ele>
        <time>2011-05-22T09:18:45Z</time>
      </trkpt>
      <trkpt lat="45.54525" lon="6.00542">
        <ele>491.85</ele>
        <time>2011-05-22T09:18:46Z</time>
      </trkpt>
      <trkpt lat="45.54518" lon="6.00542">
        <ele>490.89</ele>
        <time>2011-05-22T09:18:47Z</time>
      </trkpt>
      <trkpt lat="45.54511" lon="6.00542">
        <ele>490.41</ele>
        <time>2011-05-22T09:18:48Z</time>
      </trkpt>
      <trkpt lat="45.54503" lon="6.00544">
        <ele>489.93</ele>
        <time>2011-05-22T09:18:49Z</time>
      </trkpt>
      <trkpt lat="45.54496" lon="6.00547">
        <ele>489.45</ele>
        <time>2011-05-22T09:18:50Z</time>
      </trkpt>
      <trkpt lat="45.54488" lon="6.00552">
        <ele>488.01</ele>
        <time>2011-05-22T09:18:51Z</time>
      </trkpt>
      <trkpt lat="45.5448" lon="6.00557">
        <ele>487.53</ele>
        <time>2011-05-22T09:18:52Z</time>
      </trkpt>
      <trkpt lat="45.54457" lon="6.00578">
        <ele>485.6</ele>
        <time>2011-05-22T09:18:55Z</time>
      </trkpt>
      <trkpt lat="45.54451" lon="6.00588">
        <ele>484.16</ele>
        <time>2011-05-22T09:18:56Z</time>
      </trkpt>
      <trkpt lat="45.54446" lon="6.006">
        <ele>483.68</ele>
        <time>2011-05-22T09:18:57Z</time>
      </trkpt>
      <trkpt lat="45.54444" lon="6.00614">
        <ele>483.68</ele>
        <time>2011-05-22T09:18:58Z</time>
      </trkpt>
      <trkpt lat="45.54442" lon="6.00629">
        <ele>482.72</ele>
        <time>2011-05-22T09:18:59Z</time>
      </trkpt>
      <trkpt lat="45.54438" lon="6.00643">
        <ele>481.76</ele>
        <time>2011-05-22T09:19:00Z</time>
      </trkpt>
      <trkpt lat="45.54432" lon="6.00655">
        <ele>480.32</ele>
        <time>2011-05-22T09:19:01Z</time>
      </trkpt>
      <trkpt lat="45.54424" lon="6.00664">
        <ele>479.84</ele>
        <time>2011-05-22T09:19:02Z</time>
      </trkpt>
      <trkpt lat="45.54415" lon="6.00669">
        <ele>478.87</ele>
        <time>2011-05-22T09:19:03Z</time>
      </trkpt>
      <trkpt lat="45.54404" lon="6.00672">
        <ele>477.43</ele>
        <time>2011-05-22T09:19:04Z</time>
      </trkpt>
      <trkpt lat="45.54394" lon="6.00674">
        <ele>476.47</ele>
        <time>2011-05-22T09:19:05Z</time>
      </trkpt>
      <trkpt lat="45.54348" lon="6.0068">
        <ele>473.11</ele>
        <time>2011-05-22T09:19:09Z</time>
      </trkpt>
      <trkpt lat="45.54314" lon="6.00687">
        <ele>469.74</ele>
        <time>2011-05-22T09:19:12Z</time>
      </trkpt>
      <trkpt lat="45.54305" lon="6.00692">
        <ele>468.3</ele>
        <time>2011-05-22T09:19:13Z</time>
      </trkpt>
      <trkpt lat="45.54297" lon="6.00697">
        <ele>467.82</ele>
        <time>2011-05-22T09:19:14Z</time>
      </trkpt>
      <trkpt lat="45.54289" lon="6.00703">
        <ele>467.34</ele>
        <time>2011-05-22T09:19:15Z</time>
      </trkpt>
      <trkpt lat="45.54283" lon="6.00709">
        <ele>466.38</ele>
        <time>2011-05-22T09:19:16Z</time>
      </trkpt>
      <trkpt lat="45.54278" lon="6.00714">
        <ele>465.42</ele>
        <time>2011-05-22T09:19:17Z</time>
      </trkpt>
      <trkpt lat="45.54272" lon="6.00717">
        <ele>465.42</ele>
        <time>2011-05-22T09:19:18Z</time>
      </trkpt>
      <trkpt lat="45.54267" lon="6.00716">
        <ele>464.93</ele>
        <time>2011-05-22T09:19:19Z</time>
      </trkpt>
      <trkpt lat="45.54263" lon="6.00711">
        <ele>464.45</ele>
        <time>2011-05-22T09:19:20Z</time>
      </trkpt>
      <trkpt lat="45.54262" lon="6.00704">
        <ele>463.49</ele>
        <time>2011-05-22T09:19:21Z</time>
      </trkpt>
      <trkpt lat="45.54264" lon="6.00696">
        <ele>463.01</ele>
        <time>2011-05-22T09:19:22Z</time>
      </trkpt>
      <trkpt lat="45.54268" lon="6.0069">
        <ele>463.01</ele>
        <time>2011-05-22T09:19:23Z</time>
      </trkpt>
      <trkpt lat="45.54273" lon="6.00683">
        <ele>462.53</ele>
        <time>2011-05-22T09:19:24Z</time>
      </trkpt>
      <trkpt lat="45.54289" lon="6.00662">
        <ele>461.57</ele>
        <time>2011-05-22T09:19:27Z</time>
      </trkpt>
      <trkpt lat="45.54296" lon="6.00657">
        <ele>461.09</ele>
        <time>2011-05-22T09:19:28Z</time>
      </trkpt>
      <trkpt lat="45.54303" lon="6.00654">
        <ele>460.13</ele>
        <time>2011-05-22T09:19:29Z</time>
      </trkpt>
      <trkpt lat="45.54308" lon="6.00649">
        <ele>460.13</ele>
        <time>2011-05-22T09:19:30Z</time>
      </trkpt>
      <trkpt lat="45.54312" lon="6.00642">
        <ele>459.65</ele>
        <time>2011-05-22T09:19:31Z</time>
      </trkpt>
      <trkpt lat="45.54311" lon="6.00635">
        <ele>459.65</ele>
        <time>2011-05-22T09:19:32Z</time>
      </trkpt>
      <trkpt lat="45.54307" lon="6.00629">
        <ele>458.69</ele>
        <time>2011-05-22T09:19:33Z</time>
      </trkpt>
      <trkpt lat="45.543" lon="6.00628">
        <ele>458.21</ele>
        <time>2011-05-22T09:19:34Z</time>
      </trkpt>
      <trkpt lat="45.54293" lon="6.00629">
        <ele>457.72</ele>
        <time>2011-05-22T09:19:35Z</time>
      </trkpt>
      <trkpt lat="45.54287" lon="6.00631">
        <ele>457.24</ele>
        <time>2011-05-22T09:19:36Z</time>
      </trkpt>
      <trkpt lat="45.54271" lon="6.00636">
        <ele>456.28</ele>
        <time>2011-05-22T09:19:38Z</time>
      </trkpt>
      <trkpt lat="45.54246" lon="6.0064">
        <ele>454.36</ele>
        <time>2011-05-22T09:19:41Z</time>
      </trkpt>
      <trkpt lat="45.54237" lon="6.00644">
        <ele>453.88</ele>
        <time>2011-05-22T09:19:42Z</time>
      </trkpt>
      <trkpt lat="45.54229" lon="6.00648">
        <ele>452.92</ele>
        <time>2011-05-22T09:19:43Z</time>
      </trkpt>
      <trkpt lat="45.54221" lon="6.00651">
        <ele>451.96</ele>
        <time>2011-05-22T09:19:44Z</time>
      </trkpt>
      <trkpt lat="45.54215" lon="6.00653">
        <ele>451</ele>
        <time>2011-05-22T09:19:45Z</time>
      </trkpt>
      <trkpt lat="45.5421" lon="6.00653">
        <ele>451</ele>
        <time>2011-05-22T09:19:46Z</time>
      </trkpt>
      <trkpt lat="45.54205" lon="6.00651">
        <ele>451</ele>
        <time>2011-05-22T09:19:47Z</time>
      </trkpt>
      <trkpt lat="45.54202" lon="6.00646">
        <ele>450.03</ele>
        <time>2011-05-22T09:19:48Z</time>
      </trkpt>
      <trkpt lat="45.54199" lon="6.00639">
        <ele>449.07</ele>
        <time>2011-05-22T09:19:49Z</time>
      </trkpt>
      <trkpt lat="45.54197" lon="6.00631">
        <ele>448.11</ele>
        <time>2011-05-22T09:19:50Z</time>
      </trkpt>
      <trkpt lat="45.54196" lon="6.00623">
        <ele>447.63</ele>
        <time>2011-05-22T09:19:51Z</time>
      </trkpt>
      <trkpt lat="45.54197" lon="6.00613">
        <ele>446.19</ele>
        <time>2011-05-22T09:19:52Z</time>
      </trkpt>
      <trkpt lat="45.54197" lon="6.00604">
        <ele>446.19</ele>
        <time>2011-05-22T09:19:53Z</time>
      </trkpt>
      <trkpt lat="45.54198" lon="6.00596">
        <ele>444.27</ele>
        <time>2011-05-22T09:19:54Z</time>
      </trkpt>
      <trkpt lat="45.54201" lon="6.00576">
        <ele>441.86</ele>
        <time>2011-05-22T09:19:58Z</time>
      </trkpt>
      <trkpt lat="45.54199" lon="6.00571">
        <ele>441.38</ele>
        <time>2011-05-22T09:19:59Z</time>
      </trkpt>
      <trkpt lat="45.54195" lon="6.00568">
        <ele>440.9</ele>
        <time>2011-05-22T09:20:00Z</time>
      </trkpt>
      <trkpt lat="45.54192" lon="6.00566">
        <ele>440.9</ele>
        <time>2011-05-22T09:20:01Z</time>
      </trkpt>
      <trkpt lat="45.54189" lon="6.00565">
        <ele>440.42</ele>
        <time>2011-05-22T09:20:02Z</time>
      </trkpt>
      <trkpt lat="45.54187" lon="6.00564">
        <ele>439.94</ele>
        <time>2011-05-22T09:20:03Z</time>
      </trkpt>
      <trkpt lat="45.54185" lon="6.00563">
        <ele>440.42</ele>
        <time>2011-05-22T09:20:04Z</time>
      </trkpt>
      <trkpt lat="45.54164" lon="6.00552">
        <ele>437.54</ele>
        <time>2011-05-22T09:20:09Z</time>
      </trkpt>
      <trkpt lat="45.54158" lon="6.00548">
        <ele>436.58</ele>
        <time>2011-05-22T09:20:10Z</time>
      </trkpt>
      <trkpt lat="45.54142" lon="6.00531">
        <ele>434.65</ele>
        <time>2011-05-22T09:20:13Z</time>
      </trkpt>
      <trkpt lat="45.54135" lon="6.00528">
        <ele>434.17</ele>
        <time>2011-05-22T09:20:14Z</time>
      </trkpt>
      <trkpt lat="45.54104" lon="6.00519">
        <ele>430.81</ele>
        <time>2011-05-22T09:20:18Z</time>
      </trkpt>
      <trkpt lat="45.54038" lon="6.0051">
        <ele>428.4</ele>
        <time>2011-05-22T09:20:28Z</time>
      </trkpt>
      <trkpt lat="45.54031" lon="6.0051">
        <ele>428.4</ele>
        <time>2011-05-22T09:20:29Z</time>
      </trkpt>
      <trkpt lat="45.54024" lon="6.00509">
        <ele>425.52</ele>
        <time>2011-05-22T09:20:30Z</time>
      </trkpt>
      <trkpt lat="45.54018" lon="6.00509">
        <ele>425.52</ele>
        <time>2011-05-22T09:20:31Z</time>
      </trkpt>
      <trkpt lat="45.53985" lon="6.00507">
        <ele>423.12</ele>
        <time>2011-05-22T09:20:39Z</time>
      </trkpt>
      <trkpt lat="45.53984" lon="6.00508">
        <ele>423.12</ele>
        <time>2011-05-22T09:20:40Z</time>
      </trkpt>
      <trkpt lat="45.53981" lon="6.00509">
        <ele>423.12</ele>
        <time>2011-05-22T09:20:41Z</time>
      </trkpt>
      <trkpt lat="45.53979" lon="6.0051">
        <ele>423.12</ele>
        <time>2011-05-22T09:20:42Z</time>
      </trkpt>
      <trkpt lat="45.53977" lon="6.00512">
        <ele>423.12</ele>
        <time>2011-05-22T09:20:43Z</time>
      </trkpt>
      <trkpt lat="45.53974" lon="6.00514">
        <ele>423.12</ele>
        <time>2011-05-22T09:20:44Z</time>
      </trkpt>
      <trkpt lat="45.53971" lon="6.00516">
        <ele>423.12</ele>
        <time>2011-05-22T09:20:45Z</time>
      </trkpt>
      <trkpt lat="45.53968" lon="6.00518">
        <ele>423.12</ele>
        <time>2011-05-22T09:20:46Z</time>
      </trkpt>
      <trkpt lat="45.53965" lon="6.0052">
        <ele>422.64</ele>
        <time>2011-05-22T09:20:47Z</time>
      </trkpt>
      <trkpt lat="45.53962" lon="6.00521">
        <ele>423.12</ele>
        <time>2011-05-22T09:20:48Z</time>
      </trkpt>
      <trkpt lat="45.5392" lon="6.00527">
        <ele>424.56</ele>
        <time>2011-05-22T09:20:59Z</time>
      </trkpt>
      <trkpt lat="45.5388" lon="6.0053">
        <ele>426.48</ele>
        <time>2011-05-22T09:21:12Z</time>
      </trkpt>
      <trkpt lat="45.53873" lon="6.00528">
        <ele>428.4</ele>
        <time>2011-05-22T09:21:15Z</time>
      </trkpt>
      <trkpt lat="45.53837" lon="6.0054">
        <ele>430.81</ele>
        <time>2011-05-22T09:21:29Z</time>
      </trkpt>
      <trkpt lat="45.53819" lon="6.00548">
        <ele>432.25</ele>
        <time>2011-05-22T09:21:36Z</time>
      </trkpt>
      <trkpt lat="45.5379" lon="6.00543">
        <ele>434.17</ele>
        <time>2011-05-22T09:21:48Z</time>
      </trkpt>
      <trkpt lat="45.53741" lon="6.00539">
        <ele>435.13</ele>
        <time>2011-05-22T09:22:05Z</time>
      </trkpt>
      <trkpt lat="45.53704" lon="6.0054">
        <ele>437.06</ele>
        <time>2011-05-22T09:22:17Z</time>
      </trkpt>
      <trkpt lat="45.53662" lon="6.00547">
        <ele>438.02</ele>
        <time>2011-05-22T09:22:30Z</time>
      </trkpt>
      <trkpt lat="45.53618" lon="6.00556">
        <ele>441.38</ele>
        <time>2011-05-22T09:22:46Z</time>
      </trkpt>
      <trkpt lat="45.53571" lon="6.00567">
        <ele>442.82</ele>
        <time>2011-05-22T09:23:03Z</time>
      </trkpt>
      <trkpt lat="45.53516" lon="6.00576">
        <ele>445.23</ele>
        <time>2011-05-22T09:23:21Z</time>
      </trkpt>
      <trkpt lat="45.53482" lon="6.00576">
        <ele>447.15</ele>
        <time>2011-05-22T09:23:35Z</time>
      </trkpt>
      <trkpt lat="45.53477" lon="6.00574">
        <ele>447.63</ele>
        <time>2011-05-22T09:23:38Z</time>
      </trkpt>
      <trkpt lat="45.5345" lon="6.00586">
        <ele>449.07</ele>
        <time>2011-05-22T09:23:50Z</time>
      </trkpt>
      <trkpt lat="45.53435" lon="6.00591">
        <ele>447.63</ele>
        <time>2011-05-22T09:23:54Z</time>
      </trkpt>
      <trkpt lat="45.53426" lon="6.00593">
        <ele>447.15</ele>
        <time>2011-05-22T09:23:56Z</time>
      </trkpt>
      <trkpt lat="45.53366" lon="6.00592">
        <ele>444.27</ele>
        <time>2011-05-22T09:24:07Z</time>
      </trkpt>
      <trkpt lat="45.53354" lon="6.00591">
        <ele>443.31</ele>
        <time>2011-05-22T09:24:09Z</time>
      </trkpt>
      <trkpt lat="45.53334" lon="6.00588">
        <ele>441.86</ele>
        <time>2011-05-22T09:24:12Z</time>
      </trkpt>
      <trkpt lat="45.53298" lon="6.00582">
        <ele>439.46</ele>
        <time>2011-05-22T09:24:17Z</time>
      </trkpt>
      <trkpt lat="45.53233" lon="6.00572">
        <ele>439.94</ele>
        <time>2011-05-22T09:24:29Z</time>
      </trkpt>
      <trkpt lat="45.53189" lon="6.00557">
        <ele>438.98</ele>
        <time>2011-05-22T09:24:38Z</time>
      </trkpt>
      <trkpt lat="45.53185" lon="6.00554">
        <ele>439.46</ele>
        <time>2011-05-22T09:24:39Z</time>
      </trkpt>
      <trkpt lat="45.53182" lon="6.0055">
        <ele>439.46</ele>
        <time>2011-05-22T09:24:40Z</time>
      </trkpt>
      <trkpt lat="45.53178" lon="6.00547">
        <ele>439.46</ele>
        <time>2011-05-22T09:24:41Z</time>
      </trkpt>
      <trkpt lat="45.53175" lon="6.00543">
        <ele>439.94</ele>
        <time>2011-05-22T09:24:42Z</time>
      </trkpt>
      <trkpt lat="45.5312" lon="6.00482">
        <ele>442.82</ele>
        <time>2011-05-22T09:25:00Z</time>
      </trkpt>
      <trkpt lat="45.53117" lon="6.00472">
        <ele>442.82</ele>
        <time>2011-05-22T09:25:04Z</time>
      </trkpt>
      <trkpt lat="45.53128" lon="6.00457">
        <ele>446.19</ele>
        <time>2011-05-22T09:25:15Z</time>
      </trkpt>
      <trkpt lat="45.53131" lon="6.00453">
        <ele>446.19</ele>
        <time>2011-05-22T09:25:18Z</time>
      </trkpt>
      <trkpt lat="45.53133" lon="6.00445">
        <ele>447.63</ele>
        <time>2011-05-22T09:25:23Z</time>
      </trkpt>
      <trkpt lat="45.53115" lon="6.00414">
        <ele>448.59</ele>
        <time>2011-05-22T09:25:37Z</time>
      </trkpt>
      <trkpt lat="45.53086" lon="6.00379">
        <ele>448.59</ele>
        <time>2011-05-22T09:25:53Z</time>
      </trkpt>
      <trkpt lat="45.53062" lon="6.00343">
        <ele>449.55</ele>
        <time>2011-05-22T09:26:09Z</time>
      </trkpt>
      <trkpt lat="45.53053" lon="6.00331">
        <ele>451.48</ele>
        <time>2011-05-22T09:26:17Z</time>
      </trkpt>
      <trkpt lat="45.53048" lon="6.00319">
        <ele>454.36</ele>
        <time>2011-05-22T09:26:24Z</time>
      </trkpt>
      <trkpt lat="45.53047" lon="6.00315">
        <ele>455.32</ele>
        <time>2011-05-22T09:26:28Z</time>
      </trkpt>
      <trkpt lat="45.53042" lon="6.003">
        <ele>457.24</ele>
        <time>2011-05-22T09:26:42Z</time>
      </trkpt>
      <trkpt lat="45.53039" lon="6.00289">
        <ele>457.72</ele>
        <time>2011-05-22T09:26:56Z</time>
      </trkpt>
      <trkpt lat="45.53039" lon="6.00287">
        <ele>457.72</ele>
        <time>2011-05-22T09:26:57Z</time>
      </trkpt>
      <trkpt lat="45.53036" lon="6.00277">
        <ele>457.72</ele>
        <time>2011-05-22T09:27:02Z</time>
      </trkpt>
      <trkpt lat="45.53027" lon="6.00245">
        <ele>455.8</ele>
        <time>2011-05-22T09:27:09Z</time>
      </trkpt>
      <trkpt lat="45.53025" lon="6.00239">
        <ele>455.8</ele>
        <time>2011-05-22T09:27:10Z</time>
      </trkpt>
      <trkpt lat="45.53017" lon="6.00213">
        <ele>452.44</ele>
        <time>2011-05-22T09:27:14Z</time>
      </trkpt>
      <trkpt lat="45.53016" lon="6.00207">
        <ele>451.48</ele>
        <time>2011-05-22T09:27:15Z</time>
      </trkpt>
      <trkpt lat="45.53014" lon="6.002">
        <ele>450.03</ele>
        <time>2011-05-22T09:27:16Z</time>
      </trkpt>
      <trkpt lat="45.53006" lon="6.00162">
        <ele>446.19</ele>
        <time>2011-05-22T09:27:22Z</time>
      </trkpt>
      <trkpt lat="45.53007" lon="6.0015">
        <ele>445.23</ele>
        <time>2011-05-22T09:27:24Z</time>
      </trkpt>
      <trkpt lat="45.53008" lon="6.00144">
        <ele>445.23</ele>
        <time>2011-05-22T09:27:25Z</time>
      </trkpt>
      <trkpt lat="45.53022" lon="6.00109">
        <ele>442.82</ele>
        <time>2011-05-22T09:27:30Z</time>
      </trkpt>
      <trkpt lat="45.53028" lon="6.00095">
        <ele>441.38</ele>
        <time>2011-05-22T09:27:32Z</time>
      </trkpt>
      <trkpt lat="45.53029" lon="6.00089">
        <ele>441.38</ele>
        <time>2011-05-22T09:27:33Z</time>
      </trkpt>
      <trkpt lat="45.5303" lon="6.00084">
        <ele>440.42</ele>
        <time>2011-05-22T09:27:34Z</time>
      </trkpt>
      <trkpt lat="45.53028" lon="6.0008">
        <ele>439.94</ele>
        <time>2011-05-22T09:27:35Z</time>
      </trkpt>
      <trkpt lat="45.53025" lon="6.00078">
        <ele>438.98</ele>
        <time>2011-05-22T09:27:36Z</time>
      </trkpt>
      <trkpt lat="45.53022" lon="6.00078">
        <ele>438.02</ele>
        <time>2011-05-22T09:27:37Z</time>
      </trkpt>
      <trkpt lat="45.5302" lon="6.00081">
        <ele>437.06</ele>
        <time>2011-05-22T09:27:38Z</time>
      </trkpt>
      <trkpt lat="45.53016" lon="6.00084">
        <ele>437.06</ele>
        <time>2011-05-22T09:27:39Z</time>
      </trkpt>
      <trkpt lat="45.53011" lon="6.00087">
        <ele>436.1</ele>
        <time>2011-05-22T09:27:40Z</time>
      </trkpt>
      <trkpt lat="45.53006" lon="6.00091">
        <ele>435.61</ele>
        <time>2011-05-22T09:27:41Z</time>
      </trkpt>
      <trkpt lat="45.52964" lon="6.00114">
        <ele>431.77</ele>
        <time>2011-05-22T09:27:48Z</time>
      </trkpt>
      <trkpt lat="45.52909" lon="6.00147">
        <ele>432.25</ele>
        <time>2011-05-22T09:27:59Z</time>
      </trkpt>
      <trkpt lat="45.52905" lon="6.00146">
        <ele>432.25</ele>
        <time>2011-05-22T09:28:00Z</time>
      </trkpt>
      <trkpt lat="45.52901" lon="6.00145">
        <ele>431.29</ele>
        <time>2011-05-22T09:28:01Z</time>
      </trkpt>
      <trkpt lat="45.52889" lon="6.0014">
        <ele>432.25</ele>
        <time>2011-05-22T09:28:05Z</time>
      </trkpt>
      <trkpt lat="45.52885" lon="6.00142">
        <ele>432.73</ele>
        <time>2011-05-22T09:28:06Z</time>
      </trkpt>
      <trkpt lat="45.52883" lon="6.00144">
        <ele>433.21</ele>
        <time>2011-05-22T09:28:07Z</time>
      </trkpt>
      <trkpt lat="45.52858" lon="6.00166">
        <ele>434.17</ele>
        <time>2011-05-22T09:28:16Z</time>
      </trkpt>
      <trkpt lat="45.52853" lon="6.00168">
        <ele>434.17</ele>
        <time>2011-05-22T09:28:17Z</time>
      </trkpt>
      <trkpt lat="45.52849" lon="6.00169">
        <ele>434.17</ele>
        <time>2011-05-22T09:28:18Z</time>
      </trkpt>
      <trkpt lat="45.52837" lon="6.00176">
        <ele>432.25</ele>
        <time>2011-05-22T09:28:21Z</time>
      </trkpt>
      <trkpt lat="45.52832" lon="6.0018">
        <ele>431.77</ele>
        <time>2011-05-22T09:28:22Z</time>
      </trkpt>
      <trkpt lat="45.52819" lon="6.00196">
        <ele>429.85</ele>
        <time>2011-05-22T09:28:25Z</time>
      </trkpt>
      <trkpt lat="45.52817" lon="6.00202">
        <ele>429.85</ele>
        <time>2011-05-22T09:28:26Z</time>
      </trkpt>
      <trkpt lat="45.52816" lon="6.00207">
        <ele>429.85</ele>
        <time>2011-05-22T09:28:27Z</time>
      </trkpt>
      <trkpt lat="45.52814" lon="6.00211">
        <ele>428.89</ele>
        <time>2011-05-22T09:28:28Z</time>
      </trkpt>
      <trkpt lat="45.52811" lon="6.00213">
        <ele>427.92</ele>
        <time>2011-05-22T09:28:29Z</time>
      </trkpt>
      <trkpt lat="45.52808" lon="6.00215">
        <ele>428.4</ele>
        <time>2011-05-22T09:28:30Z</time>
      </trkpt>
      <trkpt lat="45.52804" lon="6.00216">
        <ele>427.92</ele>
        <time>2011-05-22T09:28:31Z</time>
      </trkpt>
      <trkpt lat="45.52795" lon="6.00219">
        <ele>427.44</ele>
        <time>2011-05-22T09:28:33Z</time>
      </trkpt>
      <trkpt lat="45.52791" lon="6.00221">
        <ele>427.44</ele>
        <time>2011-05-22T09:28:34Z</time>
      </trkpt>
      <trkpt lat="45.52744" lon="6.0024">
        <ele>427.92</ele>
        <time>2011-05-22T09:28:44Z</time>
      </trkpt>
      <trkpt lat="45.52718" lon="6.00244">
        <ele>428.89</ele>
        <time>2011-05-22T09:28:50Z</time>
      </trkpt>
      <trkpt lat="45.52713" lon="6.00245">
        <ele>428.4</ele>
        <time>2011-05-22T09:28:51Z</time>
      </trkpt>
      <trkpt lat="45.52704" lon="6.00246">
        <ele>428.89</ele>
        <time>2011-05-22T09:28:53Z</time>
      </trkpt>
      <trkpt lat="45.52663" lon="6.0025">
        <ele>428.89</ele>
        <time>2011-05-22T09:29:02Z</time>
      </trkpt>
      <trkpt lat="45.52616" lon="6.00255">
        <ele>431.29</ele>
        <time>2011-05-22T09:29:15Z</time>
      </trkpt>
      <trkpt lat="45.5257" lon="6.00277">
        <ele>428.4</ele>
        <time>2011-05-22T09:29:27Z</time>
      </trkpt>
      <trkpt lat="45.52564" lon="6.0028">
        <ele>428.4</ele>
        <time>2011-05-22T09:29:28Z</time>
      </trkpt>
      <trkpt lat="45.52541" lon="6.00289">
        <ele>425.04</ele>
        <time>2011-05-22T09:29:32Z</time>
      </trkpt>
      <trkpt lat="45.52518" lon="6.00299">
        <ele>421.19</ele>
        <time>2011-05-22T09:29:36Z</time>
      </trkpt>
      <trkpt lat="45.52501" lon="6.00307">
        <ele>417.83</ele>
        <time>2011-05-22T09:29:39Z</time>
      </trkpt>
      <trkpt lat="45.52496" lon="6.00309">
        <ele>417.83</ele>
        <time>2011-05-22T09:29:40Z</time>
      </trkpt>
      <trkpt lat="45.52491" lon="6.00309">
        <ele>416.87</ele>
        <time>2011-05-22T09:29:41Z</time>
      </trkpt>
      <trkpt lat="45.52487" lon="6.00307">
        <ele>416.39</ele>
        <time>2011-05-22T09:29:42Z</time>
      </trkpt>
      <trkpt lat="45.52484" lon="6.00303">
        <ele>415.91</ele>
        <time>2011-05-22T09:29:43Z</time>
      </trkpt>
      <trkpt lat="45.52481" lon="6.00297">
        <ele>414.95</ele>
        <time>2011-05-22T09:29:44Z</time>
      </trkpt>
      <trkpt lat="45.52478" lon="6.00291">
        <ele>415.43</ele>
        <time>2011-05-22T09:29:45Z</time>
      </trkpt>
      <trkpt lat="45.52476" lon="6.00285">
        <ele>415.43</ele>
        <time>2011-05-22T09:29:46Z</time>
      </trkpt>
      <trkpt lat="45.5247" lon="6.00258">
        <ele>414.47</ele>
        <time>2011-05-22T09:29:50Z</time>
      </trkpt>
      <trkpt lat="45.52465" lon="6.00161">
        <ele>413.02</ele>
        <time>2011-05-22T09:30:02Z</time>
      </trkpt>
      <trkpt lat="45.52463" lon="6.00137">
        <ele>413.5</ele>
        <time>2011-05-22T09:30:09Z</time>
      </trkpt>
      <trkpt lat="45.52461" lon="6.00136">
        <ele>413.02</ele>
        <time>2011-05-22T09:30:10Z</time>
      </trkpt>
      <trkpt lat="45.5246" lon="6.00134">
        <ele>413.02</ele>
        <time>2011-05-22T09:30:11Z</time>
      </trkpt>
      <trkpt lat="45.52459" lon="6.0013">
        <ele>412.54</ele>
        <time>2011-05-22T09:30:12Z</time>
      </trkpt>
      <trkpt lat="45.52457" lon="6.00127">
        <ele>412.54</ele>
        <time>2011-05-22T09:30:13Z</time>
      </trkpt>
      <trkpt lat="45.52448" lon="6.00085">
        <ele>409.18</ele>
        <time>2011-05-22T09:30:20Z</time>
      </trkpt>
      <trkpt lat="45.52444" lon="6.00062">
        <ele>406.77</ele>
        <time>2011-05-22T09:30:23Z</time>
      </trkpt>
      <trkpt lat="45.52443" lon="6.00053">
        <ele>406.29</ele>
        <time>2011-05-22T09:30:24Z</time>
      </trkpt>
      <trkpt lat="45.5244" lon="6.00024">
        <ele>402.93</ele>
        <time>2011-05-22T09:30:27Z</time>
      </trkpt>
      <trkpt lat="45.5244" lon="6.00014">
        <ele>402.93</ele>
        <time>2011-05-22T09:30:28Z</time>
      </trkpt>
      <trkpt lat="45.52441" lon="6.00005">
        <ele>401.49</ele>
        <time>2011-05-22T09:30:29Z</time>
      </trkpt>
      <trkpt lat="45.52444" lon="5.9999">
        <ele>400.05</ele>
        <time>2011-05-22T09:30:31Z</time>
      </trkpt>
      <trkpt lat="45.52445" lon="5.99985">
        <ele>399.57</ele>
        <time>2011-05-22T09:30:32Z</time>
      </trkpt>
      <trkpt lat="45.52445" lon="5.9998">
        <ele>399.08</ele>
        <time>2011-05-22T09:30:33Z</time>
      </trkpt>
      <trkpt lat="45.52444" lon="5.99978">
        <ele>398.6</ele>
        <time>2011-05-22T09:30:34Z</time>
      </trkpt>
      <trkpt lat="45.52441" lon="5.99977">
        <ele>398.6</ele>
        <time>2011-05-22T09:30:35Z</time>
      </trkpt>
      <trkpt lat="45.52438" lon="5.99977">
        <ele>397.64</ele>
        <time>2011-05-22T09:30:36Z</time>
      </trkpt>
      <trkpt lat="45.52435" lon="5.9998">
        <ele>397.16</ele>
        <time>2011-05-22T09:30:37Z</time>
      </trkpt>
      <trkpt lat="45.52432" lon="5.99984">
        <ele>396.2</ele>
        <time>2011-05-22T09:30:38Z</time>
      </trkpt>
      <trkpt lat="45.52428" lon="5.99989">
        <ele>395.72</ele>
        <time>2011-05-22T09:30:39Z</time>
      </trkpt>
      <trkpt lat="45.52425" lon="5.99994">
        <ele>395.72</ele>
        <time>2011-05-22T09:30:40Z</time>
      </trkpt>
      <trkpt lat="45.52422" lon="5.99999">
        <ele>395.24</ele>
        <time>2011-05-22T09:30:41Z</time>
      </trkpt>
      <trkpt lat="45.52412" lon="5.99993">
        <ele>392.84</ele>
        <time>2011-05-22T09:30:45Z</time>
      </trkpt>
      <trkpt lat="45.52414" lon="5.99987">
        <ele>392.36</ele>
        <time>2011-05-22T09:30:46Z</time>
      </trkpt>
      <trkpt lat="45.52416" lon="5.99981">
        <ele>391.39</ele>
        <time>2011-05-22T09:30:47Z</time>
      </trkpt>
      <trkpt lat="45.52419" lon="5.99975">
        <ele>391.39</ele>
        <time>2011-05-22T09:30:48Z</time>
      </trkpt>
      <trkpt lat="45.52423" lon="5.9997">
        <ele>389.95</ele>
        <time>2011-05-22T09:30:49Z</time>
      </trkpt>
      <trkpt lat="45.52427" lon="5.99966">
        <ele>389.95</ele>
        <time>2011-05-22T09:30:50Z</time>
      </trkpt>
      <trkpt lat="45.5243" lon="5.99963">
        <ele>389.47</ele>
        <time>2011-05-22T09:30:51Z</time>
      </trkpt>
      <trkpt lat="45.52432" lon="5.99961">
        <ele>388.99</ele>
        <time>2011-05-22T09:30:52Z</time>
      </trkpt>
      <trkpt lat="45.52433" lon="5.99959">
        <ele>388.51</ele>
        <time>2011-05-22T09:30:53Z</time>
      </trkpt>
      <trkpt lat="45.52424" lon="5.99953">
        <ele>387.07</ele>
        <time>2011-05-22T09:30:56Z</time>
      </trkpt>
      <trkpt lat="45.5242" lon="5.99952">
        <ele>386.59</ele>
        <time>2011-05-22T09:30:57Z</time>
      </trkpt>
      <trkpt lat="45.52409" lon="5.99951">
        <ele>385.63</ele>
        <time>2011-05-22T09:30:59Z</time>
      </trkpt>
      <trkpt lat="45.52404" lon="5.99951">
        <ele>384.66</ele>
        <time>2011-05-22T09:31:00Z</time>
      </trkpt>
      <trkpt lat="45.52399" lon="5.99952">
        <ele>384.18</ele>
        <time>2011-05-22T09:31:01Z</time>
      </trkpt>
      <trkpt lat="45.52395" lon="5.99954">
        <ele>383.22</ele>
        <time>2011-05-22T09:31:02Z</time>
      </trkpt>
      <trkpt lat="45.52391" lon="5.99956">
        <ele>382.74</ele>
        <time>2011-05-22T09:31:03Z</time>
      </trkpt>
      <trkpt lat="45.52388" lon="5.99957">
        <ele>382.26</ele>
        <time>2011-05-22T09:31:04Z</time>
      </trkpt>
      <trkpt lat="45.52386" lon="5.99953">
        <ele>381.3</ele>
        <time>2011-05-22T09:31:06Z</time>
      </trkpt>
      <trkpt lat="45.52388" lon="5.99944">
        <ele>380.34</ele>
        <time>2011-05-22T09:31:08Z</time>
      </trkpt>
      <trkpt lat="45.52391" lon="5.99938">
        <ele>379.86</ele>
        <time>2011-05-22T09:31:09Z</time>
      </trkpt>
      <trkpt lat="45.52395" lon="5.99933">
        <ele>378.9</ele>
        <time>2011-05-22T09:31:10Z</time>
      </trkpt>
      <trkpt lat="45.52398" lon="5.99927">
        <ele>378.42</ele>
        <time>2011-05-22T09:31:11Z</time>
      </trkpt>
      <trkpt lat="45.52403" lon="5.99921">
        <ele>377.94</ele>
        <time>2011-05-22T09:31:12Z</time>
      </trkpt>
      <trkpt lat="45.52408" lon="5.99916">
        <ele>377.45</ele>
        <time>2011-05-22T09:31:13Z</time>
      </trkpt>
      <trkpt lat="45.52413" lon="5.99913">
        <ele>376.49</ele>
        <time>2011-05-22T09:31:14Z</time>
      </trkpt>
      <trkpt lat="45.52417" lon="5.99911">
        <ele>375.53</ele>
        <time>2011-05-22T09:31:15Z</time>
      </trkpt>
      <trkpt lat="45.52417" lon="5.99908">
        <ele>375.05</ele>
        <time>2011-05-22T09:31:16Z</time>
      </trkpt>
      <trkpt lat="45.52416" lon="5.99905">
        <ele>375.05</ele>
        <time>2011-05-22T09:31:17Z</time>
      </trkpt>
      <trkpt lat="45.52413" lon="5.99902">
        <ele>374.09</ele>
        <time>2011-05-22T09:31:18Z</time>
      </trkpt>
      <trkpt lat="45.52408" lon="5.999">
        <ele>373.13</ele>
        <time>2011-05-22T09:31:19Z</time>
      </trkpt>
      <trkpt lat="45.52397" lon="5.99897">
        <ele>371.69</ele>
        <time>2011-05-22T09:31:21Z</time>
      </trkpt>
      <trkpt lat="45.5239" lon="5.99898">
        <ele>370.73</ele>
        <time>2011-05-22T09:31:22Z</time>
      </trkpt>
      <trkpt lat="45.52385" lon="5.99901">
        <ele>370.24</ele>
        <time>2011-05-22T09:31:23Z</time>
      </trkpt>
      <trkpt lat="45.5238" lon="5.99905">
        <ele>369.28</ele>
        <time>2011-05-22T09:31:24Z</time>
      </trkpt>
      <trkpt lat="45.52377" lon="5.99909">
        <ele>368.8</ele>
        <time>2011-05-22T09:31:25Z</time>
      </trkpt>
      <trkpt lat="45.52374" lon="5.9991">
        <ele>368.32</ele>
        <time>2011-05-22T09:31:26Z</time>
      </trkpt>
      <trkpt lat="45.52372" lon="5.99909">
        <ele>367.84</ele>
        <time>2011-05-22T09:31:27Z</time>
      </trkpt>
      <trkpt lat="45.52371" lon="5.99906">
        <ele>367.36</ele>
        <time>2011-05-22T09:31:28Z</time>
      </trkpt>
      <trkpt lat="45.52375" lon="5.99897">
        <ele>366.4</ele>
        <time>2011-05-22T09:31:30Z</time>
      </trkpt>
      <trkpt lat="45.52378" lon="5.99892">
        <ele>365.92</ele>
        <time>2011-05-22T09:31:31Z</time>
      </trkpt>
      <trkpt lat="45.52395" lon="5.99868">
        <ele>363.52</ele>
        <time>2011-05-22T09:31:35Z</time>
      </trkpt>
      <trkpt lat="45.52407" lon="5.99854">
        <ele>362.07</ele>
        <time>2011-05-22T09:31:38Z</time>
      </trkpt>
      <trkpt lat="45.52409" lon="5.99849">
        <ele>360.63</ele>
        <time>2011-05-22T09:31:39Z</time>
      </trkpt>
      <trkpt lat="45.52407" lon="5.99836">
        <ele>359.19</ele>
        <time>2011-05-22T09:31:42Z</time>
      </trkpt>
      <trkpt lat="45.52403" lon="5.99835">
        <ele>358.23</ele>
        <time>2011-05-22T09:31:43Z</time>
      </trkpt>
      <trkpt lat="45.52399" lon="5.99836">
        <ele>358.23</ele>
        <time>2011-05-22T09:31:44Z</time>
      </trkpt>
      <trkpt lat="45.52395" lon="5.99839">
        <ele>357.27</ele>
        <time>2011-05-22T09:31:45Z</time>
      </trkpt>
      <trkpt lat="45.5239" lon="5.99842">
        <ele>356.79</ele>
        <time>2011-05-22T09:31:46Z</time>
      </trkpt>
      <trkpt lat="45.52385" lon="5.99845">
        <ele>355.83</ele>
        <time>2011-05-22T09:31:47Z</time>
      </trkpt>
      <trkpt lat="45.52373" lon="5.99833">
        <ele>353.9</ele>
        <time>2011-05-22T09:31:51Z</time>
      </trkpt>
      <trkpt lat="45.52375" lon="5.99828">
        <ele>353.42</ele>
        <time>2011-05-22T09:31:52Z</time>
      </trkpt>
      <trkpt lat="45.52378" lon="5.99823">
        <ele>352.94</ele>
        <time>2011-05-22T09:31:53Z</time>
      </trkpt>
      <trkpt lat="45.52382" lon="5.99818">
        <ele>351.98</ele>
        <time>2011-05-22T09:31:54Z</time>
      </trkpt>
      <trkpt lat="45.52387" lon="5.99813">
        <ele>351.5</ele>
        <time>2011-05-22T09:31:55Z</time>
      </trkpt>
      <trkpt lat="45.52391" lon="5.99808">
        <ele>351.98</ele>
        <time>2011-05-22T09:31:56Z</time>
      </trkpt>
      <trkpt lat="45.52394" lon="5.99802">
        <ele>351.02</ele>
        <time>2011-05-22T09:31:57Z</time>
      </trkpt>
      <trkpt lat="45.52395" lon="5.99794">
        <ele>350.54</ele>
        <time>2011-05-22T09:31:58Z</time>
      </trkpt>
      <trkpt lat="45.52386" lon="5.99786">
        <ele>348.62</ele>
        <time>2011-05-22T09:32:00Z</time>
      </trkpt>
      <trkpt lat="45.5238" lon="5.99786">
        <ele>348.62</ele>
        <time>2011-05-22T09:32:01Z</time>
      </trkpt>
      <trkpt lat="45.52374" lon="5.99788">
        <ele>347.65</ele>
        <time>2011-05-22T09:32:02Z</time>
      </trkpt>
      <trkpt lat="45.52369" lon="5.99791">
        <ele>346.69</ele>
        <time>2011-05-22T09:32:03Z</time>
      </trkpt>
      <trkpt lat="45.52364" lon="5.99795">
        <ele>346.21</ele>
        <time>2011-05-22T09:32:04Z</time>
      </trkpt>
      <trkpt lat="45.5236" lon="5.998">
        <ele>345.25</ele>
        <time>2011-05-22T09:32:05Z</time>
      </trkpt>
      <trkpt lat="45.52356" lon="5.99806">
        <ele>344.77</ele>
        <time>2011-05-22T09:32:06Z</time>
      </trkpt>
      <trkpt lat="45.52352" lon="5.99811">
        <ele>344.77</ele>
        <time>2011-05-22T09:32:07Z</time>
      </trkpt>
      <trkpt lat="45.52346" lon="5.9982">
        <ele>345.73</ele>
        <time>2011-05-22T09:32:09Z</time>
      </trkpt>
      <trkpt lat="45.52344" lon="5.99825">
        <ele>346.21</ele>
        <time>2011-05-22T09:32:10Z</time>
      </trkpt>
      <trkpt lat="45.52343" lon="5.99831">
        <ele>347.17</ele>
        <time>2011-05-22T09:32:11Z</time>
      </trkpt>
      <trkpt lat="45.52342" lon="5.99836">
        <ele>347.17</ele>
        <time>2011-05-22T09:32:12Z</time>
      </trkpt>
      <trkpt lat="45.52337" lon="5.99854">
        <ele>348.62</ele>
        <time>2011-05-22T09:32:16Z</time>
      </trkpt>
      <trkpt lat="45.52302" lon="5.99928">
        <ele>350.06</ele>
        <time>2011-05-22T09:32:32Z</time>
      </trkpt>
      <trkpt lat="45.52294" lon="5.99942">
        <ele>350.54</ele>
        <time>2011-05-22T09:32:35Z</time>
      </trkpt>
      <trkpt lat="45.52266" lon="5.99995">
        <ele>351.98</ele>
        <time>2011-05-22T09:32:46Z</time>
      </trkpt>
      <trkpt lat="45.52249" lon="6.00046">
        <ele>351.5</ele>
        <time>2011-05-22T09:32:55Z</time>
      </trkpt>
      <trkpt lat="45.52246" lon="6.00052">
        <ele>351.5</ele>
        <time>2011-05-22T09:32:56Z</time>
      </trkpt>
      <trkpt lat="45.52235" lon="6.00066">
        <ele>351.98</ele>
        <time>2011-05-22T09:32:59Z</time>
      </trkpt>
      <trkpt lat="45.52212" lon="6.00098">
        <ele>352.46</ele>
        <time>2011-05-22T09:33:06Z</time>
      </trkpt>
      <trkpt lat="45.52209" lon="6.00102">
        <ele>352.46</ele>
        <time>2011-05-22T09:33:07Z</time>
      </trkpt>
      <trkpt lat="45.52206" lon="6.00107">
        <ele>352.94</ele>
        <time>2011-05-22T09:33:08Z</time>
      </trkpt>
      <trkpt lat="45.52196" lon="6.0012">
        <ele>352.46</ele>
        <time>2011-05-22T09:33:11Z</time>
      </trkpt>
      <trkpt lat="45.52181" lon="6.00144">
        <ele>352.94</ele>
        <time>2011-05-22T09:33:16Z</time>
      </trkpt>
      <trkpt lat="45.52141" lon="6.00214">
        <ele>355.34</ele>
        <time>2011-05-22T09:33:31Z</time>
      </trkpt>
      <trkpt lat="45.52105" lon="6.00305">
        <ele>354.86</ele>
        <time>2011-05-22T09:33:46Z</time>
      </trkpt>
      <trkpt lat="45.52104" lon="6.00311">
        <ele>355.34</ele>
        <time>2011-05-22T09:33:47Z</time>
      </trkpt>
      <trkpt lat="45.52103" lon="6.00317">
        <ele>355.34</ele>
        <time>2011-05-22T09:33:48Z</time>
      </trkpt>
      <trkpt lat="45.52103" lon="6.00324">
        <ele>356.31</ele>
        <time>2011-05-22T09:33:49Z</time>
      </trkpt>
      <trkpt lat="45.52105" lon="6.0033">
        <ele>355.83</ele>
        <time>2011-05-22T09:33:50Z</time>
      </trkpt>
      <trkpt lat="45.52106" lon="6.00335">
        <ele>355.83</ele>
        <time>2011-05-22T09:33:51Z</time>
      </trkpt>
      <trkpt lat="45.52108" lon="6.0034">
        <ele>356.31</ele>
        <time>2011-05-22T09:33:52Z</time>
      </trkpt>
      <trkpt lat="45.52111" lon="6.00345">
        <ele>356.31</ele>
        <time>2011-05-22T09:33:53Z</time>
      </trkpt>
      <trkpt lat="45.52119" lon="6.00397">
        <ele>359.19</ele>
        <time>2011-05-22T09:34:04Z</time>
      </trkpt>
      <trkpt lat="45.52108" lon="6.00424">
        <ele>359.67</ele>
        <time>2011-05-22T09:34:10Z</time>
      </trkpt>
      <trkpt lat="45.52105" lon="6.00424">
        <ele>360.15</ele>
        <time>2011-05-22T09:34:11Z</time>
      </trkpt>
      <trkpt lat="45.52101" lon="6.00422">
        <ele>360.15</ele>
        <time>2011-05-22T09:34:12Z</time>
      </trkpt>
      <trkpt lat="45.52097" lon="6.00419">
        <ele>358.23</ele>
        <time>2011-05-22T09:34:13Z</time>
      </trkpt>
      <trkpt lat="45.52092" lon="6.00415">
        <ele>358.23</ele>
        <time>2011-05-22T09:34:14Z</time>
      </trkpt>
      <trkpt lat="45.52088" lon="6.00411">
        <ele>356.79</ele>
        <time>2011-05-22T09:34:15Z</time>
      </trkpt>
      <trkpt lat="45.52075" lon="6.004">
        <ele>355.83</ele>
        <time>2011-05-22T09:34:18Z</time>
      </trkpt>
      <trkpt lat="45.52072" lon="6.00396">
        <ele>354.38</ele>
        <time>2011-05-22T09:34:19Z</time>
      </trkpt>
      <trkpt lat="45.52069" lon="6.00391">
        <ele>354.86</ele>
        <time>2011-05-22T09:34:20Z</time>
      </trkpt>
      <trkpt lat="45.52064" lon="6.00383">
        <ele>352.94</ele>
        <time>2011-05-22T09:34:22Z</time>
      </trkpt>
      <trkpt lat="45.52063" lon="6.00378">
        <ele>351.98</ele>
        <time>2011-05-22T09:34:23Z</time>
      </trkpt>
      <trkpt lat="45.52062" lon="6.00373">
        <ele>351.02</ele>
        <time>2011-05-22T09:34:24Z</time>
      </trkpt>
      <trkpt lat="45.52063" lon="6.00367">
        <ele>350.54</ele>
        <time>2011-05-22T09:34:25Z</time>
      </trkpt>
      <trkpt lat="45.52063" lon="6.0036">
        <ele>349.58</ele>
        <time>2011-05-22T09:34:26Z</time>
      </trkpt>
      <trkpt lat="45.52063" lon="6.00353">
        <ele>349.1</ele>
        <time>2011-05-22T09:34:27Z</time>
      </trkpt>
      <trkpt lat="45.52065" lon="6.00313">
        <ele>347.17</ele>
        <time>2011-05-22T09:34:32Z</time>
      </trkpt>
      <trkpt lat="45.52065" lon="6.00275">
        <ele>344.77</ele>
        <time>2011-05-22T09:34:38Z</time>
      </trkpt>
      <trkpt lat="45.52063" lon="6.00274">
        <ele>344.77</ele>
        <time>2011-05-22T09:34:39Z</time>
      </trkpt>
      <trkpt lat="45.52061" lon="6.00275">
        <ele>344.77</ele>
        <time>2011-05-22T09:34:40Z</time>
      </trkpt>
      <trkpt lat="45.52058" lon="6.00279">
        <ele>344.77</ele>
        <time>2011-05-22T09:34:41Z</time>
      </trkpt>
      <trkpt lat="45.52056" lon="6.00283">
        <ele>344.77</ele>
        <time>2011-05-22T09:34:42Z</time>
      </trkpt>
      <trkpt lat="45.52053" lon="6.00288">
        <ele>344.77</ele>
        <time>2011-05-22T09:34:43Z</time>
      </trkpt>
      <trkpt lat="45.52049" lon="6.00293">
        <ele>344.77</ele>
        <time>2011-05-22T09:34:44Z</time>
      </trkpt>
      <trkpt lat="45.52045" lon="6.00298">
        <ele>344.77</ele>
        <time>2011-05-22T09:34:45Z</time>
      </trkpt>
      <trkpt lat="45.52035" lon="6.00314">
        <ele>344.77</ele>
        <time>2011-05-22T09:34:48Z</time>
      </trkpt>
      <trkpt lat="45.52028" lon="6.00324">
        <ele>344.77</ele>
        <time>2011-05-22T09:34:50Z</time>
      </trkpt>
      <trkpt lat="45.52025" lon="6.00329">
        <ele>344.77</ele>
        <time>2011-05-22T09:34:51Z</time>
      </trkpt>
      <trkpt lat="45.51997" lon="6.00355">
        <ele>332.27</ele>
        <time>2011-05-22T09:35:00Z</time>
      </trkpt>
      <trkpt lat="45.51992" lon="6.00358">
        <ele>332.27</ele>
        <time>2011-05-22T09:35:01Z</time>
      </trkpt>
      <trkpt lat="45.51953" lon="6.00379">
        <ele>332.27</ele>
        <time>2011-05-22T09:35:10Z</time>
      </trkpt>
      <trkpt lat="45.5195" lon="6.00377">
        <ele>322.18</ele>
        <time>2011-05-22T09:35:11Z</time>
      </trkpt>
      <trkpt lat="45.5195" lon="6.00372">
        <ele>321.7</ele>
        <time>2011-05-22T09:35:12Z</time>
      </trkpt>
      <trkpt lat="45.51951" lon="6.00367">
        <ele>321.22</ele>
        <time>2011-05-22T09:35:13Z</time>
      </trkpt>
      <trkpt lat="45.51954" lon="6.00362">
        <ele>320.74</ele>
        <time>2011-05-22T09:35:14Z</time>
      </trkpt>
      <trkpt lat="45.51963" lon="6.00345">
        <ele>319.78</ele>
        <time>2011-05-22T09:35:17Z</time>
      </trkpt>
      <trkpt lat="45.51984" lon="6.00305">
        <ele>320.26</ele>
        <time>2011-05-22T09:35:26Z</time>
      </trkpt>
      <trkpt lat="45.51984" lon="6.00303">
        <ele>320.26</ele>
        <time>2011-05-22T09:35:27Z</time>
      </trkpt>
      <trkpt lat="45.5198" lon="6.00298">
        <ele>318.81</ele>
        <time>2011-05-22T09:35:29Z</time>
      </trkpt>
      <trkpt lat="45.51976" lon="6.00295">
        <ele>316.89</ele>
        <time>2011-05-22T09:35:30Z</time>
      </trkpt>
      <trkpt lat="45.5197" lon="6.00292">
        <ele>315.93</ele>
        <time>2011-05-22T09:35:31Z</time>
      </trkpt>
      <trkpt lat="45.51965" lon="6.00288">
        <ele>315.93</ele>
        <time>2011-05-22T09:35:32Z</time>
      </trkpt>
      <trkpt lat="45.51959" lon="6.00285">
        <ele>315.45</ele>
        <time>2011-05-22T09:35:33Z</time>
      </trkpt>
      <trkpt lat="45.51938" lon="6.00274">
        <ele>312.09</ele>
        <time>2011-05-22T09:35:37Z</time>
      </trkpt>
      <trkpt lat="45.51931" lon="6.00273">
        <ele>310.64</ele>
        <time>2011-05-22T09:35:39Z</time>
      </trkpt>
      <trkpt lat="45.51911" lon="6.00257">
        <ele>309.68</ele>
        <time>2011-05-22T09:35:45Z</time>
      </trkpt>
      <trkpt lat="45.51907" lon="6.00246">
        <ele>309.68</ele>
        <time>2011-05-22T09:35:47Z</time>
      </trkpt>
      <trkpt lat="45.51905" lon="6.0024">
        <ele>309.68</ele>
        <time>2011-05-22T09:35:48Z</time>
      </trkpt>
      <trkpt lat="45.51905" lon="6.00234">
        <ele>310.16</ele>
        <time>2011-05-22T09:35:49Z</time>
      </trkpt>
      <trkpt lat="45.5188" lon="6.00149">
        <ele>307.28</ele>
        <time>2011-05-22T09:36:03Z</time>
      </trkpt>
      <trkpt lat="45.51855" lon="6.00114">
        <ele>307.28</ele>
        <time>2011-05-22T09:36:11Z</time>
      </trkpt>
      <trkpt lat="45.51848" lon="6.00102">
        <ele>306.32</ele>
        <time>2011-05-22T09:36:19Z</time>
      </trkpt>
      <trkpt lat="45.5184" lon="6.00087">
        <ele>305.84</ele>
        <time>2011-05-22T09:36:30Z</time>
      </trkpt>
      <trkpt lat="45.51826" lon="6.00073">
        <ele>305.84</ele>
        <time>2011-05-22T09:36:35Z</time>
      </trkpt>
      <trkpt lat="45.51823" lon="6.00074">
        <ele>305.84</ele>
        <time>2011-05-22T09:36:36Z</time>
      </trkpt>
      <trkpt lat="45.51817" lon="6.0008">
        <ele>305.84</ele>
        <time>2011-05-22T09:36:38Z</time>
      </trkpt>
      <trkpt lat="45.51815" lon="6.00085">
        <ele>305.84</ele>
        <time>2011-05-22T09:36:39Z</time>
      </trkpt>
      <trkpt lat="45.51811" lon="6.00089">
        <ele>305.36</ele>
        <time>2011-05-22T09:36:40Z</time>
      </trkpt>
      <trkpt lat="45.51807" lon="6.00092">
        <ele>305.36</ele>
        <time>2011-05-22T09:36:41Z</time>
      </trkpt>
      <trkpt lat="45.51803" lon="6.00091">
        <ele>305.36</ele>
        <time>2011-05-22T09:36:42Z</time>
      </trkpt>
      <trkpt lat="45.51799" lon="6.00089">
        <ele>306.32</ele>
        <time>2011-05-22T09:36:43Z</time>
      </trkpt>
      <trkpt lat="45.51795" lon="6.00085">
        <ele>306.8</ele>
        <time>2011-05-22T09:36:44Z</time>
      </trkpt>
      <trkpt lat="45.51791" lon="6.00081">
        <ele>306.8</ele>
        <time>2011-05-22T09:36:45Z</time>
      </trkpt>
      <trkpt lat="45.51787" lon="6.00076">
        <ele>306.8</ele>
        <time>2011-05-22T09:36:46Z</time>
      </trkpt>
      <trkpt lat="45.51784" lon="6.00071">
        <ele>306.8</ele>
        <time>2011-05-22T09:36:47Z</time>
      </trkpt>
      <trkpt lat="45.51774" lon="6.00056">
        <ele>305.84</ele>
        <time>2011-05-22T09:36:50Z</time>
      </trkpt>
      <trkpt lat="45.51771" lon="6.0005">
        <ele>306.32</ele>
        <time>2011-05-22T09:36:51Z</time>
      </trkpt>
      <trkpt lat="45.5172" lon="5.99971">
        <ele>304.88</ele>
        <time>2011-05-22T09:37:07Z</time>
      </trkpt>
      <trkpt lat="45.5172" lon="5.99965">
        <ele>305.36</ele>
        <time>2011-05-22T09:37:08Z</time>
      </trkpt>
      <trkpt lat="45.51721" lon="5.9996">
        <ele>304.88</ele>
        <time>2011-05-22T09:37:09Z</time>
      </trkpt>
      <trkpt lat="45.51722" lon="5.99954">
        <ele>304.88</ele>
        <time>2011-05-22T09:37:10Z</time>
      </trkpt>
      <trkpt lat="45.51724" lon="5.99948">
        <ele>304.88</ele>
        <time>2011-05-22T09:37:11Z</time>
      </trkpt>
      <trkpt lat="45.51726" lon="5.99943">
        <ele>305.36</ele>
        <time>2011-05-22T09:37:12Z</time>
      </trkpt>
      <trkpt lat="45.51728" lon="5.99937">
        <ele>304.88</ele>
        <time>2011-05-22T09:37:13Z</time>
      </trkpt>
      <trkpt lat="45.51729" lon="5.99931">
        <ele>305.36</ele>
        <time>2011-05-22T09:37:14Z</time>
      </trkpt>
      <trkpt lat="45.5173" lon="5.99925">
        <ele>305.36</ele>
        <time>2011-05-22T09:37:15Z</time>
      </trkpt>
      <trkpt lat="45.5173" lon="5.99918">
        <ele>304.88</ele>
        <time>2011-05-22T09:37:16Z</time>
      </trkpt>
      <trkpt lat="45.51733" lon="5.99897">
        <ele>304.88</ele>
        <time>2011-05-22T09:37:20Z</time>
      </trkpt>
      <trkpt lat="45.51735" lon="5.99893">
        <ele>304.88</ele>
        <time>2011-05-22T09:37:21Z</time>
      </trkpt>
      <trkpt lat="45.51779" lon="5.99828">
        <ele>304.39</ele>
        <time>2011-05-22T09:37:34Z</time>
      </trkpt>
      <trkpt lat="45.51839" lon="5.99742">
        <ele>305.84</ele>
        <time>2011-05-22T09:37:50Z</time>
      </trkpt>
      <trkpt lat="45.5188" lon="5.99688">
        <ele>304.88</ele>
        <time>2011-05-22T09:38:02Z</time>
      </trkpt>
      <trkpt lat="45.5188" lon="5.99684">
        <ele>304.88</ele>
        <time>2011-05-22T09:38:03Z</time>
      </trkpt>
      <trkpt lat="45.51878" lon="5.9968">
        <ele>304.88</ele>
        <time>2011-05-22T09:38:04Z</time>
      </trkpt>
      <trkpt lat="45.5187" lon="5.99679">
        <ele>304.88</ele>
        <time>2011-05-22T09:38:07Z</time>
      </trkpt>
      <trkpt lat="45.51866" lon="5.99679">
        <ele>304.88</ele>
        <time>2011-05-22T09:38:08Z</time>
      </trkpt>
      <trkpt lat="45.51863" lon="5.99678">
        <ele>304.39</ele>
        <time>2011-05-22T09:38:09Z</time>
      </trkpt>
      <trkpt lat="45.51861" lon="5.99676">
        <ele>304.88</ele>
        <time>2011-05-22T09:38:10Z</time>
      </trkpt>
      <trkpt lat="45.51861" lon="5.99674">
        <ele>304.88</ele>
        <time>2011-05-22T09:38:11Z</time>
      </trkpt>
      <trkpt lat="45.51862" lon="5.99671">
        <ele>304.88</ele>
        <time>2011-05-22T09:38:12Z</time>
      </trkpt>
      <trkpt lat="45.51862" lon="5.99668">
        <ele>304.88</ele>
        <time>2011-05-22T09:38:13Z</time>
      </trkpt>
      <trkpt lat="45.5186" lon="5.99665">
        <ele>304.39</ele>
        <time>2011-05-22T09:38:14Z</time>
      </trkpt>
      <trkpt lat="45.51859" lon="5.99661">
        <ele>304.88</ele>
        <time>2011-05-22T09:38:15Z</time>
      </trkpt>
      <trkpt lat="45.51856" lon="5.99657">
        <ele>304.88</ele>
        <time>2011-05-22T09:38:16Z</time>
      </trkpt>
      <trkpt lat="45.51853" lon="5.99653">
        <ele>305.36</ele>
        <time>2011-05-22T09:38:17Z</time>
      </trkpt>
      <trkpt lat="45.51851" lon="5.99648">
        <ele>305.84</ele>
        <time>2011-05-22T09:38:18Z</time>
      </trkpt>
      <trkpt lat="45.51845" lon="5.99638">
        <ele>305.84</ele>
        <time>2011-05-22T09:38:20Z</time>
      </trkpt>
      <trkpt lat="45.51823" lon="5.99606">
        <ele>305.84</ele>
        <time>2011-05-22T09:38:27Z</time>
      </trkpt>
      <trkpt lat="45.51815" lon="5.99596">
        <ele>305.84</ele>
        <time>2011-05-22T09:38:29Z</time>
      </trkpt>
      <trkpt lat="45.51813" lon="5.9959">
        <ele>305.84</ele>
        <time>2011-05-22T09:38:30Z</time>
      </trkpt>
      <trkpt lat="45.51811" lon="5.99584">
        <ele>305.84</ele>
        <time>2011-05-22T09:38:31Z</time>
      </trkpt>
      <trkpt lat="45.51811" lon="5.99578">
        <ele>305.84</ele>
        <time>2011-05-22T09:38:32Z</time>
      </trkpt>
      <trkpt lat="45.51813" lon="5.99572">
        <ele>305.84</ele>
        <time>2011-05-22T09:38:33Z</time>
      </trkpt>
      <trkpt lat="45.51815" lon="5.99567">
        <ele>305.84</ele>
        <time>2011-05-22T09:38:34Z</time>
      </trkpt>
      <trkpt lat="45.51817" lon="5.99561">
        <ele>305.84</ele>
        <time>2011-05-22T09:38:35Z</time>
      </trkpt>
      <trkpt lat="45.5182" lon="5.99556">
        <ele>306.32</ele>
        <time>2011-05-22T09:38:36Z</time>
      </trkpt>
      <trkpt lat="45.51822" lon="5.9955">
        <ele>306.32</ele>
        <time>2011-05-22T09:38:37Z</time>
      </trkpt>
      <trkpt lat="45.51824" lon="5.99544">
        <ele>305.84</ele>
        <time>2011-05-22T09:38:38Z</time>
      </trkpt>
      <trkpt lat="45.51826" lon="5.99539">
        <ele>305.84</ele>
        <time>2011-05-22T09:38:39Z</time>
      </trkpt>
      <trkpt lat="45.51829" lon="5.99534">
        <ele>305.84</ele>
        <time>2011-05-22T09:38:40Z</time>
      </trkpt>
      <trkpt lat="45.51835" lon="5.99525">
        <ele>305.84</ele>
        <time>2011-05-22T09:38:42Z</time>
      </trkpt>
      <trkpt lat="45.51838" lon="5.99521">
        <ele>305.84</ele>
        <time>2011-05-22T09:38:43Z</time>
      </trkpt>
      <trkpt lat="45.5184" lon="5.99517">
        <ele>305.84</ele>
        <time>2011-05-22T09:38:44Z</time>
      </trkpt>
      <trkpt lat="45.51843" lon="5.99512">
        <ele>305.84</ele>
        <time>2011-05-22T09:38:45Z</time>
      </trkpt>
      <trkpt lat="45.51846" lon="5.99509">
        <ele>305.84</ele>
        <time>2011-05-22T09:38:46Z</time>
      </trkpt>
      <trkpt lat="45.51849" lon="5.99505">
        <ele>306.32</ele>
        <time>2011-05-22T09:38:47Z</time>
      </trkpt>
      <trkpt lat="45.51858" lon="5.99481">
        <ele>305.84</ele>
        <time>2011-05-22T09:38:55Z</time>
      </trkpt>
      <trkpt lat="45.51882" lon="5.99423">
        <ele>305.84</ele>
        <time>2011-05-22T09:39:07Z</time>
      </trkpt>
      <trkpt lat="45.51886" lon="5.99417">
        <ele>305.84</ele>
        <time>2011-05-22T09:39:08Z</time>
      </trkpt>
      <trkpt lat="45.51889" lon="5.99412">
        <ele>305.84</ele>
        <time>2011-05-22T09:39:09Z</time>
      </trkpt>
      <trkpt lat="45.51901" lon="5.99392">
        <ele>306.8</ele>
        <time>2011-05-22T09:39:13Z</time>
      </trkpt>
      <trkpt lat="45.51941" lon="5.99338">
        <ele>305.84</ele>
        <time>2011-05-22T09:39:27Z</time>
      </trkpt>
      <trkpt lat="45.51974" lon="5.9929">
        <ele>305.84</ele>
        <time>2011-05-22T09:39:39Z</time>
      </trkpt>
      <trkpt lat="45.51959" lon="5.99244">
        <ele>306.8</ele>
        <time>2011-05-22T09:39:50Z</time>
      </trkpt>
      <trkpt lat="45.51916" lon="5.99192">
        <ele>308.24</ele>
        <time>2011-05-22T09:40:04Z</time>
      </trkpt>
      <trkpt lat="45.51875" lon="5.99139">
        <ele>308.24</ele>
        <time>2011-05-22T09:40:18Z</time>
      </trkpt>
      <trkpt lat="45.51872" lon="5.99136">
        <ele>308.24</ele>
        <time>2011-05-22T09:40:19Z</time>
      </trkpt>
      <trkpt lat="45.51826" lon="5.991">
        <ele>309.68</ele>
        <time>2011-05-22T09:40:34Z</time>
      </trkpt>
      <trkpt lat="45.51801" lon="5.99085">
        <ele>312.09</ele>
        <time>2011-05-22T09:40:47Z</time>
      </trkpt>
      <trkpt lat="45.51801" lon="5.99085">
        <ele>312.09</ele>
        <time>2011-05-22T09:41:15Z</time>
      </trkpt>
      <trkpt lat="45.51801" lon="5.99086">
        <ele>312.57</ele>
        <time>2011-05-22T09:41:41Z</time>
      </trkpt>
      <trkpt lat="45.51801" lon="5.99085">
        <ele>311.6</ele>
        <time>2011-05-22T09:42:23Z</time>
      </trkpt>
      <trkpt lat="45.51801" lon="5.99086">
        <ele>312.09</ele>
        <time>2011-05-22T09:42:59Z</time>
      </trkpt>
      <trkpt lat="45.51801" lon="5.99086">
        <ele>312.09</ele>
        <time>2011-05-22T09:43:14Z</time>
      </trkpt>
      <trkpt lat="45.51799" lon="5.99086">
        <ele>311.6</ele>
        <time>2011-05-22T09:43:15Z</time>
      </trkpt>
      <trkpt lat="45.51798" lon="5.99085">
        <ele>312.09</ele>
        <time>2011-05-22T09:43:16Z</time>
      </trkpt>
      <trkpt lat="45.51796" lon="5.99084">
        <ele>312.09</ele>
        <time>2011-05-22T09:43:17Z</time>
      </trkpt>
      <trkpt lat="45.51794" lon="5.99084">
        <ele>312.09</ele>
        <time>2011-05-22T09:43:18Z</time>
      </trkpt>
      <trkpt lat="45.51792" lon="5.99083">
        <ele>312.09</ele>
        <time>2011-05-22T09:43:19Z</time>
      </trkpt>
      <trkpt lat="45.51789" lon="5.99082">
        <ele>312.57</ele>
        <time>2011-05-22T09:43:20Z</time>
      </trkpt>
      <trkpt lat="45.51786" lon="5.99081">
        <ele>312.57</ele>
        <time>2011-05-22T09:43:21Z</time>
      </trkpt>
      <trkpt lat="45.51783" lon="5.99079">
        <ele>312.57</ele>
        <time>2011-05-22T09:43:22Z</time>
      </trkpt>
      <trkpt lat="45.51781" lon="5.99077">
        <ele>312.57</ele>
        <time>2011-05-22T09:43:23Z</time>
      </trkpt>
      <trkpt lat="45.51739" lon="5.99043">
        <ele>315.93</ele>
        <time>2011-05-22T09:43:38Z</time>
      </trkpt>
      <trkpt lat="45.51696" lon="5.98995">
        <ele>317.37</ele>
        <time>2011-05-22T09:43:55Z</time>
      </trkpt>
      <trkpt lat="45.51657" lon="5.98941">
        <ele>319.3</ele>
        <time>2011-05-22T09:44:10Z</time>
      </trkpt>
      <trkpt lat="45.51635" lon="5.98877">
        <ele>321.22</ele>
        <time>2011-05-22T09:44:25Z</time>
      </trkpt>
      <trkpt lat="45.51633" lon="5.98793">
        <ele>324.1</ele>
        <time>2011-05-22T09:44:44Z</time>
      </trkpt>
      <trkpt lat="45.51654" lon="5.98723">
        <ele>327.47</ele>
        <time>2011-05-22T09:45:02Z</time>
      </trkpt>
      <trkpt lat="45.51675" lon="5.98682">
        <ele>330.83</ele>
        <time>2011-05-22T09:45:16Z</time>
      </trkpt>
      <trkpt lat="45.5168" lon="5.9866">
        <ele>331.79</ele>
        <time>2011-05-22T09:45:23Z</time>
      </trkpt>
      <trkpt lat="45.51679" lon="5.98657">
        <ele>332.27</ele>
        <time>2011-05-22T09:45:24Z</time>
      </trkpt>
      <trkpt lat="45.51689" lon="5.98632">
        <ele>334.2</ele>
        <time>2011-05-22T09:45:35Z</time>
      </trkpt>
      <trkpt lat="45.51697" lon="5.98621">
        <ele>335.64</ele>
        <time>2011-05-22T09:45:42Z</time>
      </trkpt>
      <trkpt lat="45.51697" lon="5.98619">
        <ele>335.64</ele>
        <time>2011-05-22T09:45:43Z</time>
      </trkpt>
      <trkpt lat="45.51696" lon="5.98617">
        <ele>335.64</ele>
        <time>2011-05-22T09:45:44Z</time>
      </trkpt>
      <trkpt lat="45.51695" lon="5.98616">
        <ele>335.64</ele>
        <time>2011-05-22T09:45:45Z</time>
      </trkpt>
      <trkpt lat="45.51694" lon="5.98616">
        <ele>336.12</ele>
        <time>2011-05-22T09:45:46Z</time>
      </trkpt>
      <trkpt lat="45.51692" lon="5.98618">
        <ele>336.12</ele>
        <time>2011-05-22T09:45:47Z</time>
      </trkpt>
      <trkpt lat="45.5169" lon="5.98619">
        <ele>336.12</ele>
        <time>2011-05-22T09:45:48Z</time>
      </trkpt>
      <trkpt lat="45.51688" lon="5.98621">
        <ele>336.6</ele>
        <time>2011-05-22T09:45:49Z</time>
      </trkpt>
      <trkpt lat="45.5166" lon="5.98635">
        <ele>338.04</ele>
        <time>2011-05-22T09:46:03Z</time>
      </trkpt>
      <trkpt lat="45.51635" lon="5.98646">
        <ele>340.44</ele>
        <time>2011-05-22T09:46:17Z</time>
      </trkpt>
      <trkpt lat="45.51624" lon="5.9865">
        <ele>340.92</ele>
        <time>2011-05-22T09:46:23Z</time>
      </trkpt>
      <trkpt lat="45.51622" lon="5.98652">
        <ele>340.92</ele>
        <time>2011-05-22T09:46:24Z</time>
      </trkpt>
      <trkpt lat="45.5162" lon="5.98652">
        <ele>340.92</ele>
        <time>2011-05-22T09:46:25Z</time>
      </trkpt>
      <trkpt lat="45.51618" lon="5.98654">
        <ele>341.89</ele>
        <time>2011-05-22T09:46:26Z</time>
      </trkpt>
      <trkpt lat="45.51616" lon="5.98654">
        <ele>341.89</ele>
        <time>2011-05-22T09:46:27Z</time>
      </trkpt>
      <trkpt lat="45.51609" lon="5.98656">
        <ele>341.89</ele>
        <time>2011-05-22T09:46:31Z</time>
      </trkpt>
      <trkpt lat="45.51608" lon="5.98655">
        <ele>342.37</ele>
        <time>2011-05-22T09:46:32Z</time>
      </trkpt>
      <trkpt lat="45.51606" lon="5.98654">
        <ele>342.85</ele>
        <time>2011-05-22T09:46:33Z</time>
      </trkpt>
      <trkpt lat="45.51606" lon="5.98652">
        <ele>342.85</ele>
        <time>2011-05-22T09:46:34Z</time>
      </trkpt>
      <trkpt lat="45.51606" lon="5.9865">
        <ele>343.33</ele>
        <time>2011-05-22T09:46:35Z</time>
      </trkpt>
      <trkpt lat="45.51605" lon="5.98647">
        <ele>343.33</ele>
        <time>2011-05-22T09:46:36Z</time>
      </trkpt>
      <trkpt lat="45.516" lon="5.98635">
        <ele>345.73</ele>
        <time>2011-05-22T09:46:44Z</time>
      </trkpt>
      <trkpt lat="45.516" lon="5.98634">
        <ele>345.73</ele>
        <time>2011-05-22T09:46:45Z</time>
      </trkpt>
      <trkpt lat="45.516" lon="5.98632">
        <ele>346.21</ele>
        <time>2011-05-22T09:46:46Z</time>
      </trkpt>
      <trkpt lat="45.51599" lon="5.9863">
        <ele>346.69</ele>
        <time>2011-05-22T09:46:47Z</time>
      </trkpt>
      <trkpt lat="45.51598" lon="5.98628">
        <ele>346.69</ele>
        <time>2011-05-22T09:46:48Z</time>
      </trkpt>
      <trkpt lat="45.51597" lon="5.98626">
        <ele>346.69</ele>
        <time>2011-05-22T09:46:49Z</time>
      </trkpt>
      <trkpt lat="45.51596" lon="5.98624">
        <ele>347.17</ele>
        <time>2011-05-22T09:46:50Z</time>
      </trkpt>
      <trkpt lat="45.51596" lon="5.98622">
        <ele>347.17</ele>
        <time>2011-05-22T09:46:51Z</time>
      </trkpt>
      <trkpt lat="45.51595" lon="5.98621">
        <ele>347.17</ele>
        <time>2011-05-22T09:46:52Z</time>
      </trkpt>
      <trkpt lat="45.51595" lon="5.98619">
        <ele>347.65</ele>
        <time>2011-05-22T09:46:53Z</time>
      </trkpt>
      <trkpt lat="45.51583" lon="5.98588">
        <ele>349.58</ele>
        <time>2011-05-22T09:47:08Z</time>
      </trkpt>
      <trkpt lat="45.51565" lon="5.98584">
        <ele>351.02</ele>
        <time>2011-05-22T09:47:20Z</time>
      </trkpt>
      <trkpt lat="45.51558" lon="5.98596">
        <ele>351.02</ele>
        <time>2011-05-22T09:47:26Z</time>
      </trkpt>
      <trkpt lat="45.5155" lon="5.98595">
        <ele>351.02</ele>
        <time>2011-05-22T09:47:30Z</time>
      </trkpt>
      <trkpt lat="45.51539" lon="5.98582">
        <ele>353.9</ele>
        <time>2011-05-22T09:47:39Z</time>
      </trkpt>
      <trkpt lat="45.51521" lon="5.98562">
        <ele>355.83</ele>
        <time>2011-05-22T09:47:51Z</time>
      </trkpt>
      <trkpt lat="45.51488" lon="5.98523">
        <ele>356.79</ele>
        <time>2011-05-22T09:48:06Z</time>
      </trkpt>
      <trkpt lat="45.51471" lon="5.9851">
        <ele>354.86</ele>
        <time>2011-05-22T09:48:17Z</time>
      </trkpt>
      <trkpt lat="45.51471" lon="5.9851">
        <ele>354.86</ele>
        <time>2011-05-22T09:48:22Z</time>
      </trkpt>
      <trkpt lat="45.51466" lon="5.98508">
        <ele>354.86</ele>
        <time>2011-05-22T09:48:27Z</time>
      </trkpt>
      <trkpt lat="45.51447" lon="5.98551">
        <ele>355.83</ele>
        <time>2011-05-22T09:48:37Z</time>
      </trkpt>
      <trkpt lat="45.51429" lon="5.98578">
        <ele>354.86</ele>
        <time>2011-05-22T09:48:45Z</time>
      </trkpt>
      <trkpt lat="45.51387" lon="5.98551">
        <ele>353.9</ele>
        <time>2011-05-22T09:48:55Z</time>
      </trkpt>
      <trkpt lat="45.51394" lon="5.98518">
        <ele>353.9</ele>
        <time>2011-05-22T09:48:56Z</time>
      </trkpt>
      <trkpt lat="45.51361" lon="5.9842">
        <ele>352.46</ele>
        <time>2011-05-22T09:49:10Z</time>
      </trkpt>
      <trkpt lat="45.51356" lon="5.98409">
        <ele>351.98</ele>
        <time>2011-05-22T09:49:12Z</time>
      </trkpt>
      <trkpt lat="45.51354" lon="5.98403">
        <ele>351.98</ele>
        <time>2011-05-22T09:49:13Z</time>
      </trkpt>
      <trkpt lat="45.51342" lon="5.98373">
        <ele>351.5</ele>
        <time>2011-05-22T09:49:18Z</time>
      </trkpt>
      <trkpt lat="45.51327" lon="5.98333">
        <ele>351.5</ele>
        <time>2011-05-22T09:49:25Z</time>
      </trkpt>
      <trkpt lat="45.51303" lon="5.98276">
        <ele>350.54</ele>
        <time>2011-05-22T09:49:34Z</time>
      </trkpt>
      <trkpt lat="45.51279" lon="5.98213">
        <ele>347.17</ele>
        <time>2011-05-22T09:49:42Z</time>
      </trkpt>
      <trkpt lat="45.51254" lon="5.98154">
        <ele>343.81</ele>
        <time>2011-05-22T09:49:48Z</time>
      </trkpt>
      <trkpt lat="45.51246" lon="5.98132">
        <ele>342.85</ele>
        <time>2011-05-22T09:49:50Z</time>
      </trkpt>
      <trkpt lat="45.51225" lon="5.98078">
        <ele>344.29</ele>
        <time>2011-05-22T09:49:57Z</time>
      </trkpt>
      <trkpt lat="45.5121" lon="5.9804">
        <ele>346.21</ele>
        <time>2011-05-22T09:50:04Z</time>
      </trkpt>
      <trkpt lat="45.51201" lon="5.98013">
        <ele>345.25</ele>
        <time>2011-05-22T09:50:10Z</time>
      </trkpt>
      <trkpt lat="45.512" lon="5.98005">
        <ele>344.77</ele>
        <time>2011-05-22T09:50:11Z</time>
      </trkpt>
      <trkpt lat="45.51198" lon="5.97977">
        <ele>341.89</ele>
        <time>2011-05-22T09:50:14Z</time>
      </trkpt>
      <trkpt lat="45.51198" lon="5.97968">
        <ele>341.41</ele>
        <time>2011-05-22T09:50:15Z</time>
      </trkpt>
      <trkpt lat="45.51198" lon="5.97961">
        <ele>341.89</ele>
        <time>2011-05-22T09:50:16Z</time>
      </trkpt>
      <trkpt lat="45.51197" lon="5.97956">
        <ele>341.89</ele>
        <time>2011-05-22T09:50:17Z</time>
      </trkpt>
      <trkpt lat="45.51196" lon="5.97953">
        <ele>341.89</ele>
        <time>2011-05-22T09:50:18Z</time>
      </trkpt>
      <trkpt lat="45.51179" lon="5.9795">
        <ele>342.37</ele>
        <time>2011-05-22T09:50:24Z</time>
      </trkpt>
      <trkpt lat="45.51164" lon="5.97944">
        <ele>340.44</ele>
        <time>2011-05-22T09:50:29Z</time>
      </trkpt>
      <trkpt lat="45.5116" lon="5.979">
        <ele>338.52</ele>
        <time>2011-05-22T09:50:37Z</time>
      </trkpt>
      <trkpt lat="45.51161" lon="5.97864">
        <ele>336.6</ele>
        <time>2011-05-22T09:50:41Z</time>
      </trkpt>
      <trkpt lat="45.51161" lon="5.97796">
        <ele>334.2</ele>
        <time>2011-05-22T09:50:48Z</time>
      </trkpt>
      <trkpt lat="45.51163" lon="5.97786">
        <ele>333.71</ele>
        <time>2011-05-22T09:50:49Z</time>
      </trkpt>
      <trkpt lat="45.51166" lon="5.97777">
        <ele>334.2</ele>
        <time>2011-05-22T09:50:50Z</time>
      </trkpt>
      <trkpt lat="45.51171" lon="5.97771">
        <ele>333.71</ele>
        <time>2011-05-22T09:50:51Z</time>
      </trkpt>
      <trkpt lat="45.51177" lon="5.97768">
        <ele>334.2</ele>
        <time>2011-05-22T09:50:52Z</time>
      </trkpt>
      <trkpt lat="45.51184" lon="5.97768">
        <ele>333.71</ele>
        <time>2011-05-22T09:50:53Z</time>
      </trkpt>
      <trkpt lat="45.5119" lon="5.97771">
        <ele>333.71</ele>
        <time>2011-05-22T09:50:54Z</time>
      </trkpt>
      <trkpt lat="45.51196" lon="5.97775">
        <ele>334.2</ele>
        <time>2011-05-22T09:50:55Z</time>
      </trkpt>
      <trkpt lat="45.51201" lon="5.97781">
        <ele>334.2</ele>
        <time>2011-05-22T09:50:56Z</time>
      </trkpt>
      <trkpt lat="45.51204" lon="5.97787">
        <ele>334.68</ele>
        <time>2011-05-22T09:50:57Z</time>
      </trkpt>
      <trkpt lat="45.51208" lon="5.97792">
        <ele>334.2</ele>
        <time>2011-05-22T09:50:58Z</time>
      </trkpt>
      <trkpt lat="45.51212" lon="5.97797">
        <ele>334.68</ele>
        <time>2011-05-22T09:50:59Z</time>
      </trkpt>
      <trkpt lat="45.51217" lon="5.97799">
        <ele>335.16</ele>
        <time>2011-05-22T09:51:00Z</time>
      </trkpt>
      <trkpt lat="45.51222" lon="5.97798">
        <ele>335.16</ele>
        <time>2011-05-22T09:51:01Z</time>
      </trkpt>
      <trkpt lat="45.51227" lon="5.97796">
        <ele>335.16</ele>
        <time>2011-05-22T09:51:02Z</time>
      </trkpt>
      <trkpt lat="45.51232" lon="5.97791">
        <ele>335.16</ele>
        <time>2011-05-22T09:51:03Z</time>
      </trkpt>
      <trkpt lat="45.51236" lon="5.97786">
        <ele>334.68</ele>
        <time>2011-05-22T09:51:04Z</time>
      </trkpt>
      <trkpt lat="45.51241" lon="5.97782">
        <ele>335.16</ele>
        <time>2011-05-22T09:51:05Z</time>
      </trkpt>
      <trkpt lat="45.51264" lon="5.97761">
        <ele>334.68</ele>
        <time>2011-05-22T09:51:10Z</time>
      </trkpt>
      <trkpt lat="45.51269" lon="5.97758">
        <ele>334.68</ele>
        <time>2011-05-22T09:51:11Z</time>
      </trkpt>
      <trkpt lat="45.51275" lon="5.97756">
        <ele>334.68</ele>
        <time>2011-05-22T09:51:12Z</time>
      </trkpt>
      <trkpt lat="45.5128" lon="5.97756">
        <ele>334.68</ele>
        <time>2011-05-22T09:51:13Z</time>
      </trkpt>
      <trkpt lat="45.51285" lon="5.97759">
        <ele>334.2</ele>
        <time>2011-05-22T09:51:14Z</time>
      </trkpt>
      <trkpt lat="45.5129" lon="5.97764">
        <ele>334.2</ele>
        <time>2011-05-22T09:51:15Z</time>
      </trkpt>
      <trkpt lat="45.51294" lon="5.97769">
        <ele>334.2</ele>
        <time>2011-05-22T09:51:16Z</time>
      </trkpt>
      <trkpt lat="45.51298" lon="5.97775">
        <ele>334.2</ele>
        <time>2011-05-22T09:51:17Z</time>
      </trkpt>
      <trkpt lat="45.51356" lon="5.97841">
        <ele>333.23</ele>
        <time>2011-05-22T09:51:30Z</time>
      </trkpt>
      <trkpt lat="45.51371" lon="5.97853">
        <ele>333.71</ele>
        <time>2011-05-22T09:51:33Z</time>
      </trkpt>
      <trkpt lat="45.51376" lon="5.97855">
        <ele>333.23</ele>
        <time>2011-05-22T09:51:34Z</time>
      </trkpt>
      <trkpt lat="45.51382" lon="5.97857">
        <ele>333.71</ele>
        <time>2011-05-22T09:51:35Z</time>
      </trkpt>
      <trkpt lat="45.51387" lon="5.97857">
        <ele>333.71</ele>
        <time>2011-05-22T09:51:36Z</time>
      </trkpt>
      <trkpt lat="45.51393" lon="5.97857">
        <ele>333.71</ele>
        <time>2011-05-22T09:51:37Z</time>
      </trkpt>
      <trkpt lat="45.51399" lon="5.97856">
        <ele>333.71</ele>
        <time>2011-05-22T09:51:38Z</time>
      </trkpt>
      <trkpt lat="45.5146" lon="5.97838">
        <ele>333.71</ele>
        <time>2011-05-22T09:51:50Z</time>
      </trkpt>
      <trkpt lat="45.51519" lon="5.97813">
        <ele>332.75</ele>
        <time>2011-05-22T09:52:01Z</time>
      </trkpt>
      <trkpt lat="45.516" lon="5.97778">
        <ele>330.83</ele>
        <time>2011-05-22T09:52:16Z</time>
      </trkpt>
      <trkpt lat="45.51687" lon="5.97741">
        <ele>328.91</ele>
        <time>2011-05-22T09:52:32Z</time>
      </trkpt>
      <trkpt lat="45.5171" lon="5.97729">
        <ele>327.47</ele>
        <time>2011-05-22T09:52:36Z</time>
      </trkpt>
      <trkpt lat="45.51725" lon="5.97724">
        <ele>326.5</ele>
        <time>2011-05-22T09:52:39Z</time>
      </trkpt>
      <trkpt lat="45.5173" lon="5.9772">
        <ele>326.99</ele>
        <time>2011-05-22T09:52:40Z</time>
      </trkpt>
      <trkpt lat="45.51733" lon="5.97715">
        <ele>326.02</ele>
        <time>2011-05-22T09:52:41Z</time>
      </trkpt>
      <trkpt lat="45.51737" lon="5.97709">
        <ele>326.02</ele>
        <time>2011-05-22T09:52:42Z</time>
      </trkpt>
      <trkpt lat="45.5174" lon="5.97703">
        <ele>326.02</ele>
        <time>2011-05-22T09:52:43Z</time>
      </trkpt>
      <trkpt lat="45.51747" lon="5.97689">
        <ele>325.06</ele>
        <time>2011-05-22T09:52:45Z</time>
      </trkpt>
      <trkpt lat="45.51751" lon="5.97682">
        <ele>325.54</ele>
        <time>2011-05-22T09:52:46Z</time>
      </trkpt>
      <trkpt lat="45.51754" lon="5.97676">
        <ele>325.06</ele>
        <time>2011-05-22T09:52:47Z</time>
      </trkpt>
      <trkpt lat="45.51769" lon="5.97652">
        <ele>324.1</ele>
        <time>2011-05-22T09:52:51Z</time>
      </trkpt>
      <trkpt lat="45.51772" lon="5.97646">
        <ele>324.1</ele>
        <time>2011-05-22T09:52:52Z</time>
      </trkpt>
      <trkpt lat="45.51789" lon="5.9762">
        <ele>324.1</ele>
        <time>2011-05-22T09:52:56Z</time>
      </trkpt>
      <trkpt lat="45.51793" lon="5.97613">
        <ele>324.1</ele>
        <time>2011-05-22T09:52:57Z</time>
      </trkpt>
      <trkpt lat="45.51817" lon="5.97576">
        <ele>323.62</ele>
        <time>2011-05-22T09:53:03Z</time>
      </trkpt>
      <trkpt lat="45.51831" lon="5.97559">
        <ele>323.62</ele>
        <time>2011-05-22T09:53:06Z</time>
      </trkpt>
      <trkpt lat="45.51836" lon="5.97554">
        <ele>323.62</ele>
        <time>2011-05-22T09:53:07Z</time>
      </trkpt>
      <trkpt lat="45.51841" lon="5.97551">
        <ele>323.14</ele>
        <time>2011-05-22T09:53:08Z</time>
      </trkpt>
      <trkpt lat="45.51847" lon="5.9755">
        <ele>323.62</ele>
        <time>2011-05-22T09:53:09Z</time>
      </trkpt>
      <trkpt lat="45.51852" lon="5.97551">
        <ele>323.62</ele>
        <time>2011-05-22T09:53:10Z</time>
      </trkpt>
      <trkpt lat="45.51858" lon="5.97551">
        <ele>323.14</ele>
        <time>2011-05-22T09:53:11Z</time>
      </trkpt>
      <trkpt lat="45.51864" lon="5.9755">
        <ele>323.62</ele>
        <time>2011-05-22T09:53:12Z</time>
      </trkpt>
      <trkpt lat="45.51868" lon="5.97548">
        <ele>323.14</ele>
        <time>2011-05-22T09:53:13Z</time>
      </trkpt>
      <trkpt lat="45.51872" lon="5.97544">
        <ele>323.14</ele>
        <time>2011-05-22T09:53:14Z</time>
      </trkpt>
      <trkpt lat="45.51874" lon="5.97537">
        <ele>323.62</ele>
        <time>2011-05-22T09:53:15Z</time>
      </trkpt>
      <trkpt lat="45.51874" lon="5.9753">
        <ele>323.62</ele>
        <time>2011-05-22T09:53:16Z</time>
      </trkpt>
      <trkpt lat="45.51874" lon="5.97524">
        <ele>323.62</ele>
        <time>2011-05-22T09:53:17Z</time>
      </trkpt>
      <trkpt lat="45.51874" lon="5.97518">
        <ele>324.1</ele>
        <time>2011-05-22T09:53:18Z</time>
      </trkpt>
      <trkpt lat="45.51873" lon="5.97505">
        <ele>324.58</ele>
        <time>2011-05-22T09:53:20Z</time>
      </trkpt>
      <trkpt lat="45.51873" lon="5.97456">
        <ele>325.06</ele>
        <time>2011-05-22T09:53:28Z</time>
      </trkpt>
      <trkpt lat="45.51875" lon="5.9745">
        <ele>325.06</ele>
        <time>2011-05-22T09:53:29Z</time>
      </trkpt>
      <trkpt lat="45.51877" lon="5.97445">
        <ele>325.06</ele>
        <time>2011-05-22T09:53:30Z</time>
      </trkpt>
      <trkpt lat="45.5188" lon="5.9744">
        <ele>325.06</ele>
        <time>2011-05-22T09:53:31Z</time>
      </trkpt>
      <trkpt lat="45.51884" lon="5.97437">
        <ele>324.58</ele>
        <time>2011-05-22T09:53:32Z</time>
      </trkpt>
      <trkpt lat="45.51888" lon="5.97433">
        <ele>325.06</ele>
        <time>2011-05-22T09:53:33Z</time>
      </trkpt>
      <trkpt lat="45.51949" lon="5.97382">
        <ele>325.06</ele>
        <time>2011-05-22T09:53:48Z</time>
      </trkpt>
      <trkpt lat="45.5197" lon="5.97362">
        <ele>325.06</ele>
        <time>2011-05-22T09:53:54Z</time>
      </trkpt>
      <trkpt lat="45.51978" lon="5.97357">
        <ele>325.54</ele>
        <time>2011-05-22T09:53:56Z</time>
      </trkpt>
      <trkpt lat="45.51969" lon="5.97337">
        <ele>326.99</ele>
        <time>2011-05-22T09:54:03Z</time>
      </trkpt>
      <trkpt lat="45.51917" lon="5.97307">
        <ele>328.43</ele>
        <time>2011-05-22T09:54:18Z</time>
      </trkpt>
      <trkpt lat="45.51885" lon="5.97266">
        <ele>331.31</ele>
        <time>2011-05-22T09:54:32Z</time>
      </trkpt>
      <trkpt lat="45.51859" lon="5.97227">
        <ele>332.27</ele>
        <time>2011-05-22T09:54:44Z</time>
      </trkpt>
      <trkpt lat="45.51843" lon="5.9718">
        <ele>333.23</ele>
        <time>2011-05-22T09:54:55Z</time>
      </trkpt>
      <trkpt lat="45.5184" lon="5.97164">
        <ele>333.23</ele>
        <time>2011-05-22T09:54:58Z</time>
      </trkpt>
      <trkpt lat="45.51838" lon="5.97159">
        <ele>333.23</ele>
        <time>2011-05-22T09:54:59Z</time>
      </trkpt>
      <trkpt lat="45.51836" lon="5.97154">
        <ele>333.71</ele>
        <time>2011-05-22T09:55:00Z</time>
      </trkpt>
      <trkpt lat="45.51823" lon="5.97123">
        <ele>333.23</ele>
        <time>2011-05-22T09:55:06Z</time>
      </trkpt>
      <trkpt lat="45.51822" lon="5.97117">
        <ele>333.23</ele>
        <time>2011-05-22T09:55:07Z</time>
      </trkpt>
      <trkpt lat="45.51819" lon="5.97087">
        <ele>332.75</ele>
        <time>2011-05-22T09:55:12Z</time>
      </trkpt>
      <trkpt lat="45.51809" lon="5.97033">
        <ele>331.31</ele>
        <time>2011-05-22T09:55:20Z</time>
      </trkpt>
      <trkpt lat="45.51802" lon="5.97011">
        <ele>329.87</ele>
        <time>2011-05-22T09:55:23Z</time>
      </trkpt>
      <trkpt lat="45.518" lon="5.97003">
        <ele>329.39</ele>
        <time>2011-05-22T09:55:24Z</time>
      </trkpt>
      <trkpt lat="45.51798" lon="5.9699">
        <ele>328.43</ele>
        <time>2011-05-22T09:55:26Z</time>
      </trkpt>
      <trkpt lat="45.51796" lon="5.96975">
        <ele>328.43</ele>
        <time>2011-05-22T09:55:28Z</time>
      </trkpt>
      <trkpt lat="45.5179" lon="5.96956">
        <ele>327.95</ele>
        <time>2011-05-22T09:55:31Z</time>
      </trkpt>
      <trkpt lat="45.51782" lon="5.96929">
        <ele>328.43</ele>
        <time>2011-05-22T09:55:35Z</time>
      </trkpt>
      <trkpt lat="45.51769" lon="5.96888">
        <ele>327.47</ele>
        <time>2011-05-22T09:55:41Z</time>
      </trkpt>
      <trkpt lat="45.51766" lon="5.96876">
        <ele>327.95</ele>
        <time>2011-05-22T09:55:43Z</time>
      </trkpt>
      <trkpt lat="45.51764" lon="5.96869">
        <ele>327.47</ele>
        <time>2011-05-22T09:55:44Z</time>
      </trkpt>
      <trkpt lat="45.51763" lon="5.96863">
        <ele>327.47</ele>
        <time>2011-05-22T09:55:45Z</time>
      </trkpt>
      <trkpt lat="45.51761" lon="5.96856">
        <ele>327.47</ele>
        <time>2011-05-22T09:55:46Z</time>
      </trkpt>
      <trkpt lat="45.51757" lon="5.96851">
        <ele>327.47</ele>
        <time>2011-05-22T09:55:47Z</time>
      </trkpt>
      <trkpt lat="45.51753" lon="5.96849">
        <ele>326.99</ele>
        <time>2011-05-22T09:55:48Z</time>
      </trkpt>
      <trkpt lat="45.51748" lon="5.96849">
        <ele>326.5</ele>
        <time>2011-05-22T09:55:49Z</time>
      </trkpt>
      <trkpt lat="45.51743" lon="5.9685">
        <ele>326.99</ele>
        <time>2011-05-22T09:55:50Z</time>
      </trkpt>
      <trkpt lat="45.51738" lon="5.96852">
        <ele>326.99</ele>
        <time>2011-05-22T09:55:51Z</time>
      </trkpt>
      <trkpt lat="45.51699" lon="5.96867">
        <ele>326.5</ele>
        <time>2011-05-22T09:55:59Z</time>
      </trkpt>
      <trkpt lat="45.51694" lon="5.96868">
        <ele>326.02</ele>
        <time>2011-05-22T09:56:00Z</time>
      </trkpt>
      <trkpt lat="45.51662" lon="5.9688">
        <ele>325.54</ele>
        <time>2011-05-22T09:56:07Z</time>
      </trkpt>
      <trkpt lat="45.51658" lon="5.96877">
        <ele>325.54</ele>
        <time>2011-05-22T09:56:08Z</time>
      </trkpt>
      <trkpt lat="45.51654" lon="5.96873">
        <ele>326.02</ele>
        <time>2011-05-22T09:56:09Z</time>
      </trkpt>
      <trkpt lat="45.5165" lon="5.96867">
        <ele>326.02</ele>
        <time>2011-05-22T09:56:10Z</time>
      </trkpt>
      <trkpt lat="45.51647" lon="5.96862">
        <ele>325.54</ele>
        <time>2011-05-22T09:56:11Z</time>
      </trkpt>
      <trkpt lat="45.51642" lon="5.96858">
        <ele>325.54</ele>
        <time>2011-05-22T09:56:12Z</time>
      </trkpt>
      <trkpt lat="45.51637" lon="5.96855">
        <ele>325.54</ele>
        <time>2011-05-22T09:56:13Z</time>
      </trkpt>
      <trkpt lat="45.51632" lon="5.96854">
        <ele>325.54</ele>
        <time>2011-05-22T09:56:14Z</time>
      </trkpt>
      <trkpt lat="45.51627" lon="5.96853">
        <ele>325.06</ele>
        <time>2011-05-22T09:56:15Z</time>
      </trkpt>
      <trkpt lat="45.51622" lon="5.9685">
        <ele>325.54</ele>
        <time>2011-05-22T09:56:16Z</time>
      </trkpt>
      <trkpt lat="45.51619" lon="5.96846">
        <ele>325.06</ele>
        <time>2011-05-22T09:56:17Z</time>
      </trkpt>
      <trkpt lat="45.51616" lon="5.9684">
        <ele>325.54</ele>
        <time>2011-05-22T09:56:18Z</time>
      </trkpt>
      <trkpt lat="45.51614" lon="5.96833">
        <ele>325.06</ele>
        <time>2011-05-22T09:56:19Z</time>
      </trkpt>
      <trkpt lat="45.51606" lon="5.96812">
        <ele>324.58</ele>
        <time>2011-05-22T09:56:22Z</time>
      </trkpt>
      <trkpt lat="45.51604" lon="5.96804">
        <ele>325.06</ele>
        <time>2011-05-22T09:56:23Z</time>
      </trkpt>
      <trkpt lat="45.51604" lon="5.96796">
        <ele>325.06</ele>
        <time>2011-05-22T09:56:24Z</time>
      </trkpt>
      <trkpt lat="45.51604" lon="5.9678">
        <ele>324.58</ele>
        <time>2011-05-22T09:56:26Z</time>
      </trkpt>
      <trkpt lat="45.51599" lon="5.96732">
        <ele>324.58</ele>
        <time>2011-05-22T09:56:32Z</time>
      </trkpt>
      <trkpt lat="45.51598" lon="5.96725">
        <ele>324.58</ele>
        <time>2011-05-22T09:56:33Z</time>
      </trkpt>
      <trkpt lat="45.51584" lon="5.96689">
        <ele>325.06</ele>
        <time>2011-05-22T09:56:39Z</time>
      </trkpt>
      <trkpt lat="45.51583" lon="5.96682">
        <ele>324.58</ele>
        <time>2011-05-22T09:56:40Z</time>
      </trkpt>
      <trkpt lat="45.51583" lon="5.96675">
        <ele>324.1</ele>
        <time>2011-05-22T09:56:41Z</time>
      </trkpt>
      <trkpt lat="45.51585" lon="5.96668">
        <ele>324.1</ele>
        <time>2011-05-22T09:56:42Z</time>
      </trkpt>
      <trkpt lat="45.51588" lon="5.96661">
        <ele>323.14</ele>
        <time>2011-05-22T09:56:43Z</time>
      </trkpt>
      <trkpt lat="45.51592" lon="5.96655">
        <ele>323.62</ele>
        <time>2011-05-22T09:56:44Z</time>
      </trkpt>
      <trkpt lat="45.51596" lon="5.9665">
        <ele>323.62</ele>
        <time>2011-05-22T09:56:45Z</time>
      </trkpt>
      <trkpt lat="45.51601" lon="5.96646">
        <ele>323.62</ele>
        <time>2011-05-22T09:56:46Z</time>
      </trkpt>
      <trkpt lat="45.51606" lon="5.96642">
        <ele>323.62</ele>
        <time>2011-05-22T09:56:47Z</time>
      </trkpt>
      <trkpt lat="45.51611" lon="5.96639">
        <ele>323.62</ele>
        <time>2011-05-22T09:56:48Z</time>
      </trkpt>
      <trkpt lat="45.51616" lon="5.96637">
        <ele>323.62</ele>
        <time>2011-05-22T09:56:49Z</time>
      </trkpt>
      <trkpt lat="45.51694" lon="5.96619">
        <ele>323.62</ele>
        <time>2011-05-22T09:57:03Z</time>
      </trkpt>
      <trkpt lat="45.51699" lon="5.96618">
        <ele>323.62</ele>
        <time>2011-05-22T09:57:04Z</time>
      </trkpt>
      <trkpt lat="45.51704" lon="5.96616">
        <ele>323.62</ele>
        <time>2011-05-22T09:57:05Z</time>
      </trkpt>
      <trkpt lat="45.51725" lon="5.96609">
        <ele>323.14</ele>
        <time>2011-05-22T09:57:09Z</time>
      </trkpt>
      <trkpt lat="45.5173" lon="5.96606">
        <ele>323.14</ele>
        <time>2011-05-22T09:57:10Z</time>
      </trkpt>
      <trkpt lat="45.51746" lon="5.96602">
        <ele>323.14</ele>
        <time>2011-05-22T09:57:13Z</time>
      </trkpt>
      <trkpt lat="45.51772" lon="5.96596">
        <ele>322.66</ele>
        <time>2011-05-22T09:57:18Z</time>
      </trkpt>
      <trkpt lat="45.51777" lon="5.96593">
        <ele>322.66</ele>
        <time>2011-05-22T09:57:19Z</time>
      </trkpt>
      <trkpt lat="45.5178" lon="5.96588">
        <ele>322.18</ele>
        <time>2011-05-22T09:57:20Z</time>
      </trkpt>
      <trkpt lat="45.51783" lon="5.96582">
        <ele>321.7</ele>
        <time>2011-05-22T09:57:21Z</time>
      </trkpt>
      <trkpt lat="45.51785" lon="5.96576">
        <ele>322.18</ele>
        <time>2011-05-22T09:57:22Z</time>
      </trkpt>
      <trkpt lat="45.51785" lon="5.96569">
        <ele>322.18</ele>
        <time>2011-05-22T09:57:23Z</time>
      </trkpt>
      <trkpt lat="45.51784" lon="5.96562">
        <ele>322.18</ele>
        <time>2011-05-22T09:57:24Z</time>
      </trkpt>
      <trkpt lat="45.51783" lon="5.96555">
        <ele>322.18</ele>
        <time>2011-05-22T09:57:25Z</time>
      </trkpt>
      <trkpt lat="45.51783" lon="5.96547">
        <ele>322.18</ele>
        <time>2011-05-22T09:57:26Z</time>
      </trkpt>
      <trkpt lat="45.51782" lon="5.9654">
        <ele>322.18</ele>
        <time>2011-05-22T09:57:27Z</time>
      </trkpt>
      <trkpt lat="45.51781" lon="5.96533">
        <ele>322.66</ele>
        <time>2011-05-22T09:57:28Z</time>
      </trkpt>
      <trkpt lat="45.5178" lon="5.96525">
        <ele>322.18</ele>
        <time>2011-05-22T09:57:29Z</time>
      </trkpt>
      <trkpt lat="45.51781" lon="5.96517">
        <ele>321.7</ele>
        <time>2011-05-22T09:57:30Z</time>
      </trkpt>
      <trkpt lat="45.51784" lon="5.96511">
        <ele>321.7</ele>
        <time>2011-05-22T09:57:31Z</time>
      </trkpt>
      <trkpt lat="45.51788" lon="5.96505">
        <ele>321.22</ele>
        <time>2011-05-22T09:57:32Z</time>
      </trkpt>
      <trkpt lat="45.51793" lon="5.96502">
        <ele>321.7</ele>
        <time>2011-05-22T09:57:33Z</time>
      </trkpt>
      <trkpt lat="45.51798" lon="5.965">
        <ele>321.7</ele>
        <time>2011-05-22T09:57:34Z</time>
      </trkpt>
      <trkpt lat="45.51802" lon="5.965">
        <ele>322.18</ele>
        <time>2011-05-22T09:57:35Z</time>
      </trkpt>
      <trkpt lat="45.51808" lon="5.965">
        <ele>321.7</ele>
        <time>2011-05-22T09:57:36Z</time>
      </trkpt>
      <trkpt lat="45.51813" lon="5.96501">
        <ele>322.18</ele>
        <time>2011-05-22T09:57:37Z</time>
      </trkpt>
      <trkpt lat="45.51818" lon="5.965">
        <ele>321.7</ele>
        <time>2011-05-22T09:57:38Z</time>
      </trkpt>
      <trkpt lat="45.51823" lon="5.96497">
        <ele>321.7</ele>
        <time>2011-05-22T09:57:39Z</time>
      </trkpt>
      <trkpt lat="45.51828" lon="5.96493">
        <ele>321.22</ele>
        <time>2011-05-22T09:57:40Z</time>
      </trkpt>
      <trkpt lat="45.51831" lon="5.96487">
        <ele>321.22</ele>
        <time>2011-05-22T09:57:41Z</time>
      </trkpt>
      <trkpt lat="45.51833" lon="5.9648">
        <ele>321.7</ele>
        <time>2011-05-22T09:57:42Z</time>
      </trkpt>
      <trkpt lat="45.51834" lon="5.96472">
        <ele>321.7</ele>
        <time>2011-05-22T09:57:43Z</time>
      </trkpt>
      <trkpt lat="45.51834" lon="5.96464">
        <ele>321.22</ele>
        <time>2011-05-22T09:57:44Z</time>
      </trkpt>
      <trkpt lat="45.51834" lon="5.96456">
        <ele>320.74</ele>
        <time>2011-05-22T09:57:45Z</time>
      </trkpt>
      <trkpt lat="45.51839" lon="5.96338">
        <ele>320.74</ele>
        <time>2011-05-22T09:58:00Z</time>
      </trkpt>
      <trkpt lat="45.51841" lon="5.96315">
        <ele>320.26</ele>
        <time>2011-05-22T09:58:03Z</time>
      </trkpt>
      <trkpt lat="45.51841" lon="5.96308">
        <ele>320.74</ele>
        <time>2011-05-22T09:58:04Z</time>
      </trkpt>
      <trkpt lat="45.51842" lon="5.963">
        <ele>320.74</ele>
        <time>2011-05-22T09:58:05Z</time>
      </trkpt>
      <trkpt lat="45.51843" lon="5.96285">
        <ele>320.26</ele>
        <time>2011-05-22T09:58:07Z</time>
      </trkpt>
      <trkpt lat="45.51843" lon="5.96278">
        <ele>320.26</ele>
        <time>2011-05-22T09:58:08Z</time>
      </trkpt>
      <trkpt lat="45.51843" lon="5.9627">
        <ele>320.26</ele>
        <time>2011-05-22T09:58:09Z</time>
      </trkpt>
      <trkpt lat="45.51846" lon="5.96234">
        <ele>320.74</ele>
        <time>2011-05-22T09:58:14Z</time>
      </trkpt>
      <trkpt lat="45.51847" lon="5.96227">
        <ele>320.26</ele>
        <time>2011-05-22T09:58:15Z</time>
      </trkpt>
      <trkpt lat="45.51856" lon="5.96192">
        <ele>320.26</ele>
        <time>2011-05-22T09:58:20Z</time>
      </trkpt>
      <trkpt lat="45.51857" lon="5.96184">
        <ele>319.78</ele>
        <time>2011-05-22T09:58:21Z</time>
      </trkpt>
      <trkpt lat="45.51857" lon="5.96177">
        <ele>319.78</ele>
        <time>2011-05-22T09:58:22Z</time>
      </trkpt>
      <trkpt lat="45.51857" lon="5.9617">
        <ele>319.78</ele>
        <time>2011-05-22T09:58:23Z</time>
      </trkpt>
      <trkpt lat="45.51856" lon="5.96162">
        <ele>319.78</ele>
        <time>2011-05-22T09:58:24Z</time>
      </trkpt>
      <trkpt lat="45.51854" lon="5.96154">
        <ele>319.78</ele>
        <time>2011-05-22T09:58:25Z</time>
      </trkpt>
      <trkpt lat="45.51843" lon="5.96111">
        <ele>320.26</ele>
        <time>2011-05-22T09:58:31Z</time>
      </trkpt>
      <trkpt lat="45.51841" lon="5.96104">
        <ele>319.78</ele>
        <time>2011-05-22T09:58:32Z</time>
      </trkpt>
      <trkpt lat="45.51839" lon="5.96097">
        <ele>319.78</ele>
        <time>2011-05-22T09:58:33Z</time>
      </trkpt>
      <trkpt lat="45.51837" lon="5.9609">
        <ele>320.26</ele>
        <time>2011-05-22T09:58:34Z</time>
      </trkpt>
      <trkpt lat="45.51835" lon="5.96083">
        <ele>319.78</ele>
        <time>2011-05-22T09:58:35Z</time>
      </trkpt>
      <trkpt lat="45.51832" lon="5.96069">
        <ele>320.26</ele>
        <time>2011-05-22T09:58:37Z</time>
      </trkpt>
      <trkpt lat="45.51831" lon="5.96061">
        <ele>320.26</ele>
        <time>2011-05-22T09:58:38Z</time>
      </trkpt>
      <trkpt lat="45.51815" lon="5.95979">
        <ele>320.74</ele>
        <time>2011-05-22T09:58:50Z</time>
      </trkpt>
      <trkpt lat="45.51814" lon="5.95973">
        <ele>320.74</ele>
        <time>2011-05-22T09:58:51Z</time>
      </trkpt>
      <trkpt lat="45.51806" lon="5.9594">
        <ele>321.7</ele>
        <time>2011-05-22T09:58:56Z</time>
      </trkpt>
      <trkpt lat="45.51805" lon="5.95934">
        <ele>321.7</ele>
        <time>2011-05-22T09:58:57Z</time>
      </trkpt>
      <trkpt lat="45.51802" lon="5.95915">
        <ele>321.7</ele>
        <time>2011-05-22T09:59:00Z</time>
      </trkpt>
      <trkpt lat="45.51802" lon="5.95909">
        <ele>322.18</ele>
        <time>2011-05-22T09:59:01Z</time>
      </trkpt>
      <trkpt lat="45.51802" lon="5.95902">
        <ele>321.7</ele>
        <time>2011-05-22T09:59:02Z</time>
      </trkpt>
      <trkpt lat="45.51802" lon="5.95896">
        <ele>322.18</ele>
        <time>2011-05-22T09:59:03Z</time>
      </trkpt>
      <trkpt lat="45.51803" lon="5.95889">
        <ele>322.66</ele>
        <time>2011-05-22T09:59:04Z</time>
      </trkpt>
      <trkpt lat="45.51804" lon="5.95877">
        <ele>322.66</ele>
        <time>2011-05-22T09:59:06Z</time>
      </trkpt>
      <trkpt lat="45.51822" lon="5.95771">
        <ele>321.7</ele>
        <time>2011-05-22T09:59:22Z</time>
      </trkpt>
      <trkpt lat="45.51825" lon="5.95767">
        <ele>322.18</ele>
        <time>2011-05-22T09:59:23Z</time>
      </trkpt>
      <trkpt lat="45.51828" lon="5.95764">
        <ele>322.18</ele>
        <time>2011-05-22T09:59:24Z</time>
      </trkpt>
      <trkpt lat="45.51832" lon="5.95761">
        <ele>322.18</ele>
        <time>2011-05-22T09:59:25Z</time>
      </trkpt>
      <trkpt lat="45.51836" lon="5.95759">
        <ele>322.18</ele>
        <time>2011-05-22T09:59:26Z</time>
      </trkpt>
      <trkpt lat="45.51894" lon="5.95712">
        <ele>321.7</ele>
        <time>2011-05-22T09:59:39Z</time>
      </trkpt>
      <trkpt lat="45.51898" lon="5.95708">
        <ele>321.7</ele>
        <time>2011-05-22T09:59:40Z</time>
      </trkpt>
      <trkpt lat="45.51902" lon="5.95703">
        <ele>322.18</ele>
        <time>2011-05-22T09:59:41Z</time>
      </trkpt>
      <trkpt lat="45.51905" lon="5.95698">
        <ele>321.7</ele>
        <time>2011-05-22T09:59:42Z</time>
      </trkpt>
      <trkpt lat="45.51909" lon="5.95694">
        <ele>321.7</ele>
        <time>2011-05-22T09:59:43Z</time>
      </trkpt>
      <trkpt lat="45.51912" lon="5.9569">
        <ele>321.22</ele>
        <time>2011-05-22T09:59:44Z</time>
      </trkpt>
      <trkpt lat="45.51926" lon="5.95675">
        <ele>321.22</ele>
        <time>2011-05-22T09:59:51Z</time>
      </trkpt>
      <trkpt lat="45.51927" lon="5.95671">
        <ele>321.22</ele>
        <time>2011-05-22T09:59:52Z</time>
      </trkpt>
      <trkpt lat="45.51927" lon="5.95667">
        <ele>321.22</ele>
        <time>2011-05-22T09:59:53Z</time>
      </trkpt>
      <trkpt lat="45.51925" lon="5.95663">
        <ele>321.22</ele>
        <time>2011-05-22T09:59:54Z</time>
      </trkpt>
      <trkpt lat="45.51924" lon="5.95659">
        <ele>321.7</ele>
        <time>2011-05-22T09:59:55Z</time>
      </trkpt>
      <trkpt lat="45.51916" lon="5.95618">
        <ele>323.14</ele>
        <time>2011-05-22T10:00:04Z</time>
      </trkpt>
      <trkpt lat="45.51915" lon="5.95616">
        <ele>323.62</ele>
        <time>2011-05-22T10:00:05Z</time>
      </trkpt>
      <trkpt lat="45.51914" lon="5.95614">
        <ele>323.62</ele>
        <time>2011-05-22T10:00:06Z</time>
      </trkpt>
      <trkpt lat="45.51914" lon="5.95611">
        <ele>323.62</ele>
        <time>2011-05-22T10:00:07Z</time>
      </trkpt>
      <trkpt lat="45.51913" lon="5.95609">
        <ele>324.1</ele>
        <time>2011-05-22T10:00:08Z</time>
      </trkpt>
      <trkpt lat="45.51912" lon="5.95607">
        <ele>324.58</ele>
        <time>2011-05-22T10:00:09Z</time>
      </trkpt>
      <trkpt lat="45.51899" lon="5.95573">
        <ele>326.99</ele>
        <time>2011-05-22T10:00:23Z</time>
      </trkpt>
      <trkpt lat="45.51889" lon="5.95542">
        <ele>327.95</ele>
        <time>2011-05-22T10:00:38Z</time>
      </trkpt>
      <trkpt lat="45.51888" lon="5.95536">
        <ele>329.87</ele>
        <time>2011-05-22T10:00:41Z</time>
      </trkpt>
      <trkpt lat="45.51887" lon="5.95527">
        <ele>330.83</ele>
        <time>2011-05-22T10:00:46Z</time>
      </trkpt>
      <trkpt lat="45.51882" lon="5.95493">
        <ele>334.2</ele>
        <time>2011-05-22T10:01:03Z</time>
      </trkpt>
      <trkpt lat="45.51886" lon="5.95463">
        <ele>336.12</ele>
        <time>2011-05-22T10:01:18Z</time>
      </trkpt>
      <trkpt lat="45.51887" lon="5.9546">
        <ele>336.12</ele>
        <time>2011-05-22T10:01:20Z</time>
      </trkpt>
      <trkpt lat="45.51888" lon="5.95457">
        <ele>336.6</ele>
        <time>2011-05-22T10:01:22Z</time>
      </trkpt>
      <trkpt lat="45.51888" lon="5.95455">
        <ele>336.6</ele>
        <time>2011-05-22T10:01:23Z</time>
      </trkpt>
      <trkpt lat="45.51888" lon="5.95453">
        <ele>337.08</ele>
        <time>2011-05-22T10:01:24Z</time>
      </trkpt>
      <trkpt lat="45.51888" lon="5.95449">
        <ele>337.08</ele>
        <time>2011-05-22T10:01:26Z</time>
      </trkpt>
      <trkpt lat="45.51887" lon="5.95447">
        <ele>337.56</ele>
        <time>2011-05-22T10:01:27Z</time>
      </trkpt>
      <trkpt lat="45.51887" lon="5.95446">
        <ele>337.56</ele>
        <time>2011-05-22T10:01:28Z</time>
      </trkpt>
      <trkpt lat="45.51887" lon="5.95444">
        <ele>338.04</ele>
        <time>2011-05-22T10:01:29Z</time>
      </trkpt>
      <trkpt lat="45.51886" lon="5.95443">
        <ele>338.52</ele>
        <time>2011-05-22T10:01:30Z</time>
      </trkpt>
      <trkpt lat="45.51884" lon="5.95418">
        <ele>341.41</ele>
        <time>2011-05-22T10:01:44Z</time>
      </trkpt>
      <trkpt lat="45.51884" lon="5.95416">
        <ele>341.89</ele>
        <time>2011-05-22T10:01:45Z</time>
      </trkpt>
      <trkpt lat="45.51883" lon="5.95406">
        <ele>343.81</ele>
        <time>2011-05-22T10:01:51Z</time>
      </trkpt>
      <trkpt lat="45.51883" lon="5.95404">
        <ele>343.81</ele>
        <time>2011-05-22T10:01:52Z</time>
      </trkpt>
      <trkpt lat="45.51881" lon="5.95378">
        <ele>346.21</ele>
        <time>2011-05-22T10:02:06Z</time>
      </trkpt>
      <trkpt lat="45.51876" lon="5.95348">
        <ele>349.1</ele>
        <time>2011-05-22T10:02:22Z</time>
      </trkpt>
      <trkpt lat="45.51876" lon="5.95338">
        <ele>350.54</ele>
        <time>2011-05-22T10:02:29Z</time>
      </trkpt>
      <trkpt lat="45.51875" lon="5.95336">
        <ele>350.54</ele>
        <time>2011-05-22T10:02:30Z</time>
      </trkpt>
      <trkpt lat="45.51875" lon="5.95334">
        <ele>350.54</ele>
        <time>2011-05-22T10:02:31Z</time>
      </trkpt>
      <trkpt lat="45.51875" lon="5.95332">
        <ele>351.02</ele>
        <time>2011-05-22T10:02:32Z</time>
      </trkpt>
      <trkpt lat="45.51875" lon="5.9533">
        <ele>351.02</ele>
        <time>2011-05-22T10:02:33Z</time>
      </trkpt>
      <trkpt lat="45.51874" lon="5.95328">
        <ele>351.02</ele>
        <time>2011-05-22T10:02:34Z</time>
      </trkpt>
      <trkpt lat="45.51874" lon="5.95326">
        <ele>351.5</ele>
        <time>2011-05-22T10:02:35Z</time>
      </trkpt>
      <trkpt lat="45.51874" lon="5.95324">
        <ele>351.5</ele>
        <time>2011-05-22T10:02:36Z</time>
      </trkpt>
      <trkpt lat="45.51874" lon="5.95322">
        <ele>351.5</ele>
        <time>2011-05-22T10:02:37Z</time>
      </trkpt>
      <trkpt lat="45.51873" lon="5.9532">
        <ele>351.5</ele>
        <time>2011-05-22T10:02:38Z</time>
      </trkpt>
      <trkpt lat="45.51873" lon="5.95317">
        <ele>351.98</ele>
        <time>2011-05-22T10:02:39Z</time>
      </trkpt>
      <trkpt lat="45.51872" lon="5.95315">
        <ele>352.46</ele>
        <time>2011-05-22T10:02:40Z</time>
      </trkpt>
      <trkpt lat="45.51872" lon="5.95313">
        <ele>351.98</ele>
        <time>2011-05-22T10:02:41Z</time>
      </trkpt>
      <trkpt lat="45.51867" lon="5.95278">
        <ele>354.86</ele>
        <time>2011-05-22T10:02:57Z</time>
      </trkpt>
      <trkpt lat="45.51865" lon="5.95272">
        <ele>355.34</ele>
        <time>2011-05-22T10:03:00Z</time>
      </trkpt>
      <trkpt lat="45.51863" lon="5.95271">
        <ele>356.31</ele>
        <time>2011-05-22T10:03:01Z</time>
      </trkpt>
      <trkpt lat="45.51862" lon="5.9527">
        <ele>355.83</ele>
        <time>2011-05-22T10:03:02Z</time>
      </trkpt>
      <trkpt lat="45.51861" lon="5.95269">
        <ele>356.31</ele>
        <time>2011-05-22T10:03:03Z</time>
      </trkpt>
      <trkpt lat="45.5186" lon="5.95268">
        <ele>355.83</ele>
        <time>2011-05-22T10:03:04Z</time>
      </trkpt>
      <trkpt lat="45.51859" lon="5.95268">
        <ele>356.31</ele>
        <time>2011-05-22T10:03:05Z</time>
      </trkpt>
      <trkpt lat="45.51845" lon="5.95263">
        <ele>359.19</ele>
        <time>2011-05-22T10:03:16Z</time>
      </trkpt>
      <trkpt lat="45.51844" lon="5.95264">
        <ele>359.19</ele>
        <time>2011-05-22T10:03:17Z</time>
      </trkpt>
      <trkpt lat="45.51843" lon="5.95265">
        <ele>359.19</ele>
        <time>2011-05-22T10:03:18Z</time>
      </trkpt>
      <trkpt lat="45.51842" lon="5.95264">
        <ele>359.67</ele>
        <time>2011-05-22T10:03:19Z</time>
      </trkpt>
      <trkpt lat="45.51842" lon="5.9526">
        <ele>360.15</ele>
        <time>2011-05-22T10:03:22Z</time>
      </trkpt>
      <trkpt lat="45.51868" lon="5.95241">
        <ele>360.15</ele>
        <time>2011-05-22T10:03:34Z</time>
      </trkpt>
      <trkpt lat="45.51905" lon="5.95204">
        <ele>361.59</ele>
        <time>2011-05-22T10:03:49Z</time>
      </trkpt>
      <trkpt lat="45.51945" lon="5.95158">
        <ele>362.55</ele>
        <time>2011-05-22T10:04:04Z</time>
      </trkpt>
      <trkpt lat="45.51991" lon="5.95138">
        <ele>363.52</ele>
        <time>2011-05-22T10:04:17Z</time>
      </trkpt>
      <trkpt lat="45.52016" lon="5.95127">
        <ele>363.04</ele>
        <time>2011-05-22T10:04:23Z</time>
      </trkpt>
      <trkpt lat="45.52031" lon="5.95118">
        <ele>363.52</ele>
        <time>2011-05-22T10:04:27Z</time>
      </trkpt>
      <trkpt lat="45.52034" lon="5.95115">
        <ele>362.55</ele>
        <time>2011-05-22T10:04:28Z</time>
      </trkpt>
      <trkpt lat="45.52047" lon="5.95106">
        <ele>362.55</ele>
        <time>2011-05-22T10:04:31Z</time>
      </trkpt>
      <trkpt lat="45.52051" lon="5.95103">
        <ele>363.04</ele>
        <time>2011-05-22T10:04:32Z</time>
      </trkpt>
      <trkpt lat="45.5211" lon="5.95075">
        <ele>360.63</ele>
        <time>2011-05-22T10:04:46Z</time>
      </trkpt>
      <trkpt lat="45.52115" lon="5.95073">
        <ele>359.67</ele>
        <time>2011-05-22T10:04:47Z</time>
      </trkpt>
      <trkpt lat="45.52119" lon="5.9507">
        <ele>359.67</ele>
        <time>2011-05-22T10:04:48Z</time>
      </trkpt>
      <trkpt lat="45.52139" lon="5.95056">
        <ele>357.75</ele>
        <time>2011-05-22T10:04:53Z</time>
      </trkpt>
      <trkpt lat="45.52142" lon="5.95052">
        <ele>356.79</ele>
        <time>2011-05-22T10:04:54Z</time>
      </trkpt>
      <trkpt lat="45.52174" lon="5.95022">
        <ele>356.79</ele>
        <time>2011-05-22T10:05:05Z</time>
      </trkpt>
      <trkpt lat="45.52179" lon="5.95024">
        <ele>357.27</ele>
        <time>2011-05-22T10:05:06Z</time>
      </trkpt>
      <trkpt lat="45.52182" lon="5.95028">
        <ele>357.27</ele>
        <time>2011-05-22T10:05:07Z</time>
      </trkpt>
      <trkpt lat="45.52224" lon="5.95037">
        <ele>358.23</ele>
        <time>2011-05-22T10:05:19Z</time>
      </trkpt>
      <trkpt lat="45.5224" lon="5.95034">
        <ele>356.79</ele>
        <time>2011-05-22T10:05:22Z</time>
      </trkpt>
      <trkpt lat="45.52245" lon="5.95032">
        <ele>355.83</ele>
        <time>2011-05-22T10:05:23Z</time>
      </trkpt>
      <trkpt lat="45.52251" lon="5.95029">
        <ele>355.83</ele>
        <time>2011-05-22T10:05:24Z</time>
      </trkpt>
      <trkpt lat="45.52257" lon="5.95026">
        <ele>355.34</ele>
        <time>2011-05-22T10:05:25Z</time>
      </trkpt>
      <trkpt lat="45.52262" lon="5.95021">
        <ele>354.86</ele>
        <time>2011-05-22T10:05:26Z</time>
      </trkpt>
      <trkpt lat="45.52266" lon="5.95015">
        <ele>354.38</ele>
        <time>2011-05-22T10:05:27Z</time>
      </trkpt>
      <trkpt lat="45.52269" lon="5.95009">
        <ele>354.38</ele>
        <time>2011-05-22T10:05:28Z</time>
      </trkpt>
      <trkpt lat="45.5227" lon="5.95002">
        <ele>354.86</ele>
        <time>2011-05-22T10:05:29Z</time>
      </trkpt>
      <trkpt lat="45.52271" lon="5.94995">
        <ele>354.86</ele>
        <time>2011-05-22T10:05:30Z</time>
      </trkpt>
      <trkpt lat="45.52274" lon="5.9499">
        <ele>354.86</ele>
        <time>2011-05-22T10:05:31Z</time>
      </trkpt>
      <trkpt lat="45.52278" lon="5.94989">
        <ele>354.86</ele>
        <time>2011-05-22T10:05:32Z</time>
      </trkpt>
      <trkpt lat="45.52282" lon="5.94988">
        <ele>355.83</ele>
        <time>2011-05-22T10:05:33Z</time>
      </trkpt>
      <trkpt lat="45.52286" lon="5.94987">
        <ele>355.34</ele>
        <time>2011-05-22T10:05:34Z</time>
      </trkpt>
      <trkpt lat="45.52289" lon="5.94987">
        <ele>356.31</ele>
        <time>2011-05-22T10:05:35Z</time>
      </trkpt>
      <trkpt lat="45.5232" lon="5.94986">
        <ele>359.19</ele>
        <time>2011-05-22T10:05:46Z</time>
      </trkpt>
      <trkpt lat="45.52366" lon="5.94969">
        <ele>357.27</ele>
        <time>2011-05-22T10:05:59Z</time>
      </trkpt>
      <trkpt lat="45.52401" lon="5.94963">
        <ele>355.83</ele>
        <time>2011-05-22T10:06:07Z</time>
      </trkpt>
      <trkpt lat="45.52406" lon="5.94964">
        <ele>356.31</ele>
        <time>2011-05-22T10:06:08Z</time>
      </trkpt>
      <trkpt lat="45.52433" lon="5.94969">
        <ele>354.86</ele>
        <time>2011-05-22T10:06:13Z</time>
      </trkpt>
      <trkpt lat="45.52439" lon="5.94969">
        <ele>354.38</ele>
        <time>2011-05-22T10:06:14Z</time>
      </trkpt>
      <trkpt lat="45.52446" lon="5.94968">
        <ele>353.9</ele>
        <time>2011-05-22T10:06:15Z</time>
      </trkpt>
      <trkpt lat="45.52453" lon="5.94966">
        <ele>353.42</ele>
        <time>2011-05-22T10:06:16Z</time>
      </trkpt>
      <trkpt lat="45.5246" lon="5.94963">
        <ele>353.42</ele>
        <time>2011-05-22T10:06:17Z</time>
      </trkpt>
      <trkpt lat="45.52467" lon="5.9496">
        <ele>353.42</ele>
        <time>2011-05-22T10:06:18Z</time>
      </trkpt>
      <trkpt lat="45.52473" lon="5.94956">
        <ele>353.42</ele>
        <time>2011-05-22T10:06:19Z</time>
      </trkpt>
      <trkpt lat="45.52485" lon="5.94945">
        <ele>353.42</ele>
        <time>2011-05-22T10:06:21Z</time>
      </trkpt>
      <trkpt lat="45.5249" lon="5.94939">
        <ele>352.46</ele>
        <time>2011-05-22T10:06:22Z</time>
      </trkpt>
      <trkpt lat="45.52505" lon="5.94921">
        <ele>352.46</ele>
        <time>2011-05-22T10:06:25Z</time>
      </trkpt>
      <trkpt lat="45.52511" lon="5.94917">
        <ele>352.46</ele>
        <time>2011-05-22T10:06:26Z</time>
      </trkpt>
      <trkpt lat="45.52515" lon="5.94915">
        <ele>352.46</ele>
        <time>2011-05-22T10:06:27Z</time>
      </trkpt>
      <trkpt lat="45.5252" lon="5.94914">
        <ele>352.94</ele>
        <time>2011-05-22T10:06:28Z</time>
      </trkpt>
      <trkpt lat="45.52525" lon="5.94913">
        <ele>352.94</ele>
        <time>2011-05-22T10:06:29Z</time>
      </trkpt>
      <trkpt lat="45.52568" lon="5.94908">
        <ele>356.31</ele>
        <time>2011-05-22T10:06:42Z</time>
      </trkpt>
      <trkpt lat="45.52572" lon="5.94907">
        <ele>356.31</ele>
        <time>2011-05-22T10:06:43Z</time>
      </trkpt>
      <trkpt lat="45.52606" lon="5.94898">
        <ele>358.23</ele>
        <time>2011-05-22T10:06:53Z</time>
      </trkpt>
      <trkpt lat="45.5261" lon="5.94897">
        <ele>358.23</ele>
        <time>2011-05-22T10:06:54Z</time>
      </trkpt>
      <trkpt lat="45.52655" lon="5.94876">
        <ele>358.71</ele>
        <time>2011-05-22T10:07:06Z</time>
      </trkpt>
      <trkpt lat="45.52696" lon="5.94868">
        <ele>359.67</ele>
        <time>2011-05-22T10:07:16Z</time>
      </trkpt>
      <trkpt lat="45.5274" lon="5.9486">
        <ele>361.11</ele>
        <time>2011-05-22T10:07:29Z</time>
      </trkpt>
      <trkpt lat="45.52784" lon="5.94849">
        <ele>364</ele>
        <time>2011-05-22T10:07:45Z</time>
      </trkpt>
      <trkpt lat="45.52813" lon="5.94841">
        <ele>366.88</ele>
        <time>2011-05-22T10:07:57Z</time>
      </trkpt>
      <trkpt lat="45.52844" lon="5.94836">
        <ele>370.24</ele>
        <time>2011-05-22T10:08:11Z</time>
      </trkpt>
      <trkpt lat="45.52873" lon="5.94844">
        <ele>373.13</ele>
        <time>2011-05-22T10:08:24Z</time>
      </trkpt>
      <trkpt lat="45.52907" lon="5.94858">
        <ele>373.13</ele>
        <time>2011-05-22T10:08:37Z</time>
      </trkpt>
      <trkpt lat="45.52954" lon="5.94866">
        <ele>373.13</ele>
        <time>2011-05-22T10:08:51Z</time>
      </trkpt>
      <trkpt lat="45.53004" lon="5.94851">
        <ele>372.65</ele>
        <time>2011-05-22T10:09:03Z</time>
      </trkpt>
      <trkpt lat="45.53072" lon="5.94841">
        <ele>373.13</ele>
        <time>2011-05-22T10:09:18Z</time>
      </trkpt>
      <trkpt lat="45.53081" lon="5.9484">
        <ele>373.61</ele>
        <time>2011-05-22T10:09:20Z</time>
      </trkpt>
      <trkpt lat="45.53133" lon="5.94844">
        <ele>375.53</ele>
        <time>2011-05-22T10:09:35Z</time>
      </trkpt>
      <trkpt lat="45.53167" lon="5.94842">
        <ele>377.94</ele>
        <time>2011-05-22T10:09:47Z</time>
      </trkpt>
      <trkpt lat="45.53219" lon="5.94842">
        <ele>375.05</ele>
        <time>2011-05-22T10:09:59Z</time>
      </trkpt>
      <trkpt lat="45.53292" lon="5.94849">
        <ele>373.61</ele>
        <time>2011-05-22T10:10:10Z</time>
      </trkpt>
      <trkpt lat="45.53348" lon="5.94829">
        <ele>376.01</ele>
        <time>2011-05-22T10:10:22Z</time>
      </trkpt>
      <trkpt lat="45.53386" lon="5.94814">
        <ele>378.9</ele>
        <time>2011-05-22T10:10:34Z</time>
      </trkpt>
      <trkpt lat="45.53419" lon="5.94799">
        <ele>381.3</ele>
        <time>2011-05-22T10:10:46Z</time>
      </trkpt>
      <trkpt lat="45.53456" lon="5.94782">
        <ele>382.74</ele>
        <time>2011-05-22T10:10:59Z</time>
      </trkpt>
      <trkpt lat="45.53499" lon="5.94759">
        <ele>385.15</ele>
        <time>2011-05-22T10:11:15Z</time>
      </trkpt>
      <trkpt lat="45.53514" lon="5.94752">
        <ele>385.63</ele>
        <time>2011-05-22T10:11:27Z</time>
      </trkpt>
      <trkpt lat="45.53514" lon="5.94752">
        <ele>386.11</ele>
        <time>2011-05-22T10:11:47Z</time>
      </trkpt>
      <trkpt lat="45.53514" lon="5.94752">
        <ele>388.51</ele>
        <time>2011-05-22T10:12:00Z</time>
      </trkpt>
      <trkpt lat="45.53514" lon="5.94752">
        <ele>385.63</ele>
        <time>2011-05-22T10:12:07Z</time>
      </trkpt>
      <trkpt lat="45.53514" lon="5.94752">
        <ele>387.07</ele>
        <time>2011-05-22T10:12:47Z</time>
      </trkpt>
      <trkpt lat="45.53514" lon="5.94752">
        <ele>386.11</ele>
        <time>2011-05-22T10:13:17Z</time>
      </trkpt>
      <trkpt lat="45.53514" lon="5.94749">
        <ele>385.63</ele>
        <time>2011-05-22T10:13:47Z</time>
      </trkpt>
      <trkpt lat="45.53515" lon="5.94748">
        <ele>385.63</ele>
        <time>2011-05-22T10:13:48Z</time>
      </trkpt>
      <trkpt lat="45.53514" lon="5.94745">
        <ele>386.11</ele>
        <time>2011-05-22T10:13:49Z</time>
      </trkpt>
      <trkpt lat="45.53514" lon="5.94742">
        <ele>386.11</ele>
        <time>2011-05-22T10:13:50Z</time>
      </trkpt>
      <trkpt lat="45.53513" lon="5.9474">
        <ele>385.63</ele>
        <time>2011-05-22T10:13:51Z</time>
      </trkpt>
      <trkpt lat="45.53512" lon="5.94737">
        <ele>386.11</ele>
        <time>2011-05-22T10:13:52Z</time>
      </trkpt>
      <trkpt lat="45.53511" lon="5.94734">
        <ele>386.11</ele>
        <time>2011-05-22T10:13:53Z</time>
      </trkpt>
      <trkpt lat="45.53511" lon="5.94732">
        <ele>386.11</ele>
        <time>2011-05-22T10:13:54Z</time>
      </trkpt>
      <trkpt lat="45.53511" lon="5.9473">
        <ele>386.11</ele>
        <time>2011-05-22T10:13:55Z</time>
      </trkpt>
      <trkpt lat="45.5351" lon="5.94728">
        <ele>386.59</ele>
        <time>2011-05-22T10:13:56Z</time>
      </trkpt>
      <trkpt lat="45.5351" lon="5.94726">
        <ele>386.11</ele>
        <time>2011-05-22T10:13:57Z</time>
      </trkpt>
      <trkpt lat="45.53513" lon="5.94704">
        <ele>388.03</ele>
        <time>2011-05-22T10:14:06Z</time>
      </trkpt>
      <trkpt lat="45.53533" lon="5.94683">
        <ele>390.91</ele>
        <time>2011-05-22T10:14:20Z</time>
      </trkpt>
      <trkpt lat="45.53539" lon="5.94651">
        <ele>392.84</ele>
        <time>2011-05-22T10:14:33Z</time>
      </trkpt>
      <trkpt lat="45.53532" lon="5.94642">
        <ele>393.32</ele>
        <time>2011-05-22T10:14:37Z</time>
      </trkpt>
      <trkpt lat="45.53531" lon="5.94641">
        <ele>393.8</ele>
        <time>2011-05-22T10:14:38Z</time>
      </trkpt>
      <trkpt lat="45.53529" lon="5.9464">
        <ele>393.8</ele>
        <time>2011-05-22T10:14:52Z</time>
      </trkpt>
      <trkpt lat="45.53529" lon="5.94639">
        <ele>393.8</ele>
        <time>2011-05-22T10:15:09Z</time>
      </trkpt>
      <trkpt lat="45.53529" lon="5.94639">
        <ele>393.8</ele>
        <time>2011-05-22T10:15:36Z</time>
      </trkpt>
      <trkpt lat="45.53528" lon="5.94641">
        <ele>393.8</ele>
        <time>2011-05-22T10:15:52Z</time>
      </trkpt>
      <trkpt lat="45.53526" lon="5.94641">
        <ele>394.28</ele>
        <time>2011-05-22T10:15:53Z</time>
      </trkpt>
      <trkpt lat="45.53524" lon="5.94642">
        <ele>394.28</ele>
        <time>2011-05-22T10:15:54Z</time>
      </trkpt>
      <trkpt lat="45.53487" lon="5.94636">
        <ele>397.64</ele>
        <time>2011-05-22T10:16:11Z</time>
      </trkpt>
      <trkpt lat="45.53459" lon="5.94621">
        <ele>400.53</ele>
        <time>2011-05-22T10:16:25Z</time>
      </trkpt>
      <trkpt lat="45.53429" lon="5.94628">
        <ele>403.41</ele>
        <time>2011-05-22T10:16:40Z</time>
      </trkpt>
      <trkpt lat="45.53399" lon="5.94643">
        <ele>406.29</ele>
        <time>2011-05-22T10:16:55Z</time>
      </trkpt>
      <trkpt lat="45.53371" lon="5.94646">
        <ele>409.66</ele>
        <time>2011-05-22T10:17:09Z</time>
      </trkpt>
      <trkpt lat="45.53344" lon="5.94646">
        <ele>412.54</ele>
        <time>2011-05-22T10:17:23Z</time>
      </trkpt>
      <trkpt lat="45.53309" lon="5.94648">
        <ele>415.91</ele>
        <time>2011-05-22T10:17:40Z</time>
      </trkpt>
      <trkpt lat="45.53294" lon="5.94628">
        <ele>418.31</ele>
        <time>2011-05-22T10:17:53Z</time>
      </trkpt>
      <trkpt lat="45.53295" lon="5.94626">
        <ele>418.31</ele>
        <time>2011-05-22T10:17:54Z</time>
      </trkpt>
      <trkpt lat="45.53297" lon="5.94625">
        <ele>419.27</ele>
        <time>2011-05-22T10:17:55Z</time>
      </trkpt>
      <trkpt lat="45.53299" lon="5.94624">
        <ele>419.75</ele>
        <time>2011-05-22T10:17:56Z</time>
      </trkpt>
      <trkpt lat="45.533" lon="5.94622">
        <ele>419.27</ele>
        <time>2011-05-22T10:17:57Z</time>
      </trkpt>
      <trkpt lat="45.53328" lon="5.94605">
        <ele>422.16</ele>
        <time>2011-05-22T10:18:12Z</time>
      </trkpt>
      <trkpt lat="45.53355" lon="5.9458">
        <ele>425.52</ele>
        <time>2011-05-22T10:18:27Z</time>
      </trkpt>
      <trkpt lat="45.53388" lon="5.94541">
        <ele>428.4</ele>
        <time>2011-05-22T10:18:45Z</time>
      </trkpt>
      <trkpt lat="45.53409" lon="5.94515">
        <ele>430.81</ele>
        <time>2011-05-22T10:18:58Z</time>
      </trkpt>
      <trkpt lat="45.53422" lon="5.94478">
        <ele>433.21</ele>
        <time>2011-05-22T10:19:12Z</time>
      </trkpt>
      <trkpt lat="45.53438" lon="5.94466">
        <ele>436.58</ele>
        <time>2011-05-22T10:19:22Z</time>
      </trkpt>
      <trkpt lat="45.53471" lon="5.94451">
        <ele>438.5</ele>
        <time>2011-05-22T10:19:40Z</time>
      </trkpt>
      <trkpt lat="45.53471" lon="5.94418">
        <ele>440.9</ele>
        <time>2011-05-22T10:19:53Z</time>
      </trkpt>
      <trkpt lat="45.53469" lon="5.94409">
        <ele>441.38</ele>
        <time>2011-05-22T10:19:57Z</time>
      </trkpt>
      <trkpt lat="45.53468" lon="5.94408">
        <ele>441.86</ele>
        <time>2011-05-22T10:19:58Z</time>
      </trkpt>
      <trkpt lat="45.53467" lon="5.94409">
        <ele>441.38</ele>
        <time>2011-05-22T10:19:59Z</time>
      </trkpt>
      <trkpt lat="45.53466" lon="5.9441">
        <ele>441.86</ele>
        <time>2011-05-22T10:20:00Z</time>
      </trkpt>
      <trkpt lat="45.53465" lon="5.94412">
        <ele>441.86</ele>
        <time>2011-05-22T10:20:01Z</time>
      </trkpt>
      <trkpt lat="45.53464" lon="5.94414">
        <ele>441.86</ele>
        <time>2011-05-22T10:20:15Z</time>
      </trkpt>
      <trkpt lat="45.53464" lon="5.94414">
        <ele>441.86</ele>
        <time>2011-05-22T10:20:53Z</time>
      </trkpt>
      <trkpt lat="45.53464" lon="5.94414">
        <ele>444.75</ele>
        <time>2011-05-22T10:21:02Z</time>
      </trkpt>
      <trkpt lat="45.53463" lon="5.94414">
        <ele>442.34</ele>
        <time>2011-05-22T10:21:30Z</time>
      </trkpt>
      <trkpt lat="45.53464" lon="5.94414">
        <ele>441.38</ele>
        <time>2011-05-22T10:22:06Z</time>
      </trkpt>
      <trkpt lat="45.53465" lon="5.94416">
        <ele>441.86</ele>
        <time>2011-05-22T10:22:10Z</time>
      </trkpt>
      <trkpt lat="45.53465" lon="5.94418">
        <ele>440.9</ele>
        <time>2011-05-22T10:22:11Z</time>
      </trkpt>
      <trkpt lat="45.53464" lon="5.9442">
        <ele>440.9</ele>
        <time>2011-05-22T10:22:12Z</time>
      </trkpt>
      <trkpt lat="45.53461" lon="5.94422">
        <ele>441.38</ele>
        <time>2011-05-22T10:22:13Z</time>
      </trkpt>
      <trkpt lat="45.53459" lon="5.94423">
        <ele>441.86</ele>
        <time>2011-05-22T10:22:14Z</time>
      </trkpt>
      <trkpt lat="45.53457" lon="5.94424">
        <ele>441.86</ele>
        <time>2011-05-22T10:22:15Z</time>
      </trkpt>
      <trkpt lat="45.53455" lon="5.94425">
        <ele>441.86</ele>
        <time>2011-05-22T10:22:16Z</time>
      </trkpt>
      <trkpt lat="45.53452" lon="5.94425">
        <ele>442.34</ele>
        <time>2011-05-22T10:22:17Z</time>
      </trkpt>
      <trkpt lat="45.53449" lon="5.94425">
        <ele>442.34</ele>
        <time>2011-05-22T10:22:18Z</time>
      </trkpt>
      <trkpt lat="45.53445" lon="5.94425">
        <ele>442.82</ele>
        <time>2011-05-22T10:22:19Z</time>
      </trkpt>
      <trkpt lat="45.53408" lon="5.94433">
        <ele>445.71</ele>
        <time>2011-05-22T10:22:33Z</time>
      </trkpt>
      <trkpt lat="45.53375" lon="5.94447">
        <ele>447.15</ele>
        <time>2011-05-22T10:22:47Z</time>
      </trkpt>
      <trkpt lat="45.53334" lon="5.94441">
        <ele>449.07</ele>
        <time>2011-05-22T10:23:02Z</time>
      </trkpt>
      <trkpt lat="45.53288" lon="5.94462">
        <ele>450.03</ele>
        <time>2011-05-22T10:23:17Z</time>
      </trkpt>
      <trkpt lat="45.53248" lon="5.94483">
        <ele>452.44</ele>
        <time>2011-05-22T10:23:32Z</time>
      </trkpt>
      <trkpt lat="45.53249" lon="5.94468">
        <ele>453.4</ele>
        <time>2011-05-22T10:23:37Z</time>
      </trkpt>
      <trkpt lat="45.5325" lon="5.94466">
        <ele>454.36</ele>
        <time>2011-05-22T10:23:38Z</time>
      </trkpt>
      <trkpt lat="45.53251" lon="5.94464">
        <ele>453.4</ele>
        <time>2011-05-22T10:23:39Z</time>
      </trkpt>
      <trkpt lat="45.53278" lon="5.94429">
        <ele>455.8</ele>
        <time>2011-05-22T10:23:53Z</time>
      </trkpt>
      <trkpt lat="45.53285" lon="5.94421">
        <ele>457.24</ele>
        <time>2011-05-22T10:23:57Z</time>
      </trkpt>
      <trkpt lat="45.53316" lon="5.94401">
        <ele>460.61</ele>
        <time>2011-05-22T10:24:12Z</time>
      </trkpt>
      <trkpt lat="45.53349" lon="5.94383">
        <ele>463.49</ele>
        <time>2011-05-22T10:24:28Z</time>
      </trkpt>
      <trkpt lat="45.53351" lon="5.9438">
        <ele>463.49</ele>
        <time>2011-05-22T10:24:29Z</time>
      </trkpt>
      <trkpt lat="45.53358" lon="5.94358">
        <ele>465.42</ele>
        <time>2011-05-22T10:24:36Z</time>
      </trkpt>
      <trkpt lat="45.53365" lon="5.94325">
        <ele>466.86</ele>
        <time>2011-05-22T10:24:47Z</time>
      </trkpt>
      <trkpt lat="45.53373" lon="5.94293">
        <ele>469.74</ele>
        <time>2011-05-22T10:24:58Z</time>
      </trkpt>
      <trkpt lat="45.53395" lon="5.94266">
        <ele>472.63</ele>
        <time>2011-05-22T10:25:12Z</time>
      </trkpt>
      <trkpt lat="45.53413" lon="5.94246">
        <ele>475.03</ele>
        <time>2011-05-22T10:25:23Z</time>
      </trkpt>
      <trkpt lat="45.53428" lon="5.94204">
        <ele>477.91</ele>
        <time>2011-05-22T10:25:39Z</time>
      </trkpt>
      <trkpt lat="45.53447" lon="5.94172">
        <ele>480.32</ele>
        <time>2011-05-22T10:25:53Z</time>
      </trkpt>
      <trkpt lat="45.53464" lon="5.94163">
        <ele>483.2</ele>
        <time>2011-05-22T10:26:02Z</time>
      </trkpt>
      <trkpt lat="45.53491" lon="5.94154">
        <ele>485.6</ele>
        <time>2011-05-22T10:26:16Z</time>
      </trkpt>
      <trkpt lat="45.53514" lon="5.94152">
        <ele>488.97</ele>
        <time>2011-05-22T10:26:28Z</time>
      </trkpt>
      <trkpt lat="45.53537" lon="5.94151">
        <ele>491.37</ele>
        <time>2011-05-22T10:26:40Z</time>
      </trkpt>
      <trkpt lat="45.5356" lon="5.94141">
        <ele>493.77</ele>
        <time>2011-05-22T10:26:53Z</time>
      </trkpt>
      <trkpt lat="45.53572" lon="5.94112">
        <ele>496.18</ele>
        <time>2011-05-22T10:27:05Z</time>
      </trkpt>
      <trkpt lat="45.53587" lon="5.94085">
        <ele>499.06</ele>
        <time>2011-05-22T10:27:19Z</time>
      </trkpt>
      <trkpt lat="45.53598" lon="5.94078">
        <ele>500.98</ele>
        <time>2011-05-22T10:27:26Z</time>
      </trkpt>
      <trkpt lat="45.53623" lon="5.94064">
        <ele>503.87</ele>
        <time>2011-05-22T10:27:41Z</time>
      </trkpt>
      <trkpt lat="45.53653" lon="5.9405">
        <ele>506.27</ele>
        <time>2011-05-22T10:27:58Z</time>
      </trkpt>
      <trkpt lat="45.5367" lon="5.94037">
        <ele>509.16</ele>
        <time>2011-05-22T10:28:10Z</time>
      </trkpt>
      <trkpt lat="45.5367" lon="5.94024">
        <ele>509.64</ele>
        <time>2011-05-22T10:28:15Z</time>
      </trkpt>
      <trkpt lat="45.53669" lon="5.94022">
        <ele>509.64</ele>
        <time>2011-05-22T10:28:16Z</time>
      </trkpt>
      <trkpt lat="45.53667" lon="5.9402">
        <ele>510.6</ele>
        <time>2011-05-22T10:28:17Z</time>
      </trkpt>
      <trkpt lat="45.53666" lon="5.94019">
        <ele>511.08</ele>
        <time>2011-05-22T10:28:18Z</time>
      </trkpt>
      <trkpt lat="45.53664" lon="5.94018">
        <ele>510.6</ele>
        <time>2011-05-22T10:28:19Z</time>
      </trkpt>
      <trkpt lat="45.53662" lon="5.94018">
        <ele>510.6</ele>
        <time>2011-05-22T10:28:20Z</time>
      </trkpt>
      <trkpt lat="45.5366" lon="5.94018">
        <ele>510.6</ele>
        <time>2011-05-22T10:28:21Z</time>
      </trkpt>
      <trkpt lat="45.53658" lon="5.94018">
        <ele>511.56</ele>
        <time>2011-05-22T10:28:22Z</time>
      </trkpt>
      <trkpt lat="45.53656" lon="5.94019">
        <ele>510.6</ele>
        <time>2011-05-22T10:28:23Z</time>
      </trkpt>
      <trkpt lat="45.53623" lon="5.94013">
        <ele>513.48</ele>
        <time>2011-05-22T10:28:39Z</time>
      </trkpt>
      <trkpt lat="45.53598" lon="5.94001">
        <ele>516.37</ele>
        <time>2011-05-22T10:28:52Z</time>
      </trkpt>
      <trkpt lat="45.53568" lon="5.93994">
        <ele>519.25</ele>
        <time>2011-05-22T10:29:08Z</time>
      </trkpt>
      <trkpt lat="45.53542" lon="5.93984">
        <ele>522.13</ele>
        <time>2011-05-22T10:29:23Z</time>
      </trkpt>
      <trkpt lat="45.53517" lon="5.93976">
        <ele>525.02</ele>
        <time>2011-05-22T10:29:37Z</time>
      </trkpt>
      <trkpt lat="45.53496" lon="5.93973">
        <ele>526.94</ele>
        <time>2011-05-22T10:29:49Z</time>
      </trkpt>
      <trkpt lat="45.53494" lon="5.93974">
        <ele>526.94</ele>
        <time>2011-05-22T10:29:50Z</time>
      </trkpt>
      <trkpt lat="45.53492" lon="5.93974">
        <ele>527.9</ele>
        <time>2011-05-22T10:29:51Z</time>
      </trkpt>
      <trkpt lat="45.53483" lon="5.93974">
        <ele>528.86</ele>
        <time>2011-05-22T10:29:57Z</time>
      </trkpt>
      <trkpt lat="45.53482" lon="5.93972">
        <ele>528.86</ele>
        <time>2011-05-22T10:29:58Z</time>
      </trkpt>
      <trkpt lat="45.53481" lon="5.9397">
        <ele>529.34</ele>
        <time>2011-05-22T10:29:59Z</time>
      </trkpt>
      <trkpt lat="45.53481" lon="5.93968">
        <ele>529.34</ele>
        <time>2011-05-22T10:30:00Z</time>
      </trkpt>
      <trkpt lat="45.53482" lon="5.93966">
        <ele>529.82</ele>
        <time>2011-05-22T10:30:01Z</time>
      </trkpt>
      <trkpt lat="45.53483" lon="5.93965">
        <ele>529.82</ele>
        <time>2011-05-22T10:30:02Z</time>
      </trkpt>
      <trkpt lat="45.53491" lon="5.93951">
        <ele>532.23</ele>
        <time>2011-05-22T10:30:12Z</time>
      </trkpt>
      <trkpt lat="45.53499" lon="5.93948">
        <ele>532.23</ele>
        <time>2011-05-22T10:30:18Z</time>
      </trkpt>
      <trkpt lat="45.53501" lon="5.93947">
        <ele>532.71</ele>
        <time>2011-05-22T10:30:19Z</time>
      </trkpt>
      <trkpt lat="45.53501" lon="5.93946">
        <ele>532.71</ele>
        <time>2011-05-22T10:30:20Z</time>
      </trkpt>
      <trkpt lat="45.53502" lon="5.93944">
        <ele>533.67</ele>
        <time>2011-05-22T10:30:21Z</time>
      </trkpt>
      <trkpt lat="45.53503" lon="5.93942">
        <ele>533.67</ele>
        <time>2011-05-22T10:30:22Z</time>
      </trkpt>
      <trkpt lat="45.53503" lon="5.9394">
        <ele>534.15</ele>
        <time>2011-05-22T10:30:23Z</time>
      </trkpt>
      <trkpt lat="45.53504" lon="5.93938">
        <ele>533.67</ele>
        <time>2011-05-22T10:30:24Z</time>
      </trkpt>
      <trkpt lat="45.53505" lon="5.93936">
        <ele>533.67</ele>
        <time>2011-05-22T10:30:25Z</time>
      </trkpt>
      <trkpt lat="45.5351" lon="5.93926">
        <ele>536.55</ele>
        <time>2011-05-22T10:30:31Z</time>
      </trkpt>
      <trkpt lat="45.53519" lon="5.93915">
        <ele>537.51</ele>
        <time>2011-05-22T10:30:40Z</time>
      </trkpt>
      <trkpt lat="45.5352" lon="5.93914">
        <ele>537.51</ele>
        <time>2011-05-22T10:30:41Z</time>
      </trkpt>
      <trkpt lat="45.53521" lon="5.93912">
        <ele>537.51</ele>
        <time>2011-05-22T10:30:42Z</time>
      </trkpt>
      <trkpt lat="45.53531" lon="5.93903">
        <ele>538.48</ele>
        <time>2011-05-22T10:30:51Z</time>
      </trkpt>
      <trkpt lat="45.53532" lon="5.93901">
        <ele>538.96</ele>
        <time>2011-05-22T10:30:52Z</time>
      </trkpt>
      <trkpt lat="45.53534" lon="5.939">
        <ele>539.44</ele>
        <time>2011-05-22T10:30:53Z</time>
      </trkpt>
      <trkpt lat="45.53535" lon="5.93899">
        <ele>539.44</ele>
        <time>2011-05-22T10:30:54Z</time>
      </trkpt>
      <trkpt lat="45.53536" lon="5.93897">
        <ele>539.92</ele>
        <time>2011-05-22T10:30:55Z</time>
      </trkpt>
      <trkpt lat="45.53549" lon="5.93885">
        <ele>542.32</ele>
        <time>2011-05-22T10:31:09Z</time>
      </trkpt>
      <trkpt lat="45.53563" lon="5.93875">
        <ele>544.24</ele>
        <time>2011-05-22T10:31:22Z</time>
      </trkpt>
      <trkpt lat="45.53564" lon="5.93874">
        <ele>543.76</ele>
        <time>2011-05-22T10:31:23Z</time>
      </trkpt>
      <trkpt lat="45.53565" lon="5.93873">
        <ele>544.72</ele>
        <time>2011-05-22T10:31:24Z</time>
      </trkpt>
      <trkpt lat="45.53566" lon="5.93872">
        <ele>544.24</ele>
        <time>2011-05-22T10:31:25Z</time>
      </trkpt>
      <trkpt lat="45.53567" lon="5.93871">
        <ele>544.72</ele>
        <time>2011-05-22T10:31:26Z</time>
      </trkpt>
      <trkpt lat="45.53568" lon="5.9387">
        <ele>545.2</ele>
        <time>2011-05-22T10:31:27Z</time>
      </trkpt>
      <trkpt lat="45.53569" lon="5.93869">
        <ele>545.69</ele>
        <time>2011-05-22T10:31:28Z</time>
      </trkpt>
      <trkpt lat="45.5357" lon="5.93869">
        <ele>545.69</ele>
        <time>2011-05-22T10:31:29Z</time>
      </trkpt>
      <trkpt lat="45.53571" lon="5.93869">
        <ele>546.17</ele>
        <time>2011-05-22T10:31:30Z</time>
      </trkpt>
      <trkpt lat="45.53573" lon="5.93869">
        <ele>546.65</ele>
        <time>2011-05-22T10:31:31Z</time>
      </trkpt>
      <trkpt lat="45.53579" lon="5.93865">
        <ele>547.61</ele>
        <time>2011-05-22T10:31:37Z</time>
      </trkpt>
      <trkpt lat="45.5358" lon="5.93864">
        <ele>548.09</ele>
        <time>2011-05-22T10:31:38Z</time>
      </trkpt>
      <trkpt lat="45.53584" lon="5.9386">
        <ele>548.57</ele>
        <time>2011-05-22T10:31:42Z</time>
      </trkpt>
      <trkpt lat="45.53585" lon="5.9386">
        <ele>548.57</ele>
        <time>2011-05-22T10:31:43Z</time>
      </trkpt>
      <trkpt lat="45.53586" lon="5.93859">
        <ele>549.05</ele>
        <time>2011-05-22T10:31:44Z</time>
      </trkpt>
      <trkpt lat="45.53587" lon="5.93858">
        <ele>548.09</ele>
        <time>2011-05-22T10:31:45Z</time>
      </trkpt>
      <trkpt lat="45.53588" lon="5.93857">
        <ele>548.57</ele>
        <time>2011-05-22T10:31:46Z</time>
      </trkpt>
      <trkpt lat="45.536" lon="5.93847">
        <ele>551.45</ele>
        <time>2011-05-22T10:31:58Z</time>
      </trkpt>
      <trkpt lat="45.53601" lon="5.93842">
        <ele>553.38</ele>
        <time>2011-05-22T10:32:05Z</time>
      </trkpt>
      <trkpt lat="45.536" lon="5.93841">
        <ele>553.38</ele>
        <time>2011-05-22T10:32:06Z</time>
      </trkpt>
      <trkpt lat="45.53598" lon="5.93837">
        <ele>553.38</ele>
        <time>2011-05-22T10:32:22Z</time>
      </trkpt>
      <trkpt lat="45.53589" lon="5.93833">
        <ele>555.78</ele>
        <time>2011-05-22T10:32:36Z</time>
      </trkpt>
      <trkpt lat="45.53583" lon="5.9383">
        <ele>556.26</ele>
        <time>2011-05-22T10:32:50Z</time>
      </trkpt>
      <trkpt lat="45.53583" lon="5.9383">
        <ele>556.26</ele>
        <time>2011-05-22T10:33:27Z</time>
      </trkpt>
      <trkpt lat="45.53583" lon="5.9383">
        <ele>556.74</ele>
        <time>2011-05-22T10:34:04Z</time>
      </trkpt>
      <trkpt lat="45.53581" lon="5.9383">
        <ele>556.74</ele>
        <time>2011-05-22T10:34:11Z</time>
      </trkpt>
      <trkpt lat="45.53575" lon="5.93827">
        <ele>558.18</ele>
        <time>2011-05-22T10:34:15Z</time>
      </trkpt>
      <trkpt lat="45.53554" lon="5.93817">
        <ele>561.07</ele>
        <time>2011-05-22T10:34:31Z</time>
      </trkpt>
      <trkpt lat="45.53552" lon="5.93816">
        <ele>562.03</ele>
        <time>2011-05-22T10:34:33Z</time>
      </trkpt>
      <trkpt lat="45.53545" lon="5.9381">
        <ele>563.47</ele>
        <time>2011-05-22T10:34:47Z</time>
      </trkpt>
      <trkpt lat="45.53543" lon="5.93804">
        <ele>564.43</ele>
        <time>2011-05-22T10:35:03Z</time>
      </trkpt>
      <trkpt lat="45.53544" lon="5.93794">
        <ele>566.35</ele>
        <time>2011-05-22T10:35:17Z</time>
      </trkpt>
      <trkpt lat="45.53547" lon="5.9378">
        <ele>569.72</ele>
        <time>2011-05-22T10:35:32Z</time>
      </trkpt>
      <trkpt lat="45.53552" lon="5.93775">
        <ele>570.68</ele>
        <time>2011-05-22T10:35:39Z</time>
      </trkpt>
      <trkpt lat="45.53556" lon="5.93771">
        <ele>572.12</ele>
        <time>2011-05-22T10:35:54Z</time>
      </trkpt>
      <trkpt lat="45.53556" lon="5.93771">
        <ele>572.6</ele>
        <time>2011-05-22T10:36:26Z</time>
      </trkpt>
      <trkpt lat="45.53556" lon="5.93771">
        <ele>573.08</ele>
        <time>2011-05-22T10:37:02Z</time>
      </trkpt>
      <trkpt lat="45.53556" lon="5.93771">
        <ele>573.08</ele>
        <time>2011-05-22T10:37:39Z</time>
      </trkpt>
      <trkpt lat="45.53556" lon="5.93771">
        <ele>573.08</ele>
        <time>2011-05-22T10:38:14Z</time>
      </trkpt>
      <trkpt lat="45.5356" lon="5.93766">
        <ele>574.53</ele>
        <time>2011-05-22T10:38:39Z</time>
      </trkpt>
      <trkpt lat="45.53565" lon="5.9376">
        <ele>575.01</ele>
        <time>2011-05-22T10:38:54Z</time>
      </trkpt>
      <trkpt lat="45.53566" lon="5.93759">
        <ele>575.01</ele>
        <time>2011-05-22T10:38:55Z</time>
      </trkpt>
      <trkpt lat="45.53581" lon="5.93749">
        <ele>578.37</ele>
        <time>2011-05-22T10:39:07Z</time>
      </trkpt>
      <trkpt lat="45.53588" lon="5.93738">
        <ele>580.77</ele>
        <time>2011-05-22T10:39:18Z</time>
      </trkpt>
      <trkpt lat="45.53597" lon="5.93729">
        <ele>582.7</ele>
        <time>2011-05-22T10:39:28Z</time>
      </trkpt>
      <trkpt lat="45.53597" lon="5.93728">
        <ele>582.7</ele>
        <time>2011-05-22T10:39:29Z</time>
      </trkpt>
      <trkpt lat="45.53598" lon="5.93727">
        <ele>582.7</ele>
        <time>2011-05-22T10:39:30Z</time>
      </trkpt>
      <trkpt lat="45.5361" lon="5.93713">
        <ele>586.06</ele>
        <time>2011-05-22T10:39:44Z</time>
      </trkpt>
      <trkpt lat="45.53611" lon="5.93712">
        <ele>586.54</ele>
        <time>2011-05-22T10:39:45Z</time>
      </trkpt>
      <trkpt lat="45.53612" lon="5.93712">
        <ele>586.54</ele>
        <time>2011-05-22T10:39:46Z</time>
      </trkpt>
      <trkpt lat="45.53625" lon="5.93701">
        <ele>588.95</ele>
        <time>2011-05-22T10:40:00Z</time>
      </trkpt>
      <trkpt lat="45.53626" lon="5.93699">
        <ele>589.91</ele>
        <time>2011-05-22T10:40:02Z</time>
      </trkpt>
      <trkpt lat="45.53635" lon="5.93691">
        <ele>591.35</ele>
        <time>2011-05-22T10:40:11Z</time>
      </trkpt>
      <trkpt lat="45.53637" lon="5.9369">
        <ele>591.35</ele>
        <time>2011-05-22T10:40:12Z</time>
      </trkpt>
      <trkpt lat="45.53645" lon="5.93673">
        <ele>595.19</ele>
        <time>2011-05-22T10:40:26Z</time>
      </trkpt>
      <trkpt lat="45.53653" lon="5.93667">
        <ele>596.64</ele>
        <time>2011-05-22T10:40:35Z</time>
      </trkpt>
      <trkpt lat="45.53654" lon="5.93666">
        <ele>597.12</ele>
        <time>2011-05-22T10:40:36Z</time>
      </trkpt>
      <trkpt lat="45.53655" lon="5.93665">
        <ele>597.6</ele>
        <time>2011-05-22T10:40:37Z</time>
      </trkpt>
      <trkpt lat="45.53659" lon="5.93663">
        <ele>597.6</ele>
        <time>2011-05-22T10:40:41Z</time>
      </trkpt>
      <trkpt lat="45.5366" lon="5.93662">
        <ele>598.56</ele>
        <time>2011-05-22T10:40:42Z</time>
      </trkpt>
      <trkpt lat="45.53662" lon="5.9366">
        <ele>598.56</ele>
        <time>2011-05-22T10:40:44Z</time>
      </trkpt>
      <trkpt lat="45.53674" lon="5.93642">
        <ele>601.92</ele>
        <time>2011-05-22T10:40:59Z</time>
      </trkpt>
      <trkpt lat="45.53677" lon="5.93637">
        <ele>602.4</ele>
        <time>2011-05-22T10:41:04Z</time>
      </trkpt>
      <trkpt lat="45.53677" lon="5.93636">
        <ele>602.88</ele>
        <time>2011-05-22T10:41:05Z</time>
      </trkpt>
      <trkpt lat="45.53685" lon="5.93616">
        <ele>606.25</ele>
        <time>2011-05-22T10:41:20Z</time>
      </trkpt>
      <trkpt lat="45.53686" lon="5.93615">
        <ele>606.73</ele>
        <time>2011-05-22T10:41:21Z</time>
      </trkpt>
      <trkpt lat="45.53687" lon="5.93614">
        <ele>607.21</ele>
        <time>2011-05-22T10:41:22Z</time>
      </trkpt>
      <trkpt lat="45.53688" lon="5.93613">
        <ele>607.69</ele>
        <time>2011-05-22T10:41:23Z</time>
      </trkpt>
      <trkpt lat="45.53688" lon="5.93612">
        <ele>607.21</ele>
        <time>2011-05-22T10:41:24Z</time>
      </trkpt>
      <trkpt lat="45.53689" lon="5.9361">
        <ele>608.17</ele>
        <time>2011-05-22T10:41:25Z</time>
      </trkpt>
      <trkpt lat="45.53689" lon="5.93608">
        <ele>607.69</ele>
        <time>2011-05-22T10:41:26Z</time>
      </trkpt>
      <trkpt lat="45.5369" lon="5.93607">
        <ele>607.69</ele>
        <time>2011-05-22T10:41:27Z</time>
      </trkpt>
      <trkpt lat="45.53696" lon="5.93592">
        <ele>610.57</ele>
        <time>2011-05-22T10:41:38Z</time>
      </trkpt>
      <trkpt lat="45.53697" lon="5.9359">
        <ele>610.57</ele>
        <time>2011-05-22T10:41:39Z</time>
      </trkpt>
      <trkpt lat="45.53697" lon="5.93588">
        <ele>611.06</ele>
        <time>2011-05-22T10:41:40Z</time>
      </trkpt>
      <trkpt lat="45.53697" lon="5.93587">
        <ele>611.54</ele>
        <time>2011-05-22T10:41:41Z</time>
      </trkpt>
      <trkpt lat="45.53698" lon="5.93585">
        <ele>612.02</ele>
        <time>2011-05-22T10:41:42Z</time>
      </trkpt>
      <trkpt lat="45.53698" lon="5.93583">
        <ele>612.02</ele>
        <time>2011-05-22T10:41:43Z</time>
      </trkpt>
      <trkpt lat="45.53698" lon="5.93582">
        <ele>612.02</ele>
        <time>2011-05-22T10:41:44Z</time>
      </trkpt>
      <trkpt lat="45.53698" lon="5.9358">
        <ele>612.02</ele>
        <time>2011-05-22T10:41:45Z</time>
      </trkpt>
      <trkpt lat="45.53698" lon="5.93578">
        <ele>612.5</ele>
        <time>2011-05-22T10:41:46Z</time>
      </trkpt>
      <trkpt lat="45.53698" lon="5.93577">
        <ele>612.98</ele>
        <time>2011-05-22T10:41:47Z</time>
      </trkpt>
      <trkpt lat="45.537" lon="5.93567">
        <ele>613.94</ele>
        <time>2011-05-22T10:41:53Z</time>
      </trkpt>
      <trkpt lat="45.537" lon="5.93565">
        <ele>614.42</ele>
        <time>2011-05-22T10:41:54Z</time>
      </trkpt>
      <trkpt lat="45.53699" lon="5.93562">
        <ele>614.9</ele>
        <time>2011-05-22T10:41:56Z</time>
      </trkpt>
      <trkpt lat="45.53698" lon="5.9356">
        <ele>614.9</ele>
        <time>2011-05-22T10:41:57Z</time>
      </trkpt>
      <trkpt lat="45.53698" lon="5.93558">
        <ele>615.38</ele>
        <time>2011-05-22T10:41:58Z</time>
      </trkpt>
      <trkpt lat="45.53697" lon="5.93556">
        <ele>616.34</ele>
        <time>2011-05-22T10:41:59Z</time>
      </trkpt>
      <trkpt lat="45.53696" lon="5.93554">
        <ele>615.86</ele>
        <time>2011-05-22T10:42:00Z</time>
      </trkpt>
      <trkpt lat="45.53696" lon="5.93553">
        <ele>615.86</ele>
        <time>2011-05-22T10:42:01Z</time>
      </trkpt>
      <trkpt lat="45.53695" lon="5.93552">
        <ele>616.82</ele>
        <time>2011-05-22T10:42:02Z</time>
      </trkpt>
      <trkpt lat="45.53695" lon="5.9355">
        <ele>616.82</ele>
        <time>2011-05-22T10:42:03Z</time>
      </trkpt>
      <trkpt lat="45.53694" lon="5.93549">
        <ele>616.82</ele>
        <time>2011-05-22T10:42:04Z</time>
      </trkpt>
      <trkpt lat="45.53693" lon="5.93537">
        <ele>618.26</ele>
        <time>2011-05-22T10:42:18Z</time>
      </trkpt>
      <trkpt lat="45.53693" lon="5.93536">
        <ele>618.26</ele>
        <time>2011-05-22T10:42:40Z</time>
      </trkpt>
      <trkpt lat="45.5369" lon="5.93528">
        <ele>615.86</ele>
        <time>2011-05-22T10:42:52Z</time>
      </trkpt>
      <trkpt lat="45.53689" lon="5.93526">
        <ele>614.9</ele>
        <time>2011-05-22T10:42:53Z</time>
      </trkpt>
      <trkpt lat="45.53689" lon="5.93521">
        <ele>614.42</ele>
        <time>2011-05-22T10:42:55Z</time>
      </trkpt>
      <trkpt lat="45.53688" lon="5.93509">
        <ele>610.57</ele>
        <time>2011-05-22T10:42:58Z</time>
      </trkpt>
      <trkpt lat="45.53688" lon="5.93488">
        <ele>606.73</ele>
        <time>2011-05-22T10:43:02Z</time>
      </trkpt>
      <trkpt lat="45.53692" lon="5.93468">
        <ele>603.85</ele>
        <time>2011-05-22T10:43:07Z</time>
      </trkpt>
      <trkpt lat="45.53693" lon="5.93456">
        <ele>600.48</ele>
        <time>2011-05-22T10:43:10Z</time>
      </trkpt>
      <trkpt lat="45.53694" lon="5.93452">
        <ele>599.52</ele>
        <time>2011-05-22T10:43:11Z</time>
      </trkpt>
      <trkpt lat="45.53703" lon="5.93435">
        <ele>595.67</ele>
        <time>2011-05-22T10:43:20Z</time>
      </trkpt>
      <trkpt lat="45.53713" lon="5.93445">
        <ele>593.75</ele>
        <time>2011-05-22T10:43:25Z</time>
      </trkpt>
      <trkpt lat="45.53714" lon="5.93447">
        <ele>592.31</ele>
        <time>2011-05-22T10:43:27Z</time>
      </trkpt>
      <trkpt lat="45.53716" lon="5.93449">
        <ele>591.83</ele>
        <time>2011-05-22T10:43:28Z</time>
      </trkpt>
      <trkpt lat="45.53717" lon="5.9345">
        <ele>591.35</ele>
        <time>2011-05-22T10:43:29Z</time>
      </trkpt>
      <trkpt lat="45.53722" lon="5.93455">
        <ele>587.98</ele>
        <time>2011-05-22T10:43:33Z</time>
      </trkpt>
      <trkpt lat="45.53736" lon="5.9346">
        <ele>585.1</ele>
        <time>2011-05-22T10:43:37Z</time>
      </trkpt>
      <trkpt lat="45.53746" lon="5.9346">
        <ele>583.66</ele>
        <time>2011-05-22T10:43:39Z</time>
      </trkpt>
      <trkpt lat="45.53752" lon="5.93461">
        <ele>582.22</ele>
        <time>2011-05-22T10:43:41Z</time>
      </trkpt>
      <trkpt lat="45.53771" lon="5.93464">
        <ele>578.85</ele>
        <time>2011-05-22T10:43:47Z</time>
      </trkpt>
      <trkpt lat="45.53781" lon="5.93465">
        <ele>578.85</ele>
        <time>2011-05-22T10:43:52Z</time>
      </trkpt>
      <trkpt lat="45.53781" lon="5.93465">
        <ele>579.33</ele>
        <time>2011-05-22T10:44:25Z</time>
      </trkpt>
      <trkpt lat="45.53782" lon="5.93466">
        <ele>580.29</ele>
        <time>2011-05-22T10:44:57Z</time>
      </trkpt>
      <trkpt lat="45.53779" lon="5.93467">
        <ele>580.77</ele>
        <time>2011-05-22T10:45:31Z</time>
      </trkpt>
      <trkpt lat="45.53781" lon="5.93469">
        <ele>577.41</ele>
        <time>2011-05-22T10:45:50Z</time>
      </trkpt>
      <trkpt lat="45.53787" lon="5.93475">
        <ele>575.01</ele>
        <time>2011-05-22T10:45:53Z</time>
      </trkpt>
      <trkpt lat="45.53793" lon="5.93484">
        <ele>573.56</ele>
        <time>2011-05-22T10:45:56Z</time>
      </trkpt>
      <trkpt lat="45.53799" lon="5.93493">
        <ele>570.2</ele>
        <time>2011-05-22T10:46:01Z</time>
      </trkpt>
      <trkpt lat="45.53802" lon="5.93499">
        <ele>567.32</ele>
        <time>2011-05-22T10:46:05Z</time>
      </trkpt>
      <trkpt lat="45.53803" lon="5.93501">
        <ele>566.35</ele>
        <time>2011-05-22T10:46:06Z</time>
      </trkpt>
      <trkpt lat="45.53806" lon="5.93503">
        <ele>562.99</ele>
        <time>2011-05-22T10:46:09Z</time>
      </trkpt>
      <trkpt lat="45.5383" lon="5.9351">
        <ele>559.62</ele>
        <time>2011-05-22T10:46:13Z</time>
      </trkpt>
      <trkpt lat="45.53862" lon="5.93516">
        <ele>556.74</ele>
        <time>2011-05-22T10:46:17Z</time>
      </trkpt>
      <trkpt lat="45.53873" lon="5.93519">
        <ele>552.9</ele>
        <time>2011-05-22T10:46:21Z</time>
      </trkpt>
      <trkpt lat="45.53878" lon="5.93523">
        <ele>551.45</ele>
        <time>2011-05-22T10:46:24Z</time>
      </trkpt>
      <trkpt lat="45.53882" lon="5.93525">
        <ele>550.49</ele>
        <time>2011-05-22T10:46:26Z</time>
      </trkpt>
      <trkpt lat="45.53885" lon="5.93529">
        <ele>548.57</ele>
        <time>2011-05-22T10:46:28Z</time>
      </trkpt>
      <trkpt lat="45.53892" lon="5.93531">
        <ele>544.72</ele>
        <time>2011-05-22T10:46:32Z</time>
      </trkpt>
      <trkpt lat="45.53898" lon="5.93529">
        <ele>541.36</ele>
        <time>2011-05-22T10:46:35Z</time>
      </trkpt>
      <trkpt lat="45.53899" lon="5.93529">
        <ele>540.4</ele>
        <time>2011-05-22T10:46:36Z</time>
      </trkpt>
      <trkpt lat="45.53914" lon="5.93531">
        <ele>537.51</ele>
        <time>2011-05-22T10:46:41Z</time>
      </trkpt>
      <trkpt lat="45.53923" lon="5.93531">
        <ele>533.67</ele>
        <time>2011-05-22T10:46:48Z</time>
      </trkpt>
      <trkpt lat="45.53933" lon="5.9353">
        <ele>531.75</ele>
        <time>2011-05-22T10:46:52Z</time>
      </trkpt>
      <trkpt lat="45.5394" lon="5.93529">
        <ele>529.34</ele>
        <time>2011-05-22T10:46:54Z</time>
      </trkpt>
      <trkpt lat="45.53944" lon="5.93528">
        <ele>528.38</ele>
        <time>2011-05-22T10:46:55Z</time>
      </trkpt>
      <trkpt lat="45.53957" lon="5.93528">
        <ele>524.06</ele>
        <time>2011-05-22T10:46:58Z</time>
      </trkpt>
      <trkpt lat="45.53969" lon="5.9353">
        <ele>521.17</ele>
        <time>2011-05-22T10:47:01Z</time>
      </trkpt>
      <trkpt lat="45.53983" lon="5.93538">
        <ele>517.81</ele>
        <time>2011-05-22T10:47:04Z</time>
      </trkpt>
      <trkpt lat="45.53989" lon="5.93541">
        <ele>516.37</ele>
        <time>2011-05-22T10:47:05Z</time>
      </trkpt>
      <trkpt lat="45.53994" lon="5.93544">
        <ele>515.4</ele>
        <time>2011-05-22T10:47:06Z</time>
      </trkpt>
      <trkpt lat="45.54006" lon="5.93552">
        <ele>513.96</ele>
        <time>2011-05-22T10:47:08Z</time>
      </trkpt>
      <trkpt lat="45.54012" lon="5.93558">
        <ele>513</ele>
        <time>2011-05-22T10:47:09Z</time>
      </trkpt>
      <trkpt lat="45.54018" lon="5.93564">
        <ele>512.04</ele>
        <time>2011-05-22T10:47:10Z</time>
      </trkpt>
      <trkpt lat="45.54028" lon="5.93574">
        <ele>510.12</ele>
        <time>2011-05-22T10:47:11Z</time>
      </trkpt>
      <trkpt lat="45.54031" lon="5.93578">
        <ele>510.12</ele>
        <time>2011-05-22T10:47:12Z</time>
      </trkpt>
      <trkpt lat="45.54051" lon="5.93601">
        <ele>507.71</ele>
        <time>2011-05-22T10:47:15Z</time>
      </trkpt>
      <trkpt lat="45.54057" lon="5.93605">
        <ele>507.71</ele>
        <time>2011-05-22T10:47:16Z</time>
      </trkpt>
      <trkpt lat="45.54063" lon="5.93609">
        <ele>507.23</ele>
        <time>2011-05-22T10:47:17Z</time>
      </trkpt>
      <trkpt lat="45.54078" lon="5.93614">
        <ele>504.83</ele>
        <time>2011-05-22T10:47:19Z</time>
      </trkpt>
      <trkpt lat="45.54082" lon="5.93615">
        <ele>503.39</ele>
        <time>2011-05-22T10:47:20Z</time>
      </trkpt>
      <trkpt lat="45.54101" lon="5.93624">
        <ele>501.95</ele>
        <time>2011-05-22T10:47:22Z</time>
      </trkpt>
      <trkpt lat="45.54113" lon="5.93631">
        <ele>500.5</ele>
        <time>2011-05-22T10:47:24Z</time>
      </trkpt>
      <trkpt lat="45.54137" lon="5.93643">
        <ele>498.1</ele>
        <time>2011-05-22T10:47:28Z</time>
      </trkpt>
      <trkpt lat="45.5414" lon="5.93642">
        <ele>497.14</ele>
        <time>2011-05-22T10:47:29Z</time>
      </trkpt>
      <trkpt lat="45.54144" lon="5.93639">
        <ele>495.7</ele>
        <time>2011-05-22T10:47:30Z</time>
      </trkpt>
      <trkpt lat="45.54149" lon="5.93633">
        <ele>494.74</ele>
        <time>2011-05-22T10:47:31Z</time>
      </trkpt>
      <trkpt lat="45.54162" lon="5.93622">
        <ele>492.33</ele>
        <time>2011-05-22T10:47:34Z</time>
      </trkpt>
      <trkpt lat="45.5416" lon="5.93619">
        <ele>491.37</ele>
        <time>2011-05-22T10:47:35Z</time>
      </trkpt>
      <trkpt lat="45.54157" lon="5.93617">
        <ele>491.37</ele>
        <time>2011-05-22T10:47:36Z</time>
      </trkpt>
      <trkpt lat="45.54139" lon="5.93622">
        <ele>491.37</ele>
        <time>2011-05-22T10:47:46Z</time>
      </trkpt>
      <trkpt lat="45.5413" lon="5.93611">
        <ele>490.89</ele>
        <time>2011-05-22T10:47:54Z</time>
      </trkpt>
      <trkpt lat="45.54134" lon="5.93596">
        <ele>489.93</ele>
        <time>2011-05-22T10:47:59Z</time>
      </trkpt>
      <trkpt lat="45.54131" lon="5.93593">
        <ele>489.93</ele>
        <time>2011-05-22T10:48:00Z</time>
      </trkpt>
      <trkpt lat="45.54129" lon="5.93591">
        <ele>489.93</ele>
        <time>2011-05-22T10:48:01Z</time>
      </trkpt>
      <trkpt lat="45.54128" lon="5.93589">
        <ele>489.93</ele>
        <time>2011-05-22T10:48:02Z</time>
      </trkpt>
      <trkpt lat="45.54126" lon="5.93588">
        <ele>489.93</ele>
        <time>2011-05-22T10:48:03Z</time>
      </trkpt>
      <trkpt lat="45.54107" lon="5.93568">
        <ele>491.85</ele>
        <time>2011-05-22T10:48:17Z</time>
      </trkpt>
      <trkpt lat="45.54085" lon="5.93539">
        <ele>492.81</ele>
        <time>2011-05-22T10:48:31Z</time>
      </trkpt>
      <trkpt lat="45.54059" lon="5.93504">
        <ele>495.22</ele>
        <time>2011-05-22T10:48:47Z</time>
      </trkpt>
      <trkpt lat="45.54043" lon="5.93485">
        <ele>497.14</ele>
        <time>2011-05-22T10:48:56Z</time>
      </trkpt>
      <trkpt lat="45.54005" lon="5.93439">
        <ele>499.06</ele>
        <time>2011-05-22T10:49:16Z</time>
      </trkpt>
      <trkpt lat="45.53983" lon="5.93404">
        <ele>502.43</ele>
        <time>2011-05-22T10:49:31Z</time>
      </trkpt>
      <trkpt lat="45.53967" lon="5.93369">
        <ele>504.83</ele>
        <time>2011-05-22T10:49:46Z</time>
      </trkpt>
      <trkpt lat="45.53961" lon="5.93326">
        <ele>506.27</ele>
        <time>2011-05-22T10:50:01Z</time>
      </trkpt>
      <trkpt lat="45.5398" lon="5.93273">
        <ele>509.16</ele>
        <time>2011-05-22T10:50:17Z</time>
      </trkpt>
      <trkpt lat="45.5401" lon="5.93252">
        <ele>512.04</ele>
        <time>2011-05-22T10:50:32Z</time>
      </trkpt>
      <trkpt lat="45.54037" lon="5.93242">
        <ele>514.44</ele>
        <time>2011-05-22T10:50:45Z</time>
      </trkpt>
      <trkpt lat="45.54062" lon="5.93251">
        <ele>515.4</ele>
        <time>2011-05-22T10:50:57Z</time>
      </trkpt>
      <trkpt lat="45.54068" lon="5.93244">
        <ele>515.88</ele>
        <time>2011-05-22T10:51:01Z</time>
      </trkpt>
      <trkpt lat="45.54068" lon="5.93241">
        <ele>516.37</ele>
        <time>2011-05-22T10:51:02Z</time>
      </trkpt>
      <trkpt lat="45.54068" lon="5.93238">
        <ele>516.37</ele>
        <time>2011-05-22T10:51:03Z</time>
      </trkpt>
      <trkpt lat="45.54067" lon="5.93235">
        <ele>516.85</ele>
        <time>2011-05-22T10:51:04Z</time>
      </trkpt>
      <trkpt lat="45.54066" lon="5.93232">
        <ele>516.85</ele>
        <time>2011-05-22T10:51:05Z</time>
      </trkpt>
      <trkpt lat="45.54065" lon="5.93229">
        <ele>517.33</ele>
        <time>2011-05-22T10:51:06Z</time>
      </trkpt>
      <trkpt lat="45.54063" lon="5.93227">
        <ele>517.33</ele>
        <time>2011-05-22T10:51:07Z</time>
      </trkpt>
      <trkpt lat="45.54062" lon="5.93225">
        <ele>517.33</ele>
        <time>2011-05-22T10:51:08Z</time>
      </trkpt>
      <trkpt lat="45.5406" lon="5.93224">
        <ele>517.33</ele>
        <time>2011-05-22T10:51:09Z</time>
      </trkpt>
      <trkpt lat="45.54058" lon="5.93223">
        <ele>517.33</ele>
        <time>2011-05-22T10:51:10Z</time>
      </trkpt>
      <trkpt lat="45.54056" lon="5.93222">
        <ele>517.81</ele>
        <time>2011-05-22T10:51:11Z</time>
      </trkpt>
      <trkpt lat="45.54054" lon="5.93222">
        <ele>517.81</ele>
        <time>2011-05-22T10:51:12Z</time>
      </trkpt>
      <trkpt lat="45.54052" lon="5.93221">
        <ele>517.81</ele>
        <time>2011-05-22T10:51:13Z</time>
      </trkpt>
      <trkpt lat="45.5405" lon="5.9322">
        <ele>518.29</ele>
        <time>2011-05-22T10:51:14Z</time>
      </trkpt>
      <trkpt lat="45.54017" lon="5.9321">
        <ele>521.17</ele>
        <time>2011-05-22T10:51:30Z</time>
      </trkpt>
      <trkpt lat="45.53988" lon="5.93198">
        <ele>524.54</ele>
        <time>2011-05-22T10:51:45Z</time>
      </trkpt>
      <trkpt lat="45.53955" lon="5.93176">
        <ele>527.42</ele>
        <time>2011-05-22T10:52:02Z</time>
      </trkpt>
      <trkpt lat="45.53928" lon="5.9315">
        <ele>530.3</ele>
        <time>2011-05-22T10:52:18Z</time>
      </trkpt>
      <trkpt lat="45.53908" lon="5.93134">
        <ele>532.71</ele>
        <time>2011-05-22T10:52:31Z</time>
      </trkpt>
      <trkpt lat="45.53889" lon="5.93116">
        <ele>535.11</ele>
        <time>2011-05-22T10:52:44Z</time>
      </trkpt>
      <trkpt lat="45.53864" lon="5.93091">
        <ele>537.99</ele>
        <time>2011-05-22T10:52:59Z</time>
      </trkpt>
      <trkpt lat="45.53846" lon="5.9307">
        <ele>540.4</ele>
        <time>2011-05-22T10:53:11Z</time>
      </trkpt>
      <trkpt lat="45.53845" lon="5.93069">
        <ele>540.4</ele>
        <time>2011-05-22T10:53:12Z</time>
      </trkpt>
      <trkpt lat="45.53843" lon="5.93068">
        <ele>540.4</ele>
        <time>2011-05-22T10:53:13Z</time>
      </trkpt>
      <trkpt lat="45.53841" lon="5.93067">
        <ele>540.4</ele>
        <time>2011-05-22T10:53:14Z</time>
      </trkpt>
      <trkpt lat="45.53839" lon="5.93067">
        <ele>540.88</ele>
        <time>2011-05-22T10:53:15Z</time>
      </trkpt>
      <trkpt lat="45.53837" lon="5.93067">
        <ele>540.88</ele>
        <time>2011-05-22T10:53:16Z</time>
      </trkpt>
      <trkpt lat="45.53835" lon="5.93068">
        <ele>541.36</ele>
        <time>2011-05-22T10:53:17Z</time>
      </trkpt>
      <trkpt lat="45.53808" lon="5.93091">
        <ele>543.76</ele>
        <time>2011-05-22T10:53:33Z</time>
      </trkpt>
      <trkpt lat="45.53789" lon="5.93105">
        <ele>546.17</ele>
        <time>2011-05-22T10:53:45Z</time>
      </trkpt>
      <trkpt lat="45.53787" lon="5.93077">
        <ele>547.61</ele>
        <time>2011-05-22T10:53:57Z</time>
      </trkpt>
      <trkpt lat="45.53806" lon="5.93031">
        <ele>549.53</ele>
        <time>2011-05-22T10:54:12Z</time>
      </trkpt>
      <trkpt lat="45.53827" lon="5.93004">
        <ele>551.45</ele>
        <time>2011-05-22T10:54:25Z</time>
      </trkpt>
      <trkpt lat="45.53854" lon="5.92987">
        <ele>555.3</ele>
        <time>2011-05-22T10:54:38Z</time>
      </trkpt>
      <trkpt lat="45.53883" lon="5.92977">
        <ele>556.26</ele>
        <time>2011-05-22T10:54:52Z</time>
      </trkpt>
      <trkpt lat="45.53912" lon="5.92975">
        <ele>559.14</ele>
        <time>2011-05-22T10:55:06Z</time>
      </trkpt>
      <trkpt lat="45.53944" lon="5.92973">
        <ele>560.59</ele>
        <time>2011-05-22T10:55:21Z</time>
      </trkpt>
      <trkpt lat="45.53976" lon="5.92962">
        <ele>564.43</ele>
        <time>2011-05-22T10:55:36Z</time>
      </trkpt>
      <trkpt lat="45.53992" lon="5.92965">
        <ele>564.91</ele>
        <time>2011-05-22T10:55:43Z</time>
      </trkpt>
      <trkpt lat="45.54023" lon="5.9296">
        <ele>566.35</ele>
        <time>2011-05-22T10:55:58Z</time>
      </trkpt>
      <trkpt lat="45.54023" lon="5.92927">
        <ele>568.28</ele>
        <time>2011-05-22T10:56:08Z</time>
      </trkpt>
      <trkpt lat="45.53993" lon="5.92912">
        <ele>570.2</ele>
        <time>2011-05-22T10:56:22Z</time>
      </trkpt>
      <trkpt lat="45.53955" lon="5.92906">
        <ele>573.56</ele>
        <time>2011-05-22T10:56:40Z</time>
      </trkpt>
      <trkpt lat="45.53925" lon="5.92891">
        <ele>576.45</ele>
        <time>2011-05-22T10:56:55Z</time>
      </trkpt>
      <trkpt lat="45.53901" lon="5.92875">
        <ele>578.85</ele>
        <time>2011-05-22T10:57:08Z</time>
      </trkpt>
      <trkpt lat="45.53871" lon="5.92857">
        <ele>581.73</ele>
        <time>2011-05-22T10:57:24Z</time>
      </trkpt>
      <trkpt lat="45.53836" lon="5.92844">
        <ele>584.14</ele>
        <time>2011-05-22T10:57:41Z</time>
      </trkpt>
      <trkpt lat="45.53806" lon="5.92837">
        <ele>587.5</ele>
        <time>2011-05-22T10:57:55Z</time>
      </trkpt>
      <trkpt lat="45.53774" lon="5.92826">
        <ele>589.91</ele>
        <time>2011-05-22T10:58:11Z</time>
      </trkpt>
      <trkpt lat="45.53745" lon="5.92817">
        <ele>592.31</ele>
        <time>2011-05-22T10:58:26Z</time>
      </trkpt>
      <trkpt lat="45.53711" lon="5.92806">
        <ele>595.67</ele>
        <time>2011-05-22T10:58:43Z</time>
      </trkpt>
      <trkpt lat="45.53678" lon="5.92797">
        <ele>598.56</ele>
        <time>2011-05-22T10:58:58Z</time>
      </trkpt>
      <trkpt lat="45.53645" lon="5.92796">
        <ele>601.44</ele>
        <time>2011-05-22T10:59:13Z</time>
      </trkpt>
      <trkpt lat="45.5361" lon="5.92796">
        <ele>604.33</ele>
        <time>2011-05-22T10:59:28Z</time>
      </trkpt>
      <trkpt lat="45.53568" lon="5.92793">
        <ele>605.77</ele>
        <time>2011-05-22T10:59:45Z</time>
      </trkpt>
      <trkpt lat="45.53532" lon="5.92802">
        <ele>606.73</ele>
        <time>2011-05-22T10:59:58Z</time>
      </trkpt>
      <trkpt lat="45.5349" lon="5.92826">
        <ele>608.17</ele>
        <time>2011-05-22T11:00:11Z</time>
      </trkpt>
      <trkpt lat="45.53433" lon="5.92831">
        <ele>608.65</ele>
        <time>2011-05-22T11:00:26Z</time>
      </trkpt>
      <trkpt lat="45.53379" lon="5.92847">
        <ele>607.69</ele>
        <time>2011-05-22T11:00:39Z</time>
      </trkpt>
      <trkpt lat="45.53373" lon="5.92847">
        <ele>607.21</ele>
        <time>2011-05-22T11:00:40Z</time>
      </trkpt>
      <trkpt lat="45.53299" lon="5.9286">
        <ele>608.17</ele>
        <time>2011-05-22T11:00:54Z</time>
      </trkpt>
      <trkpt lat="45.53268" lon="5.92863">
        <ele>609.13</ele>
        <time>2011-05-22T11:01:02Z</time>
      </trkpt>
      <trkpt lat="45.53256" lon="5.92863">
        <ele>609.13</ele>
        <time>2011-05-22T11:01:05Z</time>
      </trkpt>
      <trkpt lat="45.53178" lon="5.92846">
        <ele>608.17</ele>
        <time>2011-05-22T11:01:21Z</time>
      </trkpt>
      <trkpt lat="45.53153" lon="5.92839">
        <ele>607.69</ele>
        <time>2011-05-22T11:01:26Z</time>
      </trkpt>
      <trkpt lat="45.53148" lon="5.92837">
        <ele>607.69</ele>
        <time>2011-05-22T11:01:27Z</time>
      </trkpt>
      <trkpt lat="45.5313" lon="5.92825">
        <ele>607.21</ele>
        <time>2011-05-22T11:01:31Z</time>
      </trkpt>
      <trkpt lat="45.5305" lon="5.92772">
        <ele>608.17</ele>
        <time>2011-05-22T11:01:48Z</time>
      </trkpt>
      <trkpt lat="45.52985" lon="5.9273">
        <ele>609.13</ele>
        <time>2011-05-22T11:02:04Z</time>
      </trkpt>
      <trkpt lat="45.52937" lon="5.92709">
        <ele>611.54</ele>
        <time>2011-05-22T11:02:18Z</time>
      </trkpt>
      <trkpt lat="45.52894" lon="5.92693">
        <ele>613.94</ele>
        <time>2011-05-22T11:02:33Z</time>
      </trkpt>
      <trkpt lat="45.5285" lon="5.92683">
        <ele>615.86</ele>
        <time>2011-05-22T11:02:50Z</time>
      </trkpt>
      <trkpt lat="45.52819" lon="5.92659">
        <ele>617.78</ele>
        <time>2011-05-22T11:03:04Z</time>
      </trkpt>
      <trkpt lat="45.52773" lon="5.92637">
        <ele>620.67</ele>
        <time>2011-05-22T11:03:22Z</time>
      </trkpt>
      <trkpt lat="45.52733" lon="5.9262">
        <ele>622.59</ele>
        <time>2011-05-22T11:03:36Z</time>
      </trkpt>
      <trkpt lat="45.52692" lon="5.92594">
        <ele>625.47</ele>
        <time>2011-05-22T11:03:53Z</time>
      </trkpt>
      <trkpt lat="45.52658" lon="5.92581">
        <ele>628.84</ele>
        <time>2011-05-22T11:04:09Z</time>
      </trkpt>
      <trkpt lat="45.5263" lon="5.92568">
        <ele>632.2</ele>
        <time>2011-05-22T11:04:24Z</time>
      </trkpt>
      <trkpt lat="45.52598" lon="5.92557">
        <ele>634.61</ele>
        <time>2011-05-22T11:04:40Z</time>
      </trkpt>
      <trkpt lat="45.52572" lon="5.92554">
        <ele>636.05</ele>
        <time>2011-05-22T11:04:52Z</time>
      </trkpt>
      <trkpt lat="45.52534" lon="5.92548">
        <ele>638.93</ele>
        <time>2011-05-22T11:05:10Z</time>
      </trkpt>
      <trkpt lat="45.52507" lon="5.92542">
        <ele>641.82</ele>
        <time>2011-05-22T11:05:24Z</time>
      </trkpt>
      <trkpt lat="45.5248" lon="5.92533">
        <ele>644.7</ele>
        <time>2011-05-22T11:05:39Z</time>
      </trkpt>
      <trkpt lat="45.52451" lon="5.92526">
        <ele>647.1</ele>
        <time>2011-05-22T11:05:54Z</time>
      </trkpt>
      <trkpt lat="45.5242" lon="5.92527">
        <ele>650.47</ele>
        <time>2011-05-22T11:06:09Z</time>
      </trkpt>
      <trkpt lat="45.52384" lon="5.92528">
        <ele>651.91</ele>
        <time>2011-05-22T11:06:24Z</time>
      </trkpt>
      <trkpt lat="45.52325" lon="5.92524">
        <ele>652.87</ele>
        <time>2011-05-22T11:06:42Z</time>
      </trkpt>
      <trkpt lat="45.52283" lon="5.92521">
        <ele>655.76</ele>
        <time>2011-05-22T11:06:56Z</time>
      </trkpt>
      <trkpt lat="45.52242" lon="5.92515">
        <ele>657.2</ele>
        <time>2011-05-22T11:07:12Z</time>
      </trkpt>
      <trkpt lat="45.52215" lon="5.92477">
        <ele>658.16</ele>
        <time>2011-05-22T11:07:25Z</time>
      </trkpt>
      <trkpt lat="45.52195" lon="5.92444">
        <ele>660.56</ele>
        <time>2011-05-22T11:07:38Z</time>
      </trkpt>
      <trkpt lat="45.52177" lon="5.92423">
        <ele>663.93</ele>
        <time>2011-05-22T11:07:51Z</time>
      </trkpt>
      <trkpt lat="45.52156" lon="5.92405">
        <ele>666.81</ele>
        <time>2011-05-22T11:08:05Z</time>
      </trkpt>
      <trkpt lat="45.52132" lon="5.92394">
        <ele>669.22</ele>
        <time>2011-05-22T11:08:20Z</time>
      </trkpt>
      <trkpt lat="45.52111" lon="5.92388">
        <ele>672.1</ele>
        <time>2011-05-22T11:08:34Z</time>
      </trkpt>
      <trkpt lat="45.52094" lon="5.92386">
        <ele>674.98</ele>
        <time>2011-05-22T11:08:45Z</time>
      </trkpt>
      <trkpt lat="45.52092" lon="5.92387">
        <ele>675.46</ele>
        <time>2011-05-22T11:08:46Z</time>
      </trkpt>
      <trkpt lat="45.5209" lon="5.92387">
        <ele>674.98</ele>
        <time>2011-05-22T11:08:47Z</time>
      </trkpt>
      <trkpt lat="45.52088" lon="5.92388">
        <ele>674.98</ele>
        <time>2011-05-22T11:08:48Z</time>
      </trkpt>
      <trkpt lat="45.52086" lon="5.92388">
        <ele>675.46</ele>
        <time>2011-05-22T11:08:49Z</time>
      </trkpt>
      <trkpt lat="45.52085" lon="5.92387">
        <ele>675.94</ele>
        <time>2011-05-22T11:08:50Z</time>
      </trkpt>
      <trkpt lat="45.52084" lon="5.92386">
        <ele>675.94</ele>
        <time>2011-05-22T11:08:51Z</time>
      </trkpt>
      <trkpt lat="45.52082" lon="5.92385">
        <ele>675.94</ele>
        <time>2011-05-22T11:08:52Z</time>
      </trkpt>
      <trkpt lat="45.52081" lon="5.92385">
        <ele>675.94</ele>
        <time>2011-05-22T11:08:53Z</time>
      </trkpt>
      <trkpt lat="45.52057" lon="5.92383">
        <ele>678.83</ele>
        <time>2011-05-22T11:09:08Z</time>
      </trkpt>
      <trkpt lat="45.52047" lon="5.92381">
        <ele>679.79</ele>
        <time>2011-05-22T11:09:14Z</time>
      </trkpt>
      <trkpt lat="45.52045" lon="5.92381">
        <ele>680.27</ele>
        <time>2011-05-22T11:09:15Z</time>
      </trkpt>
      <trkpt lat="45.52044" lon="5.92381">
        <ele>680.27</ele>
        <time>2011-05-22T11:09:16Z</time>
      </trkpt>
      <trkpt lat="45.52042" lon="5.92382">
        <ele>680.27</ele>
        <time>2011-05-22T11:09:17Z</time>
      </trkpt>
      <trkpt lat="45.5204" lon="5.92381">
        <ele>680.75</ele>
        <time>2011-05-22T11:09:18Z</time>
      </trkpt>
      <trkpt lat="45.52038" lon="5.92381">
        <ele>680.75</ele>
        <time>2011-05-22T11:09:19Z</time>
      </trkpt>
      <trkpt lat="45.52036" lon="5.92381">
        <ele>680.75</ele>
        <time>2011-05-22T11:09:20Z</time>
      </trkpt>
      <trkpt lat="45.52023" lon="5.92384">
        <ele>682.67</ele>
        <time>2011-05-22T11:09:28Z</time>
      </trkpt>
      <trkpt lat="45.52022" lon="5.92382">
        <ele>682.19</ele>
        <time>2011-05-22T11:09:29Z</time>
      </trkpt>
      <trkpt lat="45.5202" lon="5.92381">
        <ele>682.67</ele>
        <time>2011-05-22T11:09:30Z</time>
      </trkpt>
      <trkpt lat="45.52018" lon="5.9238">
        <ele>683.15</ele>
        <time>2011-05-22T11:09:31Z</time>
      </trkpt>
      <trkpt lat="45.52015" lon="5.9238">
        <ele>683.15</ele>
        <time>2011-05-22T11:09:32Z</time>
      </trkpt>
      <trkpt lat="45.52013" lon="5.9238">
        <ele>683.63</ele>
        <time>2011-05-22T11:09:33Z</time>
      </trkpt>
      <trkpt lat="45.52012" lon="5.9238">
        <ele>683.63</ele>
        <time>2011-05-22T11:09:34Z</time>
      </trkpt>
      <trkpt lat="45.51984" lon="5.92376">
        <ele>686.52</ele>
        <time>2011-05-22T11:09:49Z</time>
      </trkpt>
      <trkpt lat="45.51959" lon="5.92375">
        <ele>688.44</ele>
        <time>2011-05-22T11:10:02Z</time>
      </trkpt>
      <trkpt lat="45.51926" lon="5.92379">
        <ele>689.88</ele>
        <time>2011-05-22T11:10:17Z</time>
      </trkpt>
      <trkpt lat="45.51897" lon="5.92394">
        <ele>693.25</ele>
        <time>2011-05-22T11:10:32Z</time>
      </trkpt>
      <trkpt lat="45.51866" lon="5.92401">
        <ele>694.69</ele>
        <time>2011-05-22T11:10:46Z</time>
      </trkpt>
      <trkpt lat="45.51831" lon="5.92402">
        <ele>697.09</ele>
        <time>2011-05-22T11:11:01Z</time>
      </trkpt>
      <trkpt lat="45.51801" lon="5.92407">
        <ele>699.98</ele>
        <time>2011-05-22T11:11:15Z</time>
      </trkpt>
      <trkpt lat="45.51762" lon="5.92401">
        <ele>700.46</ele>
        <time>2011-05-22T11:11:29Z</time>
      </trkpt>
      <trkpt lat="45.51722" lon="5.92385">
        <ele>703.82</ele>
        <time>2011-05-22T11:11:44Z</time>
      </trkpt>
      <trkpt lat="45.51685" lon="5.92355">
        <ele>702.86</ele>
        <time>2011-05-22T11:11:56Z</time>
      </trkpt>
      <trkpt lat="45.51634" lon="5.92305">
        <ele>703.34</ele>
        <time>2011-05-22T11:12:11Z</time>
      </trkpt>
      <trkpt lat="45.51613" lon="5.92279">
        <ele>702.38</ele>
        <time>2011-05-22T11:12:17Z</time>
      </trkpt>
      <trkpt lat="45.51587" lon="5.92239">
        <ele>701.9</ele>
        <time>2011-05-22T11:12:25Z</time>
      </trkpt>
      <trkpt lat="45.51582" lon="5.92234">
        <ele>701.9</ele>
        <time>2011-05-22T11:12:26Z</time>
      </trkpt>
      <trkpt lat="45.51529" lon="5.92189">
        <ele>702.38</ele>
        <time>2011-05-22T11:12:40Z</time>
      </trkpt>
      <trkpt lat="45.51497" lon="5.92178">
        <ele>704.78</ele>
        <time>2011-05-22T11:12:51Z</time>
      </trkpt>
      <trkpt lat="45.51468" lon="5.92166">
        <ele>706.71</ele>
        <time>2011-05-22T11:13:03Z</time>
      </trkpt>
      <trkpt lat="45.51449" lon="5.92125">
        <ele>709.11</ele>
        <time>2011-05-22T11:13:16Z</time>
      </trkpt>
      <trkpt lat="45.51437" lon="5.92076">
        <ele>711.51</ele>
        <time>2011-05-22T11:13:29Z</time>
      </trkpt>
      <trkpt lat="45.51407" lon="5.92039">
        <ele>711.51</ele>
        <time>2011-05-22T11:13:43Z</time>
      </trkpt>
      <trkpt lat="45.51387" lon="5.92015">
        <ele>709.11</ele>
        <time>2011-05-22T11:13:49Z</time>
      </trkpt>
      <trkpt lat="45.51369" lon="5.91982">
        <ele>707.67</ele>
        <time>2011-05-22T11:13:53Z</time>
      </trkpt>
      <trkpt lat="45.51333" lon="5.91903">
        <ele>703.82</ele>
        <time>2011-05-22T11:14:02Z</time>
      </trkpt>
      <trkpt lat="45.5133" lon="5.91892">
        <ele>703.82</ele>
        <time>2011-05-22T11:14:03Z</time>
      </trkpt>
      <trkpt lat="45.51317" lon="5.91832">
        <ele>699.98</ele>
        <time>2011-05-22T11:14:08Z</time>
      </trkpt>
      <trkpt lat="45.51309" lon="5.91772">
        <ele>699.5</ele>
        <time>2011-05-22T11:14:13Z</time>
      </trkpt>
      <trkpt lat="45.51306" lon="5.91762">
        <ele>699.5</ele>
        <time>2011-05-22T11:14:14Z</time>
      </trkpt>
      <trkpt lat="45.51302" lon="5.91752">
        <ele>699.98</ele>
        <time>2011-05-22T11:14:15Z</time>
      </trkpt>
      <trkpt lat="45.51298" lon="5.91742">
        <ele>699.02</ele>
        <time>2011-05-22T11:14:16Z</time>
      </trkpt>
      <trkpt lat="45.51294" lon="5.91732">
        <ele>698.53</ele>
        <time>2011-05-22T11:14:17Z</time>
      </trkpt>
      <trkpt lat="45.5129" lon="5.91721">
        <ele>697.57</ele>
        <time>2011-05-22T11:14:18Z</time>
      </trkpt>
      <trkpt lat="45.51275" lon="5.9168">
        <ele>696.61</ele>
        <time>2011-05-22T11:14:22Z</time>
      </trkpt>
      <trkpt lat="45.5127" lon="5.91671">
        <ele>696.61</ele>
        <time>2011-05-22T11:14:23Z</time>
      </trkpt>
      <trkpt lat="45.51252" lon="5.91647">
        <ele>695.17</ele>
        <time>2011-05-22T11:14:26Z</time>
      </trkpt>
      <trkpt lat="45.51249" lon="5.91637">
        <ele>694.69</ele>
        <time>2011-05-22T11:14:27Z</time>
      </trkpt>
      <trkpt lat="45.51247" lon="5.91626">
        <ele>694.69</ele>
        <time>2011-05-22T11:14:28Z</time>
      </trkpt>
      <trkpt lat="45.51247" lon="5.91615">
        <ele>694.69</ele>
        <time>2011-05-22T11:14:29Z</time>
      </trkpt>
      <trkpt lat="45.51249" lon="5.91604">
        <ele>694.69</ele>
        <time>2011-05-22T11:14:30Z</time>
      </trkpt>
      <trkpt lat="45.51253" lon="5.91596">
        <ele>694.21</ele>
        <time>2011-05-22T11:14:31Z</time>
      </trkpt>
      <trkpt lat="45.51259" lon="5.91591">
        <ele>693.73</ele>
        <time>2011-05-22T11:14:32Z</time>
      </trkpt>
      <trkpt lat="45.51267" lon="5.91588">
        <ele>693.73</ele>
        <time>2011-05-22T11:14:33Z</time>
      </trkpt>
      <trkpt lat="45.51275" lon="5.91588">
        <ele>694.21</ele>
        <time>2011-05-22T11:14:34Z</time>
      </trkpt>
      <trkpt lat="45.51283" lon="5.9159">
        <ele>694.21</ele>
        <time>2011-05-22T11:14:35Z</time>
      </trkpt>
      <trkpt lat="45.51291" lon="5.91592">
        <ele>693.73</ele>
        <time>2011-05-22T11:14:36Z</time>
      </trkpt>
      <trkpt lat="45.51366" lon="5.91613">
        <ele>690.84</ele>
        <time>2011-05-22T11:14:45Z</time>
      </trkpt>
      <trkpt lat="45.51374" lon="5.91616">
        <ele>690.84</ele>
        <time>2011-05-22T11:14:46Z</time>
      </trkpt>
      <trkpt lat="45.51435" lon="5.91654">
        <ele>687.48</ele>
        <time>2011-05-22T11:14:54Z</time>
      </trkpt>
      <trkpt lat="45.51442" lon="5.91658">
        <ele>687</ele>
        <time>2011-05-22T11:14:55Z</time>
      </trkpt>
      <trkpt lat="45.5145" lon="5.91662">
        <ele>687.48</ele>
        <time>2011-05-22T11:14:56Z</time>
      </trkpt>
      <trkpt lat="45.51457" lon="5.91663">
        <ele>687</ele>
        <time>2011-05-22T11:14:57Z</time>
      </trkpt>
      <trkpt lat="45.51465" lon="5.91662">
        <ele>686.52</ele>
        <time>2011-05-22T11:14:58Z</time>
      </trkpt>
      <trkpt lat="45.51473" lon="5.91658">
        <ele>686.52</ele>
        <time>2011-05-22T11:14:59Z</time>
      </trkpt>
      <trkpt lat="45.5148" lon="5.91653">
        <ele>686.04</ele>
        <time>2011-05-22T11:15:00Z</time>
      </trkpt>
      <trkpt lat="45.51487" lon="5.91647">
        <ele>685.08</ele>
        <time>2011-05-22T11:15:01Z</time>
      </trkpt>
      <trkpt lat="45.51494" lon="5.9164">
        <ele>684.6</ele>
        <time>2011-05-22T11:15:02Z</time>
      </trkpt>
      <trkpt lat="45.51515" lon="5.91623">
        <ele>684.12</ele>
        <time>2011-05-22T11:15:05Z</time>
      </trkpt>
      <trkpt lat="45.51523" lon="5.9162">
        <ele>683.63</ele>
        <time>2011-05-22T11:15:06Z</time>
      </trkpt>
      <trkpt lat="45.51531" lon="5.91618">
        <ele>683.15</ele>
        <time>2011-05-22T11:15:07Z</time>
      </trkpt>
      <trkpt lat="45.51556" lon="5.91616">
        <ele>682.19</ele>
        <time>2011-05-22T11:15:10Z</time>
      </trkpt>
      <trkpt lat="45.51566" lon="5.91616">
        <ele>682.19</ele>
        <time>2011-05-22T11:15:11Z</time>
      </trkpt>
      <trkpt lat="45.51592" lon="5.91619">
        <ele>680.27</ele>
        <time>2011-05-22T11:15:14Z</time>
      </trkpt>
      <trkpt lat="45.51651" lon="5.91622">
        <ele>677.39</ele>
        <time>2011-05-22T11:15:21Z</time>
      </trkpt>
      <trkpt lat="45.51669" lon="5.91618">
        <ele>676.42</ele>
        <time>2011-05-22T11:15:23Z</time>
      </trkpt>
      <trkpt lat="45.51686" lon="5.91613">
        <ele>674.98</ele>
        <time>2011-05-22T11:15:25Z</time>
      </trkpt>
      <trkpt lat="45.51738" lon="5.91599">
        <ele>672.1</ele>
        <time>2011-05-22T11:15:31Z</time>
      </trkpt>
      <trkpt lat="45.51779" lon="5.91574">
        <ele>670.66</ele>
        <time>2011-05-22T11:15:36Z</time>
      </trkpt>
      <trkpt lat="45.51836" lon="5.91539">
        <ele>667.29</ele>
        <time>2011-05-22T11:15:43Z</time>
      </trkpt>
      <trkpt lat="45.51844" lon="5.91537">
        <ele>667.29</ele>
        <time>2011-05-22T11:15:44Z</time>
      </trkpt>
      <trkpt lat="45.51899" lon="5.91524">
        <ele>664.89</ele>
        <time>2011-05-22T11:15:51Z</time>
      </trkpt>
      <trkpt lat="45.51945" lon="5.91515">
        <ele>661.52</ele>
        <time>2011-05-22T11:15:57Z</time>
      </trkpt>
      <trkpt lat="45.51952" lon="5.91513">
        <ele>661.52</ele>
        <time>2011-05-22T11:15:58Z</time>
      </trkpt>
      <trkpt lat="45.52013" lon="5.91507">
        <ele>657.68</ele>
        <time>2011-05-22T11:16:06Z</time>
      </trkpt>
      <trkpt lat="45.52094" lon="5.91497">
        <ele>654.8</ele>
        <time>2011-05-22T11:16:16Z</time>
      </trkpt>
      <trkpt lat="45.52102" lon="5.91493">
        <ele>654.31</ele>
        <time>2011-05-22T11:16:17Z</time>
      </trkpt>
      <trkpt lat="45.52109" lon="5.91486">
        <ele>653.35</ele>
        <time>2011-05-22T11:16:18Z</time>
      </trkpt>
      <trkpt lat="45.52116" lon="5.9148">
        <ele>652.87</ele>
        <time>2011-05-22T11:16:19Z</time>
      </trkpt>
      <trkpt lat="45.52124" lon="5.91474">
        <ele>652.87</ele>
        <time>2011-05-22T11:16:20Z</time>
      </trkpt>
      <trkpt lat="45.52132" lon="5.9147">
        <ele>652.87</ele>
        <time>2011-05-22T11:16:21Z</time>
      </trkpt>
      <trkpt lat="45.52161" lon="5.91456">
        <ele>652.39</ele>
        <time>2011-05-22T11:16:25Z</time>
      </trkpt>
      <trkpt lat="45.52168" lon="5.91455">
        <ele>652.39</ele>
        <time>2011-05-22T11:16:26Z</time>
      </trkpt>
      <trkpt lat="45.52175" lon="5.91456">
        <ele>652.39</ele>
        <time>2011-05-22T11:16:27Z</time>
      </trkpt>
      <trkpt lat="45.5219" lon="5.91458">
        <ele>651.43</ele>
        <time>2011-05-22T11:16:29Z</time>
      </trkpt>
      <trkpt lat="45.52198" lon="5.91457">
        <ele>650.95</ele>
        <time>2011-05-22T11:16:30Z</time>
      </trkpt>
      <trkpt lat="45.52205" lon="5.91453">
        <ele>649.99</ele>
        <time>2011-05-22T11:16:31Z</time>
      </trkpt>
      <trkpt lat="45.52212" lon="5.91447">
        <ele>649.99</ele>
        <time>2011-05-22T11:16:32Z</time>
      </trkpt>
      <trkpt lat="45.52218" lon="5.91441">
        <ele>649.51</ele>
        <time>2011-05-22T11:16:33Z</time>
      </trkpt>
      <trkpt lat="45.52224" lon="5.91433">
        <ele>649.03</ele>
        <time>2011-05-22T11:16:34Z</time>
      </trkpt>
      <trkpt lat="45.52237" lon="5.91412">
        <ele>650.47</ele>
        <time>2011-05-22T11:16:37Z</time>
      </trkpt>
      <trkpt lat="45.52239" lon="5.91406">
        <ele>650.47</ele>
        <time>2011-05-22T11:16:38Z</time>
      </trkpt>
      <trkpt lat="45.52241" lon="5.91399">
        <ele>650.47</ele>
        <time>2011-05-22T11:16:39Z</time>
      </trkpt>
      <trkpt lat="45.52242" lon="5.91394">
        <ele>650.47</ele>
        <time>2011-05-22T11:16:40Z</time>
      </trkpt>
      <trkpt lat="45.52243" lon="5.91389">
        <ele>651.91</ele>
        <time>2011-05-22T11:16:41Z</time>
      </trkpt>
      <trkpt lat="45.52245" lon="5.91386">
        <ele>651.91</ele>
        <time>2011-05-22T11:16:42Z</time>
      </trkpt>
      <trkpt lat="45.52246" lon="5.91383">
        <ele>652.39</ele>
        <time>2011-05-22T11:16:43Z</time>
      </trkpt>
      <trkpt lat="45.52259" lon="5.91352">
        <ele>654.8</ele>
        <time>2011-05-22T11:16:56Z</time>
      </trkpt>
      <trkpt lat="45.52277" lon="5.91338">
        <ele>658.16</ele>
        <time>2011-05-22T11:17:07Z</time>
      </trkpt>
      <trkpt lat="45.52278" lon="5.91337">
        <ele>657.68</ele>
        <time>2011-05-22T11:17:08Z</time>
      </trkpt>
      <trkpt lat="45.5228" lon="5.91336">
        <ele>657.68</ele>
        <time>2011-05-22T11:17:09Z</time>
      </trkpt>
      <trkpt lat="45.52281" lon="5.91336">
        <ele>658.16</ele>
        <time>2011-05-22T11:17:10Z</time>
      </trkpt>
      <trkpt lat="45.52282" lon="5.91336">
        <ele>658.16</ele>
        <time>2011-05-22T11:17:11Z</time>
      </trkpt>
      <trkpt lat="45.52283" lon="5.91335">
        <ele>658.16</ele>
        <time>2011-05-22T11:17:12Z</time>
      </trkpt>
      <trkpt lat="45.52305" lon="5.91328">
        <ele>659.6</ele>
        <time>2011-05-22T11:17:25Z</time>
      </trkpt>
      <trkpt lat="45.52326" lon="5.91304">
        <ele>661.04</ele>
        <time>2011-05-22T11:17:38Z</time>
      </trkpt>
      <trkpt lat="45.52343" lon="5.91258">
        <ele>662.97</ele>
        <time>2011-05-22T11:17:54Z</time>
      </trkpt>
      <trkpt lat="45.52343" lon="5.91255">
        <ele>662.97</ele>
        <time>2011-05-22T11:17:55Z</time>
      </trkpt>
      <trkpt lat="45.52342" lon="5.91252">
        <ele>662.97</ele>
        <time>2011-05-22T11:17:56Z</time>
      </trkpt>
      <trkpt lat="45.52341" lon="5.91249">
        <ele>663.45</ele>
        <time>2011-05-22T11:17:57Z</time>
      </trkpt>
      <trkpt lat="45.5234" lon="5.91247">
        <ele>663.45</ele>
        <time>2011-05-22T11:17:58Z</time>
      </trkpt>
      <trkpt lat="45.52339" lon="5.91245">
        <ele>663.93</ele>
        <time>2011-05-22T11:17:59Z</time>
      </trkpt>
      <trkpt lat="45.52338" lon="5.91243">
        <ele>663.93</ele>
        <time>2011-05-22T11:18:00Z</time>
      </trkpt>
      <trkpt lat="45.52337" lon="5.91241">
        <ele>664.41</ele>
        <time>2011-05-22T11:18:01Z</time>
      </trkpt>
      <trkpt lat="45.52336" lon="5.91239">
        <ele>663.93</ele>
        <time>2011-05-22T11:18:02Z</time>
      </trkpt>
      <trkpt lat="45.52334" lon="5.91237">
        <ele>664.41</ele>
        <time>2011-05-22T11:18:03Z</time>
      </trkpt>
      <trkpt lat="45.52333" lon="5.91235">
        <ele>664.41</ele>
        <time>2011-05-22T11:18:04Z</time>
      </trkpt>
      <trkpt lat="45.52332" lon="5.91233">
        <ele>664.41</ele>
        <time>2011-05-22T11:18:05Z</time>
      </trkpt>
      <trkpt lat="45.5233" lon="5.91231">
        <ele>664.41</ele>
        <time>2011-05-22T11:18:06Z</time>
      </trkpt>
      <trkpt lat="45.52329" lon="5.91229">
        <ele>664.89</ele>
        <time>2011-05-22T11:18:07Z</time>
      </trkpt>
      <trkpt lat="45.52321" lon="5.91214">
        <ele>666.33</ele>
        <time>2011-05-22T11:18:15Z</time>
      </trkpt>
      <trkpt lat="45.52319" lon="5.91213">
        <ele>666.81</ele>
        <time>2011-05-22T11:18:16Z</time>
      </trkpt>
      <trkpt lat="45.52318" lon="5.91213">
        <ele>666.81</ele>
        <time>2011-05-22T11:18:17Z</time>
      </trkpt>
      <trkpt lat="45.52316" lon="5.91214">
        <ele>666.81</ele>
        <time>2011-05-22T11:18:18Z</time>
      </trkpt>
      <trkpt lat="45.52315" lon="5.91214">
        <ele>667.77</ele>
        <time>2011-05-22T11:18:19Z</time>
      </trkpt>
      <trkpt lat="45.52314" lon="5.91215">
        <ele>667.77</ele>
        <time>2011-05-22T11:18:20Z</time>
      </trkpt>
      <trkpt lat="45.52312" lon="5.91216">
        <ele>667.77</ele>
        <time>2011-05-22T11:18:21Z</time>
      </trkpt>
      <trkpt lat="45.52311" lon="5.91217">
        <ele>668.25</ele>
        <time>2011-05-22T11:18:22Z</time>
      </trkpt>
      <trkpt lat="45.5231" lon="5.91219">
        <ele>668.25</ele>
        <time>2011-05-22T11:18:23Z</time>
      </trkpt>
      <trkpt lat="45.52309" lon="5.91221">
        <ele>668.73</ele>
        <time>2011-05-22T11:18:24Z</time>
      </trkpt>
      <trkpt lat="45.52309" lon="5.91223">
        <ele>668.73</ele>
        <time>2011-05-22T11:18:25Z</time>
      </trkpt>
      <trkpt lat="45.52308" lon="5.91225">
        <ele>669.22</ele>
        <time>2011-05-22T11:18:26Z</time>
      </trkpt>
      <trkpt lat="45.52307" lon="5.91226">
        <ele>669.22</ele>
        <time>2011-05-22T11:18:27Z</time>
      </trkpt>
      <trkpt lat="45.52306" lon="5.91226">
        <ele>669.22</ele>
        <time>2011-05-22T11:18:28Z</time>
      </trkpt>
      <trkpt lat="45.52305" lon="5.91227">
        <ele>670.18</ele>
        <time>2011-05-22T11:18:29Z</time>
      </trkpt>
      <trkpt lat="45.52289" lon="5.91217">
        <ele>673.06</ele>
        <time>2011-05-22T11:18:44Z</time>
      </trkpt>
      <trkpt lat="45.52285" lon="5.91192">
        <ele>675.46</ele>
        <time>2011-05-22T11:18:57Z</time>
      </trkpt>
      <trkpt lat="45.52285" lon="5.9119">
        <ele>675.94</ele>
        <time>2011-05-22T11:18:58Z</time>
      </trkpt>
      <trkpt lat="45.52285" lon="5.91188">
        <ele>675.94</ele>
        <time>2011-05-22T11:18:59Z</time>
      </trkpt>
      <trkpt lat="45.52284" lon="5.91183">
        <ele>676.42</ele>
        <time>2011-05-22T11:19:01Z</time>
      </trkpt>
      <trkpt lat="45.52283" lon="5.91181">
        <ele>676.91</ele>
        <time>2011-05-22T11:19:02Z</time>
      </trkpt>
      <trkpt lat="45.52282" lon="5.91179">
        <ele>676.91</ele>
        <time>2011-05-22T11:19:03Z</time>
      </trkpt>
      <trkpt lat="45.52281" lon="5.91177">
        <ele>676.91</ele>
        <time>2011-05-22T11:19:04Z</time>
      </trkpt>
      <trkpt lat="45.52281" lon="5.91175">
        <ele>676.91</ele>
        <time>2011-05-22T11:19:05Z</time>
      </trkpt>
      <trkpt lat="45.52281" lon="5.91173">
        <ele>677.39</ele>
        <time>2011-05-22T11:19:06Z</time>
      </trkpt>
      <trkpt lat="45.52279" lon="5.91141">
        <ele>679.79</ele>
        <time>2011-05-22T11:19:21Z</time>
      </trkpt>
      <trkpt lat="45.5228" lon="5.91109">
        <ele>682.19</ele>
        <time>2011-05-22T11:19:35Z</time>
      </trkpt>
      <trkpt lat="45.52287" lon="5.91085">
        <ele>684.12</ele>
        <time>2011-05-22T11:19:47Z</time>
      </trkpt>
      <trkpt lat="45.52305" lon="5.91061">
        <ele>687</ele>
        <time>2011-05-22T11:20:03Z</time>
      </trkpt>
      <trkpt lat="45.52323" lon="5.91028">
        <ele>689.88</ele>
        <time>2011-05-22T11:20:20Z</time>
      </trkpt>
      <trkpt lat="45.52324" lon="5.91024">
        <ele>690.36</ele>
        <time>2011-05-22T11:20:22Z</time>
      </trkpt>
      <trkpt lat="45.52325" lon="5.91022">
        <ele>690.36</ele>
        <time>2011-05-22T11:20:23Z</time>
      </trkpt>
      <trkpt lat="45.52325" lon="5.91019">
        <ele>690.84</ele>
        <time>2011-05-22T11:20:24Z</time>
      </trkpt>
      <trkpt lat="45.52326" lon="5.91018">
        <ele>690.84</ele>
        <time>2011-05-22T11:20:25Z</time>
      </trkpt>
      <trkpt lat="45.52328" lon="5.91017">
        <ele>690.84</ele>
        <time>2011-05-22T11:20:26Z</time>
      </trkpt>
      <trkpt lat="45.52329" lon="5.91017">
        <ele>691.33</ele>
        <time>2011-05-22T11:20:27Z</time>
      </trkpt>
      <trkpt lat="45.52354" lon="5.90997">
        <ele>694.21</ele>
        <time>2011-05-22T11:20:44Z</time>
      </trkpt>
      <trkpt lat="45.52363" lon="5.90991">
        <ele>695.65</ele>
        <time>2011-05-22T11:20:51Z</time>
      </trkpt>
      <trkpt lat="45.52365" lon="5.90991">
        <ele>695.17</ele>
        <time>2011-05-22T11:20:52Z</time>
      </trkpt>
      <trkpt lat="45.52366" lon="5.9099">
        <ele>695.65</ele>
        <time>2011-05-22T11:20:53Z</time>
      </trkpt>
      <trkpt lat="45.52367" lon="5.9099">
        <ele>695.65</ele>
        <time>2011-05-22T11:20:54Z</time>
      </trkpt>
      <trkpt lat="45.52368" lon="5.9099">
        <ele>695.65</ele>
        <time>2011-05-22T11:20:55Z</time>
      </trkpt>
      <trkpt lat="45.52369" lon="5.90989">
        <ele>695.65</ele>
        <time>2011-05-22T11:20:56Z</time>
      </trkpt>
      <trkpt lat="45.52371" lon="5.90989">
        <ele>696.13</ele>
        <time>2011-05-22T11:20:57Z</time>
      </trkpt>
      <trkpt lat="45.52372" lon="5.90988">
        <ele>696.61</ele>
        <time>2011-05-22T11:20:58Z</time>
      </trkpt>
      <trkpt lat="45.52373" lon="5.90987">
        <ele>697.09</ele>
        <time>2011-05-22T11:20:59Z</time>
      </trkpt>
      <trkpt lat="45.52374" lon="5.90986">
        <ele>696.61</ele>
        <time>2011-05-22T11:21:00Z</time>
      </trkpt>
      <trkpt lat="45.52375" lon="5.90984">
        <ele>697.09</ele>
        <time>2011-05-22T11:21:01Z</time>
      </trkpt>
      <trkpt lat="45.52378" lon="5.9098">
        <ele>697.57</ele>
        <time>2011-05-22T11:21:04Z</time>
      </trkpt>
      <trkpt lat="45.52378" lon="5.90979">
        <ele>698.53</ele>
        <time>2011-05-22T11:21:05Z</time>
      </trkpt>
      <trkpt lat="45.52378" lon="5.90976">
        <ele>698.05</ele>
        <time>2011-05-22T11:21:06Z</time>
      </trkpt>
      <trkpt lat="45.52377" lon="5.90974">
        <ele>698.53</ele>
        <time>2011-05-22T11:21:07Z</time>
      </trkpt>
      <trkpt lat="45.52377" lon="5.90972">
        <ele>698.53</ele>
        <time>2011-05-22T11:21:08Z</time>
      </trkpt>
      <trkpt lat="45.5237" lon="5.90956">
        <ele>701.9</ele>
        <time>2011-05-22T11:21:19Z</time>
      </trkpt>
      <trkpt lat="45.52365" lon="5.90949">
        <ele>702.38</ele>
        <time>2011-05-22T11:21:24Z</time>
      </trkpt>
      <trkpt lat="45.52364" lon="5.90949">
        <ele>702.86</ele>
        <time>2011-05-22T11:21:25Z</time>
      </trkpt>
      <trkpt lat="45.52364" lon="5.90948">
        <ele>703.34</ele>
        <time>2011-05-22T11:21:26Z</time>
      </trkpt>
      <trkpt lat="45.52363" lon="5.90946">
        <ele>703.34</ele>
        <time>2011-05-22T11:21:27Z</time>
      </trkpt>
      <trkpt lat="45.52362" lon="5.90944">
        <ele>703.82</ele>
        <time>2011-05-22T11:21:28Z</time>
      </trkpt>
      <trkpt lat="45.52361" lon="5.90943">
        <ele>703.34</ele>
        <time>2011-05-22T11:21:29Z</time>
      </trkpt>
      <trkpt lat="45.52361" lon="5.90942">
        <ele>704.3</ele>
        <time>2011-05-22T11:21:30Z</time>
      </trkpt>
      <trkpt lat="45.5236" lon="5.9094">
        <ele>704.3</ele>
        <time>2011-05-22T11:21:31Z</time>
      </trkpt>
      <trkpt lat="45.52359" lon="5.90938">
        <ele>704.3</ele>
        <time>2011-05-22T11:21:32Z</time>
      </trkpt>
      <trkpt lat="45.52357" lon="5.90932">
        <ele>705.26</ele>
        <time>2011-05-22T11:21:36Z</time>
      </trkpt>
      <trkpt lat="45.52356" lon="5.90931">
        <ele>705.26</ele>
        <time>2011-05-22T11:21:37Z</time>
      </trkpt>
      <trkpt lat="45.52355" lon="5.90929">
        <ele>705.75</ele>
        <time>2011-05-22T11:21:38Z</time>
      </trkpt>
      <trkpt lat="45.52354" lon="5.90928">
        <ele>706.23</ele>
        <time>2011-05-22T11:21:39Z</time>
      </trkpt>
      <trkpt lat="45.52353" lon="5.90926">
        <ele>706.23</ele>
        <time>2011-05-22T11:21:40Z</time>
      </trkpt>
      <trkpt lat="45.52353" lon="5.90924">
        <ele>706.71</ele>
        <time>2011-05-22T11:21:41Z</time>
      </trkpt>
      <trkpt lat="45.52352" lon="5.90922">
        <ele>706.71</ele>
        <time>2011-05-22T11:21:42Z</time>
      </trkpt>
      <trkpt lat="45.52351" lon="5.90921">
        <ele>707.19</ele>
        <time>2011-05-22T11:21:43Z</time>
      </trkpt>
      <trkpt lat="45.52345" lon="5.90912">
        <ele>708.15</ele>
        <time>2011-05-22T11:21:49Z</time>
      </trkpt>
      <trkpt lat="45.52334" lon="5.90881">
        <ele>711.03</ele>
        <time>2011-05-22T11:22:05Z</time>
      </trkpt>
      <trkpt lat="45.52325" lon="5.90856">
        <ele>714.4</ele>
        <time>2011-05-22T11:22:19Z</time>
      </trkpt>
      <trkpt lat="45.52315" lon="5.9083">
        <ele>716.8</ele>
        <time>2011-05-22T11:22:32Z</time>
      </trkpt>
      <trkpt lat="45.52334" lon="5.90805">
        <ele>717.28</ele>
        <time>2011-05-22T11:22:46Z</time>
      </trkpt>
      <trkpt lat="45.52329" lon="5.90785">
        <ele>718.24</ele>
        <time>2011-05-22T11:22:57Z</time>
      </trkpt>
      <trkpt lat="45.52327" lon="5.90787">
        <ele>718.72</ele>
        <time>2011-05-22T11:22:58Z</time>
      </trkpt>
      <trkpt lat="45.52321" lon="5.90807">
        <ele>718.72</ele>
        <time>2011-05-22T11:23:12Z</time>
      </trkpt>
      <trkpt lat="45.52316" lon="5.90812">
        <ele>718.24</ele>
        <time>2011-05-22T11:23:33Z</time>
      </trkpt>
      <trkpt lat="45.52316" lon="5.90812">
        <ele>718.24</ele>
        <time>2011-05-22T11:23:44Z</time>
      </trkpt>
      <trkpt lat="45.52309" lon="5.90815">
        <ele>719.68</ele>
        <time>2011-05-22T11:31:36Z</time>
      </trkpt>
      <trkpt lat="45.52309" lon="5.90815">
        <ele>718.72</ele>
        <time>2011-05-22T11:31:37Z</time>
      </trkpt>
      <trkpt lat="45.52311" lon="5.90805">
        <ele>718.72</ele>
        <time>2011-05-22T11:32:09Z</time>
      </trkpt>
      <trkpt lat="45.52313" lon="5.90804">
        <ele>718.72</ele>
        <time>2011-05-22T11:32:47Z</time>
      </trkpt>
      <trkpt lat="45.52312" lon="5.90804">
        <ele>715.36</ele>
        <time>2011-05-22T11:33:20Z</time>
      </trkpt>
      <trkpt lat="45.52312" lon="5.90804">
        <ele>715.36</ele>
        <time>2011-05-22T11:33:21Z</time>
      </trkpt>
      <trkpt lat="45.52312" lon="5.90804">
        <ele>718.72</ele>
        <time>2011-05-22T11:33:38Z</time>
      </trkpt>
      <trkpt lat="45.52312" lon="5.90804">
        <ele>718.24</ele>
        <time>2011-05-22T11:33:51Z</time>
      </trkpt>
    </trkseg>
  </trk>
</gpx>